# Wetter Temperatur Luftdruck Luftfeuchtigkeit Sichtweite Windgeschwindigkeit Windrichtung Zeit
1 Clear -6 1030 85 10000 0.98 246 22:24 24.01.2020
2 Clear -5 1029 73 10000 1.5 80 21:42 24.01.2020
3 Clear -5 1030 79 10000 0.98 246 21:20 24.01.2020
4 Clear -5 1029 73 10000 1 0 20:56 24.01.2020
5 Clear -5 1030 79 10000 0.5 0 20:37 24.01.2020
6 Clouds -5 1030 79 10000 0.5 0 20:18 24.01.2020
7 Clouds -4 1029 68 10000 1.5 290 19:55 24.01.2020
8 Clouds -4 1030 73 10000 0.69 229 19:37 24.01.2020
9 Clouds -4 1030 73 10000 0.69 229 19:19 24.01.2020
10 Clouds -3 1029 63 10000 2.1 280 18:43 24.01.2020
11 Clouds -3 1030 68 10000 2.1 270 18:23 24.01.2020
12 Clouds -2 1028 68 10000 0.5 0 17:46 24.01.2020
13 Clouds -2 1029 63 10000 1.5 210 17:23 24.01.2020
14 Clouds 0 1028 63 10000 2.1 260 16:58 24.01.2020
15 Clouds 0 1028 50 10000 2.6 250 16:39 24.01.2020
16 Clouds 0 1028 50 10000 2.6 250 16:19 24.01.2020
17 Clouds 1 1027 50 10000 2.1 250 15:42 24.01.2020
18 Clouds 1 1028 50 10000 2.6 250 15:22 24.01.2020
19 Clouds 1 1028 77 10000 2.6 230 14:55 24.01.2020
20 Clouds 1 1028 47 10000 2.1 270 14:37 24.01.2020
21 Clouds 1 1028 47 10000 2.1 270 14:19 24.01.2020
22 Clouds 1 1028 55 10000 3.1 250 13:41 24.01.2020
23 Clouds 2 1028 55 10000 3.1 250 13:22 24.01.2020
24 Clouds 2 1028 55 10000 3.1 250 13:22 24.01.2020
25 Clouds 0 1028 43 10000 2.1 270 12:44 24.01.2020
26 Snow 0 1030 59 8000 2.1 280 12:21 24.01.2020
27 Clouds 0 1029 59 10000 3.1 250 11:45 24.01.2020
28 Clouds 0 1028 58 10000 2.1 220 11:19 24.01.2020
29 Clouds 0 1028 58 10000 2.1 220 10:58 24.01.2020
30 Clouds 0 1029 50 10000 2.6 0 10:40 24.01.2020
31 Clouds 0 1029 50 10000 2.6 0 10:19 24.01.2020
32 Clouds 0 1029 50 10000 2.6 0 10:19 24.01.2020
33 Clouds -1 1028 54 10000 1.5 0 09:42 24.01.2020
34 Clouds -1 1029 63 10000 2.6 270 09:23 24.01.2020
35 Clouds -2 1028 58 10000 3.1 180 08:41 24.01.2020
36 Clouds -2 1029 68 10000 1.5 250 08:21 24.01.2020
37 Clouds -3 1027 68 10000 2.1 240 08:00 24.01.2020
38 Clouds -3 1028 73 10000 1 230 07:41 24.01.2020
39 Clouds -3 1028 73 10000 1 230 07:18 24.01.2020
40 Clouds -3 1027 73 10000 1.5 250 06:42 24.01.2020
41 Clouds -3 1027 73 10000 1.5 250 06:18 24.01.2020
42 Clouds -4 1026 68 10000 1.5 0 05:20 24.01.2020
43 Clouds -4 1024 73 10000 2.1 180 02:56 24.01.2020
44 Clouds -4 1024 73 10000 2.1 180 02:38 24.01.2020
45 Clouds -4 1025 73 10000 1 230 02:18 24.01.2020
46 Clouds -4 1025 85 10000 2.1 230 01:37 24.01.2020
47 Clouds -4 1025 79 10000 0.5 0 00:39 24.01.2020
48 Clouds -3 1024 73 10000 1 0 23:58 23.01.2020
49 Clouds -3 1024 73 10000 1 0 23:58 23.01.2020
50 Clouds -3 1025 73 10000 1.23 263 23:40 23.01.2020
51 Clouds -3 1025 73 10000 0.9 296 23:21 23.01.2020
52 Clouds -4 1024 68 10000 3.1 300 22:55 23.01.2020
53 Clouds -3 1025 68 10000 1 0 22:36 23.01.2020
54 Clouds -3 1025 68 10000 1 0 22:18 23.01.2020
55 Clouds -3 1024 68 10000 3.1 340 21:55 23.01.2020
56 Clouds -3 1024 63 10000 2.1 20 21:37 23.01.2020
57 Clouds -3 1024 63 10000 2.1 20 21:18 23.01.2020
58 Clouds -3 1024 63 10000 0.5 0 20:40 23.01.2020
59 Clouds -3 1024 63 10000 0.5 0 20:22 23.01.2020
60 Clouds -2 1022 73 10000 1.5 330 19:57 23.01.2020
61 Clouds -2 1023 58 10000 1 0 19:39 23.01.2020
62 Clouds -2 1023 58 10000 1 0 19:20 23.01.2020
63 Clouds -1 1021 68 10000 4.6 340 18:56 23.01.2020
64 Clouds -1 1022 63 10000 1.5 190 18:37 23.01.2020
65 Clouds -1 1022 63 10000 1.5 190 18:19 23.01.2020
66 Clouds 0 1021 63 10000 5.7 320 17:44 23.01.2020
67 Clouds -1 1021 70 10000 7.2 360 17:21 23.01.2020
68 Clouds 0 1020 58 10000 6.2 350 16:58 23.01.2020
69 Clouds 0 1020 50 10000 3.6 30 16:38 23.01.2020
70 Clouds 0 1020 50 10000 3.6 30 16:19 23.01.2020
71 Clouds 1 1019 47 10000 6.2 320 15:57 23.01.2020
72 Clouds 1 1019 55 10000 5.7 310 15:38 23.01.2020
73 Clouds 1 1019 55 10000 5.7 310 15:19 23.01.2020
74 Snow 2 1018 64 8000 8.2 350 14:57 23.01.2020
75 Snow 2 1018 64 8000 8.2 350 14:39 23.01.2020
76 Clouds 2 1020 69 10000 7.2 290 14:21 23.01.2020
77 Snow 3 1019 64 8000 6.7 280 13:45 23.01.2020
78 Clouds 3 1018 55 10000 5.7 260 13:21 23.01.2020
79 Clouds 3 1018 55 10000 5.7 260 13:21 23.01.2020
80 Clouds 3 1017 51 10000 6.2 280 12:56 23.01.2020
81 Clouds 3 1018 55 10000 5.7 270 12:38 23.01.2020
82 Clouds 3 1018 55 10000 5.7 270 12:20 23.01.2020
83 Clouds 1 1017 51 10000 5.1 270 11:43 23.01.2020
84 Clouds 1 1019 59 10000 4.1 270 11:24 23.01.2020
85 Clouds 0 1017 59 10000 4.6 250 10:58 23.01.2020
86 Clouds -1 1019 63 10000 3.6 250 10:40 23.01.2020
87 Clouds -1 1019 63 10000 3.6 250 10:18 23.01.2020
88 Clouds -2 1018 68 10000 1.5 190 09:41 23.01.2020
89 Clouds -2 1019 79 10000 1.5 260 09:41 23.01.2020
90 Clouds -2 1019 79 10000 1.5 260 09:21 23.01.2020
91 Clouds -3 1018 79 8000 3.6 190 08:56 23.01.2020
92 Clouds -3 1019 79 8000 1 0 08:38 23.01.2020
93 Clouds -3 1019 79 8000 1 0 08:18 23.01.2020
94 Clouds -6 1018 85 10000 1.33 268 07:37 23.01.2020
95 Clouds -6 1018 85 10000 1.33 268 07:18 23.01.2020
96 Clouds -7 1017 85 10000 0.5 0 06:44 23.01.2020
97 Clouds -7 1018 92 10000 0.5 0 06:18 23.01.2020
98 Clouds -7 1018 85 10000 1 230 04:25 23.01.2020
99 Clouds -6 1019 85 10000 1.47 234 03:36 23.01.2020
100 Clouds -5 1019 85 7000 1.46 231 01:55 23.01.2020
101 Clouds -5 1019 79 8000 1 180 00:44 23.01.2020
102 Clouds -5 1021 92 10000 1 0 00:24 23.01.2020
103 Clouds -4 1020 79 8000 1.5 140 23:46 22.01.2020
104 Clouds -5 1022 92 10000 1 210 23:28 22.01.2020
105 Clear -4 1021 85 8000 1.5 310 22:43 22.01.2020
106 Clear -4 1022 85 10000 0.5 0 22:25 22.01.2020
107 Clear -4 1022 79 10000 3.1 160 21:59 22.01.2020
108 Clear -4 1023 85 10000 1.27 232 21:38 22.01.2020
109 Clear -4 1023 85 10000 1.27 232 21:19 22.01.2020
110 Clear -3 1023 79 10000 1 0 20:42 22.01.2020
111 Clear -3 1023 79 10000 1 0 20:42 22.01.2020
112 Clouds -3 1023 74 10000 1.33 241 20:23 22.01.2020
113 Clear -3 1023 79 10000 1.5 60 19:59 22.01.2020
114 Clear -3 1023 79 10000 1.5 60 19:41 22.01.2020
115 Clear -2 1024 79 10000 1.23 260 19:21 22.01.2020
116 Clouds -2 1023 74 10000 0.5 0 18:58 22.01.2020
117 Clear -2 1024 74 10000 1.23 260 18:39 22.01.2020
118 Clear -2 1024 74 10000 1.23 260 18:21 22.01.2020
119 Clouds -1 1024 68 10000 1.5 270 17:57 22.01.2020
120 Clouds -1 1024 68 10000 1.5 270 17:57 22.01.2020
121 Clear -1 1025 82 10000 1 0 17:39 22.01.2020
122 Clear -1 1025 75 10000 1 0 17:19 22.01.2020
123 Clouds 1 1024 68 10000 2.6 230 16:54 22.01.2020
124 Clear 1 1025 59 10000 2.6 260 16:36 22.01.2020
125 Clear 1 1025 59 10000 2.6 260 16:18 22.01.2020
126 Clouds 2 1024 55 10000 3.1 220 15:41 22.01.2020
127 Clear 2 1025 55 10000 2.1 250 15:23 22.01.2020
128 Clouds 3 1025 51 10000 4.1 220 14:58 22.01.2020
129 Clear 3 1026 51 10000 3.1 260 14:37 22.01.2020
130 Clear 3 1026 51 10000 3.1 260 14:19 22.01.2020
131 Clouds 3 1025 47 10000 3.6 210 13:56 22.01.2020
132 Clouds 3 1025 47 10000 3.6 210 13:56 22.01.2020
133 Clear 3 1026 51 10000 3.1 280 13:37 22.01.2020
134 Clear 3 1026 51 10000 3.1 280 13:19 22.01.2020
135 Clouds 2 1025 51 10000 3.1 230 12:56 22.01.2020
136 Clouds 2 1027 55 10000 3.1 240 12:38 22.01.2020
137 Clouds 2 1027 55 10000 3.1 240 12:18 22.01.2020
138 Clouds 1 1026 51 10000 1.5 0 11:56 22.01.2020
139 Clouds 1 1028 59 10000 3.1 250 11:38 22.01.2020
140 Clouds 1 1028 59 10000 3.1 250 11:19 22.01.2020
141 Clouds 0 1027 66 10000 1.5 0 10:44 22.01.2020
142 Clouds 0 1029 66 10000 1.5 0 10:21 22.01.2020
143 Clouds -1 1028 68 10000 1.5 220 09:45 22.01.2020
144 Clouds -1 1030 74 10000 2.1 260 09:26 22.01.2020
145 -273 0 0 0 0 0 08:59 22.01.2020
146 Clouds -3 1028 79 10000 1 0 08:40 22.01.2020
147 Clouds -3 1029 79 10000 1.12 257 08:21 22.01.2020
148 Clouds -4 1028 79 10000 1 0 07:59 22.01.2020
149 Clear -4 1029 85 10000 1.12 257 07:40 22.01.2020
150 Clear -4 1029 85 10000 1.12 257 07:21 22.01.2020
151 Clear -5 1029 85 10000 1.5 230 06:31 22.01.2020
152 Clear -5 1028 85 10000 1 210 05:42 22.01.2020
153 Clear -7 1028 78 10000 0.5 0 04:23 22.01.2020
154 Clear -7 1029 92 10000 0.6 273 03:26 22.01.2020
155 Clear -7 1030 92 10000 0.5 0 02:32 22.01.2020
156 Clear -5 1029 79 10000 0.5 0 00:46 22.01.2020
157 Clear -5 1030 85 10000 1.08 324 00:27 22.01.2020
158 Clear -5 1030 79 10000 1.5 360 23:55 21.01.2020
159 Clear -5 1030 79 10000 0.5 220 23:36 21.01.2020
160 Clear -5 1030 79 10000 0.5 220 23:18 21.01.2020
161 Clear -4 1031 79 10000 1 230 22:39 21.01.2020
162 Clear -4 1031 79 10000 1 230 22:20 21.01.2020
163 Clear -4 1031 79 10000 1 230 22:20 21.01.2020
164 Clear -4 1030 73 10000 0.5 0 21:56 21.01.2020
165 Clear -4 1031 79 10000 2.1 230 21:38 21.01.2020
166 Clear -4 1031 79 10000 2.1 230 21:19 21.01.2020
167 Clear -2 1030 79 10000 0.5 0 20:56 21.01.2020
168 Clear -2 1031 63 10000 1.5 230 20:37 21.01.2020
169 Clear -2 1031 63 10000 1.5 230 20:18 21.01.2020
170 Clear -2 1030 68 10000 1.5 350 19:56 21.01.2020
171 Clear -2 1031 68 10000 1.5 230 19:37 21.01.2020
172 Clear -2 1031 68 10000 1.5 230 19:19 21.01.2020
173 Clear -1 1030 68 10000 2.1 30 18:55 21.01.2020
174 Clear -1 1031 68 10000 1.98 8 18:36 21.01.2020
175 Clear -1 1031 68 10000 1.98 8 18:18 21.01.2020
176 Clouds 0 1030 63 10000 4.1 30 17:43 21.01.2020
177 Clouds 0 1030 59 10000 1 0 17:20 21.01.2020
178 Clouds 0 1029 58 10000 4.1 40 16:58 21.01.2020
179 Clouds 1 1029 55 10000 3.1 0 16:37 21.01.2020
180 Clouds 1 1029 55 10000 3.1 0 16:18 21.01.2020
181 Clouds 2 1028 47 10000 5.1 360 15:41 21.01.2020
182 Clouds 2 1029 55 10000 2.1 0 15:21 21.01.2020
183 Clouds 3 1028 40 10000 4.6 350 14:58 21.01.2020
184 Clouds 3 1030 48 10000 5.1 300 14:37 21.01.2020
185 Clouds 3 1030 48 10000 5.1 300 14:19 21.01.2020
186 Clouds 3 1029 44 10000 2.6 350 13:39 21.01.2020
187 Clouds 3 1029 44 10000 2.6 350 13:19 21.01.2020
188 Clouds 3 1029 37 10000 4.1 20 12:43 21.01.2020
189 Clouds 3 1030 44 10000 2.1 0 12:25 21.01.2020
190 Clouds 2 1029 40 10000 5.1 40 11:57 21.01.2020
191 Clouds 2 1031 40 10000 3.1 360 11:38 21.01.2020
192 Clouds 3 1031 40 10000 3.1 360 11:20 21.01.2020
193 Clouds 2 1030 47 10000 2.6 150 10:44 21.01.2020
194 Clouds 2 1031 47 10000 4.1 360 10:23 21.01.2020
195 Clouds 2 1031 47 10000 4.1 360 10:23 21.01.2020
196 Clouds 1 1031 47 10000 1 0 09:59 21.01.2020
197 Clouds 1 1031 50 10000 4.6 30 09:40 21.01.2020
198 Clouds 1 1031 50 10000 4.6 30 09:22 21.01.2020
199 Clouds 1 1031 50 10000 4.6 30 09:22 21.01.2020
200 Clouds 0 1030 58 10000 1 0 08:48 21.01.2020
201 Clouds -1 1031 61 10000 1.5 0 08:28 21.01.2020
202 Clouds -2 1030 73 10000 2.1 150 07:57 21.01.2020
203 Clouds -3 1031 68 10000 1 70 07:38 21.01.2020
204 Clouds -3 1031 68 10000 1 70 07:20 21.01.2020
205 Clouds -3 1030 73 10000 0.5 0 06:45 21.01.2020
206 Clouds -3 1031 68 10000 1.5 30 06:23 21.01.2020
207 Clouds -3 1030 63 10000 3.1 360 05:41 21.01.2020
208 Clouds -3 1030 68 10000 1 0 04:39 21.01.2020
209 Clouds -1 1029 63 10000 5.1 10 02:55 21.01.2020
210 Clouds -1 1029 63 10000 5.1 350 01:47 21.01.2020
211 Clouds -1 1029 63 10000 5.7 350 00:54 21.01.2020
212 Clouds -1 1029 78 10000 4.6 360 00:32 21.01.2020
213 Clouds 0 1029 63 10000 5.7 360 23:57 20.01.2020
214 Clouds 0 1030 55 10000 4.1 360 23:37 20.01.2020
215 Clouds 0 1030 55 10000 4.1 360 23:18 20.01.2020
216 Clouds 0 1029 68 10000 4.1 10 22:56 20.01.2020
217 Clouds 0 1030 59 10000 3.6 360 22:36 20.01.2020
218 Clouds 0 1030 59 10000 3.6 360 22:18 20.01.2020
219 Clouds 1 1028 68 10000 3.1 360 21:55 20.01.2020
220 Clouds 1 1029 55 10000 3.6 350 21:36 20.01.2020
221 Clouds 1 1029 55 10000 3.6 350 21:18 20.01.2020
222 Clouds 1 1028 79 10000 4.6 10 20:54 20.01.2020
223 Clouds 1 1029 59 10000 3.1 350 20:36 20.01.2020
224 Clouds 1 1029 59 10000 3.1 350 20:18 20.01.2020
225 Clouds 1 1029 59 10000 3.1 350 20:18 20.01.2020
226 Snow 1 1028 64 10000 4.1 20 19:54 20.01.2020
227 Snow 1 1028 64 10000 4.1 20 19:54 20.01.2020
228 Clouds 1 1029 74 10000 3.1 360 19:36 20.01.2020
229 Clouds 1 1029 74 10000 3.1 360 19:18 20.01.2020
230 Snow 1 1028 64 10000 3.1 10 18:42 20.01.2020
231 Clouds 2 1028 69 10000 3.1 360 18:21 20.01.2020
232 Clouds 1 1028 80 10000 1 0 17:39 20.01.2020
233 Clouds 1 1028 80 10000 1 0 17:19 20.01.2020
234 Clouds 1 1027 69 10000 3.1 20 16:55 20.01.2020
235 Clouds 1 1027 80 10000 0.5 0 16:36 20.01.2020
236 Clouds 1 1027 80 10000 0.5 0 16:18 20.01.2020
237 Clouds 1 1026 69 10000 2.6 20 15:41 20.01.2020
238 Snow 1 1027 74 10000 2.6 50 15:22 20.01.2020
239 Snow 1 1026 80 10000 1.5 210 14:59 20.01.2020
240 Snow 1 1026 92 4000 1 0 14:40 20.01.2020
241 Snow 1 1026 92 4000 1 0 14:21 20.01.2020
242 Snow 1 1026 87 2000 2.6 330 13:57 20.01.2020
243 Clouds 1 1027 69 10000 1.5 0 13:38 20.01.2020
244 Clouds 1 1027 69 10000 1.5 0 13:20 20.01.2020
245 Snow 0 1026 85 6000 2.1 250 12:42 20.01.2020
246 Snow 1 1026 85 6000 2.1 250 12:23 20.01.2020
247 Snow 0 1027 69 5000 3.6 300 11:55 20.01.2020
248 Snow 0 1027 59 10000 3.6 320 11:36 20.01.2020
249 Snow 0 1027 59 10000 3.6 320 11:18 20.01.2020
250 Snow 0 1026 68 6000 1 0 10:46 20.01.2020
251 Clouds 0 1027 69 10000 1.5 0 10:20 20.01.2020
252 Clouds -2 1027 79 10000 1 0 09:42 20.01.2020
253 Clouds -2 1027 79 10000 1 0 09:24 20.01.2020
254 Clouds -3 1025 79 10000 0.5 0 08:56 20.01.2020
255 Clouds -4 1026 86 10000 1.5 220 08:34 20.01.2020
256 Clouds -5 1025 79 10000 0.5 0 07:59 20.01.2020
257 Clouds -5 1025 79 10000 0.5 0 07:41 20.01.2020
258 Clouds -6 1026 92 10000 2.1 240 07:21 20.01.2020
259 Clouds -6 1024 79 10000 1 0 06:42 20.01.2020
260 Clouds -6 1025 92 10000 0.5 0 06:21 20.01.2020
261 Clouds -5 1024 92 10000 1 0 05:38 20.01.2020
262 Clouds -5 1024 92 10000 1 0 05:19 20.01.2020
263 Clouds -5 1024 92 10000 1.5 230 04:23 20.01.2020
264 Clouds -3 1022 79 10000 0.5 0 01:59 20.01.2020
265 Clouds -3 1022 79 10000 0.5 0 01:40 20.01.2020
266 Clouds -3 1023 86 10000 1 230 01:18 20.01.2020
267 Clouds -3 1022 79 10000 1.03 337 00:42 20.01.2020
268 Clouds -3 1023 86 10000 1.03 337 00:20 20.01.2020
269 Clouds -2 1023 79 10000 1.03 337 23:38 19.01.2020
270 Clouds -2 1023 79 10000 1.26 2 23:19 19.01.2020
271 Clouds -2 1022 79 10000 1 180 22:56 19.01.2020
272 Clouds -2 1023 79 10000 1 0 22:37 19.01.2020
273 Clouds -2 1023 79 10000 1 0 22:19 19.01.2020
274 Clouds -3 1021 73 10000 1.26 2 21:56 19.01.2020
275 Clouds -3 1022 86 10000 1 0 21:38 19.01.2020
276 Clouds -3 1022 86 10000 1 0 21:19 19.01.2020
277 Clouds -3 1021 73 10000 0.5 0 20:56 19.01.2020
278 Clouds -3 1022 85 10000 1.5 230 20:38 19.01.2020
279 Clouds -3 1022 85 10000 1.5 230 20:38 19.01.2020
280 Clouds -3 1022 85 10000 1.5 230 20:19 19.01.2020
281 Clouds -3 1020 73 10000 2.1 250 19:55 19.01.2020
282 Clouds -3 1021 85 10000 2.6 270 19:37 19.01.2020
283 Clouds -3 1021 85 10000 2.6 270 19:19 19.01.2020
284 Clouds -3 1021 85 10000 2.6 270 19:19 19.01.2020
285 Clouds -3 1021 85 10000 2.6 270 19:19 19.01.2020
286 Clouds -2 1020 73 10000 2.1 280 18:55 19.01.2020
287 Clouds -2 1020 80 10000 0.5 0 18:37 19.01.2020
288 Clouds -2 1020 80 10000 0.5 0 18:19 19.01.2020
289 Clouds -1 1019 58 10000 1.5 210 17:57 19.01.2020
290 Clouds -1 1019 58 10000 1.5 210 17:57 19.01.2020
291 Clouds -1 1020 74 10000 0.5 0 17:38 19.01.2020
292 Clouds -1 1020 74 10000 0.5 0 17:20 19.01.2020
293 Clouds -1 1019 58 10000 1.5 100 16:57 19.01.2020
294 Clouds 0 1019 71 10000 1.98 43 16:37 19.01.2020
295 Clouds 0 1019 71 10000 1.98 43 16:19 19.01.2020
296 Clouds 0 1018 71 10000 4.6 20 15:57 19.01.2020
297 Clouds 0 1019 71 10000 2.1 130 15:37 19.01.2020
298 Clouds 0 1019 71 10000 2.1 130 15:19 19.01.2020
299 Clouds 1 1017 43 10000 2.1 340 14:56 19.01.2020
300 Clouds 0 1018 71 10000 0.5 0 14:37 19.01.2020
301 Clouds 0 1018 59 10000 0.5 0 14:18 19.01.2020
302 Clouds 0 1017 59 10000 2.1 80 13:54 19.01.2020
303 Clouds 0 1018 59 10000 1.5 0 13:36 19.01.2020
304 Clouds 0 1018 61 10000 1.5 0 13:18 19.01.2020
305 Clouds 0 1017 69 10000 3.1 250 12:42 19.01.2020
306 Clouds 0 1017 69 10000 3.1 250 12:23 19.01.2020
307 Clouds 0 1017 63 10000 1.5 30 11:57 19.01.2020
308 Clouds 0 1018 61 10000 2.1 250 11:39 19.01.2020
309 Clouds 0 1018 74 10000 2.1 250 11:19 19.01.2020
310 Snow 0 1017 68 10000 1 360 10:55 19.01.2020
311 Clouds 0 1019 74 10000 3.1 200 10:37 19.01.2020
312 Clouds 0 1019 74 10000 3.1 200 10:18 19.01.2020
313 Clouds 0 1019 92 10000 1.5 250 09:41 19.01.2020
314 Clouds 0 1019 92 10000 1.5 250 09:23 19.01.2020
315 Snow -1 1019 92 8000 1 250 08:57 19.01.2020
316 Clouds -1 1018 80 7000 2.6 70 08:38 19.01.2020
317 Clouds -1 1018 80 7000 2.6 70 08:20 19.01.2020
318 Clouds -2 1017 79 10000 2.1 360 07:40 19.01.2020
319 Clouds -2 1018 74 10000 0.5 0 07:21 19.01.2020
320 Snow -2 1017 74 10000 2.6 60 06:44 19.01.2020
321 Snow -1 1017 92 7000 0.87 345 04:41 19.01.2020
322 Clouds -1 1017 80 10000 1 230 02:37 19.01.2020
323 Clouds -1 1017 80 10000 1 230 02:19 19.01.2020
324 Clouds -1 1018 80 10000 0.17 357 01:24 19.01.2020
325 Snow -1 1017 74 10000 2.6 20 00:45 19.01.2020
326 Clouds -1 1017 74 10000 2.1 360 00:27 19.01.2020
327 Clouds -1 1017 74 10000 2.1 360 23:55 18.01.2020
328 Clouds -1 1018 80 10000 0.17 357 23:36 18.01.2020
329 Clouds -1 1018 80 10000 1.22 27 23:18 18.01.2020
330 Clouds -1 1018 80 10000 1.22 27 23:18 18.01.2020
331 Clouds 0 1018 77 10000 1.22 27 22:54 18.01.2020
332 Clouds 0 1018 77 10000 1 260 22:36 18.01.2020
333 Clouds 0 1018 77 10000 1 260 22:36 18.01.2020
334 Clouds 0 1018 77 10000 1 260 22:18 18.01.2020
335 Clouds 0 1018 77 10000 1.22 27 21:56 18.01.2020
336 Clouds 0 1019 77 10000 1.5 230 21:36 18.01.2020
337 Clouds 0 1019 77 10000 1.5 230 21:18 18.01.2020
338 Clouds 0 1019 77 10000 2.6 240 20:41 18.01.2020
339 Clouds 0 1019 80 10000 2.6 240 20:20 18.01.2020
340 Clouds 0 1018 81 10000 1 0 19:55 18.01.2020
341 Clouds 0 1020 64 10000 1.5 240 19:36 18.01.2020
342 Clouds 0 1020 64 10000 1.5 240 19:18 18.01.2020
343 Clouds 1 1020 64 10000 2.1 240 18:40 18.01.2020
344 Clouds 1 1020 64 10000 2.1 240 18:21 18.01.2020
345 Clouds 1 1019 55 10000 1 0 17:41 18.01.2020
346 Clouds 1 1020 64 10000 2.1 250 17:21 18.01.2020
347 Clouds 1 1019 51 10000 2.6 40 16:59 18.01.2020
348 Clouds 1 1020 59 10000 2.6 240 16:41 18.01.2020
349 Clouds 1 1020 59 10000 2.6 240 16:22 18.01.2020
350 Clouds 1 1020 59 10000 2.6 240 16:22 18.01.2020
351 Clouds 3 1019 51 10000 1.5 290 15:58 18.01.2020
352 Clouds 3 1020 51 10000 3.1 260 15:40 18.01.2020
353 Clouds 3 1020 51 10000 3.1 260 15:21 18.01.2020
354 Clouds 3 1019 41 10000 2.6 70 14:44 18.01.2020
355 Clouds 4 1020 48 7000 1.5 0 14:21 18.01.2020
356 Clouds 4 1019 41 10000 2.1 0 13:59 18.01.2020
357 Clouds 3 1020 48 7000 2.1 170 13:41 18.01.2020
358 Clouds 3 1020 48 7000 2.1 170 13:20 18.01.2020
359 Clouds 3 1019 41 10000 1.5 0 12:55 18.01.2020
360 Clouds 2 1021 64 6000 1.5 290 12:36 18.01.2020
361 Clouds 2 1021 64 6000 1.5 290 12:18 18.01.2020
362 Clouds 1 1020 44 10000 2.1 0 11:43 18.01.2020
363 Mist 0 1022 100 3100 2.1 240 11:21 18.01.2020
364 Clouds -1 1021 59 10000 1.5 250 10:45 18.01.2020
365 Mist -1 1023 92 3200 1 0 10:22 18.01.2020
366 Clouds -2 1022 64 10000 1 0 09:59 18.01.2020
367 Mist -2 1023 100 2000 0.5 0 09:41 18.01.2020
368 Mist -2 1023 100 2000 0.5 0 09:19 18.01.2020
369 Clouds -3 1022 79 10000 0.5 0 08:42 18.01.2020
370 Mist -3 1023 100 2000 1.46 49 08:20 18.01.2020
371 Mist -4 1023 92 2000 0.5 0 07:59 18.01.2020
372 Fog -4 1023 92 400 0.5 230 07:40 18.01.2020
373 Fog -4 1023 92 400 0.5 230 07:18 18.01.2020
374 Clouds -5 1022 85 10000 1.5 210 06:44 18.01.2020
375 Clouds -5 1022 85 10000 1 0 05:52 18.01.2020
376 Fog -5 1022 92 200 1.5 170 04:25 18.01.2020
377 Fog -4 1023 100 300 1.36 44 02:38 18.01.2020
378 Clear -4 1022 79 10000 2.1 40 01:40 18.01.2020
379 Fog -4 1022 92 400 1.5 280 00:39 18.01.2020
380 Fog -4 1022 100 200 1.5 24 00:20 18.01.2020
381 Clear -4 1021 79 10000 3.1 30 23:58 17.01.2020
382 Fog -4 1022 100 200 1.5 24 23:39 17.01.2020
383 Fog -4 1022 100 200 1.22 15 23:18 17.01.2020
384 Fog -4 1023 100 400 1 0 22:42 17.01.2020
385 Mist -4 1023 92 4000 1 0 22:20 17.01.2020
386 Mist -4 1023 92 4000 1 0 22:20 17.01.2020
387 Clear -4 1022 68 10000 4.1 20 21:56 17.01.2020
388 Mist -4 1023 92 4800 1 0 21:38 17.01.2020
389 Mist -4 1023 92 4800 1 0 21:19 17.01.2020
390 Clear -3 1021 68 10000 3.6 20 20:43 17.01.2020
391 Clear -3 1023 92 10000 1.53 19 20:21 17.01.2020
392 Clear -2 1021 63 10000 4.6 30 19:58 17.01.2020
393 Clear -2 1022 92 10000 2.1 300 19:39 17.01.2020
394 Clear -2 1022 92 10000 2.1 300 19:20 17.01.2020
395 Clear -2 1021 72 10000 3.1 360 18:58 17.01.2020
396 Clear -2 1022 86 10000 1 230 18:40 17.01.2020
397 Clear -2 1022 86 10000 1 230 18:21 17.01.2020
398 Clear -1 1021 55 10000 2.6 60 17:40 17.01.2020
399 Clear -1 1021 86 10000 1 250 17:22 17.01.2020
400 Clear 0 1020 51 10000 3.1 60 16:57 17.01.2020
401 Clear 0 1020 51 10000 3.1 60 16:39 17.01.2020
402 Clear 1 1021 72 10000 2.6 230 16:19 17.01.2020
403 Clear 3 1019 48 10000 3.6 50 15:45 17.01.2020
404 Clear 2 1020 64 10000 3.6 280 15:26 17.01.2020
405 Clear 4 1019 41 10000 5.1 70 14:46 17.01.2020
406 Clear 4 1020 60 10000 3.6 270 14:27 17.01.2020
407 Clouds 4 1019 38 10000 6.7 60 13:58 17.01.2020
408 Clouds 4 1019 38 10000 6.7 60 13:58 17.01.2020
409 Clouds 4 1019 38 10000 6.7 60 13:38 17.01.2020
410 Clouds 3 1020 64 10000 3.1 260 13:19 17.01.2020
411 Clouds 3 1019 38 10000 5.7 50 12:44 17.01.2020
412 Clouds 3 1020 59 10000 3.1 270 12:22 17.01.2020
413 Clouds 1 1019 38 10000 5.7 50 11:40 17.01.2020
414 Clouds 1 1021 100 7000 2.1 0 11:19 17.01.2020
415 Clouds 0 1021 92 6000 2.1 250 10:44 17.01.2020
416 Mist -1 1022 100 4700 1.5 280 10:23 17.01.2020
417 Mist -1 1022 92 3500 1.5 250 09:58 17.01.2020
418 Fog -2 1022 92 1200 0.5 130 09:40 17.01.2020
419 Fog -2 1022 92 1200 0.5 130 09:20 17.01.2020
420 Mist -4 1023 100 4000 2.1 270 08:45 17.01.2020
421 Mist -4 1022 92 1600 2.1 230 08:25 17.01.2020
422 Mist -3 1022 100 1800 1 0 07:55 17.01.2020
423 Fog -4 1022 92 800 1 0 07:32 17.01.2020
424 Fog -4 1022 92 800 1 0 07:32 17.01.2020
425 Clouds -5 1020 79 10000 3.1 350 06:59 17.01.2020
426 Clouds -4 1020 79 10000 3.1 350 06:41 17.01.2020
427 Clouds -5 1020 85 10000 3.6 30 05:56 17.01.2020
428 Clear -3 1022 88 0 1.7 71 03:39 17.01.2020
429 Clear -3 1022 87 0 1.7 71 02:53 17.01.2020
430 Clear -3 1022 87 0 1.81 58 01:48 17.01.2020
431 Clear -3 1022 87 0 0.89 291 01:29 17.01.2020
432 Clear -2 1022 86 0 1.75 58 00:51 17.01.2020
433 Clear -2 1022 85 0 1.75 58 00:28 17.01.2020
434 Mist -3 1022 92 1100 2.6 260 23:46 16.01.2020
435 Mist -3 1022 92 1100 2.6 260 23:46 16.01.2020
436 Mist -3 1022 92 1100 2.6 260 23:26 16.01.2020
437 Clear -3 1021 79 10000 4.6 20 22:58 16.01.2020
438 Mist -3 1021 92 1600 2.6 260 22:40 16.01.2020
439 Mist -3 1021 92 1600 2.6 260 22:21 16.01.2020
440 Mist -3 1022 100 2600 3.1 290 21:55 16.01.2020
441 Mist -3 1022 92 4000 2.6 270 21:37 16.01.2020
442 Mist -3 1022 92 4000 2.6 270 21:18 16.01.2020
443 Fog -3 1022 100 800 4.1 270 20:56 16.01.2020
444 Clear -3 1022 86 10000 1.5 220 20:36 16.01.2020
445 Clear -3 1022 86 10000 1.5 220 20:18 16.01.2020
446 Clear -2 1021 79 10000 4.6 20 19:41 16.01.2020
447 Clear -2 1022 86 10000 2.1 230 19:22 16.01.2020
448 Clear 0 1021 74 10000 3.6 20 18:58 16.01.2020
449 Clear 0 1022 64 10000 2.1 70 18:39 16.01.2020
450 Clear 0 1022 64 10000 2.1 70 18:21 16.01.2020
451 Clouds 1 1021 59 10000 5.1 50 17:59 16.01.2020
452 Clouds 1 1021 59 10000 5.1 50 17:41 16.01.2020
453 Clouds 1 1021 59 10000 5.1 50 17:41 16.01.2020
454 Clear 1 1022 59 10000 2.1 20 17:21 16.01.2020
455 Clouds 2 1021 64 10000 4.1 60 16:56 16.01.2020
456 Clear 2 1022 55 10000 3.6 20 16:36 16.01.2020
457 Clear 2 1022 55 10000 3.6 20 16:18 16.01.2020
458 Clouds 4 1021 55 10000 4.1 40 15:42 16.01.2020
459 Clear 4 1022 55 10000 4.1 20 15:21 16.01.2020
460 Clouds 4 1022 55 10000 5.1 30 14:45 16.01.2020
461 Clear 5 1022 52 10000 3.1 20 14:24 16.01.2020
462 Clouds 5 1022 51 10000 5.1 10 13:57 16.01.2020
463 Clouds 5 1022 51 10000 5.1 10 13:39 16.01.2020
464 Clear 5 1023 48 10000 3.6 50 13:21 16.01.2020
465 Clouds 5 1023 55 10000 3.6 30 12:45 16.01.2020
466 Clear 5 1023 52 10000 3.1 90 12:27 16.01.2020
467 Clouds 4 1023 55 10000 4.1 50 11:54 16.01.2020
468 Clear 4 1024 56 10000 4.6 50 11:36 16.01.2020
469 Clear 4 1024 56 10000 4.6 50 11:18 16.01.2020
470 Clear 3 1025 60 10000 4.1 60 10:39 16.01.2020
471 Clear 3 1025 60 10000 4.1 60 10:20 16.01.2020
472 Clear 1 1025 80 7000 1 0 09:56 16.01.2020
473 Fog 0 1027 100 1600 0.5 0 09:37 16.01.2020
474 Fog 0 1027 100 1600 0.5 0 09:19 16.01.2020
475 Fog -2 1027 92 300 0.5 0 08:49 16.01.2020
476 Fog -2 1026 92 100 2.08 88 08:29 16.01.2020
477 Clear -4 1025 85 10000 1 0 07:58 16.01.2020
478 Fog -4 1027 92 100 1 0 07:37 16.01.2020
479 Fog -4 1027 92 100 1 0 07:18 16.01.2020
480 Clear -4 1026 85 6000 0.5 0 06:42 16.01.2020
481 Clear -5 1026 85 10000 0.5 0 05:58 16.01.2020
482 Clear -5 1026 85 10000 0.5 0 05:40 16.01.2020
483 Mist -5 1026 92 1300 1.93 78 04:37 16.01.2020
484 Mist -5 1026 92 1300 1.93 78 04:37 16.01.2020
485 Mist -5 1026 92 1100 1.93 78 03:28 16.01.2020
486 Clear -4 1026 85 8000 0.5 0 02:42 16.01.2020
487 Clear -3 1026 86 6000 1.64 69 00:53 16.01.2020
488 Mist -3 1027 92 1200 1.64 69 00:24 16.01.2020
489 Clear -3 1027 79 10000 1.5 80 23:50 15.01.2020
490 Mist -3 1027 100 3200 1.68 73 23:23 15.01.2020
491 Clear -2 1027 86 10000 2.1 40 22:57 15.01.2020
492 Clear -2 1027 86 10000 2.1 40 22:39 15.01.2020
493 Mist -2 1028 92 3200 1.68 73 22:19 15.01.2020
494 Clear -2 1027 79 10000 1 0 21:57 15.01.2020
495 Mist -1 1028 92 4500 1.68 73 21:38 15.01.2020
496 Mist -1 1028 92 4500 1.68 73 21:20 15.01.2020
497 Clear -1 1027 69 10000 1.68 73 20:58 15.01.2020
498 Clear -1 1027 69 10000 1.68 73 20:58 15.01.2020
499 Clear -1 1027 69 10000 1.68 73 20:58 15.01.2020
500 Clear -1 1027 69 10000 1.68 73 20:40 15.01.2020
501 Mist -1 1028 92 3500 0.5 0 20:20 15.01.2020
502 Clear 0 1027 69 10000 1 0 19:55 15.01.2020
503 Mist 0 1027 86 4000 1.74 71 19:37 15.01.2020
504 Mist 0 1027 86 4000 1.74 71 19:19 15.01.2020
505 Clear 0 1027 74 10000 1.5 0 18:57 15.01.2020
506 Mist 0 1027 69 4500 1.74 71 18:38 15.01.2020
507 Mist 0 1027 69 4500 1.74 71 18:19 15.01.2020
508 Clear 1 1027 74 10000 4.1 30 17:58 15.01.2020
509 Mist 1 1027 80 4200 2.1 230 17:38 15.01.2020
510 Mist 1 1027 80 4200 2.1 230 17:19 15.01.2020
511 Haze 4 1026 60 4000 1 0 16:41 15.01.2020
512 Haze 4 1026 60 4000 1 0 16:41 15.01.2020
513 Haze 4 1026 60 4000 1 0 16:22 15.01.2020
514 Clear 6 1026 52 10000 1.5 140 15:59 15.01.2020
515 Haze 6 1026 56 4000 1.5 280 15:41 15.01.2020
516 Haze 6 1026 56 4000 1.5 280 15:20 15.01.2020
517 Clear 7 1026 48 10000 1.5 240 14:44 15.01.2020
518 Haze 7 1026 52 4000 1.5 0 14:21 15.01.2020
519 Clear 7 1026 48 10000 1.5 260 13:55 15.01.2020
520 Haze 6 1026 56 4000 1.5 300 13:37 15.01.2020
521 Haze 6 1026 56 4000 1.5 300 13:18 15.01.2020
522 Haze 5 1027 56 4000 1 0 12:41 15.01.2020
523 Haze 5 1027 56 4000 1 0 12:20 15.01.2020
524 Clear 5 1026 56 10000 1 0 11:58 15.01.2020
525 Haze 5 1027 60 3500 1.5 0 11:38 15.01.2020
526 Haze 4 1027 60 3500 1.5 0 11:19 15.01.2020
527 Clear 2 1027 69 6000 1.5 290 10:46 15.01.2020
528 Haze 2 1028 64 7000 1.01 85 10:28 15.01.2020
529 Mist 1 1027 74 4800 1.5 0 09:54 15.01.2020
530 Clear 0 1028 59 6000 1 0 09:36 15.01.2020
531 Clear 0 1028 59 6000 1 0 09:18 15.01.2020
532 Mist -2 1028 92 5000 1.5 230 08:41 15.01.2020
533 Mist -2 1028 92 5000 1.5 230 08:41 15.01.2020
534 Mist -2 1028 92 5000 1.5 230 08:23 15.01.2020
535 Mist -4 1027 85 3100 1.5 160 07:53 15.01.2020
536 Mist -5 1028 92 4500 0.96 75 07:32 15.01.2020
537 Mist -5 1027 92 3200 1 0 06:47 15.01.2020
538 Mist -5 1027 92 4500 0.96 75 06:21 15.01.2020
539 Mist -5 1026 92 4000 1 310 04:45 15.01.2020
540 Clear -4 1027 92 7000 0.2 15 02:39 15.01.2020
541 Clear -4 1027 100 7000 0.5 0 01:28 15.01.2020
542 Clear -4 1027 100 7000 0.5 0 01:28 15.01.2020
543 Clear -3 1026 92 6000 1 10 00:59 15.01.2020
544 Clear -3 1026 92 6000 1 10 00:59 15.01.2020
545 Clear -3 1026 92 6000 0.49 258 00:36 15.01.2020
546 Clear -3 1026 92 6000 0.49 258 00:18 15.01.2020
547 Clear -3 1026 92 7000 0.5 150 23:45 14.01.2020
548 Clear -3 1026 92 10000 0.5 40 23:24 14.01.2020
549 Clear -3 1026 92 6000 0.1 111 22:41 14.01.2020
550 Clear -3 1026 92 10000 0.1 111 22:19 14.01.2020
551 Clear -3 1025 86 6000 0.5 0 21:59 14.01.2020
552 Clear -2 1026 92 10000 0.1 111 21:40 14.01.2020
553 Clear -3 1026 92 10000 0.1 111 21:22 14.01.2020
554 Clear -3 1025 79 7000 1 0 20:59 14.01.2020
555 Clear -2 1025 86 8000 1 0 20:40 14.01.2020
556 Clear -2 1025 86 8000 1 0 20:20 14.01.2020
557 Clear -2 1025 86 8000 1 0 19:56 14.01.2020
558 Clear -2 1025 86 10000 1.08 232 19:38 14.01.2020
559 Clear -2 1025 86 10000 1.08 232 19:19 14.01.2020
560 Clear -1 1025 74 8000 1 0 18:56 14.01.2020
561 Clear 1 1024 74 10000 0.5 0 18:37 14.01.2020
562 Clear 1 1024 74 10000 0.5 0 18:19 14.01.2020
563 Clear 1 1025 69 10000 0.5 0 17:39 14.01.2020
564 Clear 1 1025 69 10000 0.5 0 17:19 14.01.2020
565 Clouds 3 1024 69 10000 1 0 16:55 14.01.2020
566 Clear 3 1024 60 7000 2.1 250 16:37 14.01.2020
567 Clear 3 1024 60 7000 2.1 250 16:19 14.01.2020
568 Clouds 6 1023 48 10000 1 260 15:43 14.01.2020
569 Clear 6 1024 52 8000 2.1 260 15:19 14.01.2020
570 Clouds 6 1023 48 10000 1 250 14:57 14.01.2020
571 Clear 6 1023 48 8000 2.1 270 14:39 14.01.2020
572 Clouds 7 1023 48 8000 2.1 270 14:18 14.01.2020
573 Clouds 6 1023 48 10000 2.1 250 13:42 14.01.2020
574 Clear 6 1023 48 8000 2.6 250 13:19 14.01.2020
575 Clouds 6 1023 48 10000 1 0 12:43 14.01.2020
576 Clear 5 1024 52 7000 1.5 0 12:25 14.01.2020
577 Clouds 4 1024 55 10000 1 0 11:59 14.01.2020
578 Clear 5 1024 52 7000 1 0 11:40 14.01.2020
579 Clear 5 1024 52 7000 1 0 11:40 14.01.2020
580 Clear 4 1024 52 7000 1 0 11:22 14.01.2020
581 Clouds 3 1025 55 10000 0.5 0 10:56 14.01.2020
582 Clear 3 1025 59 8000 0.5 0 10:37 14.01.2020
583 Clear 2 1025 59 8000 0.5 0 10:19 14.01.2020
584 Clouds 1 1025 59 10000 0.5 0 09:43 14.01.2020
585 Clouds 1 1025 59 10000 0.5 0 09:43 14.01.2020
586 Clear 0 1026 69 8000 0.5 0 09:24 14.01.2020
587 Clear -1 1025 74 10000 0.5 0 08:59 14.01.2020
588 Clear -1 1026 92 8000 1.5 200 08:39 14.01.2020
589 Clear -1 1026 92 8000 1.5 200 08:21 14.01.2020
590 Clear -5 1025 85 10000 0.5 0 07:51 14.01.2020
591 Clear -5 1025 92 6000 1.11 116 07:24 14.01.2020
592 Clear -6 1025 92 6000 1.11 116 06:42 14.01.2020
593 Clear -6 1024 85 8000 1 0 05:58 14.01.2020
594 Clear -6 1024 92 6000 0.5 260 04:50 14.01.2020
595 Clear -5 1024 92 7000 1 0 03:46 14.01.2020
596 Clear -5 1025 100 7000 1.07 84 02:33 14.01.2020
597 Clear -5 1025 92 7000 0.55 124 01:19 14.01.2020
598 Clear -4 1025 85 8000 1.5 20 00:47 14.01.2020
599 Clear -4 1025 92 10000 0.55 124 00:21 14.01.2020
600 Clear -4 1025 85 8000 1.5 80 23:44 13.01.2020
601 Clear -4 1026 92 10000 1.1 91 23:19 13.01.2020
602 Clear -3 1025 86 10000 1.5 170 22:57 13.01.2020
603 Clear -3 1026 92 10000 1.1 91 22:39 13.01.2020
604 Clear -3 1026 92 10000 1.1 91 22:19 13.01.2020
605 Clear -3 1025 79 10000 1 0 21:55 13.01.2020
606 Clear -3 1025 92 10000 1.1 91 21:36 13.01.2020
607 Clear -3 1025 92 10000 1.1 91 21:18 13.01.2020
608 Clear -2 1025 79 10000 2.1 360 20:55 13.01.2020
609 Clear -1 1025 92 10000 2.1 230 20:37 13.01.2020
610 Clear -1 1025 92 10000 2.1 230 20:37 13.01.2020
611 Clear -2 1025 92 10000 2.1 230 20:19 13.01.2020
612 Clear -2 1025 92 10000 2.1 230 20:19 13.01.2020
613 Clear -2 1025 79 10000 3.1 20 19:41 13.01.2020
614 Clear -2 1025 79 10000 3.1 20 19:21 13.01.2020
615 Clear -2 1025 80 10000 2.1 20 18:58 13.01.2020
616 Clear -2 1025 80 10000 1.58 90 18:38 13.01.2020
617 Clear -2 1025 80 10000 1.58 90 18:19 13.01.2020
618 Clear 0 1025 84 10000 2.1 0 17:58 13.01.2020
619 Clear 0 1025 69 10000 1.5 220 17:39 13.01.2020
620 Clear 0 1025 69 10000 1.5 220 17:20 13.01.2020
621 Clear -2 1028 84 0 0.42 74 16:42 13.01.2020
622 Clear -2 1028 84 0 0.42 74 16:23 13.01.2020
623 Clear -2 1028 84 0 0.42 74 15:59 13.01.2020
624 Clear -2 1028 84 0 0.42 74 15:41 13.01.2020
625 Clear 4 1026 65 0 0.42 74 15:21 13.01.2020
626 Clear 4 1026 64 0 0.42 74 14:43 13.01.2020
627 Clear 4 1026 63 0 0.89 262 14:24 13.01.2020
628 Clear 4 1026 63 0 0.45 39 13:59 13.01.2020
629 Clear 5 1026 63 0 0.45 254 13:40 13.01.2020
630 Clear 4 1026 64 0 0.45 263 13:22 13.01.2020
631 Clear 4 1026 65 0 0.89 283 12:57 13.01.2020
632 Clouds 4 1025 51 10000 1.5 250 12:39 13.01.2020
633 Clouds 4 1025 51 10000 1.5 250 12:21 13.01.2020
634 Clouds 4 1026 60 10000 2.1 0 11:40 13.01.2020
635 Clouds 4 1026 60 10000 2.1 0 11:20 13.01.2020
636 Clouds 4 1026 60 10000 2.1 0 11:20 13.01.2020
637 Clouds 3 1026 59 10000 1.5 240 10:58 13.01.2020
638 Clouds 3 1027 55 10000 1.5 0 10:39 13.01.2020
639 Clouds 3 1027 55 10000 1.5 0 10:20 13.01.2020
640 Clouds 3 1027 55 10000 1.5 0 10:20 13.01.2020
641 Clouds 1 1026 64 10000 1 0 09:59 13.01.2020
642 Clouds 1 1027 69 10000 1.5 280 09:40 13.01.2020
643 Clouds 1 1027 69 10000 1.5 280 09:21 13.01.2020
644 Clouds -1 1027 86 10000 0.24 209 08:41 13.01.2020
645 Clouds -1 1027 86 10000 0.36 277 08:20 13.01.2020
646 Clouds -3 1026 79 10000 0.5 0 07:48 13.01.2020
647 Clouds -3 1027 85 10000 0.36 277 07:27 13.01.2020
648 Clouds -4 1026 85 10000 1 0 06:43 13.01.2020
649 Clouds -4 1026 85 10000 0.5 0 06:22 13.01.2020
650 Clouds -4 1026 92 10000 0.5 0 05:36 13.01.2020
651 Clouds -2 1025 79 10000 1.5 90 03:57 13.01.2020
652 Clouds -2 1025 92 10000 0.78 319 03:25 13.01.2020
653 Clouds -2 1025 80 10000 2.6 100 02:47 13.01.2020
654 Clouds -2 1026 92 10000 0.78 319 02:28 13.01.2020
655 Clouds -1 1025 86 10000 0.58 346 01:21 13.01.2020
656 Clouds 0 1025 85 10000 0.5 0 00:41 13.01.2020
657 Clouds 0 1025 85 10000 0.5 0 00:23 13.01.2020
658 Clouds 1 1024 69 10000 2.1 260 23:54 12.01.2020
659 Clouds 1 1025 80 10000 2.1 240 23:36 12.01.2020
660 Clouds 1 1025 80 10000 2.1 240 23:18 12.01.2020
661 Clouds 2 1024 64 10000 1 0 22:42 12.01.2020
662 Clouds 2 1025 74 10000 2.1 240 22:23 12.01.2020
663 Clouds 3 1024 69 10000 1.93 14 21:57 12.01.2020
664 Clouds 2 1025 64 10000 1.5 0 21:38 12.01.2020
665 Clouds 2 1025 64 10000 1.5 0 21:19 12.01.2020
666 Clouds 3 1024 80 10000 2.1 350 20:56 12.01.2020
667 Clouds 3 1024 74 10000 2.1 230 20:38 12.01.2020
668 Clouds 3 1024 74 10000 2.1 230 20:20 12.01.2020
669 Clouds 3 1024 74 10000 2.6 20 19:56 12.01.2020
670 Clouds 3 1024 74 10000 2.6 260 19:37 12.01.2020
671 Clouds 3 1024 74 10000 2.6 260 19:18 12.01.2020
672 Clouds 3 1023 74 10000 0.5 0 18:57 12.01.2020
673 Clouds 3 1023 74 10000 0.5 0 18:57 12.01.2020
674 Clouds 3 1024 74 10000 2.6 270 18:39 12.01.2020
675 Clouds 3 1024 74 10000 2.6 270 18:21 12.01.2020
676 Clouds 3 1023 74 10000 1.5 350 17:54 12.01.2020
677 Clouds 3 1024 74 10000 2.6 260 17:36 12.01.2020
678 Clouds 3 1024 74 10000 2.6 260 17:18 12.01.2020
679 Clouds 4 1022 74 10000 2.1 170 16:54 12.01.2020
680 Clouds 4 1023 69 10000 3.1 250 16:36 12.01.2020
681 Clouds 4 1023 69 10000 3.1 250 16:18 12.01.2020
682 Clouds 5 1022 64 10000 3.1 180 15:40 12.01.2020
683 Clouds 5 1023 65 10000 2.6 260 15:21 12.01.2020
684 Clouds 4 1022 60 10000 3.6 190 14:44 12.01.2020
685 Clouds 4 1023 69 10000 2.6 250 14:25 12.01.2020
686 Clouds 4 1022 60 10000 0.5 0 13:58 12.01.2020
687 Clouds 4 1023 69 10000 2.6 260 13:40 12.01.2020
688 Clouds 4 1023 69 10000 2.6 260 13:22 12.01.2020
689 Clouds 3 1022 60 7000 1 0 12:58 12.01.2020
690 Clouds 3 1023 69 10000 2.1 0 12:38 12.01.2020
691 Clouds 3 1023 69 10000 2.1 0 12:19 12.01.2020
692 Clouds 3 1022 64 6000 1 0 11:43 12.01.2020
693 Clouds 3 1023 69 10000 2.1 270 11:23 12.01.2020
694 Clouds 2 1022 64 6000 0.5 0 10:59 12.01.2020
695 Clouds 2 1023 69 10000 2.1 290 10:40 12.01.2020
696 Clouds 2 1023 69 10000 2.1 290 10:21 12.01.2020
697 Clouds 1 1022 74 6000 1.5 290 09:44 12.01.2020
698 Clouds 1 1023 74 10000 1.26 245 09:24 12.01.2020
699 Clouds 0 1022 66 6000 0.5 0 08:57 12.01.2020
700 Clouds -1 1023 86 10000 1.26 245 08:38 12.01.2020
701 Clouds -1 1023 86 10000 1.21 270 08:19 12.01.2020
702 Clouds -2 1023 86 10000 0.5 0 07:38 12.01.2020
703 Clouds -2 1023 86 10000 0.5 0 07:19 12.01.2020
704 Clouds -2 1022 86 6000 1 0 06:41 12.01.2020
705 Clouds -2 1022 86 7000 1.5 260 05:58 12.01.2020
706 Clouds -2 1022 92 10000 1 0 05:20 12.01.2020
707 Clouds -3 1022 86 10000 1 300 03:44 12.01.2020
708 Clouds -3 1022 79 10000 1 0 02:59 12.01.2020
709 Clouds -3 1023 86 10000 1.5 230 02:30 12.01.2020
710 Clouds -2 1022 86 10000 1 0 01:40 12.01.2020
711 Clouds -2 1023 80 10000 1 240 01:21 12.01.2020
712 Clouds -2 1023 92 10000 0.37 323 00:40 12.01.2020
713 Clouds -2 1023 92 10000 0.37 323 00:18 12.01.2020
714 Clouds -2 1023 86 10000 0.37 323 23:41 11.01.2020
715 Clouds -2 1023 86 10000 0.4 242 23:19 11.01.2020
716 Clouds -2 1023 86 10000 2.1 30 22:57 11.01.2020
717 Clouds -2 1024 80 10000 2.1 30 22:39 11.01.2020
718 Clouds -2 1024 80 10000 2.1 30 22:20 11.01.2020
719 Clouds -2 1024 79 10000 1.5 170 21:54 11.01.2020
720 Clouds -2 1025 86 10000 2.1 250 21:36 11.01.2020
721 Clouds -2 1025 86 10000 2.1 250 21:18 11.01.2020
722 Clouds -2 1024 86 10000 0.4 242 20:40 11.01.2020
723 Clouds -2 1024 86 10000 0.36 154 20:20 11.01.2020
724 Clouds -2 1023 79 10000 1 250 19:58 11.01.2020
725 Clouds -2 1024 79 10000 0.36 154 19:38 11.01.2020
726 Clouds -2 1024 79 10000 0.36 154 19:20 11.01.2020
727 Clouds -1 1023 74 10000 0.5 0 18:57 11.01.2020
728 Clouds -1 1024 64 10000 1.5 230 18:37 11.01.2020
729 Clouds -1 1024 64 10000 1.5 230 18:19 11.01.2020
730 Clouds 0 1023 74 10000 0.5 0 17:57 11.01.2020
731 Clouds 1 1024 69 10000 2.6 220 17:39 11.01.2020
732 Clouds 1 1024 69 10000 2.6 220 17:18 11.01.2020
733 Clouds 1 1023 64 10000 2.1 280 16:44 11.01.2020
734 Clouds 2 1023 64 10000 2.1 240 16:25 11.01.2020
735 Clouds 3 1023 55 10000 1.5 290 15:57 11.01.2020
736 Clouds 4 1024 52 10000 1.5 250 15:39 11.01.2020
737 Clouds 4 1024 52 10000 1.5 250 15:20 11.01.2020
738 Clouds 4 1023 48 10000 2.1 270 14:46 11.01.2020
739 Rain 5 1024 45 10000 0.5 280 14:25 11.01.2020
740 Rain 4 1023 48 10000 2.1 250 13:58 11.01.2020
741 Rain 4 1024 51 10000 1 330 13:38 11.01.2020
742 Clear 4 1024 51 10000 1 330 13:20 11.01.2020
743 Clear 3 1023 48 10000 1.5 0 12:56 11.01.2020
744 Clear 3 1024 51 10000 2.1 260 12:37 11.01.2020
745 Clear 3 1024 51 10000 2.1 260 12:19 11.01.2020
746 Clear 2 1025 55 10000 2.1 270 11:42 11.01.2020
747 Clear 2 1025 55 10000 2.1 270 11:24 11.01.2020
748 Clear 1 1025 64 10000 1.5 260 10:47 11.01.2020
749 Clear 1 1025 64 10000 1.5 260 10:47 11.01.2020
750 Clear 0 1026 64 10000 2.1 270 10:25 11.01.2020
751 Clear -1 1026 74 10000 1.5 0 09:43 11.01.2020
752 Clear -1 1027 80 10000 0.5 80 09:21 11.01.2020
753 Clear -1 1027 80 10000 0.5 80 09:21 11.01.2020
754 Clear -3 1026 79 10000 1 0 08:57 11.01.2020
755 Clear -3 1027 85 10000 0.88 247 08:38 11.01.2020
756 Clear -3 1027 85 10000 0.24 169 08:19 11.01.2020
757 Clear -6 1026 85 10000 1.5 350 07:42 11.01.2020
758 Clear -6 1026 92 10000 1 220 07:24 11.01.2020
759 Clear -7 1025 92 10000 0.5 0 06:43 11.01.2020
760 Clear -7 1025 85 10000 0.14 182 05:29 11.01.2020
761 Clear -7 1025 85 10000 0.3 219 04:40 11.01.2020
762 Clear -7 1025 85 10000 0.3 219 04:21 11.01.2020
763 Clear -7 1024 92 10000 1 0 02:46 11.01.2020
764 Clear -6 1024 85 10000 1.5 340 01:47 11.01.2020
765 Clear -6 1025 85 10000 0.32 240 01:27 11.01.2020
766 Clear -6 1024 85 10000 0.5 150 00:52 11.01.2020
767 Clear -6 1025 92 10000 0.32 240 00:25 11.01.2020
768 Clear -5 1024 85 10000 0.5 0 23:58 10.01.2020
769 Clear -5 1025 85 10000 0.5 0 23:39 10.01.2020
770 Clear -5 1025 85 10000 0.5 0 23:39 10.01.2020
771 Clear -5 1025 85 10000 0.5 0 23:20 10.01.2020
772 Clear -5 1025 85 10000 1 240 22:41 10.01.2020
773 Clear -5 1025 85 10000 1 240 22:22 10.01.2020
774 Clear -4 1024 79 10000 1 0 21:59 10.01.2020
775 Clear -4 1025 92 10000 1 0 21:41 10.01.2020
776 Clear -4 1025 92 10000 1 0 21:20 10.01.2020
777 Clear -4 1024 73 10000 1 0 20:57 10.01.2020
778 Clear -4 1025 85 10000 1 230 20:39 10.01.2020
779 Clear -4 1025 85 10000 1 230 20:39 10.01.2020
780 Clear -4 1025 85 10000 1 230 20:20 10.01.2020
781 Clouds -3 1024 86 10000 0.38 241 19:41 10.01.2020
782 Clouds -3 1024 86 10000 0.38 241 19:21 10.01.2020
783 Clouds -2 1023 63 10000 1 0 18:57 10.01.2020
784 Clouds -2 1024 74 10000 0.38 241 18:39 10.01.2020
785 Clouds -2 1024 74 10000 0.38 241 18:18 10.01.2020
786 Clouds -2 1023 63 10000 1.5 270 17:56 10.01.2020
787 Clouds -2 1024 74 10000 1 240 17:38 10.01.2020
788 Clear -2 1024 74 10000 1 240 17:19 10.01.2020
789 Clear -2 1024 74 10000 1 240 17:19 10.01.2020
790 Clear 0 1024 64 10000 2.6 240 16:43 10.01.2020
791 Clear 0 1024 64 10000 2.6 240 16:22 10.01.2020
792 Clear 1 1022 55 10000 2.1 250 15:58 10.01.2020
793 Clear 2 1023 51 10000 3.1 250 15:39 10.01.2020
794 Clear 2 1023 51 10000 3.1 250 15:20 10.01.2020
795 Clear 2 1022 47 10000 2.6 270 14:59 10.01.2020
796 Clear 2 1023 47 10000 2.6 0 14:40 10.01.2020
797 Clear 2 1023 47 10000 2.6 0 14:19 10.01.2020
798 Clear 2 1022 47 10000 3.1 270 13:57 10.01.2020
799 Clear 2 1023 47 10000 2.1 0 13:38 10.01.2020
800 Clear 2 1023 47 10000 2.1 0 13:19 10.01.2020
801 Clear 1 1022 55 10000 2.6 270 12:56 10.01.2020
802 Clear 1 1023 55 10000 2.1 0 12:38 10.01.2020
803 Clear 1 1022 50 10000 1 0 12:18 10.01.2020
804 Clear 1 1022 50 10000 1 0 11:42 10.01.2020
805 Clear 1 1023 59 10000 0.5 0 11:22 10.01.2020
806 Clear 0 1023 63 10000 1.5 250 10:59 10.01.2020
807 Clouds 0 1024 64 10000 1.5 0 10:38 10.01.2020
808 Clouds 0 1024 64 10000 1.5 0 10:20 10.01.2020
809 Clear -2 1024 68 10000 1 0 09:48 10.01.2020
810 Clear -2 1025 79 10000 1.14 252 09:27 10.01.2020
811 Clear -3 1024 73 10000 0.5 0 08:59 10.01.2020
812 Clear -4 1024 85 10000 1 0 08:39 10.01.2020
813 Clear -4 1024 85 10000 1 0 08:20 10.01.2020
814 Clouds -6 1023 85 10000 1 0 07:44 10.01.2020
815 Clouds -6 1024 92 10000 1.5 220 07:22 10.01.2020
816 Clouds -7 1023 85 10000 0.5 0 06:43 10.01.2020
817 Clouds -7 1023 85 10000 0.5 210 06:24 10.01.2020
818 Clouds -7 1022 85 10000 1 280 05:44 10.01.2020
819 Clear -7 1022 92 10000 1 210 03:34 10.01.2020
820 Clear -6 1022 85 10000 0.5 0 02:57 10.01.2020
821 Clear -6 1022 92 10000 0.5 220 02:36 10.01.2020
822 Clouds -5 1023 85 10000 0.8 349 01:38 10.01.2020
823 Clouds -5 1022 79 10000 0.5 300 00:57 10.01.2020
824 Clouds -5 1023 85 10000 1 230 00:38 10.01.2020
825 Clouds -5 1022 79 10000 1.5 150 23:57 09.01.2020
826 Clouds -5 1023 85 10000 1.5 230 23:38 09.01.2020
827 Clouds -5 1023 85 10000 1.5 230 23:19 09.01.2020
828 Clouds -4 1022 79 10000 1.5 260 22:57 09.01.2020
829 Clouds -4 1023 85 10000 1.23 40 22:37 09.01.2020
830 Clouds -4 1023 85 10000 1.23 40 22:18 09.01.2020
831 Clouds -4 1022 73 10000 1 0 21:56 09.01.2020
832 Clouds -4 1022 85 10000 1 0 21:37 09.01.2020
833 Clouds -4 1022 85 10000 1 0 21:37 09.01.2020
834 Clouds -4 1022 85 10000 1 0 21:37 09.01.2020
835 Clouds -4 1022 85 10000 1 0 21:37 09.01.2020
836 Clouds -4 1022 85 10000 1 0 21:18 09.01.2020
837 Clouds -3 1022 79 10000 0.5 0 20:56 09.01.2020
838 Clouds -3 1022 79 10000 0.5 0 20:38 09.01.2020
839 Clear -3 1023 85 10000 1 0 20:19 09.01.2020
840 Clouds -3 1022 73 10000 2.1 170 19:54 09.01.2020
841 Clouds -3 1022 73 10000 2.1 170 19:36 09.01.2020
842 Clear -2 1023 74 10000 1.5 310 19:18 09.01.2020
843 Clouds -1 1022 68 10000 2.1 330 18:54 09.01.2020
844 Clouds -1 1022 68 10000 2.1 330 18:36 09.01.2020
845 Clouds 0 1022 68 10000 2.6 310 18:18 09.01.2020
846 Clouds 0 1022 68 10000 2.6 310 18:18 09.01.2020
847 Clouds 0 1021 68 10000 2.6 350 17:40 09.01.2020
848 Clouds 0 1022 55 10000 3.6 20 17:18 09.01.2020
849 Clouds 0 1022 55 10000 3.6 20 17:18 09.01.2020
850 Clouds 0 1021 63 10000 3.1 30 16:47 09.01.2020
851 Clouds 0 1021 55 10000 3.1 20 16:22 09.01.2020
852 Clouds 1 1020 65 10000 5.1 40 15:44 09.01.2020
853 Clouds 1 1021 51 10000 4.1 30 15:25 09.01.2020
854 Clouds 2 1021 51 10000 4.1 30 14:59 09.01.2020
855 Clouds 2 1020 55 10000 4.6 40 14:41 09.01.2020
856 Clouds 2 1020 55 10000 4.6 40 14:21 09.01.2020
857 Clouds 2 1020 47 10000 3.6 10 13:57 09.01.2020
858 Clouds 2 1020 47 10000 3.6 10 13:39 09.01.2020
859 Clouds 2 1020 55 10000 5.1 360 13:20 09.01.2020
860 Clouds 2 1020 55 10000 4.1 10 12:58 09.01.2020
861 Clouds 2 1020 55 10000 4.1 10 12:38 09.01.2020
862 Clouds 1 1020 59 10000 1.5 0 12:19 09.01.2020
863 Clouds 1 1020 55 10000 2.6 340 11:43 09.01.2020
864 Clouds 1 1020 55 10000 3.6 20 11:25 09.01.2020
865 Clouds 1 1020 55 10000 3.6 20 11:25 09.01.2020
866 Clouds 1 1020 55 10000 4.6 50 10:59 09.01.2020
867 Clouds 2 1020 55 10000 4.6 50 10:41 09.01.2020
868 Clouds 1 1021 55 10000 3.1 20 10:22 09.01.2020
869 Clouds 1 1021 57 10000 3.1 40 09:49 09.01.2020
870 Clouds 0 1021 57 10000 3.1 30 09:26 09.01.2020
871 Clouds 0 1021 57 10000 3.1 30 08:59 09.01.2020
872 Clouds 0 1020 74 10000 2.6 30 08:40 09.01.2020
873 Clouds -1 1021 69 10000 3.6 30 08:22 09.01.2020
874 Clouds -1 1020 79 10000 2.6 10 07:57 09.01.2020
875 Clouds -1 1020 79 10000 2.6 10 07:38 09.01.2020
876 Clouds -2 1020 68 10000 2.1 20 07:19 09.01.2020
877 Clouds -1 1019 79 10000 2.6 10 06:38 09.01.2020
878 Clouds -1 1019 79 10000 3.1 20 06:18 09.01.2020
879 Clouds -1 1019 79 10000 3.6 20 05:40 09.01.2020
880 Clouds -1 1019 74 10000 3.6 360 04:42 09.01.2020
881 Clouds -1 1018 68 10000 4.6 360 03:28 09.01.2020
882 Clouds 0 1018 74 10000 4.1 10 02:47 09.01.2020
883 Clouds 0 1018 74 10000 4.1 10 02:47 09.01.2020
884 Clouds 0 1018 74 10000 6.2 20 01:56 09.01.2020
885 Clouds 0 1018 74 10000 6.2 20 01:34 09.01.2020
886 Clouds 0 1018 76 10000 5.7 10 00:40 09.01.2020
887 Clouds 1 1018 76 10000 4.6 20 00:19 09.01.2020
888 Clouds 0 1018 76 10000 3.6 40 23:41 08.01.2020
889 Clouds 1 1018 69 10000 3.6 350 23:23 08.01.2020
890 Clouds 1 1018 69 10000 3.1 40 22:56 08.01.2020
891 Clouds 1 1018 69 10000 3.1 40 22:38 08.01.2020
892 Clouds 1 1018 69 10000 3.6 360 22:19 08.01.2020
893 Clouds 1 1018 74 10000 2.6 40 21:55 08.01.2020
894 Clouds 1 1018 74 10000 2.6 40 21:37 08.01.2020
895 Clouds 1 1018 69 10000 3.1 350 21:18 08.01.2020
896 Clouds 2 1018 69 10000 3.1 350 20:56 08.01.2020
897 Clouds 2 1018 83 10000 4.1 60 20:37 08.01.2020
898 Clouds 2 1017 69 10000 5.7 30 20:19 08.01.2020
899 Clouds 2 1017 80 10000 5.1 60 19:39 08.01.2020
900 Clouds 2 1017 69 10000 4.1 40 19:20 08.01.2020
901 Clouds 2 1017 69 10000 4.1 40 18:59 08.01.2020
902 Clouds 2 1017 69 10000 4.1 40 18:40 08.01.2020
903 Rain 2 1017 83 10000 1.5 240 18:19 08.01.2020
904 Rain 2 1017 83 10000 1.5 240 18:19 08.01.2020
905 Rain 2 1017 83 10000 1.5 240 18:19 08.01.2020
906 Rain 2 1017 83 10000 1.5 240 17:59 08.01.2020
907 Rain 2 1016 74 10000 3.1 20 17:40 08.01.2020
908 Clouds 2 1017 75 10000 2.6 260 17:22 08.01.2020
909 Snow 2 1016 86 7000 5.7 40 16:57 08.01.2020
910 Snow 2 1016 86 7000 5.7 40 16:38 08.01.2020
911 Rain 3 1016 86 4000 3.1 40 16:19 08.01.2020
912 Rain 3 1016 80 6000 7.2 350 15:55 08.01.2020
913 Rain 3 1016 80 6000 7.2 350 15:37 08.01.2020
914 Rain 3 1015 74 10000 6.7 350 15:18 08.01.2020
915 Rain 4 1015 69 10000 4.6 350 14:40 08.01.2020
916 Rain 4 1015 69 10000 4.1 340 14:21 08.01.2020
917 Rain 4 1014 69 10000 5.7 40 13:42 08.01.2020
918 Rain 4 1015 76 10000 1.5 240 13:24 08.01.2020
919 Rain 4 1015 76 10000 1.5 240 12:59 08.01.2020
920 Rain 4 1014 76 10000 7.2 30 12:40 08.01.2020
921 Rain 4 1014 80 10000 2.1 230 12:18 08.01.2020
922 Rain 4 1014 76 10000 5.7 30 11:48 08.01.2020
923 Rain 4 1014 80 10000 1.5 190 11:20 08.01.2020
924 Rain 4 1014 94 10000 5.7 20 10:59 08.01.2020
925 Rain 4 1014 94 10000 5.7 20 10:41 08.01.2020
926 Rain 4 1014 75 10000 4.6 360 10:21 08.01.2020
927 Rain 4 1014 75 10000 4.6 360 09:57 08.01.2020
928 Rain 3 1014 94 10000 2.1 290 09:36 08.01.2020
929 Rain 3 1015 93 10000 1 0 09:18 08.01.2020
930 Rain 3 1014 93 10000 0.5 230 08:41 08.01.2020
931 Rain 3 1014 93 10000 1.5 240 08:22 08.01.2020
932 Rain 3 1014 93 10000 1.5 240 07:58 08.01.2020
933 Rain 3 1013 93 7000 2.1 260 07:40 08.01.2020
934 Rain 2 1014 93 7000 2.1 220 07:18 08.01.2020
935 Rain 2 1013 93 10000 1 0 06:41 08.01.2020
936 Rain 2 1013 100 10000 2.1 230 05:56 08.01.2020
937 Rain 3 1012 86 10000 3.6 20 05:26 08.01.2020
938 Rain 3 1012 86 10000 3.1 30 04:37 08.01.2020
939 Rain 2 1012 93 10000 2.1 20 02:46 08.01.2020
940 Rain 2 1012 93 10000 2.1 20 02:28 08.01.2020
941 Rain 3 1012 86 10000 3.6 20 01:57 08.01.2020
942 Rain 3 1012 86 10000 3.6 20 01:32 08.01.2020
943 Rain 2 1012 86 10000 4.1 20 00:51 08.01.2020
944 Rain 2 1012 100 6000 0.5 0 00:22 08.01.2020
945 Rain 2 1011 86 10000 2.6 20 23:46 07.01.2020
946 Rain 2 1012 86 10000 3.1 10 23:21 07.01.2020
947 Rain 2 1012 86 10000 3.1 10 22:43 07.01.2020
948 Rain 2 1012 100 7000 1.12 42 22:21 07.01.2020
949 Rain 2 1012 100 7000 1.12 42 21:59 07.01.2020
950 Rain 2 1012 86 10000 2.6 360 21:41 07.01.2020
951 Rain 3 1012 86 10000 2.6 10 21:21 07.01.2020
952 Rain 3 1012 86 10000 2.6 10 20:58 07.01.2020
953 Rain 3 1013 93 10000 1 0 20:39 07.01.2020
954 Rain 3 1012 86 10000 3.1 20 20:21 07.01.2020
955 Rain 3 1012 86 10000 3.1 20 19:57 07.01.2020
956 Rain 3 1011 86 10000 3.6 20 19:37 07.01.2020
957 Rain 3 1012 86 10000 2.18 35 19:19 07.01.2020
958 Rain 3 1011 98 10000 3.6 360 18:56 07.01.2020
959 Rain 4 1011 98 10000 3.6 360 18:37 07.01.2020
960 Rain 4 1011 98 10000 2.6 10 18:18 07.01.2020
961 Clouds 4 1011 98 10000 3.6 50 17:42 07.01.2020
962 Clouds 4 1011 97 10000 3.1 40 17:23 07.01.2020
963 Clouds 4 1011 97 10000 3.1 40 17:23 07.01.2020
964 Rain 4 1011 97 10000 3.1 20 16:58 07.01.2020
965 Rain 4 1011 97 10000 3.1 20 16:39 07.01.2020
966 Rain 5 1010 97 10000 4.6 30 16:20 07.01.2020
967 Rain 5 1010 97 10000 4.6 30 15:59 07.01.2020
968 Rain 4 1010 97 10000 4.6 20 15:41 07.01.2020
969 Clouds 4 1010 70 10000 4.1 80 15:23 07.01.2020
970 Clouds 5 1010 97 10000 4.1 360 14:57 07.01.2020
971 Clouds 5 1010 97 10000 4.1 360 14:37 07.01.2020
972 Clouds 5 1010 91 10000 4.1 360 14:19 07.01.2020
973 Clouds 5 1010 91 10000 4.1 360 14:19 07.01.2020
974 Clouds 5 1010 91 10000 4.1 10 13:40 07.01.2020
975 Clouds 4 1009 93 10000 4.1 30 13:20 07.01.2020
976 Clouds 5 1010 93 10000 2.6 40 12:54 07.01.2020
977 Clouds 5 1010 93 10000 2.6 40 12:36 07.01.2020
978 Clouds 5 1010 93 10000 0.5 0 12:18 07.01.2020
979 Rain 4 1010 70 10000 2.6 90 11:41 07.01.2020
980 Clouds 4 1010 85 10000 4.6 30 11:21 07.01.2020
981 Clouds 4 1010 85 10000 4.6 40 10:43 07.01.2020
982 Clouds 4 1010 85 10000 4.1 30 10:24 07.01.2020
983 Clouds 4 1010 85 10000 4.1 20 09:59 07.01.2020
984 Clouds 4 1010 85 10000 4.1 20 09:38 07.01.2020
985 Clouds 4 1011 93 10000 1.5 180 09:20 07.01.2020
986 Clouds 4 1010 85 10000 2.6 60 08:47 07.01.2020
987 Clouds 3 1010 70 10000 4.1 100 08:27 07.01.2020
988 Clouds 3 1010 80 10000 3.1 20 07:55 07.01.2020
989 Clouds 3 1010 80 10000 3.1 20 07:34 07.01.2020
990 Clouds 3 1010 93 10000 1 280 06:54 07.01.2020
991 Clouds 3 1010 93 10000 1 280 06:35 07.01.2020
992 Clouds 3 1009 86 10000 1.5 250 05:58 07.01.2020
993 Clouds 3 1009 86 10000 1.5 250 05:38 07.01.2020
994 Clouds 3 1010 80 8000 3.6 10 03:44 07.01.2020
995 Clouds 3 1009 69 10000 2.6 20 02:25 07.01.2020
996 Clouds 3 1009 69 10000 2.6 20 01:57 07.01.2020
997 Clouds 3 1010 69 10000 2.6 80 01:34 07.01.2020
998 Rain 2 1009 74 10000 3.1 360 00:40 07.01.2020
999 Rain 2 1009 74 10000 4.1 50 00:20 07.01.2020
1000 Rain 2 1009 74 10000 4.1 30 23:55 06.01.2020
1001 Rain 2 1009 74 10000 4.1 30 23:36 06.01.2020
1002 Rain 2 1009 74 10000 5.1 40 23:18 06.01.2020
1003 Rain 2 1009 74 10000 5.1 40 23:18 06.01.2020
1004 Rain 2 1009 74 10000 5.1 30 22:43 06.01.2020
1005 Rain 2 1009 74 10000 3.1 90 22:23 06.01.2020
1006 Rain 2 1009 74 10000 3.1 90 21:58 06.01.2020
1007 Clouds 1 1009 80 10000 5.1 60 21:39 06.01.2020
1008 Clouds 1 1010 80 10000 6.2 60 21:20 06.01.2020
1009 Clouds 1 1010 80 10000 6.2 60 21:20 06.01.2020
1010 Clouds 1 1010 80 10000 6.2 50 20:57 06.01.2020
1011 Clouds 1 1010 80 10000 6.2 50 20:38 06.01.2020
1012 Snow 1 1010 100 4000 2.1 250 20:20 06.01.2020
1013 Snow 1 1010 80 8000 7.2 50 19:56 06.01.2020
1014 Snow 1 1010 80 8000 7.2 50 19:38 06.01.2020
1015 Clouds 1 1010 80 8000 7.2 50 19:20 06.01.2020
1016 Clouds 1 1010 80 6000 1.5 70 18:48 06.01.2020
1017 Snow 1 1010 88 9000 6.2 40 18:22 06.01.2020
1018 Snow 1 1010 88 4200 5.7 30 17:58 06.01.2020
1019 Snow 1 1010 88 4200 5.7 30 17:38 06.01.2020
1020 Snow 0 1010 85 1000 1 0 17:18 06.01.2020
1021 Snow 0 1010 85 1000 1 0 17:18 06.01.2020
1022 Snow 0 1010 85 4800 4.1 40 16:44 06.01.2020
1023 Snow 0 1010 85 4800 5.7 30 16:25 06.01.2020
1024 Snow 0 1010 85 4800 5.7 30 15:59 06.01.2020
1025 Snow 0 1010 85 4100 7.2 50 15:39 06.01.2020
1026 Snow 0 1010 92 4800 5.1 30 15:19 06.01.2020
1027 Snow 0 1010 92 2200 5.7 30 14:57 06.01.2020
1028 Snow 0 1010 92 2200 5.7 30 14:39 06.01.2020
1029 Snow 0 1010 92 1800 6.2 30 14:19 06.01.2020
1030 Snow 0 1010 92 1400 5.1 40 13:54 06.01.2020
1031 Snow 0 1010 92 1400 5.1 40 13:36 06.01.2020
1032 Snow 0 1010 80 1600 3.1 70 13:18 06.01.2020
1033 Snow 0 1011 80 1400 3.1 70 12:41 06.01.2020
1034 Snow 0 1010 80 2500 7.2 50 12:20 06.01.2020
1035 Snow 0 1010 80 2200 4.6 70 11:57 06.01.2020
1036 Snow 0 1010 80 2200 4.6 70 11:38 06.01.2020
1037 Snow 0 1010 80 2200 4.6 70 11:38 06.01.2020
1038 Snow 0 1010 81 1700 5.7 80 11:20 06.01.2020
1039 Snow 0 1010 81 1700 5.7 80 11:20 06.01.2020
1040 Snow 0 1011 92 2000 6.7 30 10:43 06.01.2020
1041 Snow 0 1011 81 1700 5.1 80 10:21 06.01.2020
1042 Snow 0 1012 81 2000 6.7 50 09:42 06.01.2020
1043 Snow 0 1012 92 900 6.7 50 09:24 06.01.2020
1044 Snow 0 1012 92 900 6.7 50 08:58 06.01.2020
1045 Snow 0 1012 81 1900 4.6 50 08:40 06.01.2020
1046 Snow 0 1012 73 600 5.1 90 08:21 06.01.2020
1047 Snow 0 1012 73 4500 6.2 40 07:48 06.01.2020
1048 Snow 1 1012 92 4800 4.6 30 07:21 06.01.2020
1049 Snow 1 1011 73 1800 5.1 50 06:44 06.01.2020
1050 Clouds 1 1011 73 10000 5.7 30 05:52 06.01.2020
1051 Clouds 1 1011 73 10000 5.7 30 05:33 06.01.2020
1052 Clouds 0 1011 86 10000 3.6 30 04:26 06.01.2020
1053 Clouds 0 1011 86 10000 5.1 20 03:53 06.01.2020
1054 Clouds 0 1012 86 10000 2.6 20 02:32 06.01.2020
1055 Clouds 0 1012 86 10000 5.1 20 01:56 06.01.2020
1056 Clouds 0 1012 86 10000 5.1 20 01:32 06.01.2020
1057 Clouds -1 1012 86 10000 3.6 10 00:57 06.01.2020
1058 Clouds -1 1013 92 10000 3.1 10 00:39 06.01.2020
1059 Clouds -1 1012 80 10000 1.5 10 00:18 06.01.2020
1060 Clouds -1 1012 86 10000 3.1 40 23:40 05.01.2020
1061 Clouds -1 1013 86 10000 1 230 23:21 05.01.2020
1062 Clouds -1 1013 86 10000 1.5 350 22:55 05.01.2020
1063 Clouds -1 1013 86 10000 1.5 350 22:37 05.01.2020
1064 Clouds -1 1013 86 10000 3.6 20 22:18 05.01.2020
1065 Clouds -1 1013 86 10000 3.1 20 21:41 05.01.2020
1066 Clouds -1 1013 86 10000 3.1 20 21:41 05.01.2020
1067 Clouds -1 1012 86 10000 3.1 30 21:21 05.01.2020
1068 Clouds -1 1012 86 10000 3.1 30 20:58 05.01.2020
1069 Clouds -1 1013 86 10000 1.5 10 20:39 05.01.2020
1070 Clouds -1 1012 86 10000 3.1 10 20:20 05.01.2020
1071 Clouds -1 1012 86 10000 3.1 10 19:59 05.01.2020
1072 Clouds -1 1012 80 10000 2.1 20 19:40 05.01.2020
1073 Clouds -1 1012 80 10000 1 0 19:21 05.01.2020
1074 Clouds -1 1012 81 10000 1.5 350 18:56 05.01.2020
1075 Clouds -1 1012 81 10000 1.5 350 18:38 05.01.2020
1076 Clouds 1 1012 69 10000 2.1 70 18:19 05.01.2020
1077 Clouds 2 1012 64 10000 2.1 60 17:59 05.01.2020
1078 Clouds 2 1012 64 10000 2.1 60 17:39 05.01.2020
1079 Clouds 2 1012 64 10000 2.1 60 17:39 05.01.2020
1080 Clouds 1 1013 69 10000 0.5 0 17:20 05.01.2020
1081 Clouds 2 1011 64 10000 3.1 50 16:57 05.01.2020
1082 Clouds 2 1011 64 10000 3.1 50 16:39 05.01.2020
1083 Clouds 2 1011 59 10000 2.1 360 16:20 05.01.2020
1084 Clouds 3 1011 55 10000 1 340 15:40 05.01.2020
1085 Clouds 3 1011 55 10000 1 0 15:21 05.01.2020
1086 Clouds 3 1011 55 10000 1 0 14:57 05.01.2020
1087 Clouds 3 1011 55 10000 1 0 14:38 05.01.2020
1088 Clouds 3 1011 55 10000 2.1 230 14:20 05.01.2020
1089 Clouds 3 1011 55 10000 2.1 230 13:57 05.01.2020
1090 Clouds 3 1011 55 10000 2.1 220 13:38 05.01.2020
1091 Clouds 3 1011 55 10000 2.1 220 13:38 05.01.2020
1092 Clouds 3 1011 55 10000 3.1 230 13:19 05.01.2020
1093 Clouds 3 1011 55 10000 3.1 230 12:56 05.01.2020
1094 Clouds 3 1011 59 10000 3.1 190 12:56 05.01.2020
1095 Clouds 3 1011 59 10000 3.1 190 12:37 05.01.2020
1096 Clouds 3 1011 51 10000 4.1 190 12:19 05.01.2020
1097 Clouds 3 1012 59 10000 1.5 0 11:44 05.01.2020
1098 Clouds 3 1013 64 10000 1.5 290 11:20 05.01.2020
1099 Clouds 3 1013 64 10000 1.5 290 11:00 05.01.2020
1100 Clouds 2 1013 64 10000 1.5 220 10:40 05.01.2020
1101 Clouds 2 1014 64 10000 1 0 10:19 05.01.2020
1102 Clouds 1 1013 69 10000 1 0 09:42 05.01.2020
1103 Clouds -1 1013 66 10000 1.5 220 09:22 05.01.2020
1104 Clouds -1 1013 86 10000 1.5 220 08:54 05.01.2020
1105 Clouds -1 1013 86 10000 1.5 220 08:35 05.01.2020
1106 Clouds -1 1015 86 10000 0.57 225 07:59 05.01.2020
1107 Clouds -4 1014 86 10000 1 160 07:39 05.01.2020
1108 Clouds -4 1013 79 10000 0.5 0 07:20 05.01.2020
1109 Clouds -4 1013 86 10000 1 0 06:44 05.01.2020
1110 Clouds -4 1013 79 10000 2.1 150 05:39 05.01.2020
1111 Clouds -3 1012 80 10000 2.1 150 04:55 05.01.2020
1112 Clouds -3 1012 86 10000 1 0 04:18 05.01.2020
1113 Clouds -3 1012 86 10000 1 0 04:18 05.01.2020
1114 Clouds -2 1013 86 10000 0.5 0 03:26 05.01.2020
1115 Clouds -2 1013 86 10000 0.5 0 02:32 05.01.2020
1116 Clouds -1 1013 86 10000 1.5 150 01:49 05.01.2020
1117 Clouds -1 1013 86 10000 1 10 01:20 05.01.2020
1118 Clouds 0 1013 86 10000 1.03 258 00:57 05.01.2020
1119 Clouds 0 1013 86 10000 1.03 258 00:57 05.01.2020
1120 Clouds 0 1013 86 10000 1.03 258 00:39 05.01.2020
1121 Clouds 0 1013 86 10000 1 0 00:19 05.01.2020
1122 Clouds 0 1013 86 10000 1 0 23:41 04.01.2020
1123 Clouds 0 1013 86 10000 1 0 23:41 04.01.2020
1124 Clouds 0 1013 86 10000 0.5 0 23:20 04.01.2020
1125 Clouds 0 1013 80 10000 1.5 130 22:55 04.01.2020
1126 Clouds 0 1013 80 10000 1.5 130 22:37 04.01.2020
1127 Clouds 0 1014 93 10000 0.45 247 22:19 04.01.2020
1128 Clouds 0 1013 80 10000 1 0 21:55 04.01.2020
1129 Clouds 0 1013 80 10000 1 0 21:36 04.01.2020
1130 Clouds 0 1014 93 10000 0.45 247 21:18 04.01.2020
1131 Clouds 0 1013 80 10000 2.1 160 20:41 04.01.2020
1132 Clouds 0 1013 80 10000 2.6 160 20:22 04.01.2020
1133 Clouds 0 1013 80 10000 2.6 160 19:57 04.01.2020
1134 Clouds 0 1013 80 10000 2.6 180 19:39 04.01.2020
1135 Clouds 0 1014 88 10000 1.29 259 19:20 04.01.2020
1136 Clouds 0 1013 80 10000 2.1 170 18:56 04.01.2020
1137 Clouds 0 1013 80 10000 2.1 170 18:38 04.01.2020
1138 Clouds 0 1013 80 10000 2.1 170 18:19 04.01.2020
1139 Clouds 0 1013 80 10000 2.1 180 17:42 04.01.2020
1140 Clouds 0 1012 80 10000 2.1 180 17:24 04.01.2020
1141 Clouds 0 1012 80 10000 2.1 180 16:59 04.01.2020
1142 Clouds 0 1012 80 10000 2.6 200 16:40 04.01.2020
1143 Clouds 1 1012 80 10000 2.1 200 16:22 04.01.2020
1144 Clouds 1 1012 80 10000 2.1 200 15:56 04.01.2020
1145 Clouds 1 1012 79 10000 3.6 190 15:38 04.01.2020
1146 Clouds 2 1012 69 10000 3.6 210 15:19 04.01.2020
1147 Clouds 2 1012 64 10000 4.6 220 14:54 04.01.2020
1148 Clouds 2 1012 64 10000 4.6 210 14:36 04.01.2020
1149 Clouds 2 1012 64 10000 4.6 210 14:18 04.01.2020
1150 Clouds 2 1012 64 10000 3.6 220 13:39 04.01.2020
1151 Clouds 2 1013 64 10000 2.6 260 13:20 04.01.2020
1152 Clouds 2 1013 64 10000 2.6 260 12:59 04.01.2020
1153 Clouds 2 1012 59 10000 2.6 190 12:40 04.01.2020
1154 Clouds 2 1013 69 10000 3.1 250 12:19 04.01.2020
1155 Clouds 2 1013 69 10000 3.1 250 11:57 04.01.2020
1156 Clouds 1 1013 69 10000 2.1 200 11:38 04.01.2020
1157 Clouds 1 1014 69 10000 3.1 260 11:18 04.01.2020
1158 Clouds 1 1013 69 10000 2.6 200 10:41 04.01.2020
1159 Clouds 0 1014 87 10000 3.1 220 10:22 04.01.2020
1160 Clouds 0 1014 87 10000 3.6 210 09:50 04.01.2020
1161 Clouds 0 1014 87 10000 3.6 210 09:26 04.01.2020
1162 Clouds 0 1014 80 10000 3.1 180 08:57 04.01.2020
1163 Clouds -1 1014 80 10000 3.1 180 08:37 04.01.2020
1164 Clouds -2 1014 80 10000 2.6 190 08:19 04.01.2020
1165 Clouds -2 1014 80 10000 2.1 180 07:42 04.01.2020
1166 Clouds -3 1014 86 10000 2.1 180 06:49 04.01.2020
1167 Clouds -3 1014 86 10000 1.5 190 05:59 04.01.2020
1168 Clouds -3 1014 86 10000 2.1 180 05:18 04.01.2020
1169 Clouds -3 1014 86 10000 1.5 180 04:32 04.01.2020
1170 Clouds -3 1014 86 10000 2.1 170 03:39 04.01.2020
1171 Clouds -3 1014 86 10000 1 160 03:18 04.01.2020
1172 Clouds -4 1016 92 10000 0.71 288 02:20 04.01.2020
1173 Clouds -4 1015 86 10000 1 300 01:53 04.01.2020
1174 Clouds -4 1015 86 10000 1 300 01:30 04.01.2020
1175 Clouds -4 1015 79 10000 1 160 00:30 04.01.2020
1176 Clouds -3 1016 86 10000 1 0 23:59 03.01.2020
1177 Clouds -3 1016 86 10000 0.5 0 23:38 03.01.2020
1178 Clouds -3 1016 86 10000 1 0 23:20 03.01.2020
1179 Clouds -3 1016 79 10000 0.5 0 22:41 03.01.2020
1180 Clouds -3 1016 86 10000 2.1 150 22:19 03.01.2020
1181 Clouds -3 1017 79 10000 0.51 68 21:58 03.01.2020
1182 Clouds -3 1017 79 10000 0.51 68 21:38 03.01.2020
1183 Clouds -3 1017 79 10000 0.51 68 21:38 03.01.2020
1184 Clouds -2 1017 86 10000 1 0 21:19 03.01.2020
1185 Clouds -2 1017 86 10000 1 0 21:19 03.01.2020
1186 Clouds -2 1017 86 10000 1 0 20:56 03.01.2020
1187 Clouds -2 1017 86 10000 1.5 40 20:38 03.01.2020
1188 Clear -2 1017 86 10000 2.1 10 20:18 03.01.2020
1189 Clear -2 1017 86 10000 2.6 350 19:55 03.01.2020
1190 Clear -2 1017 86 10000 2.6 350 19:37 03.01.2020
1191 Clear -2 1018 86 10000 0.5 0 19:18 03.01.2020
1192 Clear -1 1018 79 10000 2.6 360 18:40 03.01.2020
1193 Clear -1 1019 69 10000 3.1 60 18:21 03.01.2020
1194 Clear 0 1018 80 10000 3.1 20 17:55 03.01.2020
1195 Clear 0 1018 80 10000 3.1 20 17:36 03.01.2020
1196 Clear 0 1018 69 10000 1 0 17:18 03.01.2020
1197 Clouds 1 1017 75 10000 3.6 70 16:42 03.01.2020
1198 Clear 2 1019 64 10000 3.1 40 16:22 03.01.2020
1199 Clouds 3 1017 64 10000 5.1 80 15:43 03.01.2020
1200 Clouds 3 1018 64 10000 4.1 50 15:19 03.01.2020
1201 Clouds 3 1018 64 10000 4.1 50 14:57 03.01.2020
1202 Clouds 4 1018 64 10000 5.1 80 14:37 03.01.2020
1203 Clouds 4 1018 64 10000 5.7 50 14:19 03.01.2020
1204 Clouds 4 1018 64 10000 6.2 40 13:43 03.01.2020
1205 Clouds 4 1018 56 10000 4.6 20 13:23 03.01.2020
1206 Clouds 4 1018 56 10000 4.6 20 12:57 03.01.2020
1207 Clouds 4 1018 64 10000 6.7 50 12:38 03.01.2020
1208 Clouds 4 1018 59 10000 6.7 40 12:20 03.01.2020
1209 Clouds 4 1018 59 10000 7.2 70 11:44 03.01.2020
1210 Clouds 4 1019 55 10000 5.1 50 11:19 03.01.2020
1211 Clouds 4 1019 59 10000 7.2 60 10:44 03.01.2020
1212 Clouds 4 1020 55 10000 6.7 60 10:25 03.01.2020
1213 Clouds 3 1020 55 10000 8.7 50 09:57 03.01.2020
1214 Clouds 3 1020 55 10000 8.7 50 09:39 03.01.2020
1215 Clouds 3 1020 55 10000 8.2 50 09:21 03.01.2020
1216 Clouds 2 1020 59 10000 7.2 60 08:56 03.01.2020
1217 Clouds 2 1020 59 10000 7.2 60 08:36 03.01.2020
1218 Clouds 0 1020 59 10000 6.7 50 08:18 03.01.2020
1219 Clouds -1 1020 64 10000 7.7 50 07:39 03.01.2020
1220 Clear -1 1020 74 10000 2.62 59 07:18 03.01.2020
1221 Clouds -1 1020 64 10000 6.7 50 06:43 03.01.2020
1222 Clouds -2 1020 69 10000 5.7 60 06:24 03.01.2020
1223 Clear -2 1020 74 10000 1 0 05:28 03.01.2020
1224 Clouds -3 1020 86 10000 4.6 30 03:55 03.01.2020
1225 Clouds -2 1020 79 10000 4.1 40 02:55 03.01.2020
1226 Clouds -3 1021 79 10000 3.1 50 01:57 03.01.2020
1227 Clouds -3 1021 79 10000 4.1 30 01:38 03.01.2020
1228 Clouds -2 1021 80 10000 3.6 50 00:46 03.01.2020
1229 Clouds -2 1021 80 10000 3.6 50 00:26 03.01.2020
1230 Clouds -2 1021 80 10000 2.6 60 23:55 02.01.2020
1231 Clouds -2 1021 80 10000 2.6 60 23:37 02.01.2020
1232 Clouds -2 1021 80 10000 3.1 60 23:18 02.01.2020
1233 Clouds -2 1022 80 10000 3.6 30 22:44 02.01.2020
1234 Clouds -2 1022 76 10000 4.1 30 22:20 02.01.2020
1235 Clouds -1 1022 76 10000 3.6 30 21:57 02.01.2020
1236 Clouds -1 1022 76 10000 3.6 30 21:57 02.01.2020
1237 Clouds -1 1022 76 10000 3.6 30 21:38 02.01.2020
1238 Clouds -1 1022 76 10000 3.6 30 21:38 02.01.2020
1239 Clouds -1 1022 76 10000 4.1 50 21:20 02.01.2020
1240 Clouds -1 1022 76 10000 4.1 50 20:57 02.01.2020
1241 Clouds -1 1022 80 10000 3.1 40 20:38 02.01.2020
1242 Clouds 1 1022 74 10000 4.6 40 20:20 02.01.2020
1243 Clouds 1 1022 80 10000 3.6 20 19:55 02.01.2020
1244 Clouds 1 1022 80 10000 3.6 20 19:36 02.01.2020
1245 Clouds 1 1022 74 10000 5.1 30 19:18 02.01.2020
1246 Clouds 1 1022 86 10000 3.6 20 18:54 02.01.2020
1247 Clouds 1 1022 86 10000 3.6 20 18:36 02.01.2020
1248 Clouds 1 1021 69 10000 4.1 40 18:18 02.01.2020
1249 Clouds 1 1021 69 10000 4.1 40 17:55 02.01.2020
1250 Clouds 2 1021 69 10000 4.1 40 17:36 02.01.2020
1251 Clouds 1 1021 67 10000 3.6 30 17:18 02.01.2020
1252 Clouds 2 1021 67 10000 3.6 20 16:41 02.01.2020
1253 Clouds 3 1021 69 10000 4.6 70 16:21 02.01.2020
1254 Clouds 3 1021 69 10000 4.6 70 15:58 02.01.2020
1255 Clouds 3 1020 64 10000 5.7 70 15:40 02.01.2020
1256 Clouds 3 1020 64 10000 5.7 70 15:40 02.01.2020
1257 Clouds 3 1021 55 10000 6.2 70 15:22 02.01.2020
1258 Clouds 4 1020 59 10000 6.7 70 14:57 02.01.2020
1259 Clouds 4 1020 59 10000 6.7 70 14:37 02.01.2020
1260 Clouds 4 1021 52 10000 6.7 50 14:18 02.01.2020
1261 Clouds 4 1020 55 10000 7.7 50 13:51 02.01.2020
1262 Clouds 4 1020 55 10000 7.7 50 13:32 02.01.2020
1263 Clouds 4 1020 55 10000 7.2 50 12:47 02.01.2020
1264 Clouds 4 1020 55 10000 8.2 40 12:28 02.01.2020
1265 Clouds 4 1020 55 10000 8.2 40 11:59 02.01.2020
1266 Rain 4 1020 55 10000 8.2 40 11:41 02.01.2020
1267 Rain 4 1020 55 10000 5.1 60 11:20 02.01.2020
1268 Rain 4 1021 59 10000 6.7 50 10:45 02.01.2020
1269 Clouds 4 1021 59 10000 6.7 50 10:26 02.01.2020
1270 Clouds 3 1021 59 10000 6.7 40 09:52 02.01.2020
1271 Clouds 3 1021 59 10000 6.7 40 09:33 02.01.2020
1272 Clouds 2 1021 55 10000 5.1 50 08:48 02.01.2020
1273 Clouds 2 1021 58 10000 5.1 50 08:27 02.01.2020
1274 Clouds 1 1020 74 10000 5.1 40 07:54 02.01.2020
1275 Clouds 1 1020 74 10000 5.1 40 07:31 02.01.2020
1276 Clouds 0 1020 74 10000 4.1 50 06:55 02.01.2020
1277 Clouds 0 1020 74 10000 4.1 50 06:55 02.01.2020
1278 Clouds 0 1020 74 10000 4.1 50 06:36 02.01.2020
1279 Clouds 0 1020 74 10000 4.6 30 05:36 02.01.2020
1280 Clouds 0 1019 72 10000 4.1 60 04:33 02.01.2020
1281 Clouds 1 1019 72 10000 1 360 02:55 02.01.2020
1282 Clouds 1 1019 71 10000 1.5 340 02:20 02.01.2020
1283 Clouds 1 1019 71 10000 1.5 300 01:46 02.01.2020
1284 Clouds 1 1019 64 10000 1.5 20 01:19 02.01.2020
1285 Clouds 1 1018 68 10000 1 40 00:34 02.01.2020
1286 Clouds 1 1019 64 10000 1.5 20 23:58 01.01.2020
1287 Clouds 1 1018 68 10000 2.6 20 23:40 01.01.2020
1288 Clouds 1 1019 64 10000 0.5 0 23:19 01.01.2020
1289 Clouds 1 1018 73 10000 3.1 20 22:38 01.01.2020
1290 Clouds 1 1018 73 10000 3.1 20 22:38 01.01.2020
1291 Clouds 1 1018 73 10000 3.1 30 22:20 01.01.2020
1292 Clouds 1 1018 73 10000 3.1 30 22:20 01.01.2020
1293 Clouds 1 1018 73 10000 3.1 30 22:20 01.01.2020
1294 Clouds 1 1019 73 10000 2.6 10 21:56 01.01.2020
1295 Clouds 1 1019 73 10000 2.6 10 21:38 01.01.2020
1296 Clouds 1 1019 73 10000 1.5 320 21:19 01.01.2020
1297 Clouds 1 1018 73 10000 1 10 20:56 01.01.2020
1298 Clouds 1 1018 73 10000 1 10 20:56 01.01.2020
1299 Clouds 1 1018 73 10000 1 10 20:38 01.01.2020
1300 Clouds 1 1018 73 10000 1 10 20:38 01.01.2020
1301 Clouds 1 1018 80 10000 1.5 50 20:19 01.01.2020
1302 Clouds 1 1018 86 10000 2.1 120 19:55 01.01.2020
1303 Clouds 1 1018 86 10000 2.1 120 19:55 01.01.2020
1304 Clouds 1 1018 86 10000 2.1 120 19:37 01.01.2020
1305 Clouds 2 1018 86 10000 1.12 346 19:19 01.01.2020
1306 Clouds 2 1018 87 10000 1.5 210 18:55 01.01.2020
1307 Clouds 2 1018 87 10000 1.5 210 18:36 01.01.2020
1308 Clouds 2 1018 86 10000 1 0 18:18 01.01.2020
1309 Clouds 2 1018 86 10000 1 0 17:56 01.01.2020
1310 Clouds 2 1018 86 10000 2.1 90 17:38 01.01.2020
1311 Rain 2 1018 88 10000 1.5 70 17:18 01.01.2020
1312 Clouds 2 1017 74 10000 3.6 310 16:41 01.01.2020
1313 Clouds 2 1017 74 10000 4.1 300 16:22 01.01.2020
1314 Clouds 2 1017 74 10000 4.1 300 15:58 01.01.2020
1315 Clouds 2 1017 69 10000 4.1 290 15:40 01.01.2020
1316 Rain 3 1017 69 10000 4.1 290 15:21 01.01.2020
1317 Rain 3 1017 69 10000 4.1 290 14:58 01.01.2020
1318 Rain 3 1016 64 10000 4.1 290 14:40 01.01.2020
1319 Clouds 3 1016 69 10000 3.1 270 14:21 01.01.2020
1320 Clouds 4 1016 69 10000 3.1 270 13:56 01.01.2020
1321 Clouds 4 1016 69 10000 4.1 290 13:37 01.01.2020
1322 Clouds 4 1016 69 10000 4.1 290 13:37 01.01.2020
1323 Clouds 4 1016 69 10000 4.1 290 13:37 01.01.2020
1324 Clouds 4 1016 69 10000 4.1 290 13:37 01.01.2020
1325 Clouds 4 1016 69 10000 4.6 280 13:18 01.01.2020
1326 Clouds 4 1016 69 10000 4.6 280 12:56 01.01.2020
1327 Clouds 4 1016 64 10000 3.6 280 12:38 01.01.2020
1328 Rain 4 1016 64 10000 4.6 290 12:18 01.01.2020
1329 Clouds 4 1016 69 10000 5.1 270 11:43 01.01.2020
1330 Clouds 5 1017 81 10000 3.1 0 11:23 01.01.2020
1331 Clouds 5 1017 81 10000 3.1 0 10:59 01.01.2020
1332 Clouds 5 1016 56 10000 4.1 280 10:41 01.01.2020
1333 Clouds 5 1016 60 10000 3.6 270 10:20 01.01.2020
1334 Clouds 4 1017 60 10000 2.6 280 09:57 01.01.2020
1335 Clouds 4 1017 60 10000 2.6 280 09:37 01.01.2020
1336 Clouds 4 1017 64 10000 3.1 290 09:18 01.01.2020
1337 Clouds 4 1017 81 10000 1.5 280 08:55 01.01.2020
1338 Clouds 4 1017 81 10000 1.5 280 08:36 01.01.2020
1339 Clouds 3 1016 86 10000 2.1 220 08:18 01.01.2020
1340 Clouds 3 1016 95 10000 1.5 240 07:51 01.01.2020
1341 Clouds 3 1016 95 10000 1.5 240 07:32 01.01.2020
1342 Clouds 3 1016 93 10000 0.5 220 06:44 01.01.2020
1343 Clouds 3 1016 95 10000 2.1 220 06:20 01.01.2020
1344 Clouds 3 1016 93 10000 1.5 270 05:21 01.01.2020
1345 Clouds 3 1016 95 10000 2.6 220 03:43 01.01.2020
1346 Clouds 3 1016 95 10000 2.1 200 03:22 01.01.2020
1347 Clouds 3 1016 95 10000 2.1 200 02:56 01.01.2020
1348 Clouds 3 1017 95 10000 2.6 240 02:33 01.01.2020
1349 Clouds 3 1017 86 10000 2.6 240 01:55 01.01.2020
1350 Clouds 3 1017 86 10000 2.6 240 01:36 01.01.2020
1351 Clouds 3 1017 86 10000 2.1 260 01:18 01.01.2020
1352 Clouds 3 1017 96 10000 3.1 310 00:44 01.01.2020
1353 Clouds 3 1017 86 10000 2.1 230 00:24 01.01.2020
1354 Clouds 3 1017 93 10000 2.6 220 23:41 31.12.2019
1355 Clouds 3 1017 93 10000 3.1 200 23:21 31.12.2019
1356 Clouds 4 1018 93 10000 3.1 190 22:57 31.12.2019
1357 Clouds 4 1018 93 10000 3.1 190 22:38 31.12.2019
1358 Clouds 4 1018 80 10000 2.6 210 22:19 31.12.2019
1359 Clouds 4 1018 80 10000 2.1 210 21:57 31.12.2019
1360 Clouds 4 1018 80 10000 2.1 210 21:37 31.12.2019
1361 Clouds 4 1018 80 10000 3.1 270 21:19 31.12.2019
1362 Clouds 4 1018 80 10000 3.1 270 21:19 31.12.2019
1363 Clouds 4 1018 80 10000 3.1 260 20:54 31.12.2019
1364 Clouds 4 1018 80 10000 3.1 260 20:36 31.12.2019
1365 Clouds 4 1018 93 10000 1.5 180 20:18 31.12.2019
1366 Clouds 4 1018 86 10000 1.5 170 19:41 31.12.2019
1367 Clouds 4 1018 93 10000 1 170 19:22 31.12.2019
1368 Clouds 4 1018 93 10000 1 170 18:59 31.12.2019
1369 Clouds 4 1018 86 10000 0.5 170 18:40 31.12.2019
1370 Clouds 5 1019 86 10000 1 220 18:20 31.12.2019
1371 Clouds 5 1018 86 10000 0.5 0 17:56 31.12.2019
1372 Clouds 5 1018 86 10000 0.5 0 17:38 31.12.2019
1373 Clouds 5 1018 86 10000 1 260 17:19 31.12.2019
1374 Clouds 5 1018 86 10000 1 260 16:57 31.12.2019
1375 Clouds 5 1019 81 10000 1.23 269 16:38 31.12.2019
1376 Clouds 5 1018 86 10000 0.5 0 16:19 31.12.2019
1377 Clouds 5 1019 87 10000 1.5 130 15:56 31.12.2019
1378 Clouds 5 1019 87 10000 1.5 130 15:38 31.12.2019
1379 Rain 5 1018 80 10000 0.5 0 15:20 31.12.2019
1380 Rain 6 1018 80 10000 0.5 0 14:58 31.12.2019
1381 Rain 6 1018 80 10000 1 0 14:38 31.12.2019
1382 Rain 6 1018 80 10000 2.1 30 14:19 31.12.2019
1383 Rain 6 1018 80 10000 2.1 30 13:57 31.12.2019
1384 Rain 6 1018 81 10000 3.1 30 13:39 31.12.2019
1385 Rain 6 1018 86 10000 2.6 20 13:21 31.12.2019
1386 Rain 7 1018 86 10000 2.6 20 12:58 31.12.2019
1387 Rain 7 1018 86 10000 3.6 10 12:39 31.12.2019
1388 Rain 6 1018 86 10000 3.6 10 12:20 31.12.2019
1389 Rain 6 1018 86 10000 4.1 10 11:56 31.12.2019
1390 Rain 6 1018 86 10000 4.1 10 11:38 31.12.2019
1391 Clouds 6 1019 70 10000 1.5 220 11:20 31.12.2019
1392 Clouds 6 1019 70 10000 1.5 220 10:57 31.12.2019
1393 Clouds 6 1019 70 10000 1.5 220 10:57 31.12.2019
1394 Rain 6 1019 86 10000 5.1 20 10:38 31.12.2019
1395 Rain 6 1019 86 10000 5.1 20 10:38 31.12.2019
1396 Rain 6 1019 80 10000 5.1 20 10:20 31.12.2019
1397 Rain 6 1019 80 10000 4.1 30 09:58 31.12.2019
1398 Rain 6 1019 80 10000 4.1 30 09:39 31.12.2019
1399 Clouds 4 1019 80 10000 4.1 30 09:20 31.12.2019
1400 Clouds 4 1019 80 10000 4.1 30 09:20 31.12.2019
1401 Clouds 4 1019 80 10000 4.1 30 08:57 31.12.2019
1402 Clouds 4 1019 86 10000 5.1 10 08:37 31.12.2019
1403 Clouds 4 1019 86 10000 4.6 10 08:18 31.12.2019
1404 Clouds 3 1018 93 10000 4.1 10 07:41 31.12.2019
1405 Rain 4 1018 86 10000 4.1 30 07:19 31.12.2019
1406 Rain 4 1018 86 10000 5.1 20 06:49 31.12.2019
1407 Rain 4 1018 93 10000 3.6 30 05:55 31.12.2019
1408 Rain 3 1017 86 10000 5.1 40 04:27 31.12.2019
1409 Rain 4 1017 86 10000 4.1 20 03:27 31.12.2019
1410 Clouds 4 1017 80 10000 3.1 50 02:43 31.12.2019
1411 Clouds 4 1017 80 10000 4.1 40 01:55 31.12.2019
1412 Clouds 4 1017 80 10000 4.1 40 01:34 31.12.2019
1413 Clouds 4 1017 80 10000 1 0 00:58 31.12.2019
1414 Rain 4 1017 80 10000 4.6 40 00:39 31.12.2019
1415 Rain 4 1016 86 10000 4.6 40 00:21 31.12.2019
1416 Clouds 4 1016 86 10000 2.1 30 23:56 30.12.2019
1417 Clouds 4 1016 86 10000 2.1 30 23:37 30.12.2019
1418 Rain 4 1017 86 10000 2.29 67 23:19 30.12.2019
1419 Clouds 4 1017 93 10000 1 180 22:56 30.12.2019
1420 Clouds 4 1017 93 10000 1 180 22:56 30.12.2019
1421 Clouds 4 1017 93 10000 1 180 22:37 30.12.2019
1422 Rain 3 1017 86 10000 3.6 30 22:18 30.12.2019
1423 Rain 3 1017 86 10000 5.1 20 21:55 30.12.2019
1424 Rain 3 1017 86 10000 5.1 20 21:37 30.12.2019
1425 Rain 4 1017 86 10000 6.2 20 21:18 30.12.2019
1426 Rain 3 1016 93 10000 6.7 20 20:55 30.12.2019
1427 Rain 3 1016 93 10000 6.7 20 20:55 30.12.2019
1428 Rain 3 1016 93 10000 6.7 20 20:37 30.12.2019
1429 Rain 3 1016 86 10000 2.1 100 20:18 30.12.2019
1430 Rain 4 1016 80 10000 1 0 19:55 30.12.2019
1431 Rain 3 1016 80 10000 1 0 19:36 30.12.2019
1432 Rain 3 1016 93 10000 5.7 30 19:18 30.12.2019
1433 Clouds 3 1016 86 10000 2.1 60 18:42 30.12.2019
1434 Rain 4 1016 96 10000 7.2 20 18:21 30.12.2019
1435 Rain 4 1016 96 10000 7.2 20 17:59 30.12.2019
1436 Rain 4 1016 96 10000 7.2 20 17:59 30.12.2019
1437 Rain 3 1015 96 10000 6.7 20 17:41 30.12.2019
1438 Rain 3 1015 80 10000 4.1 80 17:20 30.12.2019
1439 Rain 3 1015 80 10000 4.1 80 17:00 30.12.2019
1440 Rain 3 1015 95 10000 6.7 30 16:40 30.12.2019
1441 Rain 3 1015 86 10000 3.6 60 16:20 30.12.2019
1442 Rain 3 1015 86 10000 3.6 60 15:57 30.12.2019
1443 Rain 3 1015 95 10000 6.7 20 15:39 30.12.2019
1444 Rain 3 1015 93 10000 6.7 30 15:19 30.12.2019
1445 Rain 3 1015 95 10000 7.2 30 14:55 30.12.2019
1446 Rain 3 1015 95 10000 7.2 30 14:37 30.12.2019
1447 Rain 3 1014 93 10000 7.2 30 14:18 30.12.2019
1448 Rain 3 1014 93 10000 7.2 20 13:42 30.12.2019
1449 Rain 3 1014 93 10000 7.2 30 13:24 30.12.2019
1450 Clouds 3 1014 93 10000 7.2 30 12:58 30.12.2019
1451 Clouds 3 1014 93 10000 7.2 40 12:40 30.12.2019
1452 Clouds 3 1014 93 10000 8.7 40 12:19 30.12.2019
1453 Clouds 3 1013 93 8000 8.7 30 11:56 30.12.2019
1454 Clouds 3 1013 93 8000 8.7 30 11:37 30.12.2019
1455 Clouds 3 1013 75 10000 8.2 70 11:18 30.12.2019
1456 Snow 3 1014 75 8000 8.7 30 10:43 30.12.2019
1457 Snow 3 1015 75 8000 8.7 40 10:20 30.12.2019
1458 Snow 3 1015 75 8000 9.3 40 09:55 30.12.2019
1459 Snow 3 1015 75 8000 9.3 40 09:37 30.12.2019
1460 Clouds 3 1015 75 10000 6.2 50 09:18 30.12.2019
1461 Snow 3 1015 86 7000 8.7 30 08:46 30.12.2019
1462 Snow 3 1015 86 4900 8.7 40 08:23 30.12.2019
1463 Clouds 3 1015 86 10000 7.7 40 07:53 30.12.2019
1464 Clouds 3 1015 86 10000 7.7 40 07:32 30.12.2019
1465 Clouds 3 1015 74 10000 8.2 30 06:39 30.12.2019
1466 Clouds 2 1015 80 10000 6.2 10 04:45 30.12.2019
1467 Clouds 2 1016 80 10000 6.7 30 03:52 30.12.2019
1468 Clouds 2 1016 80 10000 8.2 30 02:47 30.12.2019
1469 Clouds 2 1016 80 10000 8.2 30 02:29 30.12.2019
1470 Clouds 1 1016 92 10000 5.7 30 01:43 30.12.2019
1471 Clouds 1 1017 86 10000 5.1 20 01:19 30.12.2019
1472 Clouds 1 1017 86 10000 4.1 20 00:42 30.12.2019
1473 Clouds 1 1016 86 10000 3.6 20 23:58 29.12.2019
1474 Clouds 1 1017 91 10000 3.1 360 23:38 29.12.2019
1475 Clouds 1 1017 80 10000 2.28 66 23:19 29.12.2019
1476 Clouds 1 1017 86 10000 3.1 10 22:41 29.12.2019
1477 Clouds 1 1017 86 10000 3.1 10 22:41 29.12.2019
1478 Clouds 1 1017 86 10000 3.6 20 22:22 29.12.2019
1479 Clouds 1 1017 86 10000 4.6 30 21:56 29.12.2019
1480 Clouds 1 1017 86 10000 4.6 30 21:38 29.12.2019
1481 Clouds 1 1017 86 10000 3.6 20 21:20 29.12.2019
1482 Clouds 2 1017 86 10000 4.6 10 20:56 29.12.2019
1483 Clouds 2 1017 86 10000 4.6 10 20:38 29.12.2019
1484 Clouds 2 1017 74 10000 2.6 100 20:20 29.12.2019
1485 Clouds 2 1017 85 10000 3.6 360 19:58 29.12.2019
1486 Clouds 2 1017 85 10000 3.6 360 19:39 29.12.2019
1487 Clouds 2 1017 85 10000 3.6 30 19:20 29.12.2019
1488 Clouds 2 1016 80 10000 4.1 40 18:55 29.12.2019
1489 Clouds 2 1016 80 10000 4.1 40 18:37 29.12.2019
1490 Clouds 2 1016 80 10000 2.6 30 18:18 29.12.2019
1491 Clouds 2 1016 80 10000 3.1 360 17:56 29.12.2019
1492 Clouds 2 1016 80 10000 3.1 360 17:38 29.12.2019
1493 Clouds 3 1016 82 10000 2.1 360 17:19 29.12.2019
1494 Clouds 3 1015 74 10000 4.1 50 16:56 29.12.2019
1495 Clouds 3 1015 74 10000 4.1 50 16:36 29.12.2019
1496 Clouds 4 1015 69 10000 3.6 60 16:18 29.12.2019
1497 Clouds 4 1015 69 10000 3.6 60 15:56 29.12.2019
1498 Clouds 4 1015 74 10000 3.1 70 15:56 29.12.2019
1499 Clouds 4 1015 74 10000 3.1 70 15:56 29.12.2019
1500 Clouds 4 1015 74 10000 3.1 70 15:38 29.12.2019
1501 Clouds 4 1015 69 10000 3.1 70 15:18 29.12.2019
1502 Clouds 4 1014 64 10000 3.1 50 14:55 29.12.2019
1503 Clouds 4 1014 64 10000 3.1 50 14:37 29.12.2019
1504 Clouds 4 1014 64 10000 3.1 50 14:37 29.12.2019
1505 Rain 4 1014 64 10000 3.1 50 14:18 29.12.2019
1506 Rain 4 1014 69 10000 1.5 360 13:55 29.12.2019
1507 Rain 4 1014 69 10000 1.5 360 13:37 29.12.2019
1508 Clouds 4 1014 64 10000 2.1 350 13:18 29.12.2019
1509 Clouds 4 1014 74 10000 2.6 60 12:41 29.12.2019
1510 Rain 4 1014 69 10000 1.5 90 12:23 29.12.2019
1511 Rain 3 1014 74 10000 3.1 20 11:55 29.12.2019
1512 Rain 3 1014 74 10000 3.1 20 11:37 29.12.2019
1513 Rain 3 1014 74 10000 2.6 20 11:19 29.12.2019
1514 Rain 3 1015 80 10000 3.6 30 10:41 29.12.2019
1515 Rain 2 1015 80 10000 4.1 30 10:21 29.12.2019
1516 Rain 2 1015 80 10000 4.1 30 09:54 29.12.2019
1517 Clouds 2 1015 80 10000 4.1 30 09:36 29.12.2019
1518 Clouds 2 1015 86 10000 4.6 30 09:18 29.12.2019
1519 Clouds 1 1015 86 6000 2.6 30 08:46 29.12.2019
1520 Clouds 1 1015 85 8000 1.5 310 08:24 29.12.2019
1521 Clouds 1 1016 93 6000 1 310 07:54 29.12.2019
1522 Clouds 1 1016 93 6000 1 310 07:28 29.12.2019
1523 Snow 1 1014 84 6000 2.1 20 06:53 29.12.2019
1524 Mist 1 1014 84 4200 1.5 350 06:23 29.12.2019
1525 Mist 0 1014 100 3500 1 320 05:50 29.12.2019
1526 Snow 1 1014 88 2900 0.5 170 04:35 29.12.2019
1527 Clouds 0 1013 100 8000 1 0 03:43 29.12.2019
1528 Clouds 0 1013 92 7000 1 310 03:19 29.12.2019
1529 Clouds 0 1013 100 6000 1 0 02:20 29.12.2019
1530 Mist 0 1014 100 4800 1 0 01:31 29.12.2019
1531 Mist 0 1014 100 4800 1 0 01:31 29.12.2019
1532 Mist 0 1014 100 4800 1 0 01:31 29.12.2019
1533 Mist 1 1013 91 3700 2.6 20 00:55 29.12.2019
1534 Mist 1 1013 91 3700 2.6 20 00:36 29.12.2019
1535 Clouds 1 1015 91 10000 0.5 0 00:18 29.12.2019
1536 Clouds 1 1014 91 6000 2.1 20 23:41 28.12.2019
1537 Clouds 1 1014 88 10000 1.25 98 23:18 28.12.2019
1538 Mist 1 1014 88 4300 1 250 22:39 28.12.2019
1539 Clouds 1 1014 88 6000 1.5 210 22:20 28.12.2019
1540 Clouds 1 1013 86 6000 2.6 80 21:58 28.12.2019
1541 Clouds 1 1013 86 6000 2.6 80 21:39 28.12.2019
1542 Clouds 1 1013 80 10000 1 0 21:20 28.12.2019
1543 Clouds 2 1013 88 6000 1 0 20:56 28.12.2019
1544 Clouds 2 1013 88 6000 1 0 20:37 28.12.2019
1545 Clouds 2 1013 88 7000 1.5 290 20:18 28.12.2019
1546 Clouds 2 1013 86 6000 1.5 350 19:55 28.12.2019
1547 Clouds 2 1013 86 6000 1.5 350 19:36 28.12.2019
1548 Clouds 2 1013 88 10000 0.5 0 19:18 28.12.2019
1549 Clouds 2 1013 88 7000 1 0 18:55 28.12.2019
1550 Clouds 2 1013 88 7000 1 0 18:37 28.12.2019
1551 Clouds 2 1013 88 10000 2.6 90 18:18 28.12.2019
1552 Clouds 2 1012 88 10000 1.5 330 17:42 28.12.2019
1553 Clouds 2 1013 83 10000 3.1 80 17:21 28.12.2019
1554 Clouds 2 1012 83 8000 0.5 240 16:55 28.12.2019
1555 Clouds 2 1012 83 8000 0.5 240 16:37 28.12.2019
1556 Clouds 3 1012 83 8000 1 0 16:19 28.12.2019
1557 Clouds 3 1012 83 10000 1 0 15:43 28.12.2019
1558 Clouds 4 1012 80 10000 2.1 140 15:21 28.12.2019
1559 Clouds 4 1012 80 10000 2.6 100 14:48 28.12.2019
1560 Clouds 4 1012 80 10000 2.6 100 14:26 28.12.2019
1561 Clouds 4 1011 69 10000 1 0 13:58 28.12.2019
1562 Clouds 4 1011 69 10000 2.1 50 13:40 28.12.2019
1563 Clouds 4 1011 69 10000 2.1 360 13:20 28.12.2019
1564 Clouds 4 1011 69 10000 1 0 12:57 28.12.2019
1565 Clouds 4 1011 69 10000 1 0 12:39 28.12.2019
1566 Clouds 4 1011 69 10000 1.5 350 12:20 28.12.2019
1567 Clouds 4 1011 69 10000 2.1 360 11:40 28.12.2019
1568 Clouds 4 1012 69 10000 1.5 340 11:21 28.12.2019
1569 Clouds 4 1012 69 10000 1.5 340 11:21 28.12.2019
1570 Clouds 4 1012 69 10000 2.1 310 10:56 28.12.2019
1571 Clouds 3 1012 69 10000 2.1 310 10:37 28.12.2019
1572 Clouds 3 1012 74 10000 1 0 10:18 28.12.2019
1573 Clouds 3 1013 80 10000 2.1 290 09:45 28.12.2019
1574 Clouds 2 1013 74 10000 0.5 0 09:24 28.12.2019
1575 Clouds 2 1013 74 10000 0.5 0 08:58 28.12.2019
1576 Snow 3 1013 74 10000 1.5 20 08:40 28.12.2019
1577 Clouds 2 1013 91 10000 0.67 70 08:22 28.12.2019
1578 Clouds 1 1013 91 10000 1 300 07:43 28.12.2019
1579 Clouds 1 1013 80 10000 0.67 70 07:21 28.12.2019
1580 Clouds 1 1012 91 10000 1 330 05:45 28.12.2019
1581 Clouds 2 1013 80 10000 0.5 350 03:48 28.12.2019
1582 Clouds 2 1013 80 10000 0.5 50 02:50 28.12.2019
1583 Clouds 2 1013 80 10000 1 0 02:20 28.12.2019
1584 Clouds 1 1013 78 10000 2.1 300 01:54 28.12.2019
1585 Clouds 2 1013 80 10000 0.5 0 01:22 28.12.2019
1586 Clouds 2 1013 80 10000 2.1 70 00:44 28.12.2019
1587 Clouds 2 1013 80 10000 2.6 350 00:26 28.12.2019
1588 Clouds 2 1013 80 10000 2.6 350 23:57 27.12.2019
1589 Clouds 2 1013 80 10000 0.5 0 23:37 27.12.2019
1590 Clouds 2 1013 74 10000 0.5 0 23:18 27.12.2019
1591 Clouds 2 1014 69 10000 0.5 0 22:55 27.12.2019
1592 Clouds 2 1014 69 10000 0.5 0 22:37 27.12.2019
1593 Clouds 2 1014 69 10000 1 0 22:19 27.12.2019
1594 Clouds 3 1014 69 10000 1 170 21:41 27.12.2019
1595 Clouds 2 1014 74 10000 1 0 21:23 27.12.2019
1596 Clouds 3 1014 74 10000 1 0 20:44 27.12.2019
1597 Clouds 3 1014 74 10000 1 0 20:26 27.12.2019
1598 Clouds 3 1014 69 10000 1 280 19:58 27.12.2019
1599 Clouds 3 1014 69 10000 1 280 19:58 27.12.2019
1600 Clouds 3 1014 69 10000 1 280 19:40 27.12.2019
1601 Clouds 3 1014 64 10000 2.1 330 19:19 27.12.2019
1602 Clouds 3 1014 69 10000 1 0 18:55 27.12.2019
1603 Clouds 3 1014 69 10000 1 0 18:36 27.12.2019
1604 Clouds 3 1014 69 10000 1 0 18:18 27.12.2019
1605 Clouds 4 1013 64 10000 1.5 180 17:55 27.12.2019
1606 Clouds 4 1013 64 10000 1.5 180 17:36 27.12.2019
1607 Clouds 4 1014 56 10000 2.1 300 17:18 27.12.2019
1608 Clouds 4 1013 55 10000 1.5 290 16:41 27.12.2019
1609 Clouds 4 1013 59 10000 1.5 350 16:22 27.12.2019
1610 Clouds 4 1013 59 10000 1 0 15:57 27.12.2019
1611 Clouds 4 1013 59 10000 1 0 15:37 27.12.2019
1612 Clouds 4 1013 59 10000 1 0 15:37 27.12.2019
1613 Clouds 4 1013 60 10000 1.5 320 15:18 27.12.2019
1614 Clouds 5 1012 60 10000 4.1 320 14:55 27.12.2019
1615 Clouds 5 1012 60 10000 4.1 320 14:37 27.12.2019
1616 Clouds 5 1012 52 10000 5.1 290 14:19 27.12.2019
1617 Clouds 5 1012 56 10000 5.7 290 13:44 27.12.2019
1618 Clouds 5 1013 56 10000 1.5 10 13:22 27.12.2019
1619 Clouds 6 1012 52 10000 5.7 300 12:48 27.12.2019
1620 Clouds 5 1012 52 10000 5.7 300 12:29 27.12.2019
1621 Clouds 5 1011 48 10000 5.7 300 11:59 27.12.2019
1622 Clouds 5 1012 48 10000 5.7 290 11:41 27.12.2019
1623 Clouds 5 1013 65 10000 4.1 250 11:20 27.12.2019
1624 Clouds 5 1013 65 10000 4.1 250 11:20 27.12.2019
1625 Clouds 5 1013 65 10000 4.1 250 11:20 27.12.2019
1626 Clouds 5 1012 56 10000 4.1 300 10:46 27.12.2019
1627 Clouds 5 1013 56 10000 3.1 240 10:24 27.12.2019
1628 Clouds 5 1012 56 10000 5.1 290 09:55 27.12.2019
1629 Clouds 5 1012 56 10000 5.1 290 09:37 27.12.2019
1630 Clouds 5 1014 61 10000 3.1 260 09:19 27.12.2019
1631 Clouds 5 1014 61 10000 3.1 260 09:19 27.12.2019
1632 Clouds 4 1012 60 10000 4.1 280 08:43 27.12.2019
1633 Clouds 3 1012 64 10000 0.5 0 08:25 27.12.2019
1634 Clouds 3 1011 69 10000 1 0 07:38 27.12.2019
1635 Clouds 3 1012 74 10000 3.6 230 07:19 27.12.2019
1636 Clouds 3 1011 74 10000 3.1 230 06:25 27.12.2019
1637 Clouds 3 1009 74 10000 3.6 270 04:39 27.12.2019
1638 Clouds 3 1009 74 10000 4.1 280 02:29 27.12.2019
1639 Clouds 3 1008 80 10000 2.1 290 01:45 27.12.2019
1640 Clouds 4 1008 74 10000 2.1 280 01:23 27.12.2019
1641 Clouds 4 1008 86 10000 1.5 300 00:47 27.12.2019
1642 Clouds 4 1008 86 10000 1.5 300 00:27 27.12.2019
1643 Rain 4 1007 87 10000 2.27 329 23:56 26.12.2019
1644 Rain 4 1007 87 10000 2.27 329 23:38 26.12.2019
1645 Rain 4 1008 75 10000 3.1 230 23:19 26.12.2019
1646 Rain 4 1007 86 10000 1.91 331 22:40 26.12.2019
1647 Rain 4 1007 86 10000 1.91 331 22:18 26.12.2019
1648 Rain 4 1007 93 10000 1.91 331 21:40 26.12.2019
1649 Clouds 4 1007 86 10000 1.91 331 21:21 26.12.2019
1650 Clouds 4 1006 86 10000 1.91 331 20:58 26.12.2019
1651 Clouds 4 1006 86 10000 1.91 331 20:39 26.12.2019
1652 Clouds 4 1006 86 10000 1.91 331 20:39 26.12.2019
1653 Rain 4 1006 86 10000 3.13 341 20:21 26.12.2019
1654 Rain 4 1006 86 10000 3.13 341 19:56 26.12.2019
1655 Rain 4 1006 86 10000 3.13 341 19:38 26.12.2019
1656 Rain 4 1006 86 10000 3.13 341 19:19 26.12.2019
1657 Rain 4 1006 86 10000 3.13 341 18:57 26.12.2019
1658 Rain 4 1006 86 10000 3.13 341 18:36 26.12.2019
1659 Rain 4 1006 93 10000 3.13 341 18:18 26.12.2019
1660 Rain 4 1006 93 6000 0.5 0 17:41 26.12.2019
1661 Rain 4 1006 93 6000 0.5 0 17:41 26.12.2019
1662 Rain 4 1005 93 6000 0.5 0 17:21 26.12.2019
1663 Rain 5 1005 93 8000 0.5 0 16:50 26.12.2019
1664 Rain 4 1005 93 8000 0.5 0 16:27 26.12.2019
1665 Rain 5 1005 93 8000 3.69 341 15:58 26.12.2019
1666 Rain 5 1005 93 7000 3.69 341 15:39 26.12.2019
1667 Rain 4 1005 93 8000 3.69 341 15:19 26.12.2019
1668 Rain 4 1005 80 8000 0.5 0 14:42 26.12.2019
1669 Rain 4 1005 80 8000 0.5 0 14:23 26.12.2019
1670 Rain 5 1004 86 6000 0.5 0 13:57 26.12.2019
1671 Rain 6 1004 81 8000 1 0 13:39 26.12.2019
1672 Rain 6 1004 81 8000 1 0 13:39 26.12.2019
1673 Rain 5 1005 81 10000 0.5 0 13:18 26.12.2019
1674 Rain 5 1005 81 10000 0.5 0 12:45 26.12.2019
1675 Rain 5 1005 81 10000 0.5 0 12:26 26.12.2019
1676 Rain 5 1005 80 10000 6.04 3 11:59 26.12.2019
1677 Rain 5 1005 80 10000 0.5 0 11:40 26.12.2019
1678 Rain 5 1005 86 10000 1.5 190 11:22 26.12.2019
1679 Rain 4 1005 93 3900 4.18 8 10:50 26.12.2019
1680 Rain 4 1005 93 3900 4.18 8 10:27 26.12.2019
1681 Rain 3 1005 100 2900 0.5 0 09:59 26.12.2019
1682 Rain 3 1005 100 400 0.5 0 09:41 26.12.2019
1683 Rain 3 1006 86 10000 2.6 90 09:22 26.12.2019
1684 Rain 3 1005 100 2500 2.1 360 08:39 26.12.2019
1685 Rain 2 1005 81 2800 0.5 0 08:21 26.12.2019
1686 Rain 2 1005 100 1000 3.08 356 07:44 26.12.2019
1687 Rain 2 1005 81 6000 0.5 0 07:24 26.12.2019
1688 Rain 2 1005 100 1000 3.08 356 06:38 26.12.2019
1689 Rain 2 1005 81 8000 0.5 0 06:20 26.12.2019
1690 Rain 2 1005 81 8000 0.5 0 05:42 26.12.2019
1691 Rain 2 1004 90 4000 0.5 10 04:33 26.12.2019
1692 Rain 2 1004 90 6000 0.5 300 03:31 26.12.2019
1693 Rain 2 1004 90 8000 0.5 0 02:46 26.12.2019
1694 Rain 1 1004 90 7000 1.5 40 02:27 26.12.2019
1695 Rain 2 1005 93 10000 1.41 8 01:44 26.12.2019
1696 Rain 1 1004 88 6000 1.5 30 01:25 26.12.2019
1697 Rain 2 1005 93 10000 1 0 00:44 26.12.2019
1698 Rain 2 1005 100 7000 1 170 00:23 26.12.2019
1699 Rain 2 1005 100 7000 1 170 00:23 26.12.2019
1700 Rain 2 1005 93 10000 1.5 40 23:57 25.12.2019
1701 Rain 2 1005 93 10000 1.5 40 23:37 25.12.2019
1702 Rain 1 1005 93 10000 1.5 120 23:18 25.12.2019
1703 Snow 1 1004 88 6000 1 130 22:56 25.12.2019
1704 Snow 1 1004 88 6000 1 130 22:37 25.12.2019
1705 Snow 2 1004 88 6000 1 0 22:18 25.12.2019
1706 Snow 1 1004 88 4800 1 180 21:55 25.12.2019
1707 Snow 1 1004 88 4800 1 180 21:37 25.12.2019
1708 Snow 2 1004 88 3200 2.1 190 21:18 25.12.2019
1709 Snow 2 1004 88 2800 1.5 170 20:40 25.12.2019
1710 Snow 2 1004 95 3200 2.1 160 20:20 25.12.2019
1711 Snow 2 1004 95 3200 2.1 160 19:59 25.12.2019
1712 Snow 2 1004 95 2800 2.6 140 19:40 25.12.2019
1713 Rain 2 1005 93 10000 0.97 7 19:21 25.12.2019
1714 Rain 3 1004 95 10000 2.6 130 18:39 25.12.2019
1715 Rain 3 1005 93 7000 0.5 0 18:20 25.12.2019
1716 Rain 3 1005 93 7000 0.5 0 18:20 25.12.2019
1717 Rain 3 1004 86 10000 1.5 240 17:57 25.12.2019
1718 Rain 3 1004 86 10000 1.5 240 17:39 25.12.2019
1719 Rain 3 1004 80 10000 1.37 23 17:18 25.12.2019
1720 Rain 4 1003 86 10000 1 290 16:39 25.12.2019
1721 Rain 4 1003 86 10000 2.1 330 16:20 25.12.2019
1722 Rain 4 1003 86 10000 2.1 330 15:59 25.12.2019
1723 Rain 4 1003 80 10000 1.5 20 15:40 25.12.2019
1724 Rain 5 1003 80 10000 2.1 70 15:21 25.12.2019
1725 Rain 5 1003 80 10000 2.1 70 14:59 25.12.2019
1726 Rain 5 1003 86 10000 1.5 120 14:40 25.12.2019
1727 Rain 5 1003 86 10000 1.21 322 14:22 25.12.2019
1728 Rain 5 1003 86 10000 1.21 322 13:57 25.12.2019
1729 Rain 5 1003 86 10000 1.21 322 13:57 25.12.2019
1730 Rain 5 1003 86 10000 1.21 322 13:39 25.12.2019
1731 Rain 5 1002 81 10000 1.4 304 13:19 25.12.2019
1732 Rain 6 1003 81 10000 3.6 280 12:43 25.12.2019
1733 Clouds 5 1003 81 10000 3.6 290 12:21 25.12.2019
1734 Clouds 5 1003 81 10000 3.6 290 12:21 25.12.2019
1735 Clouds 5 1003 81 10000 3.6 290 11:57 25.12.2019
1736 Rain 6 1003 86 10000 1.4 304 11:39 25.12.2019
1737 Rain 6 1004 87 10000 3.1 300 11:19 25.12.2019
1738 Rain 5 1004 81 10000 4.1 310 10:39 25.12.2019
1739 Rain 5 1004 81 10000 2.1 260 10:21 25.12.2019
1740 Rain 5 1004 86 10000 2.6 290 09:51 25.12.2019
1741 Clouds 5 1004 86 10000 2.6 290 09:33 25.12.2019
1742 Clouds 5 1004 93 10000 1 290 08:51 25.12.2019
1743 Clouds 4 1004 93 10000 1 290 08:31 25.12.2019
1744 Clouds 4 1005 86 10000 1.5 290 07:59 25.12.2019
1745 Clouds 4 1005 86 10000 1.5 290 07:59 25.12.2019
1746 Rain 4 1004 93 10000 0.79 295 07:37 25.12.2019
1747 Rain 4 1003 93 10000 0.79 295 07:19 25.12.2019
1748 Rain 4 1003 93 7000 0.79 295 06:23 25.12.2019
1749 Rain 4 1003 93 7000 0.79 295 05:43 25.12.2019
1750 Rain 4 1003 93 10000 1.4 297 04:39 25.12.2019
1751 Rain 5 1003 93 9000 1.4 297 04:20 25.12.2019
1752 Rain 5 1003 93 7000 1.4 297 03:43 25.12.2019
1753 Rain 5 1003 86 10000 0.5 110 02:57 25.12.2019
1754 Rain 5 1003 93 10000 2.1 250 02:28 25.12.2019
1755 Rain 5 1003 100 10000 2.75 251 01:26 25.12.2019
1756 Rain 5 1002 100 10000 2.75 251 00:56 25.12.2019
1757 Rain 5 1002 100 10000 2.75 251 00:33 25.12.2019
1758 Rain 6 1002 93 9000 0.5 250 23:59 24.12.2019
1759 Rain 6 1002 93 6000 0.5 250 23:39 24.12.2019
1760 Rain 6 1003 100 10000 0.5 0 23:20 24.12.2019
1761 Rain 6 1002 100 6000 0.5 0 22:41 24.12.2019
1762 Rain 6 1002 100 2900 0.5 0 22:23 24.12.2019
1763 Rain 6 1002 93 3500 0.5 200 21:55 24.12.2019
1764 Rain 6 1002 93 3500 0.5 200 21:36 24.12.2019
1765 Rain 6 1001 93 6000 0.13 6 21:18 24.12.2019
1766 Rain 6 1001 100 6000 0.13 6 20:41 24.12.2019
1767 Rain 6 1001 93 6000 0.5 320 20:19 24.12.2019
1768 Rain 6 1000 93 7000 0.5 170 19:46 24.12.2019
1769 Rain 6 1000 93 8000 0.5 0 19:22 24.12.2019
1770 Rain 6 1000 93 8000 0.5 0 18:58 24.12.2019
1771 Rain 6 1000 93 8000 1.87 81 18:40 24.12.2019
1772 Rain 6 1000 87 9000 1.87 81 18:18 24.12.2019
1773 Rain 6 999 93 10000 1 10 17:42 24.12.2019
1774 Rain 6 999 87 10000 1 50 17:21 24.12.2019
1775 Rain 6 999 87 10000 1 50 16:58 24.12.2019
1776 Rain 6 999 87 10000 1 50 16:58 24.12.2019
1777 Rain 7 999 87 10000 0.5 120 16:39 24.12.2019
1778 Rain 7 999 87 10000 1 160 16:20 24.12.2019
1779 Rain 7 998 87 10000 2.1 200 15:57 24.12.2019
1780 Rain 7 998 87 10000 2.1 200 15:36 24.12.2019
1781 Rain 7 998 87 10000 2.6 200 15:18 24.12.2019
1782 Rain 7 998 87 10000 2.6 200 14:57 24.12.2019
1783 Rain 7 998 81 10000 4.1 200 14:39 24.12.2019
1784 Rain 8 998 75 10000 2.6 220 14:21 24.12.2019
1785 Rain 8 997 75 10000 4.6 180 13:55 24.12.2019
1786 Rain 8 997 75 10000 4.6 180 13:37 24.12.2019
1787 Clouds 9 997 70 10000 4.1 170 13:19 24.12.2019
1788 Clouds 9 997 70 10000 4.1 170 12:55 24.12.2019
1789 Clouds 9 997 70 10000 6.2 170 12:36 24.12.2019
1790 Clouds 9 998 70 10000 4.6 170 12:18 24.12.2019
1791 Clouds 9 998 75 10000 6.7 180 11:55 24.12.2019
1792 Clouds 9 998 75 10000 6.7 180 11:37 24.12.2019
1793 Clouds 9 998 75 10000 6.2 170 11:18 24.12.2019
1794 Clouds 9 998 75 10000 6.2 170 10:56 24.12.2019
1795 Clouds 9 998 75 10000 5.1 180 10:37 24.12.2019
1796 Rain 9 999 75 10000 1 140 10:19 24.12.2019
1797 Clouds 8 999 81 10000 1.5 130 09:55 24.12.2019
1798 Clouds 8 999 81 10000 1.5 130 09:37 24.12.2019
1799 Rain 8 999 81 10000 3.6 170 09:18 24.12.2019
1800 Rain 7 999 81 10000 5.7 140 08:44 24.12.2019
1801 Rain 7 998 87 10000 6.2 170 08:21 24.12.2019
1802 Rain 7 998 81 10000 4.1 160 07:46 24.12.2019
1803 Rain 7 997 75 10000 5.1 140 07:26 24.12.2019
1804 Rain 7 997 75 10000 5.1 140 06:58 24.12.2019
1805 Rain 7 997 81 10000 7.7 140 06:38 24.12.2019
1806 Rain 7 997 81 10000 8.2 150 06:19 24.12.2019
1807 Rain 7 998 81 10000 5.7 90 05:21 24.12.2019
1808 Rain 7 998 81 10000 5.7 90 04:59 24.12.2019
1809 Rain 7 998 75 10000 5.1 160 03:50 24.12.2019
1810 Rain 7 998 75 10000 6.7 160 03:22 24.12.2019
1811 Rain 7 999 81 10000 3.87 129 02:23 24.12.2019
1812 Rain 7 1000 81 10000 2.6 180 01:50 24.12.2019
1813 Rain 7 1000 81 10000 2.6 180 01:22 24.12.2019
1814 Rain 7 1000 75 10000 4.6 170 00:45 24.12.2019
1815 Rain 7 1000 81 10000 4.11 142 00:24 24.12.2019
1816 Rain 7 1000 81 10000 4.11 142 23:59 23.12.2019
1817 Rain 7 1001 75 10000 4.6 150 23:40 23.12.2019
1818 Rain 7 1001 75 10000 1.5 170 23:22 23.12.2019
1819 Clouds 7 1001 75 10000 4.4 181 22:56 23.12.2019
1820 Clouds 7 1001 75 10000 4.4 181 22:56 23.12.2019
1821 Clouds 7 1001 75 10000 4.4 181 22:37 23.12.2019
1822 Rain 7 1001 75 10000 1 0 22:18 23.12.2019
1823 Rain 7 1001 81 10000 3.1 180 21:55 23.12.2019
1824 Rain 7 1001 81 10000 3.1 180 21:36 23.12.2019
1825 Rain 7 1001 75 10000 5.7 180 21:18 23.12.2019
1826 Rain 7 1001 75 10000 5.7 180 20:57 23.12.2019
1827 Rain 7 1001 70 10000 5.1 170 20:39 23.12.2019
1828 Clouds 8 1001 65 10000 4.1 200 20:18 23.12.2019
1829 Clouds 8 1001 75 10000 8.2 200 19:55 23.12.2019
1830 Clouds 8 1001 75 10000 8.2 200 19:37 23.12.2019
1831 Rain 8 1000 70 10000 9.8 180 19:19 23.12.2019
1832 Rain 8 1000 70 10000 9.3 180 18:57 23.12.2019
1833 Rain 8 1000 70 10000 9.3 180 18:38 23.12.2019
1834 Rain 8 1000 70 10000 10.3 180 18:20 23.12.2019
1835 Rain 8 1001 75 10000 7.2 180 17:55 23.12.2019
1836 Rain 8 1001 75 10000 7.2 180 17:37 23.12.2019
1837 Rain 8 1001 81 10000 8.7 190 17:19 23.12.2019
1838 Rain 10 1000 57 10000 11.3 170 16:42 23.12.2019
1839 Rain 10 1000 53 10000 9.8 170 16:19 23.12.2019
1840 Rain 11 1000 53 10000 9.8 170 15:59 23.12.2019
1841 Rain 10 1001 53 10000 7.7 170 15:38 23.12.2019
1842 Rain 10 1001 53 10000 8.2 170 15:20 23.12.2019
1843 Rain 10 1001 53 10000 8.2 170 14:59 23.12.2019
1844 Clouds 11 1001 50 10000 7.7 160 14:41 23.12.2019
1845 Clouds 11 1001 50 10000 8.7 170 14:22 23.12.2019
1846 Clouds 11 1001 50 10000 8.7 170 13:58 23.12.2019
1847 Clouds 11 1001 52 10000 10.3 170 13:40 23.12.2019
1848 Clouds 11 1001 50 10000 12.3 170 13:22 23.12.2019
1849 Clouds 12 1002 53 10000 10.3 170 12:57 23.12.2019
1850 Clouds 12 1002 53 10000 10.3 170 12:39 23.12.2019
1851 Clouds 12 1002 53 10000 8.2 170 12:19 23.12.2019
1852 Clouds 12 1003 50 10000 9.8 160 11:44 23.12.2019
1853 Clouds 12 1003 50 10000 6.2 170 11:26 23.12.2019
1854 Clouds 12 1004 50 10000 9.8 170 10:57 23.12.2019
1855 Clouds 12 1004 50 10000 9.8 170 10:57 23.12.2019
1856 Clouds 12 1004 50 10000 9.8 170 10:39 23.12.2019
1857 Clouds 12 1005 50 10000 9.3 170 10:20 23.12.2019
1858 Clouds 11 1006 57 10000 8.7 180 09:59 23.12.2019
1859 Clouds 11 1006 57 10000 8.7 180 09:39 23.12.2019
1860 Clouds 11 1006 57 10000 5.7 160 09:21 23.12.2019
1861 Clouds 11 1006 57 10000 7.7 170 08:56 23.12.2019
1862 Clouds 11 1006 57 10000 7.7 170 08:38 23.12.2019
1863 Clouds 10 1006 57 10000 5.7 170 08:19 23.12.2019
1864 Clouds 10 1006 61 10000 6.2 160 07:43 23.12.2019
1865 Clouds 10 1007 57 10000 6.7 140 07:20 23.12.2019
1866 Clouds 10 1006 57 10000 5.7 170 06:53 23.12.2019
1867 Clouds 9 1007 65 10000 0.5 0 06:25 23.12.2019
1868 Clouds 8 1007 70 10000 10.54 175 05:50 23.12.2019
1869 Clouds 6 1007 61 10000 7.7 180 05:27 23.12.2019
1870 Clouds 8 1007 80 10000 0.5 0 04:31 23.12.2019
1871 Clouds 6 1009 80 10000 5.59 169 02:58 23.12.2019
1872 Clouds 6 1009 80 10000 1.5 60 02:40 23.12.2019
1873 Clouds 5 1010 81 10000 1 350 02:18 23.12.2019
1874 Clouds 5 1010 81 10000 1 350 02:18 23.12.2019
1875 Clouds 5 1011 86 10000 1 0 01:41 23.12.2019
1876 Clouds 5 1011 82 10000 0.5 0 01:19 23.12.2019
1877 Clouds 5 1011 86 10000 1.5 290 00:43 23.12.2019
1878 Clouds 5 1011 86 10000 3.34 112 00:21 23.12.2019
1879 Clouds 4 1012 86 10000 3.34 112 23:39 22.12.2019
1880 Clouds 4 1012 86 10000 2.04 135 23:21 22.12.2019
1881 Clouds 4 1012 86 10000 2.04 135 22:58 22.12.2019
1882 Clouds 4 1012 86 10000 2.04 135 22:39 22.12.2019
1883 Clouds 4 1013 79 10000 2.04 135 22:19 22.12.2019
1884 Clouds 4 1013 79 10000 2.04 135 21:57 22.12.2019
1885 Clouds 4 1013 80 10000 1.5 360 21:39 22.12.2019
1886 Clouds 5 1013 80 10000 2.04 135 21:20 22.12.2019
1887 Clouds 5 1013 80 10000 2.04 135 20:57 22.12.2019
1888 Clouds 5 1013 80 10000 2.04 135 20:38 22.12.2019
1889 Clouds 5 1013 80 10000 3.1 20 20:18 22.12.2019
1890 Clouds 5 1013 80 10000 3.1 20 19:55 22.12.2019
1891 Clouds 6 1013 74 10000 1.5 20 19:37 22.12.2019
1892 Clouds 6 1013 63 10000 2.6 50 19:18 22.12.2019
1893 Clouds 5 1014 63 10000 3.1 20 18:40 22.12.2019
1894 Clouds 5 1014 63 10000 2.6 10 18:22 22.12.2019
1895 Clouds 5 1014 63 10000 1 30 17:55 22.12.2019
1896 Clouds 5 1014 63 10000 1 30 17:37 22.12.2019
1897 Clouds 7 1013 52 10000 2.1 50 17:18 22.12.2019
1898 Clouds 7 1014 75 10000 1 0 16:56 22.12.2019
1899 Clouds 6 1014 75 10000 1 0 16:37 22.12.2019
1900 Clouds 8 1014 65 10000 0.5 0 16:19 22.12.2019
1901 Clouds 8 1014 61 10000 0.5 0 15:55 22.12.2019
1902 Clouds 8 1014 61 10000 0.5 0 15:36 22.12.2019
1903 Clouds 9 1013 61 10000 0.5 0 15:18 22.12.2019
1904 Clouds 9 1014 65 10000 1.57 187 14:54 22.12.2019
1905 Clouds 9 1014 65 10000 1.57 187 14:54 22.12.2019
1906 Clouds 9 1014 65 10000 1.57 187 14:36 22.12.2019
1907 Clouds 9 1013 32 10000 0.5 220 14:18 22.12.2019
1908 Clouds 9 1014 32 10000 2.6 210 13:54 22.12.2019
1909 Clouds 9 1014 32 10000 2.6 210 13:36 22.12.2019
1910 Clouds 8 1014 61 10000 2.1 200 13:18 22.12.2019
1911 Clouds 8 1014 65 10000 0.5 0 12:54 22.12.2019
1912 Clouds 8 1014 65 10000 0.5 0 12:36 22.12.2019
1913 Clouds 8 1015 33 10000 0.5 0 12:18 22.12.2019
1914 Clouds 7 1015 33 10000 0.5 0 11:39 22.12.2019
1915 Clouds 7 1017 65 6000 2.1 270 11:20 22.12.2019
1916 Clouds 6 1016 34 10000 0.5 0 10:58 22.12.2019
1917 Clouds 6 1016 34 10000 0.5 0 10:40 22.12.2019
1918 Clouds 5 1016 74 10000 0.5 0 10:21 22.12.2019
1919 Clouds 5 1016 74 10000 0.5 0 09:58 22.12.2019
1920 Clouds 4 1017 80 10000 0.5 0 09:40 22.12.2019
1921 Clouds 0 1017 86 10000 0.5 0 09:21 22.12.2019
1922 Clouds 0 1017 34 10000 0.5 0 08:55 22.12.2019
1923 Clouds 0 1017 34 10000 0.5 0 08:37 22.12.2019
1924 Clouds 0 1017 50 10000 0.5 0 08:18 22.12.2019
1925 Clouds 0 1017 86 10000 0.5 0 07:36 22.12.2019
1926 Clouds 0 1017 51 10000 0.5 0 07:18 22.12.2019
1927 Clouds 0 1017 92 7000 0.5 0 06:40 22.12.2019
1928 Clouds -1 1016 92 7000 0.5 0 05:49 22.12.2019
1929 Clouds -1 1017 100 7000 1.5 100 05:21 22.12.2019
1930 Clouds 2 1016 86 7000 0.5 10 04:27 22.12.2019
1931 Clouds 2 1016 92 7000 0.5 10 03:28 22.12.2019
1932 Clouds 1 1017 92 6000 0.5 330 02:35 22.12.2019
1933 Clouds 1 1017 51 7000 0.5 0 01:37 22.12.2019
1934 Clouds 1 1017 51 6000 1.76 189 01:18 22.12.2019
1935 Clouds 2 1017 51 7000 1.76 189 00:45 22.12.2019
1936 Clouds 2 1017 51 8000 0.5 280 00:21 22.12.2019
1937 Clouds 3 1017 74 8000 1.76 189 23:42 21.12.2019
1938 Clouds 4 1018 80 8000 1 20 23:24 21.12.2019
1939 Clouds 3 1018 80 7000 0.5 10 22:59 21.12.2019
1940 Clouds 3 1018 80 7000 0.5 10 22:40 21.12.2019
1941 Clouds 3 1018 80 10000 1.94 191 22:19 21.12.2019
1942 Clouds 3 1018 80 10000 0.5 0 21:56 21.12.2019
1943 Clouds 3 1018 80 10000 0.5 0 21:37 21.12.2019
1944 Clouds 3 1018 74 10000 1.94 191 21:19 21.12.2019
1945 Clouds 3 1018 74 10000 1 30 20:57 21.12.2019
1946 Clouds 3 1018 74 10000 1 30 20:39 21.12.2019
1947 Clouds 3 1018 80 10000 1 20 20:21 21.12.2019
1948 Clouds 3 1018 80 10000 1 20 19:57 21.12.2019
1949 Clouds 3 1018 74 10000 1 20 19:39 21.12.2019
1950 Clouds 4 1019 69 10000 0.5 40 19:19 21.12.2019
1951 Clouds 4 1019 69 10000 0.5 0 18:42 21.12.2019
1952 Clouds 4 1019 60 10000 2.04 181 18:24 21.12.2019
1953 Clouds 5 1019 48 10000 0.5 130 17:57 21.12.2019
1954 Clouds 5 1019 48 10000 0.5 130 17:39 21.12.2019
1955 Clear 5 1019 52 10000 1.38 248 17:21 21.12.2019
1956 Clear 5 1019 52 10000 1.38 248 16:58 21.12.2019
1957 Clear 5 1019 52 10000 1.38 248 16:39 21.12.2019
1958 Clouds 7 1019 48 10000 1.38 248 16:18 21.12.2019
1959 Clouds 7 1019 48 10000 1.38 248 15:56 21.12.2019
1960 Clouds 7 1019 45 10000 1.38 248 15:38 21.12.2019
1961 Clouds 9 1019 45 10000 1.38 248 15:19 21.12.2019
1962 Clouds 9 1019 42 10000 3.6 210 14:44 21.12.2019
1963 Clouds 10 1018 39 10000 3.6 180 14:25 21.12.2019
1964 Clouds 10 1018 39 10000 3.6 180 13:59 21.12.2019
1965 Clouds 10 1018 40 10000 5.1 180 13:40 21.12.2019
1966 Clouds 9 1019 34 10000 5.7 200 13:20 21.12.2019
1967 Clouds 9 1019 34 10000 5.7 200 12:58 21.12.2019
1968 Clouds 9 1019 40 8000 4.1 180 12:39 21.12.2019
1969 Clouds 9 1020 46 7000 2.1 240 12:21 21.12.2019
1970 Haze 8 1022 61 5000 1 0 11:57 21.12.2019
1971 Haze 8 1022 61 5000 1 0 11:39 21.12.2019
1972 Clouds 5 1021 49 10000 1.9 195 11:21 21.12.2019
1973 Clear 4 1021 56 10000 1.9 195 10:42 21.12.2019
1974 Mist 4 1023 100 2000 2.6 260 10:23 21.12.2019
1975 Mist 3 1023 100 2000 2.6 260 09:59 21.12.2019
1976 Mist 1 1022 69 5000 1.9 195 09:41 21.12.2019
1977 Mist 0 1022 80 4000 1.5 300 09:20 21.12.2019
1978 Mist -2 1022 36 3100 1.9 195 08:55 21.12.2019
1979 Mist -2 1022 36 3100 1.32 197 08:36 21.12.2019
1980 Mist -2 1022 86 3100 0.68 206 08:18 21.12.2019
1981 Mist -2 1022 86 3100 0.68 206 07:41 21.12.2019
1982 Fog -3 1023 92 200 0.5 170 07:21 21.12.2019
1983 Mist -3 1022 92 3100 1 300 06:42 21.12.2019
1984 Mist -3 1022 92 4600 0.68 206 06:24 21.12.2019
1985 Mist -2 1022 92 4800 1 300 05:45 21.12.2019
1986 Mist -2 1021 86 4800 1.5 300 04:56 21.12.2019
1987 Mist -2 1022 92 4800 0.5 290 03:56 21.12.2019
1988 Mist -1 1022 92 4900 0.5 300 02:39 21.12.2019
1989 Mist -2 1022 92 4900 0.42 198 01:53 21.12.2019
1990 Clouds 1 1022 92 6000 0.47 212 01:27 21.12.2019
1991 Clouds -2 1023 92 6000 0.5 0 00:50 21.12.2019
1992 Clouds -2 1023 92 6000 0.5 0 00:28 21.12.2019
1993 Clouds -1 1023 92 6000 0.5 0 23:55 20.12.2019
1994 Clouds -1 1023 92 6000 0.5 0 23:36 20.12.2019
1995 Fog -1 1024 92 200 1 0 23:18 20.12.2019
1996 Clouds -1 1024 86 6000 0.5 0 22:40 20.12.2019
1997 Clouds 0 1024 61 6000 0.66 184 22:20 20.12.2019
1998 Clouds 0 1024 86 6000 0.66 184 21:56 20.12.2019
1999 Clouds 0 1024 86 6000 0.66 184 21:38 20.12.2019
2000 Clouds 0 1024 61 6000 0.66 184 21:18 20.12.2019
2001 Clouds 1 1024 61 7000 0.66 184 20:39 20.12.2019
2002 Clouds 0 1024 61 7000 0.66 184 20:39 20.12.2019
2003 Clouds 0 1024 59 7000 0.76 150 20:19 20.12.2019
2004 Clouds 1 1024 80 8000 0.76 150 19:57 20.12.2019
2005 Clouds 1 1024 80 8000 0.76 150 19:38 20.12.2019
2006 Mist 1 1024 59 1600 1 0 19:19 20.12.2019
2007 Clouds 1 1024 80 8000 0.5 310 18:42 20.12.2019
2008 Mist 2 1024 59 2000 1.5 220 18:23 20.12.2019
2009 Mist 2 1024 59 2000 1.5 220 17:58 20.12.2019
2010 Mist 3 1024 93 3500 1.5 260 17:40 20.12.2019
2011 Mist 3 1024 93 3500 1.5 260 17:20 20.12.2019
2012 Clouds 4 1024 55 10000 0.5 0 16:57 20.12.2019
2013 Mist 5 1024 55 3500 1 120 16:38 20.12.2019
2014 Mist 5 1024 55 3500 1 120 16:19 20.12.2019
2015 Clouds 7 1024 55 10000 0.9 130 15:55 20.12.2019
2016 Haze 7 1024 65 2200 3.1 280 15:37 20.12.2019
2017 Haze 7 1024 65 2200 3.1 280 15:37 20.12.2019
2018 Haze 7 1024 65 2200 3.1 280 15:19 20.12.2019
2019 Clouds 9 1024 55 10000 0.5 280 14:42 20.12.2019
2020 Haze 10 1024 33 3100 1.5 290 14:24 20.12.2019
2021 Clouds 10 1024 40 10000 0.5 0 13:57 20.12.2019
2022 Smoke 10 1025 53 3100 0.54 175 13:38 20.12.2019
2023 Smoke 10 1025 53 3100 0.77 154 13:19 20.12.2019
2024 Clouds 9 1025 43 10000 0.77 154 12:56 20.12.2019
2025 Haze 8 1026 65 4300 1.5 260 12:36 20.12.2019
2026 Haze 8 1026 65 4300 1.5 260 12:18 20.12.2019
2027 Clouds 6 1026 45 10000 0.5 0 11:57 20.12.2019
2028 Mist 5 1027 75 2000 0.77 154 11:38 20.12.2019
2029 Mist 5 1027 75 2000 0.77 154 11:38 20.12.2019
2030 Mist 6 1027 75 2000 0.92 126 11:18 20.12.2019
2031 Mist 4 1027 100 3500 1 0 10:56 20.12.2019
2032 Mist 4 1028 93 1300 1 0 10:37 20.12.2019
2033 Mist 3 1028 93 1300 1 0 10:19 20.12.2019
2034 Mist 1 1028 33 1300 0.92 126 09:43 20.12.2019
2035 Fog 0 1028 33 600 0.92 126 09:21 20.12.2019
2036 Mist -2 1028 33 3200 0.5 0 08:55 20.12.2019
2037 Fog -2 1029 92 150 0.92 126 08:37 20.12.2019
2038 Fog 0 1029 92 150 0.91 112 08:19 20.12.2019
2039 Mist -2 1028 92 3500 0.5 80 07:55 20.12.2019
2040 Fog -3 1029 92 200 1 230 07:36 20.12.2019
2041 Fog -2 1029 92 200 1 230 07:18 20.12.2019
2042 Fog -2 1029 92 200 1 210 06:43 20.12.2019
2043 Fog -2 1029 92 200 1 210 06:25 20.12.2019
2044 Mist -2 1028 92 4800 0.5 10 05:47 20.12.2019
2045 Mist -2 1028 92 4600 0.5 0 04:57 20.12.2019
2046 Mist -1 1028 92 4400 0.5 0 03:48 20.12.2019
2047 Mist -1 1029 92 4500 0.5 0 02:46 20.12.2019
2048 Mist -1 1029 92 4500 0.5 0 01:59 20.12.2019
2049 Fog -1 1030 100 200 0.5 0 01:35 20.12.2019
2050 Mist -1 1029 92 4400 0.5 0 00:54 20.12.2019
2051 Fog -1 1030 100 200 1 0 00:35 20.12.2019
2052 Mist -1 1030 92 4200 0.93 104 23:57 19.12.2019
2053 Fog -1 1031 100 200 0.5 0 23:39 19.12.2019
2054 Fog -1 1031 100 200 0.5 0 23:19 19.12.2019
2055 Fog -1 1031 100 200 0.5 0 23:19 19.12.2019
2056 Fog -1 1031 100 200 1.5 200 22:39 19.12.2019
2057 Fog -1 1031 100 200 1.5 200 22:21 19.12.2019
2058 Mist 0 1030 92 4000 0.5 0 21:56 19.12.2019
2059 Fog 0 1031 100 200 0.5 0 21:38 19.12.2019
2060 Fog 0 1031 100 200 0.5 0 21:19 19.12.2019
2061 Mist 1 1031 80 4300 0.5 60 20:56 19.12.2019
2062 Fog 1 1031 100 200 1 0 20:37 19.12.2019
2063 Fog 1 1031 100 200 1 0 20:19 19.12.2019
2064 Mist 0 1031 44 4800 0.5 0 19:58 19.12.2019
2065 Fog 0 1031 44 200 1 0 19:39 19.12.2019
2066 Fog 0 1031 44 200 1 0 19:39 19.12.2019
2067 Fog 0 1031 44 200 1 0 19:19 19.12.2019
2068 Fog 0 1031 44 200 1 0 19:19 19.12.2019
2069 Mist 2 1031 74 4800 1.5 70 18:57 19.12.2019
2070 Fog 2 1032 100 400 1.5 260 18:39 19.12.2019
2071 Fog 2 1032 100 400 1.5 260 18:19 19.12.2019
2072 Fog 2 1031 44 600 0.5 30 17:55 19.12.2019
2073 Mist 3 1031 93 2200 1.5 230 17:37 19.12.2019
2074 Mist 3 1031 93 2200 1.5 230 17:37 19.12.2019
2075 Mist 3 1031 93 2200 1.5 230 17:18 19.12.2019
2076 Fog 4 1032 93 500 2.6 270 16:55 19.12.2019
2077 Mist 4 1031 86 2500 4.6 300 16:36 19.12.2019
2078 Mist 4 1031 86 2500 4.6 300 16:18 19.12.2019
2079 Mist 5 1030 47 4800 0.5 320 15:55 19.12.2019
2080 Mist 6 1031 80 3500 3.1 300 15:36 19.12.2019
2081 Mist 6 1031 80 3500 3.1 300 15:18 19.12.2019
2082 Mist 8 1031 50 4700 0.5 0 14:42 19.12.2019
2083 Smoke 8 1031 65 3500 3.1 310 14:20 19.12.2019
2084 Mist 8 1031 53 4600 0.84 274 13:58 19.12.2019
2085 Smoke 8 1032 65 2000 2.1 300 13:38 19.12.2019
2086 Smoke 8 1032 65 2000 2.1 300 13:19 19.12.2019
2087 Smoke 8 1032 65 2000 2.1 300 13:19 19.12.2019
2088 Mist 6 1032 100 4000 1 0 12:57 19.12.2019
2089 Mist 6 1032 75 2000 2.1 280 12:38 19.12.2019
2090 Mist 6 1032 75 2000 2.1 280 12:19 19.12.2019
2091 Mist 6 1032 75 2000 2.1 280 12:19 19.12.2019
2092 Mist 6 1032 75 2000 2.1 280 12:19 19.12.2019
2093 Mist 4 1033 93 2000 3.1 270 11:58 19.12.2019
2094 Fog 4 1033 80 1400 2.6 270 11:39 19.12.2019
2095 Fog 3 1033 80 1400 2.6 270 11:18 19.12.2019
2096 Fog 3 1033 80 1400 2.6 270 11:18 19.12.2019
2097 Mist 2 1033 29 2100 1 0 10:55 19.12.2019
2098 Fog 2 1034 100 1000 2.1 270 10:37 19.12.2019
2099 Fog 2 1034 100 1000 2.1 270 10:18 19.12.2019
2100 Fog -1 1034 29 1200 1 0 09:39 19.12.2019
2101 Fog -1 1034 29 1200 1 0 09:39 19.12.2019
2102 Fog -1 1034 29 1200 1 0 09:20 19.12.2019
2103 Fog -2 1034 100 250 0.41 199 08:58 19.12.2019
2104 Fog -2 1034 29 400 0.5 0 08:40 19.12.2019
2105 Fog -1 1034 92 200 0.15 143 08:19 19.12.2019
2106 Fog -1 1034 92 200 0.15 143 07:56 19.12.2019
2107 Fog -2 1034 49 400 1.5 50 07:38 19.12.2019
2108 Fog -1 1034 49 400 1.5 50 07:19 19.12.2019
2109 Fog -1 1033 92 250 0.15 143 06:49 19.12.2019
2110 Fog -1 1034 49 400 0.5 0 06:28 19.12.2019
2111 Clouds -1 1033 92 300 0.15 143 05:55 19.12.2019
2112 Fog -1 1033 49 450 2.1 100 05:33 19.12.2019
2113 Fog -1 1033 92 350 0.37 275 04:48 19.12.2019
2114 Fog -1 1033 100 300 0.37 275 02:49 19.12.2019
2115 Fog -1 1033 100 300 0.17 300 01:47 19.12.2019
2116 Fog -1 1033 69 200 0.5 0 01:22 19.12.2019
2117 Fog 0 1033 69 200 1 0 00:40 19.12.2019
2118 Fog 0 1033 69 200 1 0 00:21 19.12.2019
2119 Fog 0 1033 100 200 0.24 317 23:55 18.12.2019
2120 Fog 0 1033 69 200 1.5 160 23:36 18.12.2019
2121 Fog 0 1033 64 200 1.5 160 23:18 18.12.2019
2122 Fog 0 1033 100 200 0.31 230 22:55 18.12.2019
2123 Fog 0 1034 100 200 1 0 22:36 18.12.2019
2124 Fog 0 1034 100 200 1 0 22:18 18.12.2019
2125 Fog 0 1033 100 200 0.31 230 21:55 18.12.2019
2126 Rain 0 1033 100 250 1 0 21:36 18.12.2019
2127 Rain 0 1033 100 250 1 0 21:36 18.12.2019
2128 Rain 0 1033 100 250 1 0 21:18 18.12.2019
2129 Rain 0 1032 100 200 0.31 230 20:54 18.12.2019
2130 Fog 1 1033 100 300 0.5 0 20:36 18.12.2019
2131 Fog 1 1033 100 300 0.5 0 20:18 18.12.2019
2132 Fog 1 1032 100 200 0.15 161 19:54 18.12.2019
2133 Fog 1 1032 100 200 0.15 161 19:54 18.12.2019
2134 Fog 1 1033 100 400 1 0 19:36 18.12.2019
2135 Fog 1 1033 100 400 1 0 19:18 18.12.2019
2136 Fog 1 1033 93 550 0.5 0 18:43 18.12.2019
2137 Fog 1 1033 93 550 0.5 0 18:25 18.12.2019
2138 Fog 1 1032 100 150 0.5 0 17:56 18.12.2019
2139 Fog 2 1032 93 450 0.15 161 17:38 18.12.2019
2140 Fog 2 1032 93 450 0.31 262 17:19 18.12.2019
2141 Fog 2 1031 55 200 0.5 0 16:43 18.12.2019
2142 Fog 2 1031 55 200 0.5 0 16:43 18.12.2019
2143 Fog 2 1031 55 200 0.5 0 16:43 18.12.2019
2144 Fog 2 1032 100 750 1.5 160 16:24 18.12.2019
2145 Fog 2 1031 55 100 0.5 0 15:59 18.12.2019
2146 Fog 2 1031 55 100 0.5 0 15:40 18.12.2019
2147 Fog 2 1032 100 750 0.5 0 15:21 18.12.2019
2148 Fog 3 1031 100 1300 0.5 0 14:59 18.12.2019
2149 Fog 3 1031 100 1300 0.5 0 14:40 18.12.2019
2150 Fog 3 1032 100 1000 1.5 280 14:20 18.12.2019
2151 Mist 3 1031 93 3500 0.5 0 13:56 18.12.2019
2152 Mist 3 1031 93 3500 0.5 0 13:37 18.12.2019
2153 Mist 3 1032 100 1300 1 0 13:19 18.12.2019
2154 Mist 3 1032 100 1300 1 0 13:19 18.12.2019
2155 Mist 1 1031 100 3400 0.5 0 12:57 18.12.2019
2156 Mist 1 1031 100 3400 0.5 0 12:37 18.12.2019
2157 Mist 1 1032 93 1200 1.5 230 12:19 18.12.2019
2158 Mist 1 1031 35 2200 0.5 0 11:55 18.12.2019
2159 Mist 1 1031 35 2200 0.5 0 11:36 18.12.2019
2160 Fog 1 1032 100 600 1.5 200 11:18 18.12.2019
2161 Fog 1 1032 100 600 1 0 10:55 18.12.2019
2162 Fog 0 1032 100 600 1 0 10:37 18.12.2019
2163 Fog 0 1033 100 600 0.5 0 10:18 18.12.2019
2164 Fog -2 1032 100 300 0.5 0 09:21 18.12.2019
2165 Fog -2 1032 100 300 1.03 239 08:58 18.12.2019
2166 Fog -2 1032 100 300 1.03 239 08:39 18.12.2019
2167 Fog -1 1032 92 300 0.5 0 08:21 18.12.2019
2168 Fog -1 1032 92 300 0.5 320 07:43 18.12.2019
2169 Fog -1 1032 61 400 0.5 0 07:22 18.12.2019
2170 Fog -1 1032 100 300 0.5 320 06:53 18.12.2019
2171 Fog -1 1032 61 450 1 120 06:26 18.12.2019
2172 Fog -1 1031 100 500 0.5 320 05:43 18.12.2019
2173 Fog -1 1031 100 400 1 0 04:37 18.12.2019
2174 Fog -1 1031 100 400 1 0 02:50 18.12.2019
2175 Fog 0 1031 100 400 1 0 02:30 18.12.2019
2176 Fog 0 1031 100 400 1 0 01:57 18.12.2019
2177 Fog -1 1031 100 450 0.46 256 01:37 18.12.2019
2178 Fog 0 1031 100 400 0.27 272 01:19 18.12.2019
2179 Fog 0 1031 100 450 0.27 272 00:40 18.12.2019
2180 Fog 0 1031 100 300 0.5 0 00:21 18.12.2019
2181 Fog 1 1030 100 450 0.27 272 23:54 17.12.2019
2182 Fog 1 1030 100 450 0.27 272 23:36 17.12.2019
2183 Fog 1 1031 93 400 1.5 270 23:18 17.12.2019
2184 Fog 1 1030 100 300 0.14 204 22:54 17.12.2019
2185 Fog 1 1030 100 300 0.14 204 22:36 17.12.2019
2186 Fog 1 1031 100 300 1 0 22:18 17.12.2019
2187 Fog 1 1031 92 300 1 0 21:55 17.12.2019
2188 Fog 1 1031 92 300 1 0 21:36 17.12.2019
2189 Fog 1 1031 93 400 0.14 204 21:18 17.12.2019
2190 Fog 1 1030 100 300 0.5 320 20:55 17.12.2019
2191 Fog 1 1030 100 300 0.5 320 20:36 17.12.2019
2192 Fog 1 1031 93 600 0.18 253 20:18 17.12.2019
2193 Fog 2 1030 93 400 0.5 0 19:41 17.12.2019
2194 Fog 2 1030 93 400 0.5 0 19:41 17.12.2019
2195 Fog 2 1030 60 300 1 0 19:20 17.12.2019
2196 Fog 2 1030 60 300 0.5 320 18:58 17.12.2019
2197 Fog 2 1030 93 500 1.5 0 18:40 17.12.2019
2198 Fog 2 1030 93 500 1.5 0 18:21 17.12.2019
2199 Fog 2 1030 60 300 0.18 253 17:58 17.12.2019
2200 Fog 2 1030 60 300 0.18 253 17:39 17.12.2019
2201 Fog 2 1029 62 300 0.21 319 17:19 17.12.2019
2202 Mist 2 1029 93 2000 2.1 250 16:56 17.12.2019
2203 Mist 3 1029 93 2000 2.1 250 16:37 17.12.2019
2204 Mist 3 1029 93 3200 3.1 290 16:18 17.12.2019
2205 Fog 3 1029 62 300 0.21 319 15:54 17.12.2019
2206 Fog 3 1029 62 300 0.21 319 15:36 17.12.2019
2207 Mist 4 1030 93 2500 3.6 270 15:18 17.12.2019
2208 Mist 6 1028 75 3500 2.1 280 14:54 17.12.2019
2209 Mist 6 1028 75 3500 2.1 280 14:36 17.12.2019
2210 Mist 6 1028 75 3500 2.1 280 14:36 17.12.2019
2211 Mist 4 1029 80 4000 3.1 290 14:18 17.12.2019
2212 Fog 4 1028 41 400 1.3 258 13:54 17.12.2019
2213 Fog 4 1028 42 400 1.34 258 13:36 17.12.2019
2214 Fog 4 1028 42 300 1.34 258 13:18 17.12.2019
2215 Mist 3 1030 86 3300 1.5 0 12:39 17.12.2019
2216 Mist 2 1029 86 3100 1 0 12:19 17.12.2019
2217 Mist 1 1030 100 3000 1.5 210 11:59 17.12.2019
2218 Mist 1 1030 100 3000 1.5 210 11:37 17.12.2019
2219 Mist 1 1030 100 3000 1.5 210 11:37 17.12.2019
2220 Mist 2 1030 93 1400 1 0 11:19 17.12.2019
2221 Mist 2 1030 93 1400 1 0 11:19 17.12.2019
2222 Fog 1 1030 100 200 0.85 220 10:59 17.12.2019
2223 Fog 1 1030 100 200 0.85 220 10:40 17.12.2019
2224 Fog 1 1030 100 300 0.85 220 10:21 17.12.2019
2225 Fog 1 1030 100 300 0.85 220 09:59 17.12.2019
2226 Fog 1 1031 100 1300 1 0 09:40 17.12.2019
2227 Mist 0 1031 100 1200 1 220 09:19 17.12.2019
2228 Fog 0 1030 100 200 1 0 08:56 17.12.2019
2229 Fog 0 1030 100 200 1 0 08:38 17.12.2019
2230 Fog 1 1030 100 1200 1 0 08:19 17.12.2019
2231 Fog 0 1030 76 800 1.5 10 07:45 17.12.2019
2232 Fog 0 1030 93 800 1.5 270 07:26 17.12.2019
2233 Rain 0 1029 100 350 1 320 06:56 17.12.2019
2234 Rain 0 1029 100 350 1 320 06:34 17.12.2019
2235 Fog 1 1029 100 500 1 0 05:53 17.12.2019
2236 Fog 1 1029 100 500 1 0 05:34 17.12.2019
2237 Fog 1 1029 93 450 1 0 04:30 17.12.2019
2238 Fog 1 1028 100 300 0.45 223 02:33 17.12.2019
2239 Fog 2 1028 100 300 0.22 282 01:54 17.12.2019
2240 Fog 1 1028 100 200 0.05 224 00:58 17.12.2019
2241 Fog 1 1028 100 200 0.05 224 00:37 17.12.2019
2242 Fog 2 1029 100 450 1 0 00:18 17.12.2019
2243 Fog 2 1028 92 250 0.05 224 23:41 16.12.2019
2244 Fog 2 1028 92 1100 0.12 56 23:19 16.12.2019
2245 Fog 2 1028 92 1100 0.12 56 23:19 16.12.2019
2246 Mist 2 1028 92 3300 0.12 56 22:56 16.12.2019
2247 Mist 2 1028 92 3300 0.12 56 22:37 16.12.2019
2248 Mist 2 1029 93 1800 0.5 0 22:19 16.12.2019
2249 Mist 1 1028 87 3800 1 0 21:55 16.12.2019
2250 Mist 1 1028 87 3800 1 0 21:37 16.12.2019
2251 Mist 1 1028 87 3800 1 0 21:37 16.12.2019
2252 Mist 1 1029 100 2800 1 0 21:18 16.12.2019
2253 Mist 1 1029 87 3200 1 0 20:56 16.12.2019
2254 Mist 1 1029 87 3200 1 0 20:56 16.12.2019
2255 Mist 1 1029 87 3200 1 0 20:37 16.12.2019
2256 Fog 1 1029 100 1000 0.61 271 20:19 16.12.2019
2257 Mist 1 1028 86 4000 0.61 271 19:55 16.12.2019
2258 Mist 1 1028 86 4000 0.61 271 19:36 16.12.2019
2259 Clouds 2 1028 93 7000 2.1 240 19:18 16.12.2019
2260 Clouds 2 1028 85 6000 0.61 271 18:55 16.12.2019
2261 Clouds 2 1028 85 6000 0.61 271 18:37 16.12.2019
2262 Clouds 2 1028 93 10000 1.5 250 18:19 16.12.2019
2263 Clouds 3 1027 85 6000 1 0 17:57 16.12.2019
2264 Clouds 3 1027 85 6000 1 0 17:37 16.12.2019
2265 Clouds 3 1028 86 10000 2.6 250 17:19 16.12.2019
2266 Clouds 4 1027 76 8000 1 0 16:55 16.12.2019
2267 Clouds 5 1027 76 8000 1 0 16:37 16.12.2019
2268 Clouds 5 1028 86 10000 2.6 250 16:18 16.12.2019
2269 Clouds 6 1027 75 8000 0.5 350 15:55 16.12.2019
2270 Clouds 6 1027 75 8000 0.5 350 15:37 16.12.2019
2271 Clouds 8 1027 76 8000 1 0 15:19 16.12.2019
2272 Clouds 8 1027 76 8000 1 0 14:54 16.12.2019
2273 Clouds 8 1027 76 8000 1 0 14:36 16.12.2019
2274 Clouds 8 1027 61 8000 1 0 14:18 16.12.2019
2275 Clouds 8 1027 61 8000 1 0 14:18 16.12.2019
2276 Clouds 8 1027 70 7000 1 0 13:55 16.12.2019
2277 Clouds 8 1027 70 7000 1 0 13:36 16.12.2019
2278 Clouds 8 1027 66 6000 1.5 0 13:18 16.12.2019
2279 Clouds 8 1027 66 6000 1.5 0 13:18 16.12.2019
2280 Mist 8 1027 86 4400 1.5 300 12:54 16.12.2019
2281 Mist 8 1027 86 4400 1.5 300 12:36 16.12.2019
2282 Clouds 8 1027 70 7000 2.6 270 12:18 16.12.2019
2283 Mist 7 1027 93 4500 0.5 0 11:55 16.12.2019
2284 Mist 7 1027 93 4500 0.5 0 11:37 16.12.2019
2285 -273 0 0 0 0 0 11:19 16.12.2019
2286 Fog 6 1028 100 1200 0.5 0 10:40 16.12.2019
2287 Mist 5 1028 81 4800 1 0 10:21 16.12.2019
2288 Fog 5 1028 100 500 0.5 0 09:56 16.12.2019
2289 Fog 5 1028 100 500 0.5 0 09:37 16.12.2019
2290 Mist 4 1029 93 3700 0.5 0 09:19 16.12.2019
2291 Mist 3 1028 67 4500 0.5 0 08:39 16.12.2019
2292 Mist 2 1028 93 5000 1 0 08:19 16.12.2019
2293 Fog 1 1028 92 1600 0.5 0 07:51 16.12.2019
2294 Fog 1 1028 92 1600 0.5 0 07:31 16.12.2019
2295 Fog 0 1027 100 2200 0.5 0 06:49 16.12.2019
2296 Mist 0 1027 94 4000 0.5 0 06:27 16.12.2019
2297 Fog 0 1026 92 1100 0.06 192 05:59 16.12.2019
2298 Fog 0 1026 92 1100 0.06 192 05:40 16.12.2019
2299 Mist 0 1026 94 3300 0.5 300 05:22 16.12.2019
2300 Clear 1 1025 100 6000 0.65 298 02:59 16.12.2019
2301 Clear 3 1024 92 10000 1 0 01:46 16.12.2019
2302 Clouds 2 1024 93 10000 1 0 00:57 16.12.2019
2303 Clouds 2 1024 93 10000 1 0 00:38 16.12.2019
2304 Clouds 2 1024 93 10000 1.5 210 00:19 16.12.2019
2305 Clouds 2 1023 93 10000 1 0 23:43 15.12.2019
2306 Clouds 3 1024 93 10000 0.8 280 23:25 15.12.2019
2307 Clouds 2 1023 93 10000 1 0 22:57 15.12.2019
2308 Clouds 3 1023 93 10000 1 0 22:38 15.12.2019
2309 Clear 3 1023 91 10000 1 210 22:19 15.12.2019
2310 Clouds 4 1023 86 10000 0.5 0 21:58 15.12.2019
2311 Clouds 4 1023 86 10000 0.5 0 21:38 15.12.2019
2312 Clear 4 1023 100 10000 0.74 265 21:20 15.12.2019
2313 Clouds 5 1022 86 10000 1 0 20:58 15.12.2019
2314 Clouds 5 1022 86 10000 1 0 20:40 15.12.2019
2315 Clouds 5 1022 86 10000 0.8 253 20:21 15.12.2019
2316 Clouds 5 1022 86 10000 0.82 256 20:21 15.12.2019
2317 Clouds 5 1022 86 10000 0.8 253 19:58 15.12.2019
2318 Clouds 6 1022 81 10000 2.1 120 19:40 15.12.2019
2319 Clouds 6 1022 81 10000 0.82 256 19:20 15.12.2019
2320 Clouds 6 1022 81 10000 0.82 256 18:58 15.12.2019
2321 Clouds 6 1021 75 10000 1 0 18:39 15.12.2019
2322 Clouds 6 1021 87 10000 0.5 0 18:19 15.12.2019
2323 Clouds 7 1021 70 10000 1 0 17:56 15.12.2019
2324 Clouds 7 1021 70 10000 1 0 17:56 15.12.2019
2325 Clouds 7 1021 70 10000 1 0 17:38 15.12.2019
2326 Clouds 7 1021 81 10000 2.1 270 17:19 15.12.2019
2327 Clouds 9 1020 70 10000 1.5 240 16:57 15.12.2019
2328 Clouds 9 1020 70 10000 1.5 240 16:39 15.12.2019
2329 Clouds 10 1019 66 10000 1 0 16:20 15.12.2019
2330 Clouds 11 1019 66 10000 1 0 15:55 15.12.2019
2331 Clouds 11 1019 66 10000 1 0 15:37 15.12.2019
2332 Clouds 11 1019 57 10000 1.5 280 15:18 15.12.2019
2333 Clouds 11 1019 61 10000 2.6 270 14:55 15.12.2019
2334 Clouds 11 1019 61 10000 2.6 270 14:37 15.12.2019
2335 Clouds 11 1019 61 10000 2.6 270 14:37 15.12.2019
2336 Clouds 12 1019 62 10000 2.6 260 14:18 15.12.2019
2337 Clouds 12 1018 57 10000 1 0 13:58 15.12.2019
2338 Clouds 12 1018 57 10000 1 0 13:37 15.12.2019
2339 Clouds 12 1018 57 10000 1 0 13:37 15.12.2019
2340 Clouds 11 1019 54 10000 3.1 270 13:19 15.12.2019
2341 Clouds 11 1018 61 10000 2.94 276 12:56 15.12.2019
2342 Clouds 11 1018 61 10000 2.94 276 12:38 15.12.2019
2343 Clouds 11 1018 57 10000 1 310 12:20 15.12.2019
2344 Clouds 10 1017 61 10000 0.5 0 11:55 15.12.2019
2345 Clouds 10 1017 61 10000 0.5 0 11:36 15.12.2019
2346 Clouds 10 1017 61 10000 0.5 0 11:18 15.12.2019
2347 Clouds 9 1018 70 10000 0.5 0 10:55 15.12.2019
2348 Clouds 9 1018 70 10000 0.5 0 10:36 15.12.2019
2349 Clouds 8 1018 66 10000 2.6 300 10:18 15.12.2019
2350 Clouds 7 1018 86 10000 0.5 0 09:39 15.12.2019
2351 Clouds 6 1018 75 10000 1 0 09:20 15.12.2019
2352 Clouds 6 1018 75 10000 1 0 09:20 15.12.2019
2353 Clouds 5 1017 86 8000 0.5 0 08:57 15.12.2019
2354 Clouds 5 1017 86 8000 0.5 0 08:39 15.12.2019
2355 Clear 4 1018 93 10000 1 0 08:20 15.12.2019
2356 Mist 2 1017 93 4200 0.5 70 07:55 15.12.2019
2357 Mist 2 1017 93 4200 0.5 70 07:34 15.12.2019
2358 Fog 1 1016 90 3700 0.5 0 06:39 15.12.2019
2359 Fog 0 1016 90 4200 0.92 119 06:19 15.12.2019
2360 Clear 0 1015 91 10000 0.5 0 05:25 15.12.2019
2361 Clear 1 1014 91 8000 1.48 110 04:24 15.12.2019
2362 Clear 2 1014 86 10000 1.48 110 03:22 15.12.2019
2363 Clear 2 1013 91 10000 1.48 110 02:33 15.12.2019
2364 Clouds 3 1013 86 10000 1.71 101 01:44 15.12.2019
2365 Clouds 3 1013 86 10000 1 0 01:25 15.12.2019
2366 Clouds 3 1013 92 10000 1.67 92 00:54 15.12.2019
2367 Clouds 3 1013 92 10000 1.67 92 00:35 15.12.2019
2368 Clouds 4 1012 93 8000 1.67 92 23:58 14.12.2019
2369 Clouds 4 1012 93 8000 1.67 92 23:38 14.12.2019
2370 Clouds 4 1012 86 6000 2.03 83 23:18 14.12.2019
2371 Clouds 5 1012 86 10000 2.03 83 22:56 14.12.2019
2372 Clouds 5 1012 86 10000 2.03 83 22:37 14.12.2019
2373 Clouds 5 1012 93 10000 1 0 22:19 14.12.2019
2374 Clouds 6 1011 75 10000 2.03 83 21:55 14.12.2019
2375 Clouds 6 1011 75 10000 2.03 83 21:37 14.12.2019
2376 Clouds 6 1011 87 10000 2.1 320 21:18 14.12.2019
2377 Clouds 6 1011 87 10000 2.1 320 21:18 14.12.2019
2378 Clouds 7 1010 86 10000 2.03 83 20:42 14.12.2019
2379 Clouds 7 1010 70 10000 1 0 20:21 14.12.2019
2380 Clouds 8 1010 70 10000 0.5 0 19:59 14.12.2019
2381 Clouds 8 1010 70 10000 0.5 0 19:39 14.12.2019
2382 Clouds 8 1010 66 10000 1.5 240 19:21 14.12.2019
2383 Clouds 9 1010 75 10000 2.31 122 18:57 14.12.2019
2384 Clouds 9 1010 75 10000 2.31 122 18:39 14.12.2019
2385 Clouds 9 1009 71 10000 1.5 180 18:21 14.12.2019
2386 Clouds 9 1009 87 10000 0.5 0 17:57 14.12.2019
2387 Clouds 9 1009 87 10000 0.5 0 17:38 14.12.2019
2388 Clouds 9 1008 66 10000 2.1 180 17:20 14.12.2019
2389 Clouds 10 1008 70 10000 0.5 0 16:41 14.12.2019
2390 Clouds 10 1008 66 10000 2.6 100 16:19 14.12.2019
2391 Clouds 11 1008 66 10000 3.1 140 15:55 14.12.2019
2392 Clouds 11 1008 66 10000 3.1 140 15:36 14.12.2019
2393 Clouds 11 1008 62 10000 4.6 150 15:18 14.12.2019
2394 Clouds 12 1008 62 10000 4.6 170 14:40 14.12.2019
2395 Clouds 12 1007 58 10000 2.6 160 14:22 14.12.2019
2396 Clouds 12 1007 58 10000 2.6 160 13:59 14.12.2019
2397 Clouds 12 1007 62 10000 5.7 180 13:41 14.12.2019
2398 Clouds 12 1007 62 10000 5.7 180 13:41 14.12.2019
2399 Clouds 12 1007 62 10000 5.1 170 13:19 14.12.2019
2400 Clouds 11 1007 62 10000 4.6 170 12:57 14.12.2019
2401 Clouds 11 1007 62 10000 4.6 170 12:38 14.12.2019
2402 Clouds 12 1007 62 10000 2.1 190 12:20 14.12.2019
2403 Clouds 12 1007 62 10000 2.1 190 12:20 14.12.2019
2404 Clouds 12 1007 62 10000 1 0 11:56 14.12.2019
2405 Clouds 12 1007 62 10000 1 0 11:38 14.12.2019
2406 Clouds 11 1008 62 10000 3.6 180 11:19 14.12.2019
2407 Clouds 10 1008 70 10000 0.5 0 10:56 14.12.2019
2408 Clouds 11 1008 70 10000 0.5 0 10:38 14.12.2019
2409 Clouds 10 1008 62 10000 3.6 200 10:19 14.12.2019
2410 Clouds 9 1009 76 10000 0.5 0 09:43 14.12.2019
2411 Clouds 8 1008 70 10000 0.5 0 09:23 14.12.2019
2412 Clouds 8 1008 70 10000 0.5 0 08:57 14.12.2019
2413 Clouds 7 1008 81 10000 0.5 0 08:38 14.12.2019
2414 Clouds 7 1009 75 10000 1.5 90 08:19 14.12.2019
2415 Clouds 5 1008 80 10000 2.28 126 07:40 14.12.2019
2416 Clouds 5 1008 81 10000 3.6 330 07:21 14.12.2019
2417 Clouds 5 1008 81 10000 3.6 330 07:21 14.12.2019
2418 Clouds 5 1008 86 10000 0.5 0 06:48 14.12.2019
2419 Clouds 5 1007 75 10000 3.6 190 06:30 14.12.2019
2420 Clouds 6 1007 75 10000 1 150 05:43 14.12.2019
2421 Clouds 7 1007 86 10000 1 0 03:44 14.12.2019
2422 Rain 7 1007 81 10000 1.88 124 02:24 14.12.2019
2423 Rain 7 1007 86 4800 1.88 124 01:44 14.12.2019
2424 Rain 7 1007 75 10000 1 0 01:20 14.12.2019
2425 Mist 7 1007 86 7000 1.81 141 00:41 14.12.2019
2426 Clouds 7 1007 76 10000 1 0 00:20 14.12.2019
2427 Clouds 7 1007 93 6000 1.81 141 23:41 13.12.2019
2428 Clouds 7 1007 76 10000 3.1 190 23:19 13.12.2019
2429 Rain 7 1007 93 6000 2.45 154 22:57 13.12.2019
2430 Rain 7 1007 93 6000 2.45 154 22:38 13.12.2019
2431 Clouds 7 1007 81 10000 3.1 160 22:18 13.12.2019
2432 Rain 7 1007 93 7000 1 0 21:44 13.12.2019
2433 Rain 7 1007 93 8000 1 0 21:22 13.12.2019
2434 Rain 7 1007 93 8000 1 0 20:59 13.12.2019
2435 Rain 7 1008 76 10000 0.5 0 20:40 13.12.2019
2436 Clouds 7 1007 93 10000 0.5 0 20:20 13.12.2019
2437 Clouds 7 1007 93 10000 0.5 0 19:57 13.12.2019
2438 Clouds 7 1007 75 9000 2.1 170 19:39 13.12.2019
2439 Clouds 7 1007 75 9000 2.1 170 19:20 13.12.2019
2440 Rain 7 1007 87 10000 2.1 360 18:55 13.12.2019
2441 Clouds 7 1007 81 10000 1.5 170 18:36 13.12.2019
2442 Clouds 7 1007 81 10000 1.5 170 18:18 13.12.2019
2443 Clouds 7 1007 87 10000 2.1 70 17:40 13.12.2019
2444 Clouds 7 1007 87 10000 2.1 70 17:19 13.12.2019
2445 Clouds 8 1007 81 10000 2.41 168 16:57 13.12.2019
2446 Clouds 8 1007 81 10000 2.41 168 16:57 13.12.2019
2447 Clouds 8 1006 87 10000 2.1 40 16:38 13.12.2019
2448 Clouds 7 1006 87 10000 2.1 40 16:20 13.12.2019
2449 Clouds 9 1006 76 10000 0.5 0 15:43 13.12.2019
2450 Rain 10 1007 57 10000 4.6 210 15:22 13.12.2019
2451 Rain 10 1007 57 10000 4.6 210 14:57 13.12.2019
2452 Rain 10 1006 57 10000 3.1 230 14:39 13.12.2019
2453 Rain 10 1006 57 10000 3.1 230 14:19 13.12.2019
2454 Clouds 11 1006 66 10000 1.5 180 13:44 13.12.2019
2455 Clouds 11 1006 62 10000 3.1 230 13:26 13.12.2019
2456 Clouds 11 1007 61 10000 4.16 190 12:59 13.12.2019
2457 Clouds 11 1007 54 10000 4.1 220 12:40 13.12.2019
2458 Clouds 10 1007 70 10000 3.1 230 12:19 13.12.2019
2459 Clouds 11 1007 54 10000 4.1 220 12:19 13.12.2019
2460 Clouds 10 1007 70 10000 3.1 230 11:45 13.12.2019
2461 Clouds 10 1007 70 10000 3.1 230 11:45 13.12.2019
2462 Clouds 10 1007 62 10000 3.6 230 11:26 13.12.2019
2463 Clouds 9 1007 75 10000 2.6 240 10:58 13.12.2019
2464 Clouds 9 1008 70 10000 2.1 280 10:40 13.12.2019
2465 Clouds 9 1008 70 10000 2.1 280 10:21 13.12.2019
2466 Clouds 8 1008 81 10000 3.6 210 09:43 13.12.2019
2467 Clouds 7 1008 81 10000 2.1 250 09:22 13.12.2019
2468 Rain 7 1008 93 8000 2.1 270 08:55 13.12.2019
2469 Rain 7 1008 93 8000 2.1 270 08:55 13.12.2019
2470 Clouds 7 1008 81 10000 0.5 0 08:36 13.12.2019
2471 Clouds 7 1008 81 10000 0.5 0 08:18 13.12.2019
2472 Rain 6 1008 93 10000 1.5 250 07:42 13.12.2019
2473 Clouds 6 1007 81 10000 1.73 129 07:19 13.12.2019
2474 Clouds 6 1007 87 10000 1.5 330 06:45 13.12.2019
2475 Clouds 6 1007 87 10000 1.5 330 06:25 13.12.2019
2476 Clouds 6 1007 100 10000 0.5 0 05:38 13.12.2019
2477 Clouds 6 1007 100 10000 0.5 0 05:20 13.12.2019
2478 Mist 5 1006 93 3100 1.85 142 04:28 13.12.2019
2479 Clouds 6 1006 93 6000 1.85 142 02:56 13.12.2019
2480 Rain 6 1006 87 10000 1 0 02:30 13.12.2019
2481 Clouds 6 1006 81 10000 0.5 0 01:34 13.12.2019
2482 Clouds 6 1006 100 7000 1.49 131 00:50 13.12.2019
2483 Clouds 6 1006 81 10000 1 0 00:28 13.12.2019
2484 Clouds 6 1006 93 6000 1.49 131 23:43 12.12.2019
2485 Clouds 6 1006 81 10000 1 0 23:25 12.12.2019
2486 Clouds 6 1007 86 6000 1.5 30 22:57 12.12.2019
2487 Clouds 6 1007 87 10000 0.5 0 22:39 12.12.2019
2488 Clouds 5 1007 87 10000 0.5 0 22:21 12.12.2019
2489 Clouds 5 1007 93 10000 0.5 0 21:56 12.12.2019
2490 Clouds 5 1007 87 10000 2.1 100 21:37 12.12.2019
2491 Clouds 5 1007 87 10000 2.1 100 21:19 12.12.2019
2492 Clouds 6 1007 93 10000 0.5 360 20:59 12.12.2019
2493 Clouds 6 1007 81 10000 2.1 90 20:40 12.12.2019
2494 Clouds 6 1007 81 10000 2.1 90 20:21 12.12.2019
2495 Clouds 5 1007 86 10000 3.1 30 19:56 12.12.2019
2496 Clouds 5 1007 87 10000 3.1 90 19:37 12.12.2019
2497 Clouds 5 1007 87 10000 3.1 90 19:18 12.12.2019
2498 Rain 5 1007 86 10000 3.1 20 18:56 12.12.2019
2499 Clouds 5 1007 81 10000 2.6 100 18:37 12.12.2019
2500 Clouds 5 1007 81 10000 2.6 100 18:37 12.12.2019
2501 Clouds 5 1007 81 10000 2.6 100 18:19 12.12.2019
2502 Clouds 5 1007 86 10000 4.1 20 17:56 12.12.2019
2503 Clouds 5 1008 87 10000 2.1 80 17:38 12.12.2019
2504 Clouds 5 1008 87 10000 2.1 80 17:19 12.12.2019
2505 Clouds 5 1008 93 9000 2.6 80 16:54 12.12.2019
2506 Rain 6 1007 81 10000 3.6 80 16:36 12.12.2019
2507 Rain 6 1007 81 10000 3.6 80 16:18 12.12.2019
2508 Rain 6 1007 93 4000 4.6 20 15:42 12.12.2019
2509 Rain 6 1007 81 10000 3.6 70 15:20 12.12.2019
2510 Rain 6 1008 86 6000 4.1 20 14:57 12.12.2019
2511 Rain 6 1008 93 4900 1.5 20 14:37 12.12.2019
2512 Rain 6 1008 93 4900 1.5 20 14:19 12.12.2019
2513 Rain 6 1008 86 4500 2.1 20 13:55 12.12.2019
2514 Rain 6 1008 87 7000 4.1 70 13:37 12.12.2019
2515 Rain 6 1008 87 7000 4.1 70 13:19 12.12.2019
2516 Rain 6 1008 86 4700 3.6 20 12:55 12.12.2019
2517 Rain 6 1008 81 10000 4.1 80 12:37 12.12.2019
2518 Rain 6 1008 81 10000 4.1 80 12:18 12.12.2019
2519 Rain 6 1008 86 6000 3.1 20 11:43 12.12.2019
2520 Rain 6 1009 86 4000 3.6 30 11:22 12.12.2019
2521 Rain 6 1009 86 8000 5.1 30 10:59 12.12.2019
2522 Rain 6 1009 81 6000 3.1 80 10:41 12.12.2019
2523 Rain 6 1009 81 6000 3.1 80 10:23 12.12.2019
2524 Rain 6 1010 86 4800 3.6 30 09:58 12.12.2019
2525 Clouds 6 1010 87 6000 2.6 90 09:40 12.12.2019
2526 Clouds 6 1010 87 6000 2.6 90 09:21 12.12.2019
2527 Rain 5 1011 93 4100 1.5 200 08:54 12.12.2019
2528 Rain 5 1011 93 4100 2.18 77 08:36 12.12.2019
2529 Rain 5 1011 93 4100 2.26 89 08:18 12.12.2019
2530 Rain 5 1010 93 4800 3.1 90 07:41 12.12.2019
2531 Rain 5 1010 93 4800 3.1 90 07:21 12.12.2019
2532 Rain 4 1010 93 4000 2.1 110 06:43 12.12.2019
2533 Rain 4 1010 93 4000 2.1 110 06:23 12.12.2019
2534 Rain 4 1011 93 6000 2.1 120 05:35 12.12.2019
2535 Rain 4 1011 86 4000 0.5 0 04:49 12.12.2019
2536 Clouds 4 1012 86 9000 2.59 85 02:44 12.12.2019
2537 Clouds 4 1012 93 6000 2.59 85 02:26 12.12.2019
2538 Clouds 4 1014 100 6000 1 0 01:59 12.12.2019
2539 Clouds 4 1013 93 7000 2.53 79 01:36 12.12.2019
2540 Clouds 4 1013 86 6000 0.5 0 00:58 12.12.2019
2541 Clouds 4 1014 86 8000 0.5 0 00:38 12.12.2019
2542 Clouds 4 1014 86 8000 0.5 0 00:18 12.12.2019
2543 Clouds 4 1014 86 8000 0.5 0 23:40 11.12.2019
2544 Clouds 4 1014 86 8000 0.5 0 23:19 11.12.2019
2545 Rain 4 1015 93 6000 1 290 22:57 11.12.2019
2546 Rain 4 1015 80 8000 1 0 22:38 11.12.2019
2547 Rain 4 1015 80 8000 1 0 22:38 11.12.2019
2548 Rain 4 1015 80 8000 1 0 22:19 11.12.2019
2549 Clouds 4 1016 93 8000 1 0 21:55 11.12.2019
2550 Clouds 4 1016 93 8000 1 0 21:55 11.12.2019
2551 Clouds 3 1015 87 7000 0.5 0 21:37 11.12.2019
2552 Clouds 3 1015 87 7000 0.5 0 21:19 11.12.2019
2553 Rain 3 1015 87 8000 0.5 0 20:55 11.12.2019
2554 Rain 3 1015 86 10000 2.6 90 20:37 11.12.2019
2555 Rain 3 1015 86 10000 2.6 90 20:18 11.12.2019
2556 Rain 4 1015 75 10000 1.5 90 19:43 11.12.2019
2557 Rain 4 1015 75 10000 1.5 90 19:23 11.12.2019
2558 Rain 4 1016 80 8000 2.1 100 18:59 11.12.2019
2559 Clouds 4 1015 75 10000 2.1 110 18:40 11.12.2019
2560 Clouds 4 1015 75 10000 2.1 110 18:21 11.12.2019
2561 Clouds 4 1015 81 8000 3.6 20 17:57 11.12.2019
2562 Clouds 4 1015 75 10000 2.6 70 17:38 11.12.2019
2563 Clouds 4 1015 77 8000 5.1 20 17:18 11.12.2019
2564 Clouds 4 1015 77 8000 5.1 20 16:56 11.12.2019
2565 Clouds 4 1015 70 10000 3.1 80 16:37 11.12.2019
2566 Clouds 4 1015 70 10000 3.1 80 16:19 11.12.2019
2567 Clouds 5 1015 80 6000 4.1 20 15:57 11.12.2019
2568 Clouds 6 1015 70 8000 3.1 80 15:37 11.12.2019
2569 Clouds 6 1015 70 8000 3.1 80 15:19 11.12.2019
2570 Clouds 6 1015 77 7000 4.6 20 14:55 11.12.2019
2571 Clouds 6 1015 65 8000 3.6 90 14:37 11.12.2019
2572 Clouds 7 1015 65 8000 3.6 90 14:18 11.12.2019
2573 Clouds 6 1015 75 8000 5.1 20 13:44 11.12.2019
2574 Clouds 7 1015 65 8000 3.1 90 13:24 11.12.2019
2575 Clouds 6 1016 75 8000 4.6 30 12:59 11.12.2019
2576 Clouds 6 1016 70 8000 4.1 80 12:40 11.12.2019
2577 Clouds 6 1016 70 8000 4.1 80 12:22 11.12.2019
2578 Clouds 5 1016 66 8000 3.6 10 11:58 11.12.2019
2579 Clouds 5 1016 66 8000 4.1 90 11:39 11.12.2019
2580 Clouds 5 1016 68 8000 4.1 90 11:19 11.12.2019
2581 Clouds 4 1016 68 8000 4.1 40 10:59 11.12.2019
2582 Clouds 4 1017 68 7000 1.5 90 10:40 11.12.2019
2583 Clouds 4 1017 68 7000 1.5 90 10:21 11.12.2019
2584 Clouds 4 1017 68 7000 1.5 90 10:21 11.12.2019
2585 Mist 2 1018 68 5000 1 0 09:57 11.12.2019
2586 Clouds 1 1017 80 6000 3.27 112 09:38 11.12.2019
2587 Clouds 2 1017 80 6000 3.27 112 09:19 11.12.2019
2588 Mist -1 1017 68 3100 0.5 0 08:55 11.12.2019
2589 Mist -1 1017 92 3700 3.27 112 08:36 11.12.2019
2590 Mist 0 1017 92 3700 2.77 89 08:18 11.12.2019
2591 Mist -3 1017 100 4500 2.77 89 07:43 11.12.2019
2592 Mist -3 1017 100 4500 2.77 89 07:24 11.12.2019
2593 Mist -3 1017 100 4500 2.77 89 07:24 11.12.2019
2594 Mist -4 1017 92 3400 2.77 89 06:46 11.12.2019
2595 Mist -4 1017 100 3200 2.77 89 06:25 11.12.2019
2596 Clouds -2 1017 92 6000 2.77 89 05:55 11.12.2019
2597 Clouds -2 1017 92 6000 2.77 89 05:35 11.12.2019
2598 Clouds -4 1017 92 6000 2.57 87 04:51 11.12.2019
2599 Mist -4 1017 92 4000 2.57 87 03:29 11.12.2019
2600 Clouds -3 1017 92 6000 2.57 87 02:35 11.12.2019
2601 Clouds -2 1017 92 8000 0.5 0 01:22 11.12.2019
2602 Clouds -2 1017 92 8000 1.81 98 00:38 11.12.2019
2603 Clouds -2 1017 92 8000 1.81 98 00:19 11.12.2019
2604 Clouds -1 1017 86 8000 1.81 98 23:45 10.12.2019
2605 Clouds -1 1017 86 7000 1 220 23:26 10.12.2019
2606 Clouds -2 1017 86 7000 2.11 91 22:56 10.12.2019
2607 Clouds -2 1017 92 8000 2.11 91 22:38 10.12.2019
2608 Clouds -2 1017 92 8000 2.11 91 22:20 10.12.2019
2609 Clouds -1 1017 79 10000 2.11 91 21:54 10.12.2019
2610 Clouds -1 1017 92 8000 1.5 220 21:36 10.12.2019
2611 Clouds -1 1017 92 8000 1.5 220 21:18 10.12.2019
2612 Clouds -1 1017 86 10000 2.11 91 20:55 10.12.2019
2613 Clouds -1 1017 92 10000 2.11 91 20:36 10.12.2019
2614 Clouds -1 1017 92 10000 2.05 88 20:18 10.12.2019
2615 Clouds 0 1017 80 10000 0.5 0 19:44 10.12.2019
2616 Clouds 1 1017 76 10000 1 30 19:25 10.12.2019
2617 Clouds 1 1016 74 10000 2.16 89 18:57 10.12.2019
2618 Clouds 1 1017 80 10000 2.16 89 18:39 10.12.2019
2619 Clouds 1 1017 80 10000 2.16 89 18:19 10.12.2019
2620 Clouds 2 1016 74 10000 0.5 0 17:54 10.12.2019
2621 Clouds 2 1016 80 10000 1 0 17:36 10.12.2019
2622 Clouds 2 1016 80 10000 1 0 17:18 10.12.2019
2623 Clouds 2 1015 74 10000 1 0 16:42 10.12.2019
2624 Clouds 2 1016 80 10000 2.1 260 16:20 10.12.2019
2625 Clouds 2 1016 80 10000 2.1 260 16:20 10.12.2019
2626 Clouds 3 1015 74 10000 0.5 360 15:54 10.12.2019
2627 Clouds 3 1015 69 10000 0.5 0 15:36 10.12.2019
2628 Clouds 4 1015 69 10000 0.5 0 15:18 10.12.2019
2629 Clouds 4 1015 69 10000 0.5 0 15:18 10.12.2019
2630 Clouds 4 1015 64 10000 0.5 0 14:42 10.12.2019
2631 Clouds 4 1015 60 10000 2.1 50 14:24 10.12.2019
2632 Clouds 4 1015 64 10000 1 0 13:59 10.12.2019
2633 Clouds 4 1015 64 10000 1 0 13:40 10.12.2019
2634 Clouds 4 1015 60 10000 1.5 0 13:20 10.12.2019
2635 Clouds 4 1015 64 10000 0.5 0 12:57 10.12.2019
2636 Clouds 4 1016 60 10000 2.6 100 12:38 10.12.2019
2637 Clouds 4 1016 60 10000 2.6 100 12:20 10.12.2019
2638 Clouds 4 1016 64 10000 2.6 180 11:41 10.12.2019
2639 Clouds 4 1016 69 10000 0.5 0 11:41 10.12.2019
2640 Clouds 4 1016 64 10000 2.6 180 11:23 10.12.2019
2641 Clouds 3 1016 69 10000 0.5 0 10:55 10.12.2019
2642 Clouds 3 1017 64 10000 2.6 180 10:37 10.12.2019
2643 Clouds 3 1017 64 10000 2.6 180 10:19 10.12.2019
2644 Clouds 3 1017 74 10000 1.5 150 09:54 10.12.2019
2645 Clouds 3 1017 69 10000 2.6 180 09:36 10.12.2019
2646 Clouds 3 1017 69 10000 2.6 180 09:18 10.12.2019
2647 Clouds 2 1016 74 10000 1.5 140 08:41 10.12.2019
2648 Clouds 3 1017 69 10000 3.1 200 08:22 10.12.2019
2649 Clouds 2 1016 69 10000 2.1 150 07:57 10.12.2019
2650 Clouds 2 1016 69 10000 2.6 180 07:39 10.12.2019
2651 Clouds 2 1016 69 10000 2.6 180 07:21 10.12.2019
2652 Clouds 2 1016 74 10000 1 0 06:46 10.12.2019
2653 Clouds 2 1016 64 10000 2.6 160 06:19 10.12.2019
2654 Clouds 2 1016 86 10000 0.5 0 05:52 10.12.2019
2655 Clouds 2 1016 86 10000 1 0 04:51 10.12.2019
2656 Clouds 2 1016 69 10000 1.53 93 03:36 10.12.2019
2657 Clouds 2 1016 86 10000 1 0 02:44 10.12.2019
2658 Clouds 2 1016 86 10000 1.66 88 01:44 10.12.2019
2659 Clouds 2 1017 74 10000 1.68 92 01:20 10.12.2019
2660 Clouds 2 1017 74 10000 1.68 92 00:41 10.12.2019
2661 Clouds 2 1017 74 10000 1.68 92 00:20 10.12.2019
2662 Clouds 2 1016 80 10000 2.1 30 23:41 09.12.2019
2663 Clouds 2 1016 80 10000 2.1 30 23:22 09.12.2019
2664 Clouds 2 1016 80 10000 1 0 22:58 09.12.2019
2665 Clouds 2 1016 80 10000 1 0 22:39 09.12.2019
2666 Clouds 2 1016 80 10000 1 0 22:19 09.12.2019
2667 Clouds 2 1017 80 10000 1 0 21:56 09.12.2019
2668 Clouds 1 1017 80 10000 1 0 21:38 09.12.2019
2669 Clouds 1 1017 80 10000 1 0 21:18 09.12.2019
2670 Clouds 1 1017 80 10000 1 0 20:56 09.12.2019
2671 Clouds 1 1017 80 10000 1 0 20:56 09.12.2019
2672 Clouds 1 1017 80 10000 3.1 70 20:38 09.12.2019
2673 Clouds 1 1017 80 10000 3.1 70 20:20 09.12.2019
2674 Clouds 1 1017 86 10000 3.1 70 19:55 09.12.2019
2675 Clouds 2 1017 86 10000 3.1 70 19:37 09.12.2019
2676 Clouds 2 1017 86 10000 3.1 70 19:19 09.12.2019
2677 Clouds 2 1017 80 10000 2.6 60 18:56 09.12.2019
2678 Clouds 2 1017 80 10000 3.1 60 18:37 09.12.2019
2679 Clouds 2 1017 80 10000 3.1 60 18:19 09.12.2019
2680 Clouds 2 1017 86 10000 4.1 30 17:57 09.12.2019
2681 Clouds 2 1016 86 10000 4.6 30 17:38 09.12.2019
2682 Clouds 3 1016 86 10000 4.6 30 17:20 09.12.2019
2683 Clouds 3 1016 86 10000 4.6 40 16:56 09.12.2019
2684 Clouds 3 1016 70 7000 3.6 40 16:37 09.12.2019
2685 Clouds 3 1016 70 7000 3.6 40 16:18 09.12.2019
2686 Clouds 4 1016 80 7000 0.5 30 15:55 09.12.2019
2687 Clouds 4 1016 70 7000 4.1 60 15:36 09.12.2019
2688 Clouds 4 1016 70 7000 4.1 60 15:36 09.12.2019
2689 Clouds 4 1016 70 7000 4.1 60 15:18 09.12.2019
2690 Clouds 4 1016 70 6000 2.6 50 14:42 09.12.2019
2691 Clouds 4 1016 60 6000 2.6 50 14:19 09.12.2019
2692 Mist 4 1016 60 5000 2.1 10 13:58 09.12.2019
2693 Clouds 4 1016 75 6000 1.85 94 13:38 09.12.2019
2694 Clouds 4 1016 75 6000 2.04 100 13:19 09.12.2019
2695 Mist 4 1016 80 4000 2.04 100 12:57 09.12.2019
2696 Clouds 4 1017 75 6000 2.1 220 12:38 09.12.2019
2697 Clouds 4 1017 75 6000 2.1 220 12:19 09.12.2019
2698 Mist 4 1017 57 4000 2.04 100 11:57 09.12.2019
2699 Clouds 4 1017 75 6000 1.5 0 11:37 09.12.2019
2700 Clouds 4 1017 75 6000 1.5 0 11:18 09.12.2019
2701 Mist 4 1017 70 3000 1 0 10:54 09.12.2019
2702 Mist 4 1017 75 4000 0.5 0 10:36 09.12.2019
2703 Rain 3 1017 75 4000 0.5 0 10:18 09.12.2019
2704 Rain 4 1018 70 4000 2.1 70 09:41 09.12.2019
2705 Mist 3 1018 70 4000 2.1 70 09:21 09.12.2019
2706 Fog 1 1018 100 1100 0.68 111 08:54 09.12.2019
2707 Mist 2 1018 93 3200 0.5 0 08:36 09.12.2019
2708 Mist 2 1018 93 3200 0.5 0 08:18 09.12.2019
2709 Mist 2 1018 93 3200 0.5 0 08:18 09.12.2019
2710 Mist 1 1018 77 3200 1 0 07:42 09.12.2019
2711 Mist 1 1018 77 3200 1 0 07:23 09.12.2019
2712 Fog 0 1017 100 1200 0.5 0 06:49 09.12.2019
2713 Fog 0 1017 100 1300 0.5 360 06:26 09.12.2019
2714 Mist 1 1017 77 4200 1 240 05:29 09.12.2019
2715 Mist 1 1017 77 2800 0.09 128 04:49 09.12.2019
2716 Mist 1 1017 77 3200 0.09 128 03:45 09.12.2019
2717 Mist 1 1018 77 4200 1 210 02:27 09.12.2019
2718 Mist 1 1017 73 3300 0.83 254 01:44 09.12.2019
2719 Mist 1 1017 79 3100 1 30 00:53 09.12.2019
2720 Snow 1 1018 79 6000 0.82 244 00:32 09.12.2019
2721 Mist 1 1017 79 3300 0.5 350 23:44 08.12.2019
2722 Snow 1 1018 72 7000 0.5 0 23:24 08.12.2019
2723 Mist 1 1017 72 3600 0.5 320 22:58 08.12.2019
2724 Snow 1 1018 72 7000 1 230 22:39 08.12.2019
2725 Snow 1 1018 72 7000 1 230 22:20 08.12.2019
2726 Mist 0 1017 72 3600 0.82 293 21:59 08.12.2019
2727 Snow 0 1019 72 8000 0.82 293 21:40 08.12.2019
2728 Snow 1 1019 72 8000 0.82 293 21:22 08.12.2019
2729 Mist 1 1017 72 3800 0.82 293 20:57 08.12.2019
2730 Snow 1 1018 86 8000 0.82 293 20:38 08.12.2019
2731 Snow 1 1018 86 8000 0.52 297 20:20 08.12.2019
2732 Snow 1 1017 68 6000 0.5 0 19:59 08.12.2019
2733 Snow 1 1018 86 9000 1 230 19:41 08.12.2019
2734 Snow 1 1018 86 9000 1 230 19:23 08.12.2019
2735 Snow 1 1017 80 7000 0.5 0 18:55 08.12.2019
2736 Snow 1 1017 80 7000 0.5 0 18:55 08.12.2019
2737 Clouds 1 1018 86 10000 1.5 230 18:37 08.12.2019
2738 Clouds 1 1018 86 10000 1.5 230 18:19 08.12.2019
2739 Snow 1 1019 80 8000 1.5 310 17:57 08.12.2019
2740 Clouds 1 1017 74 10000 1.5 250 17:38 08.12.2019
2741 Clouds 1 1017 74 10000 1.5 250 17:20 08.12.2019
2742 Clouds 1 1017 74 10000 1.5 250 17:20 08.12.2019
2743 Clouds 1 1017 74 10000 1.5 250 17:20 08.12.2019
2744 Clouds 1 1017 74 10000 1.5 250 17:20 08.12.2019
2745 Clouds 1 1017 74 10000 1.5 250 17:20 08.12.2019
2746 Clouds 1 1017 74 8000 1 0 16:57 08.12.2019
2747 Clouds 1 1017 80 10000 1 0 16:39 08.12.2019
2748 Clouds 1 1017 80 10000 1 0 16:20 08.12.2019
2749 Drizzle 1 1017 80 6000 1.5 230 15:55 08.12.2019
2750 Clouds 2 1017 74 10000 1.5 260 15:36 08.12.2019
2751 Clouds 2 1017 74 10000 1.5 260 15:18 08.12.2019
2752 Clouds 2 1016 69 6000 1 0 14:43 08.12.2019
2753 Clouds 2 1017 74 8000 2.6 260 14:24 08.12.2019
2754 Clouds 2 1016 69 6000 0.5 0 13:58 08.12.2019
2755 Clouds 2 1016 69 6000 0.5 0 13:40 08.12.2019
2756 Clouds 2 1017 74 10000 0.5 0 13:21 08.12.2019
2757 Clouds 2 1016 74 6000 1 0 12:56 08.12.2019
2758 Clouds 2 1017 74 10000 2.6 260 12:38 08.12.2019
2759 Clouds 2 1017 74 10000 2.6 260 12:18 08.12.2019
2760 Clouds 2 1016 54 8000 0.5 0 11:56 08.12.2019
2761 Clouds 2 1017 69 10000 1.5 260 11:37 08.12.2019
2762 Clouds 1 1017 69 10000 1.5 260 11:19 08.12.2019
2763 Clouds 1 1017 69 10000 1.5 260 11:19 08.12.2019
2764 Clouds 1 1017 69 10000 1.5 260 11:19 08.12.2019
2765 Clouds 1 1017 60 7000 1 0 10:40 08.12.2019
2766 Clouds 0 1018 74 10000 1 0 10:21 08.12.2019
2767 Clouds 1 1017 86 8000 1 0 09:58 08.12.2019
2768 Clouds 1 1018 74 8000 0.5 0 09:39 08.12.2019
2769 Clouds 0 1018 74 8000 0.5 0 09:20 08.12.2019
2770 Clouds -1 1018 86 8000 1 0 08:59 08.12.2019
2771 Clouds -1 1018 60 8000 1.5 240 08:39 08.12.2019
2772 Clouds -1 1018 77 8000 1.5 240 08:21 08.12.2019
2773 Clouds -1 1018 77 8000 1.5 240 08:21 08.12.2019
2774 Clouds -1 1017 92 7000 1 0 07:45 08.12.2019
2775 Clouds -1 1017 92 6000 0.5 0 07:20 08.12.2019
2776 Clouds -1 1017 92 6000 0.5 0 06:52 08.12.2019
2777 Clouds -1 1017 77 10000 1.5 260 06:23 08.12.2019
2778 Clouds -1 1017 92 10000 0.5 0 05:52 08.12.2019
2779 Clouds -1 1017 87 10000 2.1 260 05:20 08.12.2019
2780 Clouds -1 1016 86 10000 0.5 0 03:55 08.12.2019
2781 Clouds -1 1017 92 10000 1.5 280 03:37 08.12.2019
2782 Clouds -2 1018 100 10000 2.1 270 02:40 08.12.2019
2783 Clouds -1 1017 86 10000 0.5 0 01:56 08.12.2019
2784 Clouds -1 1018 85 10000 1 0 01:33 08.12.2019
2785 Clouds -1 1017 86 8000 0.5 0 00:43 08.12.2019
2786 Clouds -1 1018 85 10000 1 250 00:21 08.12.2019
2787 Clouds -1 1018 86 8000 0.5 0 23:55 07.12.2019
2788 Clouds -1 1019 85 10000 0.5 0 23:36 07.12.2019
2789 Clouds -1 1019 83 10000 0.5 0 23:18 07.12.2019
2790 Clouds -1 1018 86 8000 0.5 0 22:54 07.12.2019
2791 Clouds -1 1018 86 8000 0.5 0 22:54 07.12.2019
2792 Clouds -1 1019 83 10000 0.5 0 22:36 07.12.2019
2793 Clouds -1 1019 83 10000 0.5 0 22:18 07.12.2019
2794 Clouds -1 1018 86 8000 1 310 21:54 07.12.2019
2795 Clouds -1 1019 83 10000 1.5 220 21:36 07.12.2019
2796 Clouds -1 1019 83 10000 1.5 220 21:18 07.12.2019
2797 Clouds -1 1019 83 10000 1.5 210 20:37 07.12.2019
2798 Clouds -1 1019 77 10000 1.5 210 20:19 07.12.2019
2799 Clouds -1 1019 86 7000 0.5 0 19:57 07.12.2019
2800 Clouds -1 1020 77 10000 1 0 19:38 07.12.2019
2801 Clouds -1 1020 77 10000 1 0 19:20 07.12.2019
2802 Clouds -1 1019 86 7000 0.5 0 18:55 07.12.2019
2803 Clouds -1 1020 77 10000 1 240 18:36 07.12.2019
2804 Clouds -1 1020 77 10000 1 240 18:18 07.12.2019
2805 Clouds -1 1020 77 10000 1.5 270 17:42 07.12.2019
2806 Clouds -1 1020 67 10000 1.5 270 17:24 07.12.2019
2807 Mist -1 1019 86 4800 0.12 250 16:58 07.12.2019
2808 Clouds -1 1019 67 10000 0.5 0 16:39 07.12.2019
2809 Clouds -1 1019 67 10000 0.5 0 16:21 07.12.2019
2810 Mist -1 1019 86 4800 0.12 250 15:58 07.12.2019
2811 Clouds -1 1020 67 10000 0.12 250 15:39 07.12.2019
2812 Clouds -1 1020 67 10000 0.12 250 15:20 07.12.2019
2813 Mist -1 1019 86 4000 0.12 250 14:42 07.12.2019
2814 Clouds -1 1021 86 10000 1.42 256 14:19 07.12.2019
2815 Mist -2 1019 86 4300 0.5 0 13:59 07.12.2019
2816 Clouds -2 1020 86 10000 0.5 0 13:39 07.12.2019
2817 Clouds -2 1020 86 10000 0.5 0 13:39 07.12.2019
2818 Clouds -2 1020 86 10000 0.5 0 13:19 07.12.2019
2819 Mist -2 1020 79 4200 0.5 0 12:54 07.12.2019
2820 Clouds -2 1021 80 10000 1 0 12:36 07.12.2019
2821 Clouds -2 1021 80 10000 1 0 12:18 07.12.2019
2822 Clouds -2 1022 80 10000 1 60 11:41 07.12.2019
2823 Clouds -2 1022 80 10000 1 60 11:23 07.12.2019
2824 Mist -2 1022 86 4600 1.05 226 10:54 07.12.2019
2825 Clouds -2 1023 86 10000 1 0 10:36 07.12.2019
2826 Clouds -2 1023 86 10000 1 0 10:18 07.12.2019
2827 Clouds -3 1024 86 10000 1.5 180 09:39 07.12.2019
2828 Clouds -3 1024 86 10000 1.5 180 09:20 07.12.2019
2829 Mist -3 1023 86 4600 1.05 226 08:45 07.12.2019
2830 Clouds -3 1024 86 10000 0.5 0 08:24 07.12.2019
2831 Mist -3 1023 86 4400 0.53 172 07:49 07.12.2019
2832 Clouds -3 1024 79 10000 1.5 90 07:28 07.12.2019
2833 Mist -4 1023 92 4800 0.53 172 06:52 07.12.2019
2834 Clouds -4 1024 86 10000 0.5 250 06:26 07.12.2019
2835 Clouds -4 1023 92 7000 1 0 05:47 07.12.2019
2836 Clouds -4 1023 92 8000 0.62 244 04:41 07.12.2019
2837 Clouds -4 1023 92 8000 0.62 244 03:49 07.12.2019
2838 Clear -5 1024 92 10000 0.62 169 02:22 07.12.2019
2839 Clear -6 1025 92 10000 0.62 169 01:37 07.12.2019
2840 Clear -6 1025 92 10000 0.66 148 01:18 07.12.2019
2841 Clear -5 1025 85 10000 0.66 148 00:21 07.12.2019
2842 Clear -6 1024 85 10000 0.66 148 23:57 06.12.2019
2843 Clear -5 1025 92 10000 0.5 220 23:38 06.12.2019
2844 Clear -5 1025 92 10000 0.5 220 23:19 06.12.2019
2845 Clear -4 1026 92 10000 0.84 255 22:39 06.12.2019
2846 Clear -4 1026 92 10000 0.84 255 22:21 06.12.2019
2847 Clear -3 1025 86 10000 0.84 255 21:58 06.12.2019
2848 Clear -3 1026 86 10000 0.84 255 21:40 06.12.2019
2849 Clear -3 1026 86 10000 0.84 255 21:40 06.12.2019
2850 Clear -3 1026 86 10000 0.84 255 21:20 06.12.2019
2851 Clear -3 1025 92 10000 0.84 255 20:46 06.12.2019
2852 Clear -3 1026 86 10000 1 210 20:26 06.12.2019
2853 Clear -3 1025 79 10000 0.71 113 19:59 06.12.2019
2854 Clear -3 1026 86 10000 0.71 113 19:40 06.12.2019
2855 Clear -3 1026 86 10000 0.71 113 19:22 06.12.2019
2856 Clear -3 1026 86 10000 0.71 113 19:22 06.12.2019
2857 Clear -2 1025 86 10000 0.71 113 18:58 06.12.2019
2858 Clear -2 1026 79 10000 0.5 0 18:40 06.12.2019
2859 Clear -2 1026 79 10000 0.5 0 18:21 06.12.2019
2860 Clear -2 1025 80 10000 1 160 17:57 06.12.2019
2861 Clear -2 1025 80 10000 1 160 17:57 06.12.2019
2862 Clear -1 1025 74 10000 1 0 17:39 06.12.2019
2863 Clear -1 1025 74 10000 1 0 17:21 06.12.2019
2864 Clear 0 1025 64 10000 0.5 140 16:56 06.12.2019
2865 Clear 0 1025 62 10000 1 0 16:37 06.12.2019
2866 Clear 0 1025 62 10000 1 0 16:18 06.12.2019
2867 Clouds 1 1024 55 10000 0.5 0 15:41 06.12.2019
2868 Clear 2 1025 64 10000 3.1 230 15:21 06.12.2019
2869 Clouds 3 1024 55 10000 0.81 159 14:57 06.12.2019
2870 Clear 3 1025 51 10000 3.1 240 14:39 06.12.2019
2871 Clear 4 1025 51 10000 3.1 240 14:19 06.12.2019
2872 Clouds 4 1024 51 10000 0.5 0 13:45 06.12.2019
2873 Clouds 4 1025 55 10000 2.1 270 13:26 06.12.2019
2874 Clouds 3 1025 55 10000 0.92 178 12:56 06.12.2019
2875 Clouds 3 1026 51 10000 1 0 12:38 06.12.2019
2876 Clouds 3 1026 51 10000 1 0 12:19 06.12.2019
2877 Clouds 3 1025 55 10000 0.92 178 11:42 06.12.2019
2878 -273 0 0 0 0 0 11:23 06.12.2019
2879 Clouds 1 1026 59 10000 0.5 0 10:54 06.12.2019
2880 Clouds 1 1027 64 10000 2.1 220 10:36 06.12.2019
2881 Clouds 1 1027 64 10000 2.1 220 10:18 06.12.2019
2882 Clouds 0 1027 74 10000 1.5 10 09:54 06.12.2019
2883 Clear 0 1028 54 10000 0.73 137 09:36 06.12.2019
2884 Clear 0 1028 54 10000 0.73 137 09:18 06.12.2019
2885 Clear -3 1028 86 10000 2.1 220 08:40 06.12.2019
2886 Clear -2 1028 86 10000 2.1 220 08:21 06.12.2019
2887 Clear -4 1028 85 10000 1.5 230 07:38 06.12.2019
2888 Clear -4 1028 85 10000 1.5 230 07:20 06.12.2019
2889 Clear -7 1027 92 10000 1.5 220 06:30 06.12.2019
2890 Clear -6 1026 85 10000 0.5 0 05:54 06.12.2019
2891 Clear -6 1027 92 10000 1.22 110 05:35 06.12.2019
2892 Clear -4 1027 92 10000 0.97 53 02:19 06.12.2019
2893 Clear -4 1026 85 10000 3.6 30 01:43 06.12.2019
2894 Clear -3 1026 85 10000 1 30 00:48 06.12.2019
2895 Clear -3 1026 79 10000 0.97 55 00:22 06.12.2019
2896 Clear -3 1027 85 10000 0.97 55 23:49 05.12.2019
2897 Clear -3 1027 86 10000 1 40 23:19 05.12.2019
2898 Clear -1 1027 79 10000 2.6 20 22:58 05.12.2019
2899 Clear -1 1027 79 10000 0.5 0 22:38 05.12.2019
2900 Clear -1 1027 79 10000 0.5 0 22:18 05.12.2019
2901 Clear -1 1027 79 10000 0.5 0 22:18 05.12.2019
2902 Clear -1 1027 79 10000 0.5 0 22:18 05.12.2019
2903 Clear -1 1027 86 10000 1.09 70 21:55 05.12.2019
2904 Clear -1 1027 86 10000 1.5 40 21:36 05.12.2019
2905 Clear -1 1027 86 10000 1.5 40 21:18 05.12.2019
2906 Clear -1 1027 80 10000 1 0 20:40 05.12.2019
2907 Clear -1 1027 80 10000 1 0 20:40 05.12.2019
2908 Clear -1 1027 80 10000 1 0 20:21 05.12.2019
2909 Clear -1 1026 79 10000 2.1 20 19:59 05.12.2019
2910 Clear -1 1026 79 10000 2.1 20 19:40 05.12.2019
2911 Clear 0 1026 86 10000 1 0 19:21 05.12.2019
2912 Clouds 1 1026 80 10000 1 30 18:57 05.12.2019
2913 Clouds 1 1026 80 10000 1 30 18:38 05.12.2019
2914 Clouds 1 1026 76 10000 1.8 80 18:20 05.12.2019
2915 Clouds 1 1026 76 10000 0.5 10 17:40 05.12.2019
2916 Clear 1 1027 64 10000 3.1 70 17:20 05.12.2019
2917 Clear 2 1027 64 10000 3.1 70 16:57 05.12.2019
2918 Clouds 2 1026 72 10000 1.46 89 16:39 05.12.2019
2919 Clouds 3 1025 64 10000 0.5 0 16:21 05.12.2019
2920 Clouds 4 1025 64 10000 1.46 89 15:57 05.12.2019
2921 Clouds 4 1025 64 10000 1.46 89 15:38 05.12.2019
2922 Clouds 5 1025 59 10000 1.5 80 15:20 05.12.2019
2923 Clouds 5 1025 59 10000 1.5 80 14:55 05.12.2019
2924 Clouds 5 1025 55 10000 2.1 40 14:37 05.12.2019
2925 Clouds 5 1024 55 10000 3.1 50 14:19 05.12.2019
2926 Clouds 5 1024 55 10000 3.1 50 14:19 05.12.2019
2927 Clouds 5 1025 55 10000 4.6 50 13:56 05.12.2019
2928 Clouds 5 1024 55 10000 3.1 50 13:56 05.12.2019
2929 Clouds 5 1025 55 10000 4.6 50 13:38 05.12.2019
2930 Clouds 5 1025 55 10000 4.6 50 13:19 05.12.2019
2931 Clouds 5 1024 55 10000 5.7 40 12:56 05.12.2019
2932 Clouds 5 1024 55 10000 5.7 40 12:38 05.12.2019
2933 Clouds 5 1025 55 10000 5.1 60 12:19 05.12.2019
2934 Clouds 4 1025 59 10000 5.1 40 11:39 05.12.2019
2935 Clouds 4 1025 56 10000 4.1 50 11:21 05.12.2019
2936 Clouds 4 1025 56 10000 4.1 50 10:58 05.12.2019
2937 Clouds 4 1025 59 10000 5.7 30 10:40 05.12.2019
2938 Clouds 3 1025 59 10000 5.7 40 10:19 05.12.2019
2939 Rain 3 1025 64 10000 6.2 50 09:55 05.12.2019
2940 Rain 3 1025 64 10000 6.2 50 09:36 05.12.2019
2941 Rain 3 1026 69 10000 5.7 30 09:18 05.12.2019
2942 Clouds 3 1026 69 10000 4.6 20 08:39 05.12.2019
2943 Clouds 2 1026 74 10000 2.1 20 08:20 05.12.2019
2944 Clouds 2 1026 74 10000 2.1 20 07:58 05.12.2019
2945 Clouds 1 1025 80 10000 2.6 10 07:38 05.12.2019
2946 Clouds 1 1025 85 10000 1 20 07:20 05.12.2019
2947 Clouds 1 1025 85 10000 2.6 10 06:45 05.12.2019
2948 Clouds 1 1024 80 10000 3.6 20 06:23 05.12.2019
2949 Clouds 1 1024 80 10000 5.7 40 05:48 05.12.2019
2950 Rain 1 1024 64 10000 1.5 20 05:24 05.12.2019
2951 Clouds 1 1023 80 10000 3.1 10 04:27 05.12.2019
2952 Clouds 2 1023 86 10000 2.6 30 02:55 05.12.2019
2953 Clouds 2 1023 86 10000 1.5 330 02:25 05.12.2019
2954 Clouds 2 1023 86 10000 1.5 330 01:59 05.12.2019
2955 Clouds 2 1024 86 10000 2.1 300 01:40 05.12.2019
2956 Rain 2 1022 86 10000 3.6 30 01:20 05.12.2019
2957 Rain 2 1022 97 10000 3.1 40 00:37 05.12.2019
2958 Rain 2 1022 97 10000 2.6 30 00:19 05.12.2019
2959 Rain 2 1022 97 10000 3.1 30 23:42 04.12.2019
2960 Rain 2 1022 96 10000 3.6 20 23:22 04.12.2019
2961 Rain 2 1022 96 10000 5.1 10 22:57 04.12.2019
2962 Rain 2 1022 96 10000 5.1 10 22:57 04.12.2019
2963 Rain 2 1022 96 10000 5.1 10 22:36 04.12.2019
2964 Rain 2 1022 96 10000 5.1 10 22:18 04.12.2019
2965 Rain 2 1022 96 10000 5.1 30 21:55 04.12.2019
2966 Rain 2 1022 96 10000 5.1 30 21:37 04.12.2019
2967 Rain 2 1021 96 10000 5.7 20 21:18 04.12.2019
2968 Rain 2 1021 96 10000 5.7 20 21:18 04.12.2019
2969 Rain 2 1021 96 10000 5.7 20 20:56 04.12.2019
2970 Rain 2 1021 96 10000 5.7 20 20:38 04.12.2019
2971 Rain 2 1021 96 10000 5.7 10 20:19 04.12.2019
2972 Rain 2 1020 96 10000 4.1 10 19:40 04.12.2019
2973 Rain 2 1020 96 10000 5.1 20 19:22 04.12.2019
2974 Rain 2 1020 96 10000 5.1 20 18:59 04.12.2019
2975 Clouds 3 1020 96 10000 5.7 20 18:40 04.12.2019
2976 Rain 2 1020 96 10000 5.7 10 18:22 04.12.2019
2977 Rain 2 1020 96 10000 5.1 10 17:57 04.12.2019
2978 Rain 2 1020 96 10000 5.1 10 17:38 04.12.2019
2979 Rain 2 1020 96 8000 4.6 10 17:18 04.12.2019
2980 Rain 2 1020 96 7000 5.1 10 16:40 04.12.2019
2981 Rain 2 1020 96 7000 5.1 10 16:40 04.12.2019
2982 Rain 2 1020 96 8000 5.1 20 16:20 04.12.2019
2983 Rain 2 1020 96 8000 5.1 20 15:58 04.12.2019
2984 Rain 2 1020 96 8000 4.6 20 15:40 04.12.2019
2985 Rain 2 1019 93 4000 5.1 10 15:20 04.12.2019
2986 Rain 2 1019 93 4000 5.1 10 14:59 04.12.2019
2987 Rain 3 1019 86 8000 4.6 20 14:40 04.12.2019
2988 Rain 3 1019 86 8000 5.1 20 14:21 04.12.2019
2989 Rain 3 1019 86 8000 5.1 30 13:55 04.12.2019
2990 Rain 3 1019 86 8000 5.1 30 13:36 04.12.2019
2991 Rain 3 1019 93 4000 1.5 210 13:18 04.12.2019
2992 Rain 3 1019 86 8000 5.7 20 12:41 04.12.2019
2993 Rain 2 1019 86 8000 5.1 20 12:23 04.12.2019
2994 Rain 2 1019 86 8000 4.1 20 11:43 04.12.2019
2995 Rain 2 1020 93 3200 1 0 11:24 04.12.2019
2996 Rain 2 1020 86 4000 0.5 0 10:58 04.12.2019
2997 Rain 2 1020 86 4000 0.5 0 10:39 04.12.2019
2998 Mist 2 1020 93 4000 1 0 10:21 04.12.2019
2999 Mist 2 1020 93 4000 1 0 09:43 04.12.2019
3000 Mist 2 1020 93 3700 1 0 09:23 04.12.2019
3001 Snow 2 1020 98 2300 1.97 54 08:44 04.12.2019
3002 Snow 2 1020 98 2300 1.97 54 08:44 04.12.2019
3003 Rain 1 1020 86 2100 1 0 08:25 04.12.2019
3004 Rain 2 1020 86 2100 1 0 07:59 04.12.2019
3005 Rain 2 1021 100 4000 1 0 07:40 04.12.2019
3006 Rain 2 1020 100 4300 0.5 0 07:22 04.12.2019
3007 Clouds 2 1019 86 6000 2.1 40 06:32 04.12.2019
3008 Rain 1 1019 93 9000 0.5 0 05:46 04.12.2019
3009 Rain 1 1019 66 8000 1 30 04:39 04.12.2019
3010 Clouds 1 1019 66 7000 0.5 0 03:51 04.12.2019
3011 Clouds 0 1019 66 8000 0.78 307 01:53 04.12.2019
3012 Clouds 0 1018 92 8000 0.5 0 00:48 04.12.2019
3013 Clouds 0 1018 92 8000 0.82 284 00:22 04.12.2019
3014 Clouds 0 1018 68 8000 2.1 140 23:55 03.12.2019
3015 Clouds 0 1018 68 8000 2.1 140 23:36 03.12.2019
3016 Clouds 0 1018 68 8000 0.5 0 23:18 03.12.2019
3017 Clouds 0 1018 86 10000 0.5 340 22:39 03.12.2019
3018 Clouds 1 1018 68 10000 0.81 292 22:18 03.12.2019
3019 Clouds 1 1018 86 10000 0.5 40 21:57 03.12.2019
3020 Clouds 2 1018 86 10000 0.5 40 21:37 03.12.2019
3021 Clouds 1 1018 68 10000 0.81 292 21:18 03.12.2019
3022 Clouds 1 1018 68 10000 0.5 0 20:54 03.12.2019
3023 Clouds 1 1018 67 10000 0.5 0 20:36 03.12.2019
3024 Clouds 2 1018 80 10000 0.5 0 20:18 03.12.2019
3025 Clouds 3 1018 80 10000 0.5 0 19:54 03.12.2019
3026 Clouds 3 1018 80 10000 0.5 0 19:36 03.12.2019
3027 Clouds 3 1018 80 10000 0.5 0 19:18 03.12.2019
3028 Clouds 3 1018 80 10000 2.6 20 18:55 03.12.2019
3029 Clouds 4 1018 80 10000 2.6 20 18:36 03.12.2019
3030 Clouds 4 1018 74 10000 0.5 0 18:18 03.12.2019
3031 Clouds 4 1018 69 10000 0.5 0 17:39 03.12.2019
3032 Clouds 4 1019 80 10000 0.5 160 17:18 03.12.2019
3033 Clouds 5 1018 62 10000 0.5 0 16:58 03.12.2019
3034 Clouds 5 1018 62 10000 0.5 0 16:39 03.12.2019
3035 Clouds 7 1017 62 10000 2.1 300 16:21 03.12.2019
3036 Clouds 8 1017 62 10000 2.1 300 15:58 03.12.2019
3037 Clouds 8 1017 62 10000 2.1 300 15:38 03.12.2019
3038 Clouds 9 1017 49 10000 0.5 220 15:19 03.12.2019
3039 Clouds 9 1017 49 10000 2.1 250 14:44 03.12.2019
3040 Clouds 9 1017 49 10000 1.5 230 14:21 03.12.2019
3041 Clouds 9 1017 49 10000 1.5 230 13:58 03.12.2019
3042 Clouds 9 1018 49 10000 2.1 250 13:37 03.12.2019
3043 Clouds 8 1018 49 10000 2.1 180 13:19 03.12.2019
3044 Clouds 8 1018 49 10000 0.5 0 12:56 03.12.2019
3045 Clouds 8 1018 49 10000 0.5 0 12:36 03.12.2019
3046 Clouds 7 1019 52 10000 2.1 160 12:18 03.12.2019
3047 Clouds 7 1019 52 10000 1.5 190 11:54 03.12.2019
3048 Clouds 7 1019 52 10000 1.5 190 11:36 03.12.2019
3049 Clouds 6 1019 60 10000 2.1 220 11:18 03.12.2019
3050 Clouds 5 1020 56 10000 0.5 0 10:42 03.12.2019
3051 Clouds 4 1020 60 10000 1.5 160 10:21 03.12.2019
3052 Clouds 4 1020 60 10000 1.5 160 09:58 03.12.2019
3053 Clouds 3 1021 64 10000 0.5 0 09:40 03.12.2019
3054 Clear 2 1021 80 8000 0.5 0 09:21 03.12.2019
3055 Clear 1 1021 48 6000 0.5 0 08:54 03.12.2019
3056 Clear 1 1021 48 6000 0.5 0 08:36 03.12.2019
3057 Clouds 0 1021 62 6000 0.5 0 08:18 03.12.2019
3058 Clouds -1 1021 92 6000 0.5 340 07:49 03.12.2019
3059 Clouds -3 1021 92 6000 0.5 0 07:23 03.12.2019
3060 Clouds -3 1021 92 6000 0.74 244 06:23 03.12.2019
3061 Clouds -3 1021 92 6000 0.74 244 05:59 03.12.2019
3062 Clouds -3 1021 86 8000 0.83 211 04:50 03.12.2019
3063 Clouds -3 1021 86 10000 0.83 211 03:40 03.12.2019
3064 Clouds -3 1021 86 10000 0.83 211 03:19 03.12.2019
3065 Clouds -3 1021 86 10000 0.83 211 03:19 03.12.2019
3066 Clouds -3 1021 86 10000 0.83 211 02:48 03.12.2019
3067 Clouds -3 1021 86 10000 0.83 211 02:27 03.12.2019
3068 Clouds -3 1021 92 10000 0.78 228 01:43 03.12.2019
3069 Clouds -1 1021 86 10000 0.93 223 01:24 03.12.2019
3070 Clouds -2 1021 92 10000 0.93 223 00:56 03.12.2019
3071 Clouds -2 1021 92 10000 0.93 223 00:37 03.12.2019
3072 Clouds -2 1021 86 10000 0.93 223 00:19 03.12.2019
3073 Clouds -2 1021 86 10000 0.93 223 23:43 02.12.2019
3074 Clear -2 1021 86 10000 1.08 213 23:20 02.12.2019
3075 Clear -2 1021 86 10000 1.08 213 23:20 02.12.2019
3076 Clear -2 1021 86 10000 1.08 213 22:42 02.12.2019
3077 Clear -1 1021 86 10000 1.08 213 22:23 02.12.2019
3078 Clear -1 1021 86 10000 1.08 213 21:59 02.12.2019
3079 Clear -1 1022 86 10000 1.08 213 21:37 02.12.2019
3080 Clear -1 1022 80 10000 1.08 213 21:19 02.12.2019
3081 Clear -1 1022 80 10000 1.08 213 21:19 02.12.2019
3082 Clear -1 1022 86 10000 1.08 213 20:56 02.12.2019
3083 Clear -1 1022 86 10000 1.08 213 20:38 02.12.2019
3084 Clear -1 1022 86 10000 0.99 135 20:20 02.12.2019
3085 Clear 0 1022 86 10000 0.99 135 19:55 02.12.2019
3086 Clear 0 1022 86 10000 0.99 135 19:36 02.12.2019
3087 Clouds 0 1022 86 10000 0.99 135 19:18 02.12.2019
3088 Clouds 0 1022 63 10000 0.99 135 18:42 02.12.2019
3089 Clouds 1 1022 69 10000 0.5 0 18:19 02.12.2019
3090 Clouds 1 1022 64 10000 1.5 70 17:58 02.12.2019
3091 Clouds 1 1022 64 10000 1.5 70 17:40 02.12.2019
3092 Clear 2 1022 74 10000 1.5 230 17:20 02.12.2019
3093 Clouds 3 1022 64 10000 1 0 16:42 02.12.2019
3094 Clear 4 1022 60 10000 1 0 16:19 02.12.2019
3095 Clouds 5 1022 55 10000 0.5 0 15:59 02.12.2019
3096 Clouds 5 1022 55 10000 0.5 0 15:40 02.12.2019
3097 Clouds 6 1022 44 10000 0.5 0 15:22 02.12.2019
3098 Clouds 6 1022 44 10000 0.5 0 14:59 02.12.2019
3099 Clouds 6 1022 44 10000 0.5 0 14:38 02.12.2019
3100 Clouds 7 1022 41 10000 0.5 0 14:20 02.12.2019
3101 Clouds 7 1022 41 10000 0.5 0 14:20 02.12.2019
3102 Clouds 6 1022 41 10000 0.5 0 13:57 02.12.2019
3103 Clouds 7 1022 41 10000 0.73 220 13:39 02.12.2019
3104 Clouds 6 1022 44 10000 1.5 300 13:19 02.12.2019
3105 Clouds 6 1022 44 10000 1.5 300 12:57 02.12.2019
3106 Clouds 6 1022 44 10000 1 280 12:37 02.12.2019
3107 Clouds 6 1023 48 10000 1.5 240 12:19 02.12.2019
3108 Clouds 5 1023 48 10000 1 0 11:55 02.12.2019
3109 Clouds 5 1023 48 10000 1 0 11:36 02.12.2019
3110 Clouds 5 1023 48 10000 0.5 0 11:18 02.12.2019
3111 Clouds 5 1023 48 10000 0.5 0 10:54 02.12.2019
3112 Clouds 5 1023 48 10000 0.5 0 10:36 02.12.2019
3113 Clouds 4 1024 55 10000 2.1 0 10:18 02.12.2019
3114 Clouds 4 1024 55 10000 4.1 40 09:39 02.12.2019
3115 Clouds 3 1024 69 10000 3.1 360 09:19 02.12.2019
3116 Clouds 3 1024 69 10000 3.1 360 09:19 02.12.2019
3117 Clear 2 1024 74 10000 2.1 360 08:55 02.12.2019
3118 Clear 2 1024 74 10000 2.1 360 08:37 02.12.2019
3119 Clear 0 1024 69 10000 0.5 10 08:19 02.12.2019
3120 Clear 0 1024 69 10000 0.5 0 07:40 02.12.2019
3121 Clear -2 1024 86 10000 1.66 48 07:20 02.12.2019
3122 Clear -2 1024 86 10000 1 340 06:45 02.12.2019
3123 Clear -3 1024 86 10000 0.5 0 06:27 02.12.2019
3124 Clear -2 1024 86 10000 1.5 30 05:19 02.12.2019
3125 Clear -2 1024 86 10000 0.5 0 04:19 02.12.2019
3126 Clear -1 1023 86 10000 0.5 360 02:51 02.12.2019
3127 Clear 0 1023 86 10000 2.6 30 01:50 02.12.2019
3128 Clear 0 1023 86 10000 2.1 20 01:21 02.12.2019
3129 Clear 0 1023 78 10000 2.1 30 00:44 02.12.2019
3130 Clear 1 1023 78 10000 1.5 40 00:23 02.12.2019
3131 Clear 1 1023 78 10000 3.1 10 23:44 01.12.2019
3132 Clear 1 1024 86 10000 2.1 20 23:23 01.12.2019
3133 Clear 1 1024 86 10000 2.1 20 23:23 01.12.2019
3134 Clouds 1 1023 75 10000 3.1 20 22:58 01.12.2019
3135 Clouds 1 1023 75 10000 3.1 20 22:39 01.12.2019
3136 Clouds 2 1023 80 10000 2.1 10 22:20 01.12.2019
3137 Clouds 2 1023 80 10000 2.1 10 21:58 01.12.2019
3138 Clouds 2 1022 80 10000 3.1 30 21:40 01.12.2019
3139 Clouds 2 1022 74 10000 3.1 50 21:22 01.12.2019
3140 Clouds 3 1022 74 10000 3.1 50 20:59 01.12.2019
3141 Clouds 3 1022 86 10000 2.6 40 20:41 01.12.2019
3142 Clouds 4 1021 80 10000 2.1 10 20:22 01.12.2019
3143 Clouds 4 1021 80 10000 2.1 10 19:59 01.12.2019
3144 Clouds 4 1021 80 10000 2.6 30 19:40 01.12.2019
3145 Clouds 4 1022 77 10000 3.1 340 19:21 01.12.2019
3146 Clouds 4 1022 77 10000 3.1 340 19:21 01.12.2019
3147 Clouds 4 1020 74 10000 3.1 20 18:57 01.12.2019
3148 Clouds 4 1020 74 10000 3.1 20 18:39 01.12.2019
3149 Clouds 5 1020 77 10000 3.1 20 18:20 01.12.2019
3150 Clouds 6 1019 77 10000 2.6 10 17:59 01.12.2019
3151 Clouds 6 1019 77 10000 2.6 10 17:41 01.12.2019
3152 Clouds 6 1019 74 10000 2.1 10 17:23 01.12.2019
3153 Clouds 6 1019 74 10000 2.1 10 17:23 01.12.2019
3154 Clouds 6 1019 74 10000 2.1 10 16:56 01.12.2019
3155 Clouds 7 1018 74 10000 3.1 30 16:38 01.12.2019
3156 Clouds 7 1018 74 10000 3.1 30 16:20 01.12.2019
3157 Clouds 7 1018 70 10000 3.6 30 15:46 01.12.2019
3158 Clouds 7 1017 70 10000 3.6 10 15:28 01.12.2019
3159 Clouds 7 1017 75 10000 5.1 20 14:42 01.12.2019
3160 Rain 8 1016 75 10000 3.1 310 14:20 01.12.2019
3161 Rain 8 1016 75 10000 3.1 310 13:59 01.12.2019
3162 Rain 8 1016 70 10000 3.1 320 13:39 01.12.2019
3163 Rain 8 1016 70 10000 2.6 10 13:19 01.12.2019
3164 Rain 7 1015 75 10000 2.6 340 12:43 01.12.2019
3165 Rain 8 1016 70 10000 3.1 300 11:57 01.12.2019
3166 Rain 8 1016 65 10000 3.6 280 11:57 01.12.2019
3167 Rain 8 1016 70 10000 3.1 300 11:57 01.12.2019
3168 Rain 8 1016 70 10000 3.1 300 11:57 01.12.2019
3169 Clouds 8 1016 65 10000 3.6 280 11:37 01.12.2019
3170 Clouds 7 1016 87 10000 2.6 240 11:19 01.12.2019
3171 Clouds 7 1015 75 10000 4.33 320 10:43 01.12.2019
3172 Clouds 7 1015 75 10000 0.5 0 10:21 01.12.2019
3173 Clouds 7 1015 75 10000 0.5 0 09:55 01.12.2019
3174 Rain 7 1015 75 10000 0.5 0 09:36 01.12.2019
3175 Rain 7 1015 81 10000 4.33 320 09:18 01.12.2019
3176 Rain 7 1016 81 10000 1 280 08:42 01.12.2019
3177 Rain 7 1015 81 10000 1.5 310 08:19 01.12.2019
3178 Rain 7 1015 81 10000 2.6 300 07:50 01.12.2019
3179 Rain 7 1015 81 10000 2.6 300 07:29 01.12.2019
3180 Rain 7 1014 81 10000 2.1 270 06:54 01.12.2019
3181 Rain 7 1014 93 10000 2.6 280 06:21 01.12.2019
3182 Rain 7 1013 87 10000 2.6 140 05:45 01.12.2019
3183 Rain 8 1013 87 10000 1.5 220 04:30 01.12.2019
3184 Clouds 6 1012 93 10000 1 210 02:47 01.12.2019
3185 Clouds 6 1013 93 10000 1 0 02:28 01.12.2019
3186 Rain 7 1013 93 10000 0.5 10 01:55 01.12.2019
3187 Rain 7 1013 93 10000 0.5 10 01:37 01.12.2019
3188 Clouds 7 1013 87 10000 0.5 210 00:50 01.12.2019
3189 Clouds 7 1013 87 10000 0.5 210 00:28 01.12.2019
3190 Rain 8 1014 100 10000 1 50 23:59 30.11.2019
3191 Clouds 8 1013 93 10000 3.1 140 23:40 30.11.2019
3192 Rain 8 1013 93 10000 2.6 120 23:21 30.11.2019
3193 Rain 8 1014 87 10000 0.5 0 22:47 30.11.2019
3194 Rain 8 1014 87 10000 0.5 0 22:29 30.11.2019
3195 Rain 8 1013 87 10000 2.6 240 21:55 30.11.2019
3196 Rain 9 1013 87 10000 2.6 240 21:37 30.11.2019
3197 Clouds 9 1013 87 10000 2.1 350 21:19 30.11.2019
3198 Rain 9 1014 87 10000 1 340 20:55 30.11.2019
3199 Rain 9 1014 87 10000 1 340 20:36 30.11.2019
3200 Rain 9 1014 93 10000 0.5 0 20:18 30.11.2019
3201 Rain 9 1014 87 10000 1 0 19:54 30.11.2019
3202 Rain 9 1014 87 10000 1 0 19:36 30.11.2019
3203 Thunderstorm 9 1014 81 10000 3.1 80 19:18 30.11.2019
3204 Thunderstorm 9 1014 93 10000 5.1 90 18:54 30.11.2019
3205 Thunderstorm 9 1014 93 10000 5.1 90 18:54 30.11.2019
3206 Thunderstorm 9 1014 93 10000 5.1 90 18:36 30.11.2019
3207 Thunderstorm 10 1014 87 10000 3.6 40 18:18 30.11.2019
3208 Rain 10 1014 100 10000 2.6 50 17:55 30.11.2019
3209 Rain 10 1014 100 10000 2.6 50 17:36 30.11.2019
3210 Thunderstorm 11 1014 71 10000 2.6 60 17:18 30.11.2019
3211 Clouds 11 1014 62 10000 2.1 80 16:41 30.11.2019
3212 Clouds 11 1014 62 10000 2.1 80 16:41 30.11.2019
3213 Clouds 12 1015 62 10000 0.5 0 16:22 30.11.2019
3214 Clouds 12 1015 62 10000 1 0 15:55 30.11.2019
3215 Clouds 12 1015 62 10000 1 0 15:36 30.11.2019
3216 Clouds 13 1015 58 10000 0.5 280 15:18 30.11.2019
3217 Clouds 13 1015 58 10000 1.5 280 14:55 30.11.2019
3218 Clouds 13 1015 58 10000 1.5 280 14:37 30.11.2019
3219 Clouds 14 1015 54 10000 0.5 0 14:18 30.11.2019
3220 Clouds 13 1015 50 10000 5.7 230 13:45 30.11.2019
3221 Clouds 13 1015 50 10000 5.1 220 13:25 30.11.2019
3222 Clouds 13 1015 54 10000 5.7 220 12:58 30.11.2019
3223 Clouds 13 1015 54 10000 5.7 220 12:39 30.11.2019
3224 Clouds 13 1015 54 10000 5.1 240 12:21 30.11.2019
3225 Clouds 13 1016 58 10000 5.1 210 11:42 30.11.2019
3226 Clouds 13 1016 58 10000 4.6 220 11:19 30.11.2019
3227 Clouds 13 1016 58 10000 4.6 220 11:19 30.11.2019
3228 Clouds 12 1016 62 10000 5.1 210 10:55 30.11.2019
3229 Clouds 12 1016 62 10000 5.1 210 10:55 30.11.2019
3230 Clouds 12 1016 62 10000 5.1 210 10:37 30.11.2019
3231 Clouds 11 1017 71 10000 4.1 220 10:18 30.11.2019
3232 Clouds 11 1017 71 10000 4.1 190 09:46 30.11.2019
3233 Clouds 9 1017 76 7000 4.1 190 09:23 30.11.2019
3234 Clouds 9 1018 93 10000 4.87 248 08:44 30.11.2019
3235 Clouds 8 1017 100 7000 1.99 212 08:20 30.11.2019
3236 Clouds 5 1017 93 6000 1.77 206 07:56 30.11.2019
3237 Clouds 5 1017 93 6000 1.77 206 07:37 30.11.2019
3238 Mist 5 1016 93 4000 2.6 150 06:56 30.11.2019
3239 Mist 4 1016 93 4000 2.6 150 06:29 30.11.2019
3240 Mist 5 1016 100 3500 1.5 210 05:49 30.11.2019
3241 Clouds 5 1015 93 10000 4.1 200 03:48 30.11.2019
3242 Clouds 7 1015 93 10000 2.6 210 02:39 30.11.2019
3243 Mist 7 1015 93 8000 1 0 02:21 30.11.2019
3244 Clouds 8 1015 87 10000 3.6 190 01:25 30.11.2019
3245 Clouds 8 1015 87 10000 3.6 190 01:25 30.11.2019
3246 Clouds 9 1014 87 10000 3.6 180 00:50 30.11.2019
3247 Clouds 9 1014 87 10000 3.6 180 00:31 30.11.2019
3248 Clouds 8 1014 87 10000 3.6 170 23:59 29.11.2019
3249 Clouds 9 1014 87 10000 4.6 190 23:40 29.11.2019
3250 Clouds 9 1014 93 10000 1 30 23:21 29.11.2019
3251 Clouds 9 1014 87 10000 4.1 170 22:44 29.11.2019
3252 Clouds 9 1014 87 10000 4.1 190 22:25 29.11.2019
3253 Clouds 9 1013 87 10000 5.1 180 21:44 29.11.2019
3254 Clouds 10 1013 87 10000 4.1 180 21:24 29.11.2019
3255 Clouds 10 1013 87 10000 4.1 180 20:58 29.11.2019
3256 Clouds 10 1013 87 10000 4.1 200 20:38 29.11.2019
3257 Clouds 10 1013 87 10000 4.6 190 20:19 29.11.2019
3258 Clouds 10 1013 87 10000 4.6 190 19:57 29.11.2019
3259 Clouds 10 1013 87 10000 4.1 190 19:39 29.11.2019
3260 Clouds 9 1013 87 10000 3.1 190 19:19 29.11.2019
3261 Rain 9 1013 81 10000 4.1 190 18:55 29.11.2019
3262 Rain 9 1013 81 10000 4.1 190 18:37 29.11.2019
3263 Rain 9 1013 87 10000 2.6 200 18:19 29.11.2019
3264 Rain 9 1012 87 10000 5.7 180 17:43 29.11.2019
3265 Clouds 9 1014 93 10000 1.5 160 17:24 29.11.2019
3266 Clouds 9 1013 93 6000 1.5 150 16:56 29.11.2019
3267 Clouds 9 1013 93 6000 1.5 150 16:37 29.11.2019
3268 Rain 9 1012 87 8000 5.7 190 16:18 29.11.2019
3269 Rain 9 1012 81 8000 5.7 220 15:40 29.11.2019
3270 Rain 9 1012 87 8000 0.5 0 15:22 29.11.2019
3271 Rain 8 1012 87 2700 1.5 300 14:55 29.11.2019
3272 Rain 8 1012 87 2700 1.5 300 14:37 29.11.2019
3273 Rain 9 1012 93 2900 3.1 360 14:18 29.11.2019
3274 Rain 10 1011 87 9000 0.5 0 13:40 29.11.2019
3275 Rain 10 1011 87 7000 1.5 140 13:20 29.11.2019
3276 Rain 10 1012 81 6000 1 0 12:56 29.11.2019
3277 Rain 9 1012 81 6000 1 0 12:37 29.11.2019
3278 Rain 9 1013 81 6000 2.1 210 12:19 29.11.2019
3279 Rain 8 1013 93 3700 0.5 0 11:41 29.11.2019
3280 Rain 7 1014 87 3500 0.5 0 11:19 29.11.2019
3281 Rain 7 1014 87 3500 0.5 0 10:59 29.11.2019
3282 Rain 7 1015 93 3500 2.6 260 10:40 29.11.2019
3283 Mist 7 1015 93 4800 0.5 0 10:22 29.11.2019
3284 Rain 6 1016 93 4800 1 0 09:59 29.11.2019
3285 Rain 6 1016 93 4800 1 0 09:40 29.11.2019
3286 -273 0 0 0 0 0 09:40 29.11.2019
3287 Rain 6 1015 93 3200 0.5 90 09:22 29.11.2019
3288 Rain 6 1015 93 3200 0.5 90 08:58 29.11.2019
3289 Rain 6 1015 87 3300 3.1 250 08:38 29.11.2019
3290 Rain 6 1015 87 3300 3.1 250 08:38 29.11.2019
3291 Clouds 5 1015 93 6000 1 350 08:20 29.11.2019
3292 Clouds 5 1015 93 6000 1 350 08:20 29.11.2019
3293 Mist 4 1015 93 4400 0.5 0 07:47 29.11.2019
3294 Clouds 4 1015 93 6000 0.5 0 07:24 29.11.2019
3295 Clouds 4 1015 93 6000 0.5 0 06:58 29.11.2019
3296 Mist 4 1015 72 2800 2.28 140 06:37 29.11.2019
3297 Clouds 3 1016 72 6000 2.28 140 05:47 29.11.2019
3298 Clouds 3 1016 93 6000 1 0 05:23 29.11.2019
3299 Clouds 2 1016 86 6000 1.78 169 04:20 29.11.2019
3300 Clouds 2 1016 86 7000 1.78 169 03:21 29.11.2019
3301 Clouds 2 1017 73 6000 1.78 169 02:28 29.11.2019
3302 Clouds 2 1017 75 6000 1.83 182 01:51 29.11.2019
3303 Clouds 4 1017 86 6000 1.78 179 01:25 29.11.2019
3304 Clouds 2 1017 86 6000 1.78 179 00:42 29.11.2019
3305 Clouds 2 1017 74 6000 1.78 179 00:20 29.11.2019
3306 Clouds 3 1017 74 6000 0.5 20 23:45 28.11.2019
3307 Clouds 3 1017 86 6000 2.72 189 23:22 28.11.2019
3308 Clouds 3 1017 86 6000 2.72 189 22:59 28.11.2019
3309 Clouds 3 1017 86 7000 2.72 189 22:38 28.11.2019
3310 Clouds 4 1017 86 8000 2.72 189 22:20 28.11.2019
3311 Clouds 4 1017 86 8000 2.72 189 21:58 28.11.2019
3312 Clouds 4 1017 86 8000 1.5 20 21:39 28.11.2019
3313 Clouds 5 1017 86 8000 2.72 189 21:19 28.11.2019
3314 Clouds 5 1017 80 8000 2.72 189 20:55 28.11.2019
3315 Clouds 5 1017 80 8000 2.72 189 20:37 28.11.2019
3316 Clouds 6 1017 86 10000 1.86 177 20:18 28.11.2019
3317 Clouds 5 1017 86 10000 1.86 177 19:41 28.11.2019
3318 Clouds 5 1017 86 10000 1.86 177 19:41 28.11.2019
3319 Clouds 6 1017 81 10000 1.86 177 19:22 28.11.2019
3320 Clouds 7 1017 81 10000 1.86 177 18:59 28.11.2019
3321 Clouds 6 1017 81 10000 1.86 177 18:40 28.11.2019
3322 Clouds 7 1017 75 10000 1.86 177 18:19 28.11.2019
3323 Clouds 7 1017 75 10000 1.86 177 17:59 28.11.2019
3324 Clouds 7 1017 75 10000 0.5 0 17:41 28.11.2019
3325 Clouds 9 1017 70 10000 1.5 160 17:22 28.11.2019
3326 Clouds 9 1017 66 10000 2.1 200 16:57 28.11.2019
3327 Clouds 9 1017 66 10000 2.1 200 16:38 28.11.2019
3328 Clouds 10 1017 70 10000 2.1 200 16:18 28.11.2019
3329 Clouds 11 1017 61 10000 3.6 230 15:42 28.11.2019
3330 Clouds 11 1017 57 10000 4.1 230 15:20 28.11.2019
3331 Clouds 12 1017 57 10000 4.1 230 14:59 28.11.2019
3332 Clouds 12 1017 57 10000 5.7 240 14:41 28.11.2019
3333 Clouds 12 1017 62 10000 3.1 260 14:22 28.11.2019
3334 Clouds 12 1016 57 10000 5.1 230 13:57 28.11.2019
3335 Clouds 12 1016 57 10000 5.1 230 13:39 28.11.2019
3336 Clouds 12 1016 57 10000 5.7 250 13:21 28.11.2019
3337 Clouds 12 1016 54 10000 4.6 220 12:43 28.11.2019
3338 Clouds 12 1016 54 10000 4.1 230 12:24 28.11.2019
3339 Clouds 12 1016 62 10000 4.1 220 11:58 28.11.2019
3340 Clouds 12 1016 62 10000 4.1 220 11:39 28.11.2019
3341 Clouds 12 1017 62 10000 4.6 250 11:20 28.11.2019
3342 Clouds 11 1017 71 10000 3.1 220 10:56 28.11.2019
3343 Clouds 11 1017 71 10000 3.1 220 10:38 28.11.2019
3344 Clouds 11 1017 71 10000 3.1 210 10:18 28.11.2019
3345 Clouds 11 1017 71 10000 3.1 200 09:41 28.11.2019
3346 Clouds 9 1017 71 6000 1.5 190 09:22 28.11.2019
3347 Clouds 9 1017 71 6000 1.5 190 08:56 28.11.2019
3348 Mist 8 1017 81 4800 1.5 190 08:37 28.11.2019
3349 Mist 8 1017 87 5000 0.5 0 08:18 28.11.2019
3350 Mist 7 1017 87 3100 0.5 0 07:41 28.11.2019
3351 Mist 7 1016 93 3200 0.5 0 07:23 28.11.2019
3352 Mist 6 1017 100 3100 1.08 201 06:44 28.11.2019
3353 Mist 7 1016 93 4500 0.5 0 06:23 28.11.2019
3354 Clouds 6 1016 93 7000 0.5 0 05:49 28.11.2019
3355 Clouds 6 1016 87 6000 0.5 0 05:18 28.11.2019
3356 Mist 6 1015 93 4000 1 0 02:37 28.11.2019
3357 Clouds 7 1016 87 6000 0.97 233 01:47 28.11.2019
3358 Clouds 7 1015 87 6000 0.99 239 00:47 28.11.2019
3359 Clouds 7 1015 93 6000 0.99 239 00:22 28.11.2019
3360 Clouds 7 1015 93 7000 0.99 239 23:55 27.11.2019
3361 Clouds 7 1015 93 7000 0.99 239 23:36 27.11.2019
3362 Clouds 7 1015 93 8000 1.18 234 23:18 27.11.2019
3363 Clouds 7 1015 87 8000 1.18 234 22:39 27.11.2019
3364 Clouds 7 1015 81 9000 1.18 234 22:20 27.11.2019
3365 Clouds 7 1015 87 8000 1.18 234 21:56 27.11.2019
3366 Clouds 7 1015 87 8000 1.18 234 21:37 27.11.2019
3367 Clouds 7 1015 87 8000 1 0 21:19 27.11.2019
3368 Clouds 7 1015 87 8000 1 0 21:19 27.11.2019
3369 Clouds 7 1015 87 8000 1 0 21:19 27.11.2019
3370 Clouds 7 1015 87 8000 1 0 20:58 27.11.2019
3371 Clouds 7 1015 87 8000 1 0 20:58 27.11.2019
3372 Clouds 7 1014 93 7000 1 0 20:39 27.11.2019
3373 Clouds 7 1014 87 7000 0.5 0 20:21 27.11.2019
3374 Clouds 8 1014 81 7000 0.5 150 19:57 27.11.2019
3375 Clouds 8 1014 81 7000 0.5 150 19:39 27.11.2019
3376 Clouds 9 1014 81 7000 1 0 19:19 27.11.2019
3377 Clouds 8 1013 81 10000 1 0 18:58 27.11.2019
3378 Clouds 9 1013 81 10000 1 0 18:37 27.11.2019
3379 Clouds 9 1013 81 10000 1.17 237 18:19 27.11.2019
3380 Clouds 10 1013 81 10000 1.17 237 17:56 27.11.2019
3381 Clouds 10 1013 81 10000 1.17 237 17:38 27.11.2019
3382 Clouds 10 1013 81 10000 1.17 237 17:38 27.11.2019
3383 Clouds 9 1013 81 10000 2.6 240 17:20 27.11.2019
3384 Clouds 9 1013 81 10000 2.6 240 17:20 27.11.2019
3385 Clouds 9 1013 81 10000 2.6 240 17:20 27.11.2019
3386 Rain 10 1013 76 10000 2.24 262 16:56 27.11.2019
3387 Rain 10 1013 76 10000 2.24 262 16:37 27.11.2019
3388 Clouds 10 1013 76 10000 2.6 250 16:19 27.11.2019
3389 Clouds 11 1012 76 10000 2.1 290 15:57 27.11.2019
3390 Clouds 11 1012 76 10000 2.1 290 15:38 27.11.2019
3391 Clouds 11 1012 76 10000 2.1 290 15:38 27.11.2019
3392 Clouds 11 1012 71 10000 3.1 240 15:20 27.11.2019
3393 Clouds 11 1012 76 10000 2.1 300 14:56 27.11.2019
3394 Clouds 11 1012 76 10000 2.1 300 14:38 27.11.2019
3395 Clouds 11 1012 71 10000 2.6 260 14:20 27.11.2019
3396 Clouds 12 1011 71 10000 4.1 210 13:56 27.11.2019
3397 Clouds 12 1011 71 10000 4.1 210 13:38 27.11.2019
3398 Clouds 12 1011 71 10000 4.1 210 13:38 27.11.2019
3399 Clouds 12 1012 71 10000 3.1 260 13:19 27.11.2019
3400 Clouds 12 1011 71 10000 3.1 210 12:42 27.11.2019
3401 Clouds 12 1011 71 8000 3.1 230 12:22 27.11.2019
3402 Clouds 11 1011 76 8000 2.6 190 11:59 27.11.2019
3403 Clouds 11 1011 76 8000 2.6 190 11:37 27.11.2019
3404 Clouds 11 1011 76 10000 3.6 270 11:19 27.11.2019
3405 Rain 11 1012 81 6000 2.1 180 10:55 27.11.2019
3406 Rain 11 1012 81 6000 2.1 180 10:37 27.11.2019
3407 Rain 10 1012 81 8000 2.6 240 10:19 27.11.2019
3408 Clouds 10 1011 81 6000 1.89 248 09:41 27.11.2019
3409 Clouds 10 1011 87 7000 1.89 248 09:23 27.11.2019
3410 Mist 9 1012 93 5000 1.89 248 08:43 27.11.2019
3411 Mist 9 1011 93 3800 0.48 205 08:23 27.11.2019
3412 Mist 8 1011 93 3300 0.48 205 07:57 27.11.2019
3413 Mist 8 1011 93 3300 0.48 205 07:39 27.11.2019
3414 Mist 8 1011 93 3100 0.48 205 07:20 27.11.2019
3415 Mist 8 1011 100 2500 0.48 205 06:40 27.11.2019
3416 Mist 7 1010 100 3200 0.5 240 06:20 27.11.2019
3417 Mist 7 1010 100 4800 0.48 205 05:26 27.11.2019
3418 Clouds 7 1009 100 6000 1.21 110 04:56 27.11.2019
3419 Clouds 7 1009 100 6000 1.21 110 04:36 27.11.2019
3420 Mist 7 1009 93 4100 0.5 0 03:48 27.11.2019
3421 Clouds 7 1009 100 6000 1.21 110 03:21 27.11.2019
3422 Mist 7 1009 93 4900 0.5 0 02:48 27.11.2019
3423 Mist 8 1010 93 4900 0.5 10 01:34 27.11.2019
3424 Rain 8 1010 87 10000 1.5 0 00:42 27.11.2019
3425 Rain 8 1010 87 10000 1.5 320 00:24 27.11.2019
3426 Clouds 8 1010 93 6000 1.11 111 23:44 26.11.2019
3427 Clouds 8 1010 81 10000 1.5 40 23:25 26.11.2019
3428 Clouds 8 1011 93 6000 0.5 0 22:56 26.11.2019
3429 Clouds 8 1011 93 6000 0.5 0 22:38 26.11.2019
3430 Rain 8 1011 93 7000 0.5 0 22:19 26.11.2019
3431 Rain 8 1010 87 7000 0.5 0 21:57 26.11.2019
3432 Rain 8 1010 87 7000 0.5 0 21:37 26.11.2019
3433 Rain 8 1010 87 10000 2.1 60 21:19 26.11.2019
3434 Rain 8 1010 87 10000 2.1 60 21:19 26.11.2019
3435 Rain 8 1011 100 10000 1 0 20:54 26.11.2019
3436 Rain 8 1011 100 10000 1 0 20:36 26.11.2019
3437 Rain 8 1010 93 10000 1 90 20:18 26.11.2019
3438 Rain 8 1010 87 10000 2.1 230 19:54 26.11.2019
3439 Rain 8 1010 87 10000 2.1 230 19:36 26.11.2019
3440 Clouds 9 1010 76 10000 1.5 300 19:18 26.11.2019
3441 Clouds 9 1010 87 10000 3.1 10 18:54 26.11.2019
3442 Clouds 9 1010 76 10000 1 0 18:36 26.11.2019
3443 Clouds 9 1010 76 10000 1 0 18:18 26.11.2019
3444 Clouds 9 1010 81 6000 2.1 40 17:41 26.11.2019
3445 -273 0 0 0 0 0 17:23 26.11.2019
3446 Clouds 9 1010 87 10000 1.5 10 17:23 26.11.2019
3447 Rain 9 1010 87 10000 2.1 360 16:57 26.11.2019
3448 Rain 9 1010 87 10000 2.1 360 16:38 26.11.2019
3449 Rain 9 1010 87 10000 2.1 360 16:38 26.11.2019
3450 Rain 9 1010 81 10000 1 20 16:19 26.11.2019
3451 Clouds 9 1010 81 10000 0.5 30 15:59 26.11.2019
3452 Clouds 9 1010 81 10000 0.5 30 15:38 26.11.2019
3453 Clouds 9 1009 76 10000 1.5 300 15:20 26.11.2019
3454 Clouds 9 1009 76 10000 1.5 300 14:58 26.11.2019
3455 Rain 9 1010 81 10000 4.22 193 14:40 26.11.2019
3456 Rain 9 1010 76 10000 2.6 190 14:22 26.11.2019
3457 Rain 9 1010 75 10000 3.43 274 13:41 26.11.2019
3458 Rain 10 1009 62 10000 2.1 240 13:23 26.11.2019
3459 Rain 10 1009 62 10000 2.1 240 13:23 26.11.2019
3460 Rain 10 1010 57 10000 2.1 120 12:40 26.11.2019
3461 Rain 10 1009 57 10000 3.1 130 12:22 26.11.2019
3462 Rain 11 1010 54 10000 5.7 170 11:59 26.11.2019
3463 Rain 11 1010 54 10000 5.7 170 11:40 26.11.2019
3464 Clouds 11 1009 38 10000 4.6 170 11:20 26.11.2019
3465 Clouds 10 1010 47 10000 1.5 0 10:59 26.11.2019
3466 Clouds 10 1010 47 10000 1.5 0 10:41 26.11.2019
3467 Clouds 10 1010 57 10000 2.6 30 10:21 26.11.2019
3468 Clouds 9 1011 61 10000 1.5 320 09:58 26.11.2019
3469 Clouds 10 1011 61 10000 1.5 320 09:38 26.11.2019
3470 Rain 10 1011 53 10000 0.5 0 09:20 26.11.2019
3471 Rain 9 1012 71 10000 1.5 140 08:44 26.11.2019
3472 Rain 8 1011 70 10000 1 0 08:25 26.11.2019
3473 Rain 8 1011 65 10000 1 0 07:47 26.11.2019
3474 Rain 7 1011 70 10000 1.5 90 07:29 26.11.2019
3475 Rain 7 1011 45 10000 3.1 10 06:56 26.11.2019
3476 Rain 7 1011 45 10000 3.1 10 06:35 26.11.2019
3477 Clouds 7 1011 45 10000 0.5 0 05:53 26.11.2019
3478 Clouds 7 1011 45 10000 0.5 0 04:47 26.11.2019
3479 Clouds 8 1012 75 10000 0.5 0 02:52 26.11.2019
3480 Rain 7 1013 75 10000 1 0 01:33 26.11.2019
3481 Clouds 6 1013 60 10000 0.5 0 00:53 26.11.2019
3482 Clouds 6 1012 56 10000 0.5 300 00:30 26.11.2019
3483 Clouds 7 1013 65 10000 2.88 102 23:55 25.11.2019
3484 Clouds 8 1013 65 10000 2.88 102 23:36 25.11.2019
3485 Clouds 8 1013 49 10000 1 0 23:18 25.11.2019
3486 Clouds 8 1014 56 10000 2.69 93 22:39 25.11.2019
3487 Clouds 8 1013 46 10000 1.5 0 22:19 25.11.2019
3488 Clouds 9 1014 52 10000 0.5 0 21:59 25.11.2019
3489 Clouds 9 1014 52 10000 0.5 0 21:40 25.11.2019
3490 Clouds 9 1014 43 10000 0.5 0 21:21 25.11.2019
3491 Clouds 9 1014 60 10000 1 0 20:57 25.11.2019
3492 Clouds 9 1014 60 10000 1 0 20:39 25.11.2019
3493 Clouds 9 1013 40 10000 1 40 20:19 25.11.2019
3494 Clouds 9 1014 56 10000 1 0 19:56 25.11.2019
3495 Clouds 9 1014 56 10000 1 0 19:56 25.11.2019
3496 Clouds 9 1014 56 10000 1 0 19:38 25.11.2019
3497 Clouds 9 1013 40 10000 3.1 70 19:18 25.11.2019
3498 Clouds 10 1014 52 10000 2.6 10 18:57 25.11.2019
3499 Clouds 10 1014 52 10000 2.6 10 18:39 25.11.2019
3500 Clouds 10 1014 37 10000 2.6 50 18:21 25.11.2019
3501 Clouds 10 1014 37 10000 2.6 50 18:21 25.11.2019
3502 Clouds 11 1014 49 10000 2.1 360 17:57 25.11.2019
3503 Clouds 11 1014 49 10000 2.1 360 17:38 25.11.2019
3504 Clouds 11 1014 35 10000 1 0 17:20 25.11.2019
3505 Clouds 12 1014 32 10000 2.1 140 16:57 25.11.2019
3506 Clouds 12 1014 32 10000 2.1 140 16:39 25.11.2019
3507 Clouds 13 1014 32 10000 2.6 150 16:20 25.11.2019
3508 Clouds 13 1014 34 10000 2.6 140 15:54 25.11.2019
3509 Clouds 13 1014 34 10000 2.6 140 15:36 25.11.2019
3510 Clouds 13 1014 32 10000 3.1 140 15:18 25.11.2019
3511 Clouds 14 1014 32 10000 3.1 120 14:41 25.11.2019
3512 Clouds 14 1014 38 10000 2.1 160 14:22 25.11.2019
3513 Clouds 15 1014 33 10000 3.1 140 13:55 25.11.2019
3514 Clouds 15 1014 33 10000 3.1 140 13:36 25.11.2019
3515 Clouds 14 1015 39 10000 0.5 0 13:18 25.11.2019
3516 Clouds 14 1015 39 10000 0.5 0 13:18 25.11.2019
3517 Clouds 14 1015 39 10000 2.1 80 12:41 25.11.2019
3518 Clouds 14 1015 44 10000 3.1 50 12:22 25.11.2019
3519 Clouds 12 1016 37 10000 0.5 0 11:59 25.11.2019
3520 Clouds 12 1016 43 7000 1.5 80 11:40 25.11.2019
3521 Clouds 12 1016 43 7000 1.5 80 11:20 25.11.2019
3522 Clouds 10 1017 46 10000 0.5 0 10:46 25.11.2019
3523 Clouds 10 1018 40 7000 1 0 10:28 25.11.2019
3524 Clouds 8 1018 52 8000 0.5 0 09:59 25.11.2019
3525 Clouds 8 1018 52 8000 0.5 0 09:41 25.11.2019
3526 Clouds 8 1018 52 8000 0.5 0 09:41 25.11.2019
3527 Clouds 6 1018 60 6000 0.5 0 09:23 25.11.2019
3528 Clouds 4 1019 69 6000 1 0 08:41 25.11.2019
3529 Clouds 4 1019 69 6000 2.16 98 08:22 25.11.2019
3530 Clouds 1 1019 45 6000 0.5 0 07:45 25.11.2019
3531 Clouds 1 1019 80 7000 0.5 0 07:25 25.11.2019
3532 Mist 0 1019 86 4400 0.5 0 06:51 25.11.2019
3533 Clouds 0 1018 92 7000 2.16 98 06:23 25.11.2019
3534 Clouds 0 1018 92 7000 2.16 98 06:23 25.11.2019
3535 Clouds 0 1019 80 6000 2.16 98 05:50 25.11.2019
3536 Clouds 0 1018 45 7000 2.16 98 05:30 25.11.2019
3537 Clouds 0 1018 79 6000 1.64 96 04:35 25.11.2019
3538 Clouds 0 1019 79 7000 1.64 96 02:35 25.11.2019
3539 Clouds 1 1019 74 7000 1.42 101 01:43 25.11.2019
3540 Clear 1 1019 86 8000 1.48 98 01:24 25.11.2019
3541 Clear 2 1019 80 6000 1.48 98 00:39 25.11.2019
3542 Clear 2 1019 74 10000 1.48 98 00:18 25.11.2019
3543 Clear 3 1019 80 6000 1.48 98 23:43 24.11.2019
3544 Clear 3 1019 69 10000 1 0 23:20 24.11.2019
3545 Clear 4 1019 74 7000 1.64 98 22:57 24.11.2019
3546 Clear 4 1019 74 7000 1.64 98 22:37 24.11.2019
3547 Clear 4 1020 56 10000 1 0 22:19 24.11.2019
3548 Clouds 4 1019 69 6000 0.5 0 21:56 24.11.2019
3549 Clouds 4 1019 69 6000 0.5 0 21:37 24.11.2019
3550 Clear 4 1019 74 6000 1.64 98 21:19 24.11.2019
3551 Clear 4 1019 64 8000 1.64 98 20:56 24.11.2019
3552 Clouds 4 1019 64 8000 1.81 100 20:37 24.11.2019
3553 Clouds 4 1019 64 8000 1.81 100 20:37 24.11.2019
3554 Clouds 4 1020 64 10000 2.19 99 20:18 24.11.2019
3555 Clouds 6 1019 65 10000 2.19 99 19:55 24.11.2019
3556 Clouds 6 1019 65 10000 2.19 99 19:55 24.11.2019
3557 Clouds 6 1019 65 10000 2.19 99 19:37 24.11.2019
3558 Clouds 6 1020 60 10000 2.19 99 19:19 24.11.2019
3559 Clouds 6 1020 60 10000 2.19 99 19:19 24.11.2019
3560 Clouds 6 1020 60 8000 2.6 30 18:56 24.11.2019
3561 Clouds 6 1020 52 10000 2.19 99 18:36 24.11.2019
3562 Clouds 7 1020 52 10000 2.19 99 18:18 24.11.2019
3563 Clouds 7 1020 54 10000 1 0 17:55 24.11.2019
3564 Clouds 7 1020 54 10000 1 0 17:36 24.11.2019
3565 Clouds 9 1019 52 10000 1.56 140 17:18 24.11.2019
3566 Clouds 9 1019 61 10000 2.1 150 16:42 24.11.2019
3567 Clouds 12 1019 53 10000 0.5 0 16:23 24.11.2019
3568 Clouds 12 1019 53 10000 0.5 0 15:59 24.11.2019
3569 Clouds 12 1019 61 10000 2.1 220 15:41 24.11.2019
3570 Clouds 13 1019 37 10000 1.56 140 15:22 24.11.2019
3571 Clouds 13 1019 32 10000 2.1 210 14:55 24.11.2019
3572 Clouds 13 1019 32 10000 2.1 210 14:37 24.11.2019
3573 Clouds 13 1020 33 10000 2.1 290 14:18 24.11.2019
3574 Clouds 13 1019 28 10000 1 200 13:39 24.11.2019
3575 Clouds 13 1019 35 10000 0.5 0 13:20 24.11.2019
3576 Clouds 13 1019 28 10000 2.1 180 12:57 24.11.2019
3577 Clouds 13 1019 28 10000 2.1 180 12:39 24.11.2019
3578 Clouds 13 1020 37 10000 1.05 204 12:18 24.11.2019
3579 Clouds 12 1020 32 10000 2.1 190 11:55 24.11.2019
3580 Clouds 12 1020 32 10000 2.1 190 11:36 24.11.2019
3581 Clouds 12 1020 37 10000 1.21 129 11:18 24.11.2019
3582 Clouds 10 1021 34 10000 1 0 10:44 24.11.2019
3583 Clouds 11 1021 34 10000 0.5 0 10:26 24.11.2019
3584 Clouds 8 1021 42 10000 0.5 0 09:54 24.11.2019
3585 Clouds 8 1021 42 10000 0.5 0 09:54 24.11.2019
3586 Clouds 8 1021 42 10000 0.5 0 09:36 24.11.2019
3587 Clouds 8 1021 42 10000 0.5 0 09:36 24.11.2019
3588 Clouds 7 1021 48 8000 1.5 260 09:18 24.11.2019
3589 Clouds 7 1021 48 8000 1.5 260 09:18 24.11.2019
3590 Clouds 6 1021 48 8000 0.5 0 08:42 24.11.2019
3591 Clouds 5 1022 60 10000 1 0 08:21 24.11.2019
3592 Clouds 4 1021 60 7000 0.5 0 07:52 24.11.2019
3593 Clouds 4 1021 60 7000 0.5 0 07:33 24.11.2019
3594 Clouds 2 1021 69 10000 1 0 06:55 24.11.2019
3595 Clouds 2 1021 64 10000 0.5 0 05:47 24.11.2019
3596 Clouds 2 1021 64 10000 0.5 0 05:47 24.11.2019
3597 Clouds 2 1020 69 8000 1 0 04:45 24.11.2019
3598 Clouds 2 1020 69 8000 1 0 04:45 24.11.2019
3599 Clouds 2 1020 64 8000 1 0 02:49 24.11.2019
3600 Clouds 2 1020 64 8000 1 0 02:49 24.11.2019
3601 Clouds 3 1020 64 10000 0.71 116 01:57 24.11.2019
3602 Clouds 3 1020 64 10000 0.71 116 01:37 24.11.2019
3603 Clouds 3 1021 80 10000 0.8 105 01:18 24.11.2019
3604 Clouds 3 1020 64 10000 0.8 105 00:42 24.11.2019
3605 Clouds 3 1020 64 10000 0.8 105 00:20 24.11.2019
3606 Clouds 3 1020 64 10000 0.8 105 23:44 23.11.2019
3607 Clouds 4 1020 64 10000 0.78 117 23:21 23.11.2019
3608 Clouds 4 1020 59 10000 0.78 117 22:57 23.11.2019
3609 Clouds 4 1020 59 10000 0.78 117 22:38 23.11.2019
3610 Clouds 4 1021 69 10000 0.78 117 22:20 23.11.2019
3611 Clouds 5 1020 52 10000 1 0 21:57 23.11.2019
3612 Clouds 5 1020 52 10000 1 0 21:39 23.11.2019
3613 Clouds 5 1020 60 10000 0.78 117 21:21 23.11.2019
3614 Clouds 5 1020 56 10000 0.78 117 20:39 23.11.2019
3615 Clouds 6 1020 52 10000 1 0 20:21 23.11.2019
3616 Clouds 6 1020 52 10000 1 0 20:21 23.11.2019
3617 Clouds 6 1020 52 10000 1 0 19:58 23.11.2019
3618 Clouds 6 1020 48 10000 1 0 19:39 23.11.2019
3619 Clouds 6 1020 56 10000 0.72 119 19:19 23.11.2019
3620 Clouds 6 1020 56 10000 0.72 119 19:19 23.11.2019
3621 Clouds 7 1020 52 10000 2.1 10 18:58 23.11.2019
3622 Clouds 7 1020 52 10000 2.1 10 18:39 23.11.2019
3623 Clouds 7 1020 56 10000 0.5 230 18:19 23.11.2019
3624 Clouds 8 1019 39 10000 0.72 119 17:44 23.11.2019
3625 Clouds 8 1019 45 10000 1 0 17:22 23.11.2019
3626 Clouds 10 1019 36 10000 2.1 140 16:57 23.11.2019
3627 Clouds 10 1019 36 10000 2.1 140 16:38 23.11.2019
3628 Clouds 10 1019 31 10000 2.1 150 16:20 23.11.2019
3629 Clouds 10 1019 31 10000 2.1 150 15:58 23.11.2019
3630 Clouds 11 1019 29 10000 2.1 150 15:39 23.11.2019
3631 Clouds 11 1019 37 10000 2.1 270 15:19 23.11.2019
3632 Clouds 12 1019 37 10000 2.1 270 14:57 23.11.2019
3633 Clouds 12 1019 27 10000 2.6 210 14:57 23.11.2019
3634 Clouds 13 1019 27 10000 2.6 210 14:38 23.11.2019
3635 Clouds 13 1019 32 9000 1.5 0 14:20 23.11.2019
3636 Clouds 13 1019 22 10000 1 0 13:44 23.11.2019
3637 Clouds 13 1019 32 8000 2.6 270 13:22 23.11.2019
3638 Clouds 13 1019 20 10000 1.98 242 12:59 23.11.2019
3639 Clouds 13 1019 20 10000 1.98 242 12:40 23.11.2019
3640 Clouds 13 1019 30 7000 1 0 12:22 23.11.2019
3641 Clouds 12 1019 27 10000 1.98 242 11:43 23.11.2019
3642 Clouds 12 1019 27 10000 1.98 242 11:43 23.11.2019
3643 Clouds 11 1020 32 7000 1.5 0 11:21 23.11.2019
3644 Clouds 10 1020 34 10000 0.95 167 10:45 23.11.2019
3645 Clouds 8 1020 34 10000 0.95 167 10:22 23.11.2019
3646 Clouds 7 1020 41 10000 0.95 167 09:43 23.11.2019
3647 Clouds 5 1021 45 10000 0.95 167 09:21 23.11.2019
3648 Clouds 3 1021 51 10000 0.95 167 08:56 23.11.2019
3649 Clouds 3 1021 51 10000 0.95 167 08:37 23.11.2019
3650 Clouds 3 1021 64 7000 1.5 210 08:18 23.11.2019
3651 Clouds 1 1021 39 10000 0.65 184 07:39 23.11.2019
3652 Clouds -2 1021 74 6000 0.5 0 06:50 23.11.2019
3653 Clouds -2 1021 86 8000 0.65 184 06:23 23.11.2019
3654 Clouds 1 1020 74 8000 1 350 05:53 23.11.2019
3655 Clouds 1 1020 74 8000 0.65 184 05:31 23.11.2019
3656 Clouds -1 1020 68 8000 0.56 186 04:50 23.11.2019
3657 Clouds -1 1020 68 8000 0.56 186 04:29 23.11.2019
3658 Clouds -1 1019 74 8000 0.5 0 03:21 23.11.2019
3659 Clouds -1 1020 86 10000 0.56 186 02:27 23.11.2019
3660 Clouds 0 1019 68 8000 0.5 0 01:38 23.11.2019
3661 Clouds 0 1019 74 9000 0.5 0 00:45 23.11.2019
3662 Clouds 0 1019 86 10000 0.53 124 00:19 23.11.2019
3663 Clouds 1 1019 42 8000 1 40 23:43 22.11.2019
3664 Clouds 0 1019 74 10000 0.83 131 23:23 22.11.2019
3665 Clouds 3 1019 41 9000 1 40 22:59 22.11.2019
3666 Clouds 3 1019 41 9000 1 40 22:59 22.11.2019
3667 Clouds 3 1019 41 9000 1 40 22:41 22.11.2019
3668 Clouds 2 1019 59 8000 1.5 20 22:23 22.11.2019
3669 Clouds 2 1019 59 8000 1.5 20 21:59 22.11.2019
3670 Clouds 2 1019 59 8000 0.5 0 21:40 22.11.2019
3671 Clouds 2 1019 59 8000 0.5 0 21:20 22.11.2019
3672 Clouds 4 1019 59 9000 0.83 131 20:44 22.11.2019
3673 Clouds 4 1019 55 9000 1 0 20:22 22.11.2019
3674 Clouds 4 1019 55 9000 1 0 19:58 22.11.2019
3675 Clouds 4 1019 55 10000 0.5 0 19:39 22.11.2019
3676 Clouds 4 1019 55 10000 1.02 114 19:19 22.11.2019
3677 Clouds 4 1019 55 10000 1.02 114 18:58 22.11.2019
3678 Clouds 4 1018 51 10000 0.5 0 18:36 22.11.2019
3679 Clouds 6 1018 45 10000 1 0 18:18 22.11.2019
3680 Clouds 6 1018 45 10000 1.5 360 17:41 22.11.2019
3681 Clouds 8 1018 33 10000 1 0 17:22 22.11.2019
3682 Clouds 8 1017 34 10000 1 30 16:48 22.11.2019
3683 Clouds 9 1017 34 10000 1 30 16:29 22.11.2019
3684 Clouds 9 1017 34 10000 1 30 16:29 22.11.2019
3685 Clouds 12 1017 29 10000 1 0 15:54 22.11.2019
3686 Clouds 12 1017 29 10000 1 0 15:36 22.11.2019
3687 Clouds 14 1017 26 10000 1 0 15:18 22.11.2019
3688 Clouds 14 1017 24 10000 0.56 79 14:54 22.11.2019
3689 Clouds 14 1017 24 10000 0.56 79 14:36 22.11.2019
3690 Clouds 14 1017 30 8000 1 0 14:18 22.11.2019
3691 Clouds 14 1017 21 10000 1 0 13:37 22.11.2019
3692 Clouds 14 1017 19 10000 0.59 165 13:19 22.11.2019
3693 Clouds 14 1017 17 10000 1 0 12:57 22.11.2019
3694 Clouds 14 1017 17 10000 1 0 12:39 22.11.2019
3695 Clouds 12 1017 27 10000 0.5 0 12:19 22.11.2019
3696 Clouds 12 1017 27 10000 0.5 0 12:19 22.11.2019
3697 Clouds 12 1018 29 10000 0.5 0 11:56 22.11.2019
3698 Clouds 12 1018 29 10000 0.5 0 11:36 22.11.2019
3699 Clouds 12 1018 29 10000 0.5 0 11:36 22.11.2019
3700 Clouds 11 1018 32 10000 1.27 117 11:18 22.11.2019
3701 Clouds 10 1019 42 10000 1 0 10:42 22.11.2019
3702 Clouds 9 1019 37 6000 1.5 50 10:23 22.11.2019
3703 Clouds 8 1019 37 6000 1.5 50 09:59 22.11.2019
3704 Clouds 6 1019 48 7000 0.5 0 09:40 22.11.2019
3705 Clouds 4 1019 52 6000 1 0 09:21 22.11.2019
3706 Clouds 3 1019 52 6000 1 0 08:57 22.11.2019
3707 Clouds 2 1020 59 6000 1 0 08:37 22.11.2019
3708 Mist 2 1020 80 3100 1.5 230 08:19 22.11.2019
3709 Clouds -2 1020 79 6000 1 0 07:40 22.11.2019
3710 Mist -1 1020 92 4800 0.97 111 07:19 22.11.2019
3711 Clouds -2 1019 79 6000 0.5 0 06:42 22.11.2019
3712 Clouds -3 1019 79 6000 0.5 0 06:18 22.11.2019
3713 Clouds -2 1019 85 7000 0.5 0 04:55 22.11.2019
3714 Clouds -1 1019 79 6000 1 0 02:59 22.11.2019
3715 Clouds -1 1019 79 6000 0.5 0 02:37 22.11.2019
3716 Clouds -1 1019 79 6000 0.5 0 02:18 22.11.2019
3717 Clouds -1 1020 74 6000 0.5 0 01:42 22.11.2019
3718 Clouds -1 1020 79 6000 0.5 0 01:18 22.11.2019
3719 Clouds 0 1019 44 7000 0.5 90 00:26 22.11.2019
3720 Clouds 0 1019 74 8000 0.5 0 23:57 21.11.2019
3721 Clouds 0 1019 74 8000 0.5 0 23:39 21.11.2019
3722 Clouds 0 1019 44 6000 1 0 23:21 21.11.2019
3723 Clouds 0 1019 68 7000 1 0 22:54 21.11.2019
3724 Clouds 0 1019 68 7000 1 0 22:36 21.11.2019
3725 Clouds 1 1019 44 7000 2.1 60 22:18 21.11.2019
3726 Clouds 1 1020 64 7000 0.5 0 21:54 21.11.2019
3727 Clouds 1 1020 64 7000 0.5 0 21:36 21.11.2019
3728 Clouds 1 1020 74 8000 0.5 0 21:18 21.11.2019
3729 Clouds 1 1020 59 8000 0.5 0 20:39 21.11.2019
3730 Clear 2 1020 80 6000 0.37 69 20:19 21.11.2019
3731 Clear 1 1020 80 6000 0.37 69 19:59 21.11.2019
3732 Clear 2 1020 80 6000 0.37 69 19:59 21.11.2019
3733 Clear 1 1020 64 10000 0.5 0 19:41 21.11.2019
3734 Clear 3 1019 48 10000 0.5 0 19:23 21.11.2019
3735 Clear 3 1019 51 10000 1 40 18:58 21.11.2019
3736 Clear 3 1019 51 10000 1 40 18:40 21.11.2019
3737 Clear 4 1019 51 10000 0.37 69 18:20 21.11.2019
3738 Clear 4 1019 51 10000 0.37 69 17:58 21.11.2019
3739 Clear 4 1019 44 10000 0.5 0 17:39 21.11.2019
3740 -273 0 0 0 0 0 17:20 21.11.2019
3741 Clear 8 1019 42 9000 1.5 150 16:55 21.11.2019
3742 Clear 8 1019 42 9000 1.5 150 16:37 21.11.2019
3743 Clear 9 1019 39 9000 1 170 16:18 21.11.2019
3744 Clear 9 1019 37 9000 2.1 190 15:42 21.11.2019
3745 Clear 11 1019 32 10000 2.1 180 15:20 21.11.2019
3746 Clear 11 1019 28 10000 2.1 180 14:57 21.11.2019
3747 Clear 11 1019 28 10000 2.1 180 14:37 21.11.2019
3748 Clear 11 1019 28 10000 2.1 180 14:19 21.11.2019
3749 Clear 11 1019 30 10000 2.6 190 13:40 21.11.2019
3750 Clear 11 1019 30 10000 1 0 13:21 21.11.2019
3751 Clear 11 1019 26 10000 1 0 12:59 21.11.2019
3752 Clear 11 1019 26 10000 1 0 12:39 21.11.2019
3753 Clear 10 1020 32 10000 0.5 0 12:21 21.11.2019
3754 Clear 9 1020 37 10000 0.5 0 11:54 21.11.2019
3755 Clear 9 1020 37 10000 0.5 0 11:36 21.11.2019
3756 Clear 9 1021 29 6000 1.5 0 11:18 21.11.2019
3757 Clear 8 1021 45 10000 1 0 10:42 21.11.2019
3758 Clear 7 1022 49 6000 0.95 247 10:23 21.11.2019
3759 Clear 4 1022 52 10000 1 0 09:57 21.11.2019
3760 Clear 5 1022 52 10000 1 0 09:57 21.11.2019
3761 Clear 4 1022 52 10000 1 0 09:39 21.11.2019
3762 Haze 3 1023 64 4000 1 220 09:20 21.11.2019
3763 Clear 1 1022 69 6000 0.5 0 08:42 21.11.2019
3764 Clouds 0 1022 47 7000 0.5 0 08:21 21.11.2019
3765 Clouds -1 1023 74 6000 0.5 0 07:43 21.11.2019
3766 Clouds -3 1023 85 6000 0.38 254 07:19 21.11.2019
3767 Clouds -4 1023 85 6000 0.38 254 06:58 21.11.2019
3768 Clouds -4 1022 79 7000 0.5 0 06:34 21.11.2019
3769 Clouds -4 1022 79 8000 0.38 254 05:39 21.11.2019
3770 Clouds -3 1022 85 8000 0.39 237 03:34 21.11.2019
3771 Clouds -3 1022 79 8000 0.39 237 02:42 21.11.2019
3772 Clear -3 1022 79 9000 0.5 261 02:21 21.11.2019
3773 Clear -2 1022 73 8000 0.5 261 01:42 21.11.2019
3774 Clear -2 1023 92 7000 0.53 269 01:19 21.11.2019
3775 Clear -1 1023 74 8000 0.53 269 00:37 21.11.2019
3776 Clear -1 1022 74 8000 0.53 269 00:18 21.11.2019
3777 Clear -1 1022 74 8000 0.53 269 23:41 20.11.2019
3778 Clouds -1 1023 74 7000 0.65 264 23:21 20.11.2019
3779 Clouds 0 1023 74 8000 0.5 0 22:56 20.11.2019
3780 Clouds -2 1023 74 8000 0.5 0 22:37 20.11.2019
3781 Clouds 0 1023 79 8000 0.65 264 22:19 20.11.2019
3782 Clouds 0 1023 74 7000 0.65 264 21:57 20.11.2019
3783 Clouds 0 1023 74 7000 0.65 264 21:38 20.11.2019
3784 Clouds 1 1023 69 10000 0.65 264 21:19 20.11.2019
3785 Clouds 1 1023 40 10000 0.65 264 20:55 20.11.2019
3786 Clouds 1 1023 40 10000 0.65 264 20:55 20.11.2019
3787 Clouds 1 1023 40 10000 0.65 264 20:37 20.11.2019
3788 Clouds 1 1023 40 10000 0.65 264 20:37 20.11.2019
3789 Clouds 1 1023 40 10000 0.65 264 20:37 20.11.2019
3790 Clear 2 1023 64 10000 0.43 212 20:18 20.11.2019
3791 Clear 2 1023 64 10000 0.5 244 19:55 20.11.2019
3792 Clear 2 1023 64 10000 0.5 244 19:36 20.11.2019
3793 Clear 3 1023 64 10000 0.5 244 19:18 20.11.2019
3794 Clear 4 1022 55 10000 0.5 244 18:57 20.11.2019
3795 Clear 4 1022 55 10000 0.5 244 18:37 20.11.2019
3796 Clear 5 1022 56 10000 0.5 0 18:19 20.11.2019
3797 Clear 6 1022 52 10000 0.5 0 17:55 20.11.2019
3798 Clear 6 1022 52 10000 0.5 0 17:36 20.11.2019
3799 Clear 8 1022 49 10000 0.6 282 17:18 20.11.2019
3800 Clear 9 1022 45 10000 1 0 16:41 20.11.2019
3801 Clear 10 1022 39 10000 1.5 190 16:20 20.11.2019
3802 Clear 12 1022 34 10000 2.6 210 15:58 20.11.2019
3803 Clear 12 1022 34 10000 2.6 210 15:39 20.11.2019
3804 Clear 13 1022 30 10000 3.1 200 15:20 20.11.2019
3805 Clouds 14 1022 28 10000 3.6 190 14:56 20.11.2019
3806 Clouds 14 1022 28 10000 3.6 190 14:38 20.11.2019
3807 Clear 14 1023 20 10000 2.1 270 14:19 20.11.2019
3808 Clouds 14 1022 24 10000 3.6 210 13:56 20.11.2019
3809 Clouds 14 1022 24 10000 3.6 210 13:37 20.11.2019
3810 Clouds 14 1022 26 10000 2.1 200 13:18 20.11.2019
3811 Clouds 13 1022 26 10000 1.5 210 12:40 20.11.2019
3812 Clear 13 1023 43 6000 2.1 260 12:22 20.11.2019
3813 Clouds 12 1023 35 10000 0.5 0 11:55 20.11.2019
3814 Clouds 12 1023 35 10000 0.5 0 11:37 20.11.2019
3815 Clear 11 1024 23 6000 0.5 0 11:18 20.11.2019
3816 Clouds 10 1024 37 10000 0.5 0 10:54 20.11.2019
3817 Clouds 9 1024 37 10000 0.5 0 10:36 20.11.2019
3818 Clouds 8 1024 42 10000 0.5 0 10:18 20.11.2019
3819 Clear 6 1025 45 8000 0.87 167 09:42 20.11.2019
3820 Clear 3 1025 60 7000 0.5 0 09:20 20.11.2019
3821 Clear 1 1025 69 6000 0.5 0 08:47 20.11.2019
3822 Clear 1 1025 69 6000 0.5 0 08:28 20.11.2019
3823 Clear 0 1026 40 6000 0.5 0 07:57 20.11.2019
3824 Clear 0 1026 40 6000 0.5 0 07:37 20.11.2019
3825 Clear -3 1026 79 6000 0.81 119 07:18 20.11.2019
3826 Clear -3 1026 79 8000 0.5 0 06:45 20.11.2019
3827 Clear -3 1026 85 6000 0.5 0 06:19 20.11.2019
3828 Clear -3 1025 85 6000 1 0 04:50 20.11.2019
3829 Clear -3 1025 85 6000 1 0 04:50 20.11.2019
3830 Clear -2 1025 79 10000 1 0 02:29 20.11.2019
3831 Fog -1 1025 100 500 0.2 34 01:38 20.11.2019
3832 Mist -1 1026 100 4000 0.2 34 00:58 20.11.2019
3833 Clouds -1 1025 79 7000 0.2 34 00:34 20.11.2019
3834 Clouds 0 1026 41 7000 0.2 34 23:43 19.11.2019
3835 Clouds 0 1026 69 6000 0.28 71 23:23 19.11.2019
3836 Clouds 0 1026 39 7000 0.28 71 22:56 19.11.2019
3837 Clouds 0 1026 39 7000 0.28 71 22:38 19.11.2019
3838 Clouds 1 1026 69 10000 1 0 22:18 19.11.2019
3839 Clouds 1 1026 64 10000 1 0 21:55 19.11.2019
3840 Clouds 2 1026 64 10000 1 0 21:36 19.11.2019
3841 Clouds 2 1026 69 10000 1 0 21:18 19.11.2019
3842 Clouds 2 1026 69 10000 1 0 20:55 19.11.2019
3843 Clouds 2 1026 69 10000 1 0 20:36 19.11.2019
3844 Clouds 3 1026 64 10000 0.5 0 20:18 19.11.2019
3845 Clouds 3 1026 60 10000 1 0 19:42 19.11.2019
3846 Clouds 4 1026 64 10000 1 0 19:20 19.11.2019
3847 Clouds 4 1026 48 10000 2.1 70 18:58 19.11.2019
3848 Clouds 5 1026 48 10000 2.1 70 18:40 19.11.2019
3849 Clouds 5 1026 56 10000 1.5 80 18:21 19.11.2019
3850 Clouds 6 1026 56 10000 1.5 80 17:58 19.11.2019
3851 Clouds 6 1025 49 10000 0.5 0 17:40 19.11.2019
3852 Clouds 7 1026 75 7000 0.59 272 17:20 19.11.2019
3853 Clouds 8 1026 75 7000 0.59 272 16:59 19.11.2019
3854 Clouds 9 1025 46 10000 2.6 160 16:40 19.11.2019
3855 Clouds 9 1025 46 10000 2.6 160 16:40 19.11.2019
3856 Clouds 9 1025 66 7000 0.5 0 16:20 19.11.2019
3857 Clouds 11 1025 43 10000 2.6 190 15:47 19.11.2019
3858 Clouds 11 1025 43 10000 2.6 190 15:47 19.11.2019
3859 Clouds 12 1025 37 10000 2.1 190 15:27 19.11.2019
3860 Clouds 13 1025 33 10000 2.6 190 14:58 19.11.2019
3861 Clouds 13 1025 33 10000 2.6 190 14:39 19.11.2019
3862 Clouds 13 1025 47 7000 1 0 14:21 19.11.2019
3863 Clouds 13 1025 26 10000 0.5 0 13:42 19.11.2019
3864 Clouds 13 1025 43 7000 2.6 270 13:21 19.11.2019
3865 Clear 13 1025 28 10000 0.9 310 12:57 19.11.2019
3866 Clear 13 1025 28 10000 0.9 310 12:39 19.11.2019
3867 Clear 11 1025 33 10000 0.9 310 12:20 19.11.2019
3868 Clear 11 1026 37 10000 0.9 310 11:55 19.11.2019
3869 Clear 11 1026 37 10000 0.9 310 11:36 19.11.2019
3870 Clear 10 1027 66 7000 2.6 280 11:18 19.11.2019
3871 Clear 9 1027 24 10000 0.49 318 10:44 19.11.2019
3872 Clear 8 1027 65 6000 2.1 290 10:21 19.11.2019
3873 Clear 5 1027 24 7000 0.49 318 09:43 19.11.2019
3874 Clear 4 1027 24 6000 0.49 318 09:21 19.11.2019
3875 Clear 2 1027 74 6000 0.49 318 08:58 19.11.2019
3876 Clear 2 1027 74 6000 0.49 318 08:39 19.11.2019
3877 Fog 2 1029 100 150 1.5 270 08:21 19.11.2019
3878 Clear 0 1028 86 6000 0.37 343 07:55 19.11.2019
3879 Clear 0 1028 86 6000 0.37 343 07:36 19.11.2019
3880 Fog 0 1028 100 400 2.1 260 07:18 19.11.2019
3881 Mist -1 1027 86 4600 0.37 343 06:42 19.11.2019
3882 Mist -1 1027 100 2300 0.37 343 06:18 19.11.2019
3883 Mist -1 1027 100 2300 0.37 343 06:18 19.11.2019
3884 Clear -1 1027 86 7000 0.33 325 05:18 19.11.2019
3885 Clear -1 1027 86 10000 0.33 325 03:39 19.11.2019
3886 Clear 0 1027 86 9000 0.5 0 03:19 19.11.2019
3887 Clear 0 1027 86 8000 0.5 330 02:47 19.11.2019
3888 Clear 0 1027 86 8000 0.5 0 01:48 19.11.2019
3889 Clear 2 1026 80 8000 0.42 282 00:48 19.11.2019
3890 Clear 1 1026 55 8000 0.42 282 00:19 19.11.2019
3891 Clear 2 1026 55 8000 0.42 282 23:40 18.11.2019
3892 Clear 2 1026 74 7000 0.65 272 23:19 18.11.2019
3893 Clear 2 1026 80 8000 0.65 272 22:46 18.11.2019
3894 Clear 2 1026 74 10000 0.5 0 22:24 18.11.2019
3895 Clear 3 1026 74 10000 0.5 0 21:57 18.11.2019
3896 Clear 3 1026 74 10000 0.5 0 21:57 18.11.2019
3897 Clear 3 1025 74 10000 0.5 0 21:39 18.11.2019
3898 Clear 3 1025 64 10000 0.5 0 21:21 18.11.2019
3899 Clear 4 1025 64 10000 0.5 0 20:57 18.11.2019
3900 Clear 4 1025 64 10000 0.5 10 20:39 18.11.2019
3901 Clear 5 1025 64 10000 1 0 20:18 18.11.2019
3902 Clear 5 1025 65 10000 1 0 19:56 18.11.2019
3903 Clear 5 1025 65 10000 1 0 19:38 18.11.2019
3904 Clear 6 1025 65 10000 0.68 290 19:19 18.11.2019
3905 Clear 7 1025 56 10000 0.68 290 18:56 18.11.2019
3906 Clear 7 1025 56 10000 0.68 290 18:38 18.11.2019
3907 Clear 7 1025 70 10000 0.68 290 18:19 18.11.2019
3908 Clear 8 1025 49 10000 1 0 17:55 18.11.2019
3909 Clear 8 1025 49 10000 1 0 17:36 18.11.2019
3910 Clear 9 1024 65 10000 1.5 200 17:18 18.11.2019
3911 Clear 10 1024 43 10000 0.5 210 16:42 18.11.2019
3912 Clear 13 1024 30 10000 1 180 16:23 18.11.2019
3913 Clear 14 1024 28 10000 1 0 15:56 18.11.2019
3914 Clear 14 1024 28 10000 1 0 15:56 18.11.2019
3915 Clear 14 1024 28 10000 1 0 15:38 18.11.2019
3916 Clear 16 1023 25 10000 1 0 15:20 18.11.2019
3917 Clear 16 1023 25 10000 0.86 245 14:43 18.11.2019
3918 Clear 16 1023 23 10000 1.63 277 14:24 18.11.2019
3919 Clear 16 1023 25 10000 0.5 0 13:57 18.11.2019
3920 Clear 16 1023 25 10000 0.5 0 13:39 18.11.2019
3921 Clear 16 1023 36 10000 1.5 340 13:21 18.11.2019
3922 Clear 15 1023 27 10000 0.5 0 12:40 18.11.2019
3923 Clear 15 1024 41 10000 1.5 320 12:20 18.11.2019
3924 Clear 14 1024 35 10000 0.5 0 11:55 18.11.2019
3925 Clear 14 1024 35 10000 0.5 0 11:37 18.11.2019
3926 Clear 13 1025 47 8000 1.5 0 11:19 18.11.2019
3927 Clear 12 1024 32 10000 1.1 254 10:42 18.11.2019
3928 Clouds 10 1025 32 10000 1 0 10:23 18.11.2019
3929 Clouds 9 1025 49 10000 1 0 09:56 18.11.2019
3930 Clouds 9 1025 49 10000 1 0 09:38 18.11.2019
3931 Clear 7 1025 32 10000 1 0 09:19 18.11.2019
3932 Clear 7 1025 32 10000 1 0 09:19 18.11.2019
3933 Clear 5 1025 69 10000 1 0 08:46 18.11.2019
3934 Clear 4 1025 80 6000 1 0 08:22 18.11.2019
3935 Clear 3 1026 86 6000 1 0 07:49 18.11.2019
3936 Clear 2 1026 86 6000 1 0 07:31 18.11.2019
3937 Mist 1 1025 54 3800 0.35 246 06:59 18.11.2019
3938 Clear 0 1025 86 10000 0.5 0 06:41 18.11.2019
3939 Fog -1 1025 92 1800 0.35 246 06:21 18.11.2019
3940 Clear 0 1024 79 10000 1 20 05:25 18.11.2019
3941 Clear 1 1024 86 10000 0.5 0 03:40 18.11.2019
3942 Clear 1 1024 86 10000 0.07 259 01:39 18.11.2019
3943 Clear 2 1024 80 10000 0.5 0 00:53 18.11.2019
3944 Clear 2 1024 58 10000 0.5 0 23:59 17.11.2019
3945 Clear 2 1024 58 10000 0.5 0 23:40 17.11.2019
3946 Clear 3 1024 74 10000 0.5 0 23:21 17.11.2019
3947 Clear 3 1024 74 10000 0.5 0 22:57 17.11.2019
3948 Clear 3 1024 74 10000 0.5 0 22:38 17.11.2019
3949 Clear 4 1024 74 10000 0.5 0 22:20 17.11.2019
3950 Clear 4 1024 74 10000 0.5 0 21:42 17.11.2019
3951 Clear 5 1024 56 10000 0.5 0 21:20 17.11.2019
3952 Clear 5 1024 56 10000 0.5 0 20:59 17.11.2019
3953 Clear 5 1024 56 10000 0.5 0 20:39 17.11.2019
3954 Clear 6 1024 75 10000 0.5 0 20:20 17.11.2019
3955 Clear 6 1024 70 10000 0.5 0 19:57 17.11.2019
3956 Clear 6 1024 70 10000 0.5 0 19:39 17.11.2019
3957 Clear 7 1024 65 10000 0.5 0 19:20 17.11.2019
3958 Clear 8 1024 65 10000 1.04 100 18:57 17.11.2019
3959 Clear 8 1024 65 10000 1.04 100 18:57 17.11.2019
3960 Clear 8 1024 65 10000 1.04 100 18:39 17.11.2019
3961 Clear 9 1024 51 10000 1.04 100 18:19 17.11.2019
3962 Clear 9 1024 51 10000 1.04 100 17:58 17.11.2019
3963 Clear 9 1024 51 10000 1.04 100 17:58 17.11.2019
3964 Clear 10 1023 51 10000 0.5 0 17:40 17.11.2019
3965 Clear 10 1023 61 10000 0.5 0 17:21 17.11.2019
3966 Clear 12 1023 45 10000 0.5 0 16:59 17.11.2019
3967 Clear 12 1023 45 10000 0.5 0 16:41 17.11.2019
3968 Clear 15 1023 33 10000 1.5 30 16:21 17.11.2019
3969 Clear 17 1023 33 10000 1.5 30 15:57 17.11.2019
3970 Clear 17 1023 45 10000 0.5 10 15:39 17.11.2019
3971 Clear 18 1022 29 10000 0.5 10 15:19 17.11.2019
3972 Clear 18 1022 29 10000 0.5 10 14:57 17.11.2019
3973 Clear 18 1023 45 10000 1.23 112 14:38 17.11.2019
3974 Clear 18 1023 29 10000 1.95 106 14:20 17.11.2019
3975 Clear 18 1023 29 10000 1.95 106 13:58 17.11.2019
3976 Clear 18 1023 29 10000 1.95 106 13:39 17.11.2019
3977 Clear 18 1023 30 10000 0.5 0 13:19 17.11.2019
3978 Clear 17 1023 30 10000 1 0 12:45 17.11.2019
3979 Clear 17 1023 33 10000 1.5 0 12:23 17.11.2019
3980 Clear 16 1023 30 10000 0.5 0 11:58 17.11.2019
3981 Clear 16 1023 30 10000 0.5 0 11:39 17.11.2019
3982 Clear 15 1024 36 10000 0.5 0 11:20 17.11.2019
3983 Clear 15 1024 38 10000 0.5 0 10:45 17.11.2019
3984 Clear 13 1024 41 10000 0.5 0 10:24 17.11.2019
3985 Clear 12 1025 50 10000 0.5 0 09:58 17.11.2019
3986 Clear 12 1025 50 10000 0.5 0 09:40 17.11.2019
3987 Clear 9 1025 61 10000 0.5 0 09:22 17.11.2019
3988 Clear 8 1025 75 10000 1.35 100 08:41 17.11.2019
3989 Clear 6 1025 75 8000 0.5 0 08:23 17.11.2019
3990 Clear 4 1025 61 7000 0.5 0 07:56 17.11.2019
3991 Clear 4 1025 61 7000 0.5 0 07:37 17.11.2019
3992 Clear 3 1025 86 6000 0.5 0 07:19 17.11.2019
3993 Clear 2 1025 80 6000 1.2 83 06:46 17.11.2019
3994 Clear 1 1025 61 8000 1 140 06:27 17.11.2019
3995 Clear 2 1024 77 10000 1.52 85 04:38 17.11.2019
3996 Clear 2 1024 77 10000 1.52 85 04:38 17.11.2019
3997 Clear 3 1024 86 9000 1.52 85 03:51 17.11.2019
3998 Clear 2 1024 86 9000 1.52 85 03:32 17.11.2019
3999 Clear 3 1024 77 9000 1.52 85 02:36 17.11.2019
4000 Clear 4 1024 68 9000 1.78 68 01:43 17.11.2019
4001 Clear 4 1024 86 10000 1.62 71 00:55 17.11.2019
4002 Clear 5 1024 93 10000 1.62 71 00:22 17.11.2019
4003 Clear 5 1024 80 10000 1.62 71 23:48 16.11.2019
4004 Clear 5 1024 86 10000 0.5 50 23:20 16.11.2019
4005 Clear 5 1024 86 10000 0.5 50 22:59 16.11.2019
4006 Clear 6 1024 80 10000 1.5 58 22:41 16.11.2019
4007 Clear 6 1024 93 10000 1 150 22:19 16.11.2019
4008 Clear 7 1024 80 10000 1.5 58 21:56 16.11.2019
4009 Clear 7 1024 80 10000 1.5 58 21:38 16.11.2019
4010 Clear 8 1024 75 10000 0.5 0 21:19 16.11.2019
4011 Clear 8 1024 75 10000 1.5 58 20:43 16.11.2019
4012 Clear 8 1024 81 10000 1 90 20:21 16.11.2019
4013 Clear 8 1024 81 10000 1 90 19:59 16.11.2019
4014 Clear 9 1024 70 10000 1 350 19:40 16.11.2019
4015 Clear 10 1024 61 10000 1.5 30 19:21 16.11.2019
4016 Clear 11 1023 61 10000 1 0 18:47 16.11.2019
4017 Clear 11 1023 53 10000 1.5 40 18:29 16.11.2019
4018 Clear 13 1023 54 10000 1.5 50 17:57 16.11.2019
4019 Clear 13 1023 54 10000 1.5 50 17:39 16.11.2019
4020 Clear 13 1023 47 10000 1.96 56 17:19 16.11.2019
4021 Clear 15 1023 44 10000 2.1 90 16:48 16.11.2019
4022 Clear 15 1023 41 10000 1.5 50 16:30 16.11.2019
4023 Clear 17 1023 41 10000 1.5 50 15:59 16.11.2019
4024 Clear 18 1023 38 10000 2.1 60 15:41 16.11.2019
4025 Clouds 19 1023 34 10000 3.1 90 15:21 16.11.2019
4026 Clouds 19 1023 34 10000 3.1 60 14:58 16.11.2019
4027 Clouds 19 1023 34 10000 3.1 60 14:39 16.11.2019
4028 Clouds 20 1022 32 10000 4.6 40 14:21 16.11.2019
4029 Clouds 20 1022 32 10000 5.1 60 13:55 16.11.2019
4030 Clouds 20 1022 32 10000 5.1 60 13:37 16.11.2019
4031 Clouds 19 1022 34 10000 4.1 70 13:18 16.11.2019
4032 Clouds 20 1022 34 10000 4.1 70 13:18 16.11.2019
4033 Clouds 19 1022 34 10000 4.6 80 12:42 16.11.2019
4034 Clouds 19 1023 40 10000 2.6 40 12:23 16.11.2019
4035 Clouds 18 1023 36 10000 4.6 80 11:56 16.11.2019
4036 Clouds 18 1023 36 10000 4.6 80 11:38 16.11.2019
4037 Clouds 18 1023 36 10000 4.6 80 11:38 16.11.2019
4038 Clouds 17 1024 59 10000 1 0 11:19 16.11.2019
4039 Clouds 16 1024 42 10000 5.7 60 10:43 16.11.2019
4040 Clouds 14 1024 71 6000 2.1 270 10:25 16.11.2019
4041 Clouds 13 1024 51 10000 4.1 20 09:58 16.11.2019
4042 Clouds 13 1024 51 10000 4.1 20 09:40 16.11.2019
4043 Clouds 11 1024 58 10000 4.1 40 09:19 16.11.2019
4044 Mist 10 1024 100 2000 2.13 74 08:41 16.11.2019
4045 Clouds 8 1024 93 10000 0.5 0 08:20 16.11.2019
4046 Clouds 8 1024 93 10000 0.5 0 08:20 16.11.2019
4047 Clouds 7 1024 100 7000 0.5 0 07:46 16.11.2019
4048 Fog 7 1024 100 800 1.09 58 07:22 16.11.2019
4049 Fog 7 1024 100 800 1.09 58 07:22 16.11.2019
4050 Mist 6 1024 93 2500 0.5 0 06:59 16.11.2019
4051 Mist 5 1024 93 2500 0.5 0 06:41 16.11.2019
4052 Fog 5 1024 100 300 0.5 60 06:19 16.11.2019
4053 Fog 7 1023 100 900 0.5 0 04:21 16.11.2019
4054 Mist 7 1024 93 3100 1 45 03:26 16.11.2019
4055 Mist 7 1024 93 3100 1 45 03:26 16.11.2019
4056 Mist 8 1023 100 2100 1 0 02:36 16.11.2019
4057 Fog 8 1023 100 1100 2.01 26 01:38 16.11.2019
4058 Fog 8 1023 100 1100 2.01 26 01:38 16.11.2019
4059 Fog 8 1023 93 1800 1.69 17 00:49 16.11.2019
4060 Mist 8 1022 93 4600 1.69 17 00:29 16.11.2019
4061 Mist 9 1022 93 2100 1.69 17 23:45 15.11.2019
4062 Mist 9 1022 87 2200 1.69 17 23:25 15.11.2019
4063 Mist 9 1022 87 2200 0.91 354 22:59 15.11.2019
4064 Clouds 9 1022 87 6000 0.91 354 22:40 15.11.2019
4065 Clouds 10 1022 87 6000 0.91 354 22:19 15.11.2019
4066 Clouds 10 1022 87 6000 0.91 354 21:56 15.11.2019
4067 Clouds 10 1022 87 6000 0.91 354 21:38 15.11.2019
4068 Clouds 10 1022 87 10000 1 0 21:19 15.11.2019
4069 Clouds 11 1022 87 10000 1 0 20:56 15.11.2019
4070 Clouds 11 1022 87 10000 1 0 20:38 15.11.2019
4071 Clouds 11 1021 87 10000 1 0 20:19 15.11.2019
4072 Clouds 11 1021 87 10000 1 0 19:57 15.11.2019
4073 Clouds 11 1021 81 10000 1 0 19:38 15.11.2019
4074 Clouds 12 1021 87 10000 1.5 60 19:19 15.11.2019
4075 Clouds 12 1021 87 10000 2.1 40 18:43 15.11.2019
4076 Rain 12 1021 81 10000 2.6 330 18:25 15.11.2019
4077 Rain 12 1022 81 10000 2.05 28 17:59 15.11.2019
4078 Rain 12 1022 81 10000 2.05 28 17:40 15.11.2019
4079 Rain 12 1022 81 10000 0.47 350 17:22 15.11.2019
4080 Rain 12 1022 93 10000 0.5 0 16:55 15.11.2019
4081 Rain 12 1022 93 10000 0.5 0 16:37 15.11.2019
4082 Clouds 13 1021 76 10000 0.47 350 16:18 15.11.2019
4083 Rain 14 1021 82 10000 1.5 260 15:38 15.11.2019
4084 Rain 14 1021 82 10000 1.5 260 15:38 15.11.2019
4085 Clouds 14 1021 71 10000 0.47 350 15:19 15.11.2019
4086 Clouds 14 1021 71 10000 0.47 350 14:56 15.11.2019
4087 Clouds 14 1021 71 10000 0.47 350 14:38 15.11.2019
4088 Clouds 14 1021 71 10000 2.1 10 14:19 15.11.2019
4089 Clouds 14 1021 71 10000 2.1 10 14:19 15.11.2019
4090 Clouds 14 1021 71 10000 2.1 10 13:57 15.11.2019
4091 Clouds 14 1021 76 10000 3.1 360 13:39 15.11.2019
4092 Rain 14 1021 76 10000 2.1 10 13:20 15.11.2019
4093 Rain 13 1021 81 8000 3.52 22 12:57 15.11.2019
4094 Rain 13 1021 81 8000 3.52 22 12:39 15.11.2019
4095 Clouds 13 1021 71 10000 3.1 80 12:19 15.11.2019
4096 Rain 13 1021 81 6000 3.52 22 11:56 15.11.2019
4097 Rain 13 1021 81 6000 3.52 22 11:37 15.11.2019
4098 Clouds 13 1021 71 10000 3.6 80 11:19 15.11.2019
4099 Clouds 13 1021 82 7000 1.5 240 10:40 15.11.2019
4100 Rain 12 1021 87 7000 1.29 242 10:22 15.11.2019
4101 Rain 12 1022 87 8000 1.5 280 09:58 15.11.2019
4102 Rain 12 1022 87 8000 1.5 280 09:40 15.11.2019
4103 Clouds 12 1022 87 10000 2.6 260 09:19 15.11.2019
4104 Rain 12 1022 87 10000 1.5 280 08:43 15.11.2019
4105 Rain 10 1021 87 6000 3.6 30 08:22 15.11.2019
4106 Clouds 10 1020 81 10000 2.1 360 07:47 15.11.2019
4107 Rain 10 1020 81 10000 2.1 360 07:28 15.11.2019
4108 Rain 10 1021 66 10000 1.5 110 06:38 15.11.2019
4109 Rain 10 1021 66 10000 1.5 110 06:38 15.11.2019
4110 Rain 9 1020 70 10000 2.1 240 05:59 15.11.2019
4111 Rain 9 1020 70 10000 2.1 240 05:39 15.11.2019
4112 Rain 10 1020 76 10000 2.6 200 05:20 15.11.2019
4113 Clouds 10 1019 60 10000 2.4 223 03:48 15.11.2019
4114 Clouds 10 1019 81 10000 2.4 223 02:52 15.11.2019
4115 Rain 10 1018 81 10000 0.5 0 02:18 15.11.2019
4116 Clouds 11 1018 38 10000 1 0 01:33 15.11.2019
4117 Clouds 11 1018 46 10000 0.5 0 00:49 15.11.2019
4118 Clouds 11 1017 57 10000 1.5 280 00:31 15.11.2019
4119 Clouds 11 1018 46 10000 2.1 130 23:50 14.11.2019
4120 Clouds 12 1017 50 10000 0.5 0 23:28 14.11.2019
4121 Clouds 12 1017 43 10000 2.1 360 22:58 14.11.2019
4122 Clouds 12 1017 43 10000 2.1 360 22:39 14.11.2019
4123 Clouds 12 1017 46 10000 2.6 360 22:20 14.11.2019
4124 Clouds 12 1017 43 10000 2.6 60 21:55 14.11.2019
4125 Clouds 12 1017 43 10000 2.6 60 21:36 14.11.2019
4126 Clouds 12 1017 47 10000 1 0 21:18 14.11.2019
4127 Clouds 12 1017 43 10000 2.1 50 20:41 14.11.2019
4128 Clouds 12 1017 32 10000 1.5 90 20:22 14.11.2019
4129 Clouds 13 1016 40 10000 0.5 0 19:58 14.11.2019
4130 Clouds 13 1016 40 10000 0.5 0 19:40 14.11.2019
4131 Clouds 13 1016 32 10000 4.1 240 19:18 14.11.2019
4132 Clouds 13 1016 34 10000 4.02 95 18:54 14.11.2019
4133 Clouds 14 1016 32 10000 1.5 330 18:36 14.11.2019
4134 Clouds 15 1016 32 10000 1.5 330 18:18 14.11.2019
4135 Clouds 15 1015 31 10000 2.1 120 17:39 14.11.2019
4136 Clouds 15 1015 31 10000 2.1 120 17:20 14.11.2019
4137 Clouds 16 1016 30 10000 3.85 107 16:58 14.11.2019
4138 Clouds 16 1016 30 10000 3.85 107 16:39 14.11.2019
4139 Clouds 17 1015 32 10000 3.6 130 16:20 14.11.2019
4140 Clouds 17 1015 32 10000 3.6 130 16:20 14.11.2019
4141 Clouds 18 1016 27 10000 1.5 120 15:58 14.11.2019
4142 Clouds 18 1016 27 10000 1.5 120 15:39 14.11.2019
4143 Clouds 19 1015 27 10000 2.6 140 15:20 14.11.2019
4144 Clouds 19 1015 27 10000 2.6 140 14:58 14.11.2019
4145 Clouds 19 1015 24 10000 4.6 150 14:40 14.11.2019
4146 Clouds 20 1015 24 10000 5.1 170 14:22 14.11.2019
4147 Clouds 20 1015 22 10000 5.1 160 13:55 14.11.2019
4148 Clouds 21 1015 22 10000 5.1 160 13:36 14.11.2019
4149 Clouds 21 1015 19 10000 2.6 180 13:18 14.11.2019
4150 Clouds 20 1015 19 10000 1 0 12:44 14.11.2019
4151 Clouds 20 1015 21 10000 3.1 150 12:24 14.11.2019
4152 Clouds 19 1015 20 10000 0.5 0 11:56 14.11.2019
4153 Clouds 19 1015 20 10000 0.5 0 11:38 14.11.2019
4154 Clouds 18 1016 22 10000 4.91 152 11:19 14.11.2019
4155 Clouds 17 1016 27 10000 0.5 0 10:57 14.11.2019
4156 Clouds 17 1016 27 10000 0.5 0 10:37 14.11.2019
4157 Clouds 16 1016 27 10000 3.1 90 10:19 14.11.2019
4158 Clouds 14 1017 35 10000 0.5 0 09:54 14.11.2019
4159 Clouds 14 1017 35 10000 0.5 0 09:36 14.11.2019
4160 Clouds 9 1017 45 10000 4.91 152 09:18 14.11.2019
4161 Clouds 9 1017 45 10000 4.91 152 08:41 14.11.2019
4162 Clouds 6 1017 52 10000 2.54 95 08:23 14.11.2019
4163 Clouds 5 1017 56 10000 2.54 95 07:42 14.11.2019
4164 Clouds 4 1017 80 10000 0.5 0 07:24 14.11.2019
4165 Clouds 3 1017 64 10000 0.5 0 06:46 14.11.2019
4166 Clouds 3 1017 64 10000 0.5 0 06:21 14.11.2019
4167 Clouds 3 1016 69 10000 0.5 250 05:40 14.11.2019
4168 Clouds 2 1016 69 10000 0.5 0 04:38 14.11.2019
4169 Clouds 3 1016 64 10000 1 0 03:28 14.11.2019
4170 Clouds 2 1016 64 10000 0.5 0 02:38 14.11.2019
4171 Clouds 2 1016 69 10000 1 0 01:41 14.11.2019
4172 Clouds 3 1017 59 10000 0.5 0 00:57 14.11.2019
4173 Clouds 3 1017 59 10000 0.5 0 00:38 14.11.2019
4174 Clouds 3 1017 75 10000 1 220 00:19 14.11.2019
4175 Clouds 3 1017 59 10000 0.5 0 23:38 13.11.2019
4176 Clouds 4 1017 64 10000 0.5 0 23:20 13.11.2019
4177 Clouds 4 1017 60 10000 0.5 0 22:55 13.11.2019
4178 Clouds 4 1017 60 10000 0.5 0 22:37 13.11.2019
4179 Clouds 7 1018 55 10000 0.5 0 22:19 13.11.2019
4180 Clouds 7 1018 52 10000 2.04 82 21:55 13.11.2019
4181 Clouds 7 1018 52 10000 2.04 82 21:36 13.11.2019
4182 Clouds 8 1018 56 10000 2.04 82 21:18 13.11.2019
4183 Clouds 8 1018 56 10000 2.04 82 20:54 13.11.2019
4184 Clouds 8 1018 56 10000 2.04 82 20:36 13.11.2019
4185 Clouds 9 1018 52 10000 1.86 88 20:18 13.11.2019
4186 Clouds 9 1018 48 10000 1.86 88 19:42 13.11.2019
4187 Clouds 10 1018 45 10000 1.86 88 19:19 13.11.2019
4188 Clouds 10 1018 45 10000 1.86 88 18:56 13.11.2019
4189 Clouds 11 1018 42 10000 0.5 0 18:38 13.11.2019
4190 Clouds 11 1018 42 10000 0.5 0 18:19 13.11.2019
4191 Clouds 12 1018 34 10000 2.6 40 17:57 13.11.2019
4192 Clouds 12 1018 34 10000 2.6 40 17:38 13.11.2019
4193 Clouds 14 1018 40 10000 3.1 20 17:19 13.11.2019
4194 Clouds 14 1018 37 10000 3.1 30 16:57 13.11.2019
4195 Clouds 15 1018 37 10000 3.1 30 16:39 13.11.2019
4196 Clouds 16 1018 33 10000 2.6 70 16:21 13.11.2019
4197 Clouds 17 1017 29 10000 1 0 15:57 13.11.2019
4198 Clouds 18 1017 29 10000 1 0 15:38 13.11.2019
4199 Clouds 17 1017 34 10000 1.5 310 15:19 13.11.2019
4200 Clouds 19 1018 25 10000 3.6 40 14:42 13.11.2019
4201 Clouds 20 1017 21 10000 1 80 14:21 13.11.2019
4202 Clouds 20 1018 24 10000 3.1 10 13:57 13.11.2019
4203 Clouds 19 1018 20 10000 2.1 340 13:36 13.11.2019
4204 Clouds 20 1018 20 10000 2.1 340 13:18 13.11.2019
4205 Clouds 21 1018 20 10000 1 0 12:43 13.11.2019
4206 Clouds 19 1018 24 10000 1 0 12:25 13.11.2019
4207 Clouds 19 1018 24 10000 1 0 11:59 13.11.2019
4208 Clouds 19 1018 24 10000 1 0 11:38 13.11.2019
4209 Clouds 17 1019 27 10000 0.5 0 11:19 13.11.2019
4210 Clouds 17 1019 29 10000 1 0 10:57 13.11.2019
4211 Clouds 17 1019 29 10000 1 0 10:39 13.11.2019
4212 Clouds 15 1020 33 10000 1.5 10 10:19 13.11.2019
4213 Clouds 14 1020 35 10000 0.5 0 09:43 13.11.2019
4214 Clouds 13 1020 47 10000 2.12 96 09:21 13.11.2019
4215 Clouds 13 1020 47 10000 2.12 96 09:21 13.11.2019
4216 Clouds 13 1020 47 10000 2.12 96 09:21 13.11.2019
4217 Clouds 13 1020 47 10000 2.12 96 09:21 13.11.2019
4218 Clouds 11 1021 46 10000 2.12 96 08:46 13.11.2019
4219 Clouds 11 1021 46 10000 1.38 97 08:28 13.11.2019
4220 Clear 7 1021 56 10000 0.5 0 07:59 13.11.2019
4221 Clear 6 1021 64 10000 0.5 0 07:41 13.11.2019
4222 Clear 5 1021 45 10000 1.59 94 07:20 13.11.2019
4223 Clear 2 1021 74 10000 1 0 06:43 13.11.2019
4224 Clear 2 1021 45 10000 1.59 94 06:19 13.11.2019
4225 Clear 2 1021 45 10000 1.59 94 06:19 13.11.2019
4226 Clear 2 1021 45 10000 1.59 94 06:19 13.11.2019
4227 Clear 2 1021 45 10000 1.59 94 06:19 13.11.2019
4228 Clear 2 1021 45 10000 1.59 94 06:19 13.11.2019
4229 Clear 2 1021 45 10000 1.59 94 05:51 13.11.2019
4230 Clear 2 1021 45 10000 1.59 94 05:30 13.11.2019
4231 Clear 3 1021 53 10000 1.55 81 04:20 13.11.2019
4232 Clear 4 1022 80 10000 1.62 83 01:58 13.11.2019
4233 Clear 4 1022 80 10000 1.62 83 01:40 13.11.2019
4234 Clear 5 1022 69 10000 1.64 82 00:43 13.11.2019
4235 Clear 6 1022 69 10000 1.64 82 23:59 12.11.2019
4236 Clear 6 1022 69 10000 1.64 82 23:41 12.11.2019
4237 Clear 6 1022 64 10000 1.51 80 23:21 12.11.2019
4238 Clear 6 1022 69 10000 1.51 80 22:43 12.11.2019
4239 Clear 7 1022 64 10000 0.5 0 22:20 12.11.2019
4240 Clear 7 1022 60 10000 1.51 80 21:58 12.11.2019
4241 Clear 7 1022 60 10000 1.51 80 21:40 12.11.2019
4242 Clear 8 1022 56 10000 1.51 80 21:22 12.11.2019
4243 Clear 8 1022 56 10000 1.51 80 20:56 12.11.2019
4244 Clear 8 1022 56 10000 1.51 80 20:37 12.11.2019
4245 Clear 8 1022 56 10000 1.54 80 20:37 12.11.2019
4246 Clouds 9 1022 52 10000 2.08 91 20:18 12.11.2019
4247 Clouds 9 1022 49 10000 2.08 91 19:57 12.11.2019
4248 Clouds 10 1022 49 10000 2.08 91 19:38 12.11.2019
4249 Clouds 10 1022 46 10000 0.5 0 19:19 12.11.2019
4250 Clouds 10 1022 43 10000 2.6 360 18:57 12.11.2019
4251 Clouds 11 1022 43 10000 2.6 360 18:39 12.11.2019
4252 Clouds 12 1022 44 10000 3.1 30 18:21 12.11.2019
4253 Clouds 13 1021 44 10000 4.6 30 17:56 12.11.2019
4254 Clouds 13 1021 44 10000 4.6 30 17:37 12.11.2019
4255 Clouds 14 1021 36 10000 3.1 20 17:19 12.11.2019
4256 Clouds 15 1021 35 10000 0.5 0 16:44 12.11.2019
4257 Clouds 20 1021 36 10000 1 0 16:25 12.11.2019
4258 Clouds 20 1021 36 10000 0.5 0 15:57 12.11.2019
4259 Clouds 20 1021 36 10000 0.5 0 15:57 12.11.2019
4260 Clouds 20 1021 36 10000 0.5 0 15:39 12.11.2019
4261 Clouds 21 1021 36 10000 3.6 20 15:20 12.11.2019
4262 Clouds 21 1021 24 10000 0.5 0 14:55 12.11.2019
4263 Clouds 21 1021 24 10000 0.5 0 14:36 12.11.2019
4264 Clouds 21 1021 22 10000 0.5 0 14:18 12.11.2019
4265 Clouds 21 1021 27 10000 0.5 0 13:54 12.11.2019
4266 Clouds 21 1021 27 10000 0.5 0 13:36 12.11.2019
4267 Clear 21 1022 22 10000 0.5 0 13:18 12.11.2019
4268 Clear 21 1022 22 10000 1 0 12:39 12.11.2019
4269 Clear 20 1022 24 10000 1 0 12:18 12.11.2019
4270 Clear 19 1022 24 10000 0.5 0 11:54 12.11.2019
4271 Clear 19 1022 24 10000 0.5 0 11:36 12.11.2019
4272 Clear 19 1022 30 10000 2.07 105 11:18 12.11.2019
4273 Clear 17 1023 30 10000 2.36 104 10:55 12.11.2019
4274 Clear 17 1023 30 10000 2.07 105 10:36 12.11.2019
4275 Clear 17 1023 30 10000 2.07 105 10:36 12.11.2019
4276 Clear 16 1023 36 10000 1 0 10:18 12.11.2019
4277 Clear 14 1024 30 10000 2.36 104 09:39 12.11.2019
4278 Clear 13 1023 47 8000 2.07 105 09:19 12.11.2019
4279 Clear 10 1024 30 10000 0.5 0 08:49 12.11.2019
4280 Clear 9 1024 30 10000 2.07 105 08:29 12.11.2019
4281 Clear 6 1024 42 10000 1.85 88 07:42 12.11.2019
4282 Clear 4 1024 80 10000 0.5 0 07:24 12.11.2019
4283 Clear 3 1024 74 10000 1 0 06:53 12.11.2019
4284 Clear 3 1024 74 10000 1 0 06:26 12.11.2019
4285 Clear 2 1024 42 10000 1 0 05:53 12.11.2019
4286 Clear 3 1023 74 10000 1 0 04:56 12.11.2019
4287 Clear 3 1023 80 10000 1.88 80 04:20 12.11.2019
4288 Clear 4 1023 74 10000 1.88 80 02:39 12.11.2019
4289 Clouds 4 1023 74 10000 2.04 86 01:27 12.11.2019
4290 Clouds 5 1023 69 10000 2.19 91 00:55 12.11.2019
4291 Clouds 5 1023 69 10000 2.19 91 00:37 12.11.2019
4292 Clouds 6 1023 69 10000 2.19 91 23:55 11.11.2019
4293 Clouds 6 1023 69 10000 2.19 91 23:37 11.11.2019
4294 Clouds 7 1022 60 10000 0.5 0 23:18 11.11.2019
4295 Clouds 7 1023 65 10000 1.98 70 22:39 11.11.2019
4296 Clouds 8 1022 69 10000 0.5 320 22:20 11.11.2019
4297 Clouds 9 1022 46 10000 1 0 21:58 11.11.2019
4298 Clouds 9 1022 46 10000 1 0 21:39 11.11.2019
4299 Clouds 9 1023 46 10000 1.98 70 21:20 11.11.2019
4300 Clouds 9 1023 46 10000 1.98 70 21:20 11.11.2019
4301 Clouds 9 1023 46 10000 1.98 70 21:20 11.11.2019
4302 Clouds 9 1023 46 10000 1 0 20:56 11.11.2019
4303 Clouds 9 1023 46 10000 1 0 20:37 11.11.2019
4304 Clouds 9 1023 43 10000 2.1 93 20:19 11.11.2019
4305 Clouds 9 1022 43 10000 1 0 19:42 11.11.2019
4306 Clouds 10 1022 43 10000 1.5 30 19:20 11.11.2019
4307 Clouds 11 1022 43 10000 1.5 30 18:59 11.11.2019
4308 Clouds 11 1022 43 10000 2.1 30 18:40 11.11.2019
4309 Clouds 12 1022 43 10000 1.5 30 18:21 11.11.2019
4310 Clouds 12 1022 46 10000 2.1 93 17:45 11.11.2019
4311 Clouds 13 1021 47 10000 2.1 93 17:27 11.11.2019
4312 Clouds 13 1021 47 10000 2.1 93 17:27 11.11.2019
4313 Clouds 15 1021 41 10000 1 0 16:58 11.11.2019
4314 Clouds 15 1021 41 10000 1 0 16:38 11.11.2019
4315 Clouds 19 1021 33 10000 3.1 30 16:20 11.11.2019
4316 Clouds 20 1020 28 10000 1 50 15:41 11.11.2019
4317 Clouds 21 1021 22 10000 1.5 50 15:20 11.11.2019
4318 Clouds 21 1021 22 10000 1.5 50 14:55 11.11.2019
4319 Clouds 21 1020 26 10000 1 0 14:37 11.11.2019
4320 Clouds 21 1021 22 10000 0.5 0 14:19 11.11.2019
4321 Clouds 21 1021 22 10000 0.5 0 13:54 11.11.2019
4322 Clouds 21 1021 22 10000 0.5 0 13:36 11.11.2019
4323 Clouds 20 1021 22 10000 2.08 141 13:18 11.11.2019
4324 Clouds 20 1021 22 10000 2.08 141 12:54 11.11.2019
4325 Clouds 20 1021 22 10000 2.08 141 12:36 11.11.2019
4326 Clouds 19 1022 24 10000 2.08 141 12:18 11.11.2019
4327 Clouds 19 1022 25 10000 0.5 0 11:41 11.11.2019
4328 Clouds 18 1022 25 10000 0.5 0 11:21 11.11.2019
4329 Clear 16 1023 34 10000 1 0 10:44 11.11.2019
4330 Clouds 14 1023 29 10000 0.5 0 10:19 11.11.2019
4331 Clouds 14 1023 29 10000 0.5 0 09:58 11.11.2019
4332 Clear 13 1024 44 10000 2.2 120 09:40 11.11.2019
4333 Clear 10 1024 49 10000 2.2 120 09:19 11.11.2019
4334 Clear 8 1024 61 10000 2.2 120 08:42 11.11.2019
4335 Clear 6 1024 60 10000 0.5 0 08:22 11.11.2019
4336 Clear 6 1024 65 10000 1.53 102 07:57 11.11.2019
4337 Clear 6 1024 65 10000 1.53 102 07:38 11.11.2019
4338 Clear 3 1024 69 10000 1.53 102 07:19 11.11.2019
4339 Clear 3 1024 74 10000 1 0 06:49 11.11.2019
4340 Clear 3 1024 74 10000 1 0 06:49 11.11.2019
4341 Clear 2 1024 74 10000 0.5 40 06:24 11.11.2019
4342 Clear 2 1024 43 10000 1.53 102 05:52 11.11.2019
4343 Clear 3 1023 80 10000 1.24 97 04:50 11.11.2019
4344 Clear 3 1023 50 10000 0.5 0 03:25 11.11.2019
4345 Clear 4 1023 50 10000 1 50 02:30 11.11.2019
4346 Clouds 4 1023 69 10000 1 0 01:57 11.11.2019
4347 Clouds 4 1022 80 10000 1 210 01:36 11.11.2019
4348 Clouds 5 1022 69 10000 0.5 0 00:53 11.11.2019
4349 Clouds 5 1022 69 10000 0.5 0 00:29 11.11.2019
4350 Clouds 5 1022 69 10000 0.5 0 23:57 10.11.2019
4351 Clouds 5 1022 69 10000 0.5 0 23:37 10.11.2019
4352 Clouds 6 1022 65 10000 0.5 0 23:19 10.11.2019
4353 Clouds 6 1021 70 10000 1 200 22:55 10.11.2019
4354 Clouds 6 1021 70 10000 1 200 22:36 10.11.2019
4355 Clouds 7 1022 56 10000 0.5 0 22:18 10.11.2019
4356 Clouds 7 1022 56 10000 0.5 0 21:54 10.11.2019
4357 Clouds 8 1022 56 10000 0.5 0 21:36 10.11.2019
4358 Clouds 8 1022 56 10000 0.5 0 21:18 10.11.2019
4359 Clouds 7 1021 61 10000 0.5 0 20:40 10.11.2019
4360 Clear 10 1021 52 10000 1 0 20:21 10.11.2019
4361 Clear 10 1021 52 10000 1 0 19:56 10.11.2019
4362 Clear 11 1021 50 10000 0.5 0 19:37 10.11.2019
4363 Clear 11 1021 46 10000 1 0 19:18 10.11.2019
4364 Clear 11 1021 46 10000 1 0 18:56 10.11.2019
4365 Clear 11 1021 46 10000 1 0 18:56 10.11.2019
4366 Clear 11 1021 46 10000 1 0 18:38 10.11.2019
4367 Clear 13 1021 43 10000 0.5 0 18:19 10.11.2019
4368 Clear 13 1020 37 10000 1.84 125 17:56 10.11.2019
4369 Clear 13 1020 37 10000 1.84 125 17:37 10.11.2019
4370 Clear 13 1020 37 10000 1.84 125 17:37 10.11.2019
4371 Clear 14 1020 41 10000 0.5 0 17:19 10.11.2019
4372 Clear 16 1019 31 10000 0.5 0 16:56 10.11.2019
4373 Clear 16 1019 31 10000 0.5 0 16:37 10.11.2019
4374 Clear 16 1019 31 10000 0.5 0 16:37 10.11.2019
4375 Clear 19 1019 27 10000 2.6 140 16:19 10.11.2019
4376 Clear 20 1019 26 10000 2.6 170 15:54 10.11.2019
4377 Clear 20 1019 26 10000 2.6 170 15:36 10.11.2019
4378 Clear 21 1019 22 10000 3.1 210 15:18 10.11.2019
4379 Clear 21 1019 22 10000 3.1 210 14:40 10.11.2019
4380 Clear 21 1019 19 10000 4.1 200 14:22 10.11.2019
4381 Clear 21 1019 19 10000 4.1 200 13:57 10.11.2019
4382 Clear 21 1019 19 10000 4.1 200 13:39 10.11.2019
4383 Clear 20 1020 22 10000 2.1 190 13:19 10.11.2019
4384 Clear 21 1019 25 10000 1.5 200 12:42 10.11.2019
4385 Clear 19 1020 22 10000 3.1 200 12:20 10.11.2019
4386 Clear 19 1020 22 10000 3.1 200 12:20 10.11.2019
4387 Clear 19 1020 22 10000 3.1 200 11:57 10.11.2019
4388 Clear 19 1020 24 10000 1 0 11:38 10.11.2019
4389 Clear 18 1020 27 10000 1 0 11:20 10.11.2019
4390 Clear 18 1020 27 10000 1 0 11:20 10.11.2019
4391 Clear 17 1021 33 10000 2.63 155 10:56 10.11.2019
4392 Clear 16 1021 33 10000 2.63 155 10:38 10.11.2019
4393 Clear 16 1021 33 10000 2.63 155 10:38 10.11.2019
4394 Clear 14 1021 29 10000 0.5 0 10:19 10.11.2019
4395 Clear 14 1022 44 10000 2.63 155 09:42 10.11.2019
4396 Clear 10 1022 49 10000 0.5 0 09:22 10.11.2019
4397 Clear 8 1022 61 10000 0.5 0 08:40 10.11.2019
4398 Clear 6 1022 52 10000 1.78 102 08:21 10.11.2019
4399 Clear 6 1022 52 10000 1.83 99 07:58 10.11.2019
4400 Clear 5 1022 86 10000 1.83 99 07:38 10.11.2019
4401 Clear 2 1022 74 10000 0.5 0 07:18 10.11.2019
4402 Clear 5 1022 43 10000 0.5 0 06:25 10.11.2019
4403 Clear 2 1021 86 10000 1.79 95 04:46 10.11.2019
4404 Clear 3 1021 74 10000 1.79 95 02:59 10.11.2019
4405 Clear 4 1021 80 10000 1.41 94 01:43 10.11.2019
4406 Clear 4 1022 64 10000 0.5 0 01:19 10.11.2019
4407 Clear 5 1022 64 10000 0.5 0 00:39 10.11.2019
4408 Clear 5 1022 64 10000 1.3 94 23:43 09.11.2019
4409 Clear 6 1022 64 10000 1.33 99 23:20 09.11.2019
4410 Clear 6 1022 70 10000 1.33 99 22:55 09.11.2019
4411 Clear 6 1022 70 10000 1.33 99 22:37 09.11.2019
4412 Clear 7 1022 56 10000 0.5 0 22:18 09.11.2019
4413 Clear 7 1022 56 10000 0.5 0 21:55 09.11.2019
4414 Clear 7 1022 56 10000 0.5 0 21:37 09.11.2019
4415 Clear 8 1022 56 10000 1.33 99 21:19 09.11.2019
4416 Clear 8 1022 65 10000 1 230 20:41 09.11.2019
4417 Clear 9 1022 45 10000 1.57 113 20:22 09.11.2019
4418 Clear 9 1022 45 10000 1.5 116 19:57 09.11.2019
4419 Clear 9 1022 45 10000 1.5 116 19:37 09.11.2019
4420 Clear 11 1022 43 10000 1 0 19:18 09.11.2019
4421 Clear 11 1022 43 10000 1 0 18:40 09.11.2019
4422 Clear 12 1022 43 10000 0.5 0 18:19 09.11.2019
4423 Clear 12 1022 43 10000 0.5 0 18:19 09.11.2019
4424 Clear 13 1022 33 10000 2.6 40 17:58 09.11.2019
4425 Clear 13 1022 33 10000 2.6 40 17:40 09.11.2019
4426 Clear 15 1022 33 10000 1 0 17:21 09.11.2019
4427 Clear 16 1020 33 10000 2.3 108 16:42 09.11.2019
4428 Clear 20 1021 22 10000 0.5 0 16:21 09.11.2019
4429 Clear 21 1021 22 10000 0.5 0 15:55 09.11.2019
4430 Clear 21 1020 34 10000 1.5 290 15:55 09.11.2019
4431 Clear 21 1020 34 10000 1.5 290 15:37 09.11.2019
4432 Clear 21 1021 19 10000 0.5 0 15:19 09.11.2019
4433 Clear 22 1021 19 10000 0.5 0 14:41 09.11.2019
4434 Clear 21 1021 19 10000 1.5 0 14:21 09.11.2019
4435 Clear 21 1021 19 10000 1.5 0 13:57 09.11.2019
4436 Clear 22 1021 26 10000 0.5 0 13:37 09.11.2019
4437 Clear 21 1021 21 10000 1 0 13:18 09.11.2019
4438 Clear 21 1021 21 10000 1 0 12:47 09.11.2019
4439 Clear 21 1021 21 10000 1 0 12:29 09.11.2019
4440 Clear 19 1021 24 10000 1 0 11:57 09.11.2019
4441 Clear 19 1022 24 10000 0.5 0 11:38 09.11.2019
4442 Clear 18 1022 26 10000 0.5 0 11:19 09.11.2019
4443 Clear 17 1022 31 10000 0.5 0 10:41 09.11.2019
4444 Clear 16 1023 41 10000 1.5 270 10:20 09.11.2019
4445 Clear 14 1023 41 10000 1 0 09:59 09.11.2019
4446 Clear 14 1023 41 10000 1 0 09:59 09.11.2019
4447 Clear 14 1023 41 10000 1 0 09:40 09.11.2019
4448 Clear 12 1023 50 10000 1 0 09:19 09.11.2019
4449 Clear 11 1023 53 10000 0.5 0 08:43 09.11.2019
4450 Clear 7 1024 61 10000 0.5 0 08:24 09.11.2019
4451 Clear 7 1024 75 10000 0.5 280 07:49 09.11.2019
4452 Clear 5 1023 80 10000 1 100 07:25 09.11.2019
4453 Clear 5 1023 80 10000 1 100 06:57 09.11.2019
4454 Clear 3 1023 80 10000 1.5 50 06:39 09.11.2019
4455 Clear 3 1023 80 10000 1 100 06:20 09.11.2019
4456 Clear 3 1023 80 10000 1 100 05:38 09.11.2019
4457 Clear 4 1022 74 10000 0.82 103 03:57 09.11.2019
4458 Clear 4 1022 80 10000 0.5 0 03:57 09.11.2019
4459 Clear 4 1022 80 10000 0.82 103 02:46 09.11.2019
4460 Clear 4 1022 93 10000 0.88 98 02:24 09.11.2019
4461 Clear 5 1022 80 10000 0.79 94 01:18 09.11.2019
4462 Clear 5 1022 47 10000 0.79 94 00:39 09.11.2019
4463 Clear 6 1022 47 10000 0.79 94 00:21 09.11.2019
4464 Clear 6 1022 47 10000 0.79 94 23:40 08.11.2019
4465 Clear 7 1021 43 10000 1.23 111 23:22 08.11.2019
4466 Clear 7 1021 43 10000 1.23 111 22:54 08.11.2019
4467 Clear 8 1021 75 10000 1.23 111 22:22 08.11.2019
4468 Clear 8 1021 61 10000 1.23 111 21:59 08.11.2019
4469 Clear 8 1021 61 10000 1.23 111 21:41 08.11.2019
4470 Clear 9 1021 65 10000 1.23 111 21:22 08.11.2019
4471 Clear 8 1021 57 10000 1.23 111 20:57 08.11.2019
4472 Clear 9 1021 57 10000 1.36 105 20:38 08.11.2019
4473 Clear 9 1020 57 10000 1 128 20:18 08.11.2019
4474 Clear 11 1021 42 10000 2.1 30 19:40 08.11.2019
4475 Clear 12 1020 50 10000 2.1 10 19:19 08.11.2019
4476 Clear 12 1020 42 10000 3.1 60 18:57 08.11.2019
4477 Clear 12 1020 42 10000 3.1 60 18:57 08.11.2019
4478 Clear 12 1020 42 10000 3.1 60 18:39 08.11.2019
4479 Clear 12 1020 46 10000 1 0 18:20 08.11.2019
4480 Clear 12 1020 41 10000 0.5 0 17:56 08.11.2019
4481 Clear 12 1020 41 10000 0.5 0 17:38 08.11.2019
4482 Clear 16 1020 34 10000 0.5 0 17:20 08.11.2019
4483 Clear 17 1019 34 10000 1 0 16:58 08.11.2019
4484 Clear 17 1019 34 10000 1 0 16:40 08.11.2019
4485 Clear 20 1019 27 10000 2.58 150 16:20 08.11.2019
4486 Clear 20 1019 27 10000 2.58 150 15:59 08.11.2019
4487 Clear 20 1019 24 10000 0.5 0 15:40 08.11.2019
4488 Clear 21 1019 22 10000 1 240 15:22 08.11.2019
4489 Clouds 21 1019 22 10000 3.6 220 14:56 08.11.2019
4490 Clouds 21 1019 22 10000 3.6 220 14:37 08.11.2019
4491 Clouds 21 1019 22 10000 3.6 220 14:37 08.11.2019
4492 Clouds 22 1019 22 10000 2.1 200 14:19 08.11.2019
4493 Clouds 22 1019 22 10000 2.1 200 13:58 08.11.2019
4494 Clouds 22 1019 22 10000 2.1 200 13:58 08.11.2019
4495 Clouds 22 1019 21 10000 4.1 190 13:39 08.11.2019
4496 Clouds 21 1019 22 10000 5.1 210 13:20 08.11.2019
4497 Clouds 21 1019 26 10000 1.5 0 12:44 08.11.2019
4498 Clouds 20 1019 30 10000 1.5 0 12:26 08.11.2019
4499 Clouds 20 1019 32 10000 1.5 290 11:57 08.11.2019
4500 Clouds 20 1019 32 10000 1.5 290 11:39 08.11.2019
4501 Clear 19 1019 30 10000 0.5 0 11:20 08.11.2019
4502 Clear 18 1019 30 10000 0.5 0 10:57 08.11.2019
4503 Clouds 17 1020 33 10000 1 0 10:39 08.11.2019
4504 Clouds 15 1020 38 10000 1 0 10:21 08.11.2019
4505 Clouds 13 1020 47 10000 0.5 0 09:55 08.11.2019
4506 Clouds 13 1020 47 10000 0.5 0 09:36 08.11.2019
4507 Clear 11 1020 47 10000 0.5 0 09:18 08.11.2019
4508 Clear 9 1021 57 10000 0.5 0 08:38 08.11.2019
4509 Clouds 6 1021 70 10000 0.5 0 08:19 08.11.2019
4510 Clouds 5 1021 75 10000 2 100 07:41 08.11.2019
4511 Clouds 3 1021 49 10000 0.5 0 07:23 08.11.2019
4512 Clouds 1 1021 80 10000 0.5 0 06:43 08.11.2019
4513 Clouds 1 1021 93 7000 2 100 06:25 08.11.2019
4514 Clouds 1 1020 80 10000 0.5 0 05:57 08.11.2019
4515 Clouds 1 1020 86 10000 2 100 05:25 08.11.2019
4516 Clouds 2 1020 80 10000 1 0 04:18 08.11.2019
4517 Clouds 2 1020 86 10000 1 0 03:41 08.11.2019
4518 Clouds 2 1020 80 10000 1 0 02:54 08.11.2019
4519 Clouds 3 1020 80 10000 1.07 90 01:49 08.11.2019
4520 Clouds 3 1020 80 10000 1.07 90 01:31 08.11.2019
4521 Clouds 6 1019 57 10000 1.16 91 00:37 08.11.2019
4522 Clouds 6 1019 57 10000 1.16 91 00:19 08.11.2019
4523 Clouds 5 1019 75 10000 1.16 91 23:43 07.11.2019
4524 Clouds 6 1019 56 10000 1.1 108 23:24 07.11.2019
4525 Clouds 7 1019 70 10000 1.1 108 22:55 07.11.2019
4526 Clouds 7 1019 70 10000 1.1 108 22:36 07.11.2019
4527 Clouds 6 1019 65 10000 1.1 108 22:18 07.11.2019
4528 Clouds 8 1019 65 10000 1.1 108 21:38 07.11.2019
4529 Clouds 6 1019 81 10000 1.1 108 21:20 07.11.2019
4530 Clouds 7 1019 65 10000 1.1 108 20:58 07.11.2019
4531 Clouds 7 1019 65 10000 1.1 108 20:40 07.11.2019
4532 Clouds 7 1019 65 10000 1.1 108 20:40 07.11.2019
4533 Clear 9 1018 70 10000 1.62 128 20:21 07.11.2019
4534 Clear 9 1018 70 10000 1.62 128 20:21 07.11.2019
4535 Clear 10 1019 61 10000 1.5 360 19:56 07.11.2019
4536 Clear 10 1019 61 10000 1.5 360 19:37 07.11.2019
4537 Clear 12 1018 53 10000 2.6 50 19:19 07.11.2019
4538 Clear 11 1018 53 10000 1.5 30 18:56 07.11.2019
4539 Clear 11 1018 53 10000 1.5 30 18:38 07.11.2019
4540 Clear 13 1018 47 10000 0.5 0 18:19 07.11.2019
4541 Clear 14 1018 50 10000 2.1 230 17:41 07.11.2019
4542 Clouds 14 1018 50 10000 2.1 230 17:23 07.11.2019
4543 Clouds 16 1018 38 10000 2.6 170 16:59 07.11.2019
4544 Clouds 16 1017 42 10000 1 0 16:41 07.11.2019
4545 Clouds 16 1017 42 10000 1 0 16:41 07.11.2019
4546 Clouds 16 1017 42 10000 1 0 16:22 07.11.2019
4547 Clouds 21 1017 29 10000 2.1 140 16:00 07.11.2019
4548 Clouds 21 1017 32 10000 1 0 15:40 07.11.2019
4549 Clouds 21 1017 26 10000 2.6 190 15:19 07.11.2019
4550 Clouds 21 1017 26 10000 2.6 190 14:54 07.11.2019
4551 Clouds 21 1017 35 10000 3.1 260 14:36 07.11.2019
4552 Clouds 21 1017 35 10000 3.1 260 14:18 07.11.2019
4553 Clouds 21 1017 28 10000 2.6 180 13:54 07.11.2019
4554 Clouds 21 1017 33 10000 2.1 0 13:36 07.11.2019
4555 Clouds 21 1017 33 10000 2.1 0 13:18 07.11.2019
4556 Clouds 21 1018 28 10000 5.1 220 12:54 07.11.2019
4557 Clouds 21 1018 28 10000 5.1 220 12:54 07.11.2019
4558 Clouds 21 1017 32 10000 3.6 180 12:36 07.11.2019
4559 Clouds 21 1017 32 10000 3.6 180 12:18 07.11.2019
4560 Clouds 20 1018 37 10000 3.06 202 11:40 07.11.2019
4561 Clouds 20 1018 37 10000 2.05 170 11:22 07.11.2019
4562 Clouds 18 1019 42 10000 0.5 0 10:42 07.11.2019
4563 Clouds 18 1019 42 10000 0.5 0 10:19 07.11.2019
4564 Clouds 15 1020 50 10000 0.5 0 09:45 07.11.2019
4565 Clouds 14 1020 51 10000 2.05 170 09:25 07.11.2019
4566 Clouds 11 1020 66 10000 2.05 170 08:59 07.11.2019
4567 Clouds 11 1020 66 10000 2.05 170 08:59 07.11.2019
4568 Clouds 10 1020 71 10000 2.05 170 08:40 07.11.2019
4569 Clouds 10 1020 71 10000 1.43 106 08:22 07.11.2019
4570 Clouds 8 1020 81 10000 1.43 106 07:56 07.11.2019
4571 Clouds 7 1020 87 10000 1.43 106 07:37 07.11.2019
4572 -273 0 0 0 0 0 07:18 07.11.2019
4573 Clouds 4 1020 93 10000 1.43 106 06:41 07.11.2019
4574 Clouds 4 1020 93 10000 1.43 106 06:41 07.11.2019
4575 Clouds 4 1020 93 10000 1.43 106 06:22 07.11.2019
4576 Clouds 4 1020 52 10000 1.43 106 05:47 07.11.2019
4577 Clouds 4 1020 93 10000 1.43 106 05:29 07.11.2019
4578 Clouds 4 1020 74 10000 1 360 04:49 07.11.2019
4579 Clouds 4 1020 93 10000 1.19 113 04:27 07.11.2019
4580 Clear 6 1019 87 10000 1.16 122 01:18 07.11.2019
4581 Clear 6 1019 87 10000 1.5 230 00:26 07.11.2019
4582 Clear 7 1019 80 10000 0.5 0 23:49 06.11.2019
4583 Clear 7 1019 81 10000 1.43 139 23:23 06.11.2019
4584 Clear 7 1019 81 10000 0.5 0 22:58 06.11.2019
4585 Clear 8 1019 75 10000 0.5 0 22:39 06.11.2019
4586 Clear 8 1019 75 10000 0.5 0 22:39 06.11.2019
4587 Clear 8 1019 75 10000 0.5 0 22:20 06.11.2019
4588 Clear 9 1019 75 10000 0.5 0 21:57 06.11.2019
4589 Clear 9 1019 75 10000 1 220 21:38 06.11.2019
4590 Clear 9 1019 75 10000 1 220 21:38 06.11.2019
4591 Clear 9 1019 75 10000 1 220 21:19 06.11.2019
4592 Clear 9 1019 75 10000 1 0 20:55 06.11.2019
4593 Clear 10 1019 62 10000 1.43 139 20:37 06.11.2019
4594 Clear 10 1019 66 10000 1.5 20 20:19 06.11.2019
4595 Clear 10 1018 62 10000 0.5 0 19:40 06.11.2019
4596 Clear 11 1018 62 10000 0.5 0 19:22 06.11.2019
4597 Clear 12 1019 62 10000 1 0 18:59 06.11.2019
4598 Clear 11 1019 62 10000 1 0 18:39 06.11.2019
4599 Clear 13 1019 58 10000 0.5 0 18:20 06.11.2019
4600 Clear 13 1019 58 10000 0.5 0 17:59 06.11.2019
4601 Clear 13 1019 50 10000 0.5 0 17:41 06.11.2019
4602 Clear 16 1018 47 10000 1.84 237 17:22 06.11.2019
4603 Clouds 16 1018 44 10000 0.5 0 16:57 06.11.2019
4604 Clouds 16 1018 44 10000 0.5 0 16:38 06.11.2019
4605 Clouds 16 1018 44 10000 0.5 0 16:38 06.11.2019
4606 Clouds 18 1018 42 10000 1.5 240 16:19 06.11.2019
4607 Clouds 20 1018 37 10000 1.5 240 15:56 06.11.2019
4608 Clouds 20 1018 37 10000 1.5 240 15:56 06.11.2019
4609 Clouds 20 1018 37 10000 1.5 240 15:37 06.11.2019
4610 Clouds 20 1018 37 10000 2.6 240 15:19 06.11.2019
4611 Clouds 21 1018 34 10000 2.6 220 14:56 06.11.2019
4612 Clouds 21 1018 34 10000 2.6 220 14:38 06.11.2019
4613 Clouds 21 1018 34 10000 2.6 230 14:20 06.11.2019
4614 Clouds 21 1018 34 10000 2.1 220 13:54 06.11.2019
4615 Clouds 20 1018 34 10000 2.1 220 13:36 06.11.2019
4616 Clouds 20 1018 37 10000 3.6 210 13:18 06.11.2019
4617 Clouds 20 1018 37 10000 3.6 220 12:43 06.11.2019
4618 Clouds 19 1018 40 10000 1.5 0 12:23 06.11.2019
4619 Clouds 19 1018 40 10000 1.5 0 11:59 06.11.2019
4620 Clouds 19 1019 39 10000 3.6 250 11:38 06.11.2019
4621 Clouds 19 1020 48 10000 2.1 360 11:19 06.11.2019
4622 Clouds 18 1020 45 10000 2.6 180 10:57 06.11.2019
4623 Clouds 18 1020 45 10000 2.6 180 10:39 06.11.2019
4624 Clouds 16 1020 51 10000 0.5 0 10:21 06.11.2019
4625 Clouds 15 1020 54 10000 1 0 09:57 06.11.2019
4626 Clouds 15 1020 54 10000 1 0 09:38 06.11.2019
4627 Clouds 13 1021 66 10000 1 0 09:19 06.11.2019
4628 Clouds 11 1021 71 10000 3.33 206 08:55 06.11.2019
4629 Clouds 11 1021 71 10000 2.67 196 08:36 06.11.2019
4630 Clouds 10 1021 81 10000 1 0 08:18 06.11.2019
4631 Clouds 10 1021 81 10000 1 0 08:18 06.11.2019
4632 Clouds 8 1021 87 10000 0.98 152 07:41 06.11.2019
4633 Clear 7 1021 87 10000 0.98 152 07:22 06.11.2019
4634 Clear 5 1021 86 10000 0.5 0 06:47 06.11.2019
4635 Clear 5 1021 86 10000 0.5 0 06:28 06.11.2019
4636 Clear 5 1020 93 10000 0.5 0 04:53 06.11.2019
4637 Clear 6 1020 86 10000 0.5 0 02:28 06.11.2019
4638 Clouds 6 1020 86 10000 1.76 184 01:41 06.11.2019
4639 Clear 7 1020 87 10000 1.56 185 00:46 06.11.2019
4640 Clear 7 1020 87 10000 1.56 185 23:58 05.11.2019
4641 Clear 7 1020 87 10000 1.56 185 23:39 05.11.2019
4642 Clear 8 1020 87 10000 0.5 0 23:21 05.11.2019
4643 Clear 8 1020 81 10000 1.45 164 22:55 05.11.2019
4644 Clear 8 1020 81 10000 1.45 164 22:36 05.11.2019
4645 Clear 9 1020 81 10000 0.5 0 22:18 05.11.2019
4646 Clear 9 1020 81 10000 1.45 164 21:42 05.11.2019
4647 -273 0 0 0 0 0 21:21 05.11.2019
4648 Clear 10 1020 81 10000 0.5 0 20:59 05.11.2019
4649 Clear 10 1020 81 10000 0.5 0 20:39 05.11.2019
4650 Clear 11 1020 76 10000 1 30 20:20 05.11.2019
4651 Clear 11 1020 71 10000 2.1 360 19:57 05.11.2019
4652 Clear 11 1020 71 10000 2.1 360 19:38 05.11.2019
4653 Clear 12 1020 66 10000 1 0 19:20 05.11.2019
4654 Clear 12 1020 66 10000 1 0 18:57 05.11.2019
4655 Clouds 12 1020 71 10000 1.5 340 18:39 05.11.2019
4656 Clouds 13 1020 66 10000 1 0 18:20 05.11.2019
4657 Clouds 14 1020 58 10000 0.5 0 17:57 05.11.2019
4658 Clouds 14 1020 58 10000 0.5 0 17:38 05.11.2019
4659 Clouds 16 1019 54 10000 0.5 0 17:18 05.11.2019
4660 Clouds 17 1019 51 10000 0.5 0 16:54 05.11.2019
4661 Clouds 17 1019 51 10000 0.5 0 16:36 05.11.2019
4662 Clouds 18 1019 51 10000 0.5 250 16:18 05.11.2019
4663 Clouds 18 1019 48 10000 3.1 240 15:37 05.11.2019
4664 Clouds 19 1019 45 10000 4.1 230 15:19 05.11.2019
4665 Clouds 19 1019 45 10000 4.1 230 15:19 05.11.2019
4666 Clouds 19 1019 45 10000 4.1 230 14:57 05.11.2019
4667 Clouds 19 1019 45 10000 4.1 230 14:38 05.11.2019
4668 Clouds 19 1019 39 10000 4.6 230 14:20 05.11.2019
4669 Clouds 19 1019 39 10000 5.1 210 13:43 05.11.2019
4670 Clouds 19 1019 39 10000 5.7 220 13:24 05.11.2019
4671 Clouds 19 1019 39 10000 5.7 220 12:59 05.11.2019
4672 Clouds 19 1019 42 10000 2.1 230 12:39 05.11.2019
4673 Clouds 18 1019 45 10000 2.1 0 12:19 05.11.2019
4674 Clouds 18 1019 45 10000 1.5 230 11:54 05.11.2019
4675 Clouds 18 1019 45 10000 1.5 230 11:36 05.11.2019
4676 Clouds 18 1019 45 10000 1.5 230 11:36 05.11.2019
4677 Clouds 17 1020 45 10000 2.1 160 11:18 05.11.2019
4678 Clouds 17 1020 45 10000 2.1 160 11:18 05.11.2019
4679 Clouds 17 1020 48 10000 1 0 10:41 05.11.2019
4680 Clouds 16 1020 51 10000 2.2 196 10:23 05.11.2019
4681 Clouds 16 1020 51 10000 2.2 196 10:23 05.11.2019
4682 Clouds 15 1021 50 10000 0.5 0 09:57 05.11.2019
4683 Clouds 15 1021 50 10000 0.5 0 09:38 05.11.2019
4684 Clouds 14 1021 58 10000 0.5 0 09:18 05.11.2019
4685 Clouds 13 1020 62 10000 0.5 0 08:40 05.11.2019
4686 Clouds 10 1021 61 10000 0.5 0 08:20 05.11.2019
4687 Clouds 9 1021 75 10000 1 0 07:59 05.11.2019
4688 Clouds 9 1021 75 10000 1 0 07:40 05.11.2019
4689 Clouds 9 1020 66 10000 1.5 60 07:22 05.11.2019
4690 Clouds 8 1020 80 10000 1.91 127 06:50 05.11.2019
4691 Clouds 9 1020 80 10000 2.1 330 05:51 05.11.2019
4692 Clouds 8 1019 66 10000 1.8 114 05:24 05.11.2019
4693 Clouds 8 1020 86 10000 1.8 114 04:47 05.11.2019
4694 Clouds 8 1020 80 10000 1.8 114 03:56 05.11.2019
4695 Clouds 7 1020 86 10000 1.8 114 02:55 05.11.2019
4696 Clouds 7 1020 86 10000 1.8 114 02:29 05.11.2019
4697 Clouds 6 1020 86 10000 1.68 99 01:26 05.11.2019
4698 Clouds 7 1020 80 10000 1.68 99 00:38 05.11.2019
4699 Clouds 7 1020 80 10000 1.68 99 23:59 04.11.2019
4700 Clouds 8 1020 80 10000 1.68 99 23:38 04.11.2019
4701 Clouds 8 1020 80 10000 2.15 113 23:18 04.11.2019
4702 Clouds 8 1020 80 10000 2.15 113 23:18 04.11.2019
4703 Clouds 8 1020 75 10000 2.15 113 22:43 04.11.2019
4704 Clouds 8 1020 80 10000 2.15 113 22:24 04.11.2019
4705 Clouds 8 1020 70 10000 2.15 113 21:57 04.11.2019
4706 Clouds 8 1020 70 10000 2.15 113 21:38 04.11.2019
4707 Clouds 9 1021 70 10000 2.15 113 21:20 04.11.2019
4708 Clouds 8 1021 70 10000 2.15 113 20:59 04.11.2019
4709 Clouds 9 1021 70 10000 2.15 113 20:40 04.11.2019
4710 Clouds 10 1021 70 10000 1.92 114 20:21 04.11.2019
4711 Clouds 10 1021 70 10000 1.92 114 19:59 04.11.2019
4712 Clouds 10 1021 66 10000 1 0 19:41 04.11.2019
4713 Clouds 11 1021 66 10000 3.6 20 19:22 04.11.2019
4714 Clouds 11 1021 66 10000 3.6 20 18:58 04.11.2019
4715 Clouds 12 1021 66 10000 3.6 360 18:39 04.11.2019
4716 Clouds 12 1021 66 10000 4.1 20 18:20 04.11.2019
4717 Clouds 12 1021 61 10000 3.1 20 17:56 04.11.2019
4718 Clouds 12 1021 61 10000 3.1 20 17:36 04.11.2019
4719 Clouds 13 1020 53 10000 2.6 320 17:18 04.11.2019
4720 Clouds 14 1020 35 10000 1 0 16:42 04.11.2019
4721 Clouds 16 1020 45 10000 3.1 160 16:23 04.11.2019
4722 Clouds 17 1020 45 10000 3.6 140 15:58 04.11.2019
4723 Clouds 17 1020 45 10000 3.6 140 15:39 04.11.2019
4724 Clouds 18 1020 45 10000 3.6 160 15:21 04.11.2019
4725 Clouds 18 1020 45 10000 5.1 160 14:57 04.11.2019
4726 Clouds 18 1020 45 10000 5.1 160 14:39 04.11.2019
4727 Clouds 18 1020 32 10000 3.1 190 14:20 04.11.2019
4728 Clouds 18 1020 31 10000 3.1 190 13:57 04.11.2019
4729 Clouds 18 1020 31 10000 3.1 190 13:39 04.11.2019
4730 Clouds 17 1020 36 10000 1 0 13:20 04.11.2019
4731 Clouds 17 1021 41 10000 1 0 12:45 04.11.2019
4732 Clouds 16 1021 41 10000 1 0 12:25 04.11.2019
4733 Clouds 16 1022 44 10000 1 0 11:58 04.11.2019
4734 Clouds 15 1022 44 10000 1 0 11:40 04.11.2019
4735 Clouds 14 1022 44 10000 2.1 164 11:21 04.11.2019
4736 Clouds 14 1022 47 10000 0.5 0 10:47 04.11.2019
4737 Clouds 12 1023 53 10000 0.5 0 10:26 04.11.2019
4738 Clouds 11 1023 53 10000 0.5 0 09:56 04.11.2019
4739 Clouds 11 1023 57 10000 2.1 164 09:38 04.11.2019
4740 Clouds 9 1024 70 10000 0.5 0 09:19 04.11.2019
4741 Clouds 7 1024 70 10000 2.1 164 08:42 04.11.2019
4742 Clouds 6 1024 75 10000 1.52 123 08:22 04.11.2019
4743 Clouds 4 1024 43 10000 0.5 0 07:56 04.11.2019
4744 Clouds 4 1024 43 10000 0.5 0 07:38 04.11.2019
4745 Clouds 4 1024 43 10000 0.5 0 07:38 04.11.2019
4746 Clouds 2 1024 86 10000 1.52 123 07:19 04.11.2019
4747 Clouds 1 1024 43 10000 1.52 123 06:40 04.11.2019
4748 Clouds 1 1023 86 10000 0.5 230 06:18 04.11.2019
4749 Clouds 1 1023 43 10000 0.5 0 05:31 04.11.2019
4750 Clouds 2 1023 86 10000 1 0 04:27 04.11.2019
4751 Clouds 1 1023 92 10000 1 0 03:31 04.11.2019
4752 Clouds 2 1023 86 10000 1.41 121 01:24 04.11.2019
4753 Clouds 2 1023 86 10000 1.41 121 00:59 04.11.2019
4754 Clouds 2 1023 86 10000 1.41 121 00:22 04.11.2019
4755 Clouds 2 1023 86 10000 1.41 121 23:58 03.11.2019
4756 Clouds 2 1023 86 10000 1.41 121 23:37 03.11.2019
4757 Clouds 2 1023 100 10000 1.15 124 23:18 03.11.2019
4758 Clouds 3 1023 80 10000 1.15 124 22:56 03.11.2019
4759 Clouds 3 1023 80 10000 1.15 124 22:38 03.11.2019
4760 Clouds 4 1023 56 10000 1.15 124 22:18 03.11.2019
4761 Clouds 4 1023 56 10000 1 0 21:42 03.11.2019
4762 Clouds 5 1023 80 10000 0.5 0 21:21 03.11.2019
4763 Clouds 5 1023 80 10000 0.5 0 20:58 03.11.2019
4764 Clouds 4 1023 55 10000 1.16 128 20:37 03.11.2019
4765 Clear 5 1022 80 10000 1.38 143 20:19 03.11.2019
4766 Clear 5 1022 75 10000 2.1 40 19:57 03.11.2019
4767 Clear 6 1022 75 10000 2.1 40 19:38 03.11.2019
4768 Clear 6 1022 75 10000 2.1 350 19:20 03.11.2019
4769 Clear 7 1022 70 10000 1.5 340 18:55 03.11.2019
4770 Clear 7 1022 70 10000 1.5 340 18:36 03.11.2019
4771 Clear 8 1022 61 10000 1 0 18:18 03.11.2019
4772 Clear 8 1022 61 10000 1.5 70 17:42 03.11.2019
4773 Clouds 10 1021 61 10000 1 0 17:20 03.11.2019
4774 Clouds 11 1021 51 10000 1 204 16:56 03.11.2019
4775 Clouds 11 1021 51 10000 1 204 16:38 03.11.2019
4776 Clouds 14 1021 51 10000 1 204 16:20 03.11.2019
4777 Clouds 14 1021 51 10000 1 204 15:57 03.11.2019
4778 Clouds 14 1021 51 10000 1.5 180 15:39 03.11.2019
4779 Clouds 14 1021 51 10000 1 0 15:21 03.11.2019
4780 Clouds 14 1021 51 10000 2.1 200 14:42 03.11.2019
4781 Clouds 13 1021 35 10000 2.1 210 14:19 03.11.2019
4782 Clouds 13 1021 35 10000 2.1 0 13:58 03.11.2019
4783 Clouds 13 1021 35 10000 2.1 0 13:40 03.11.2019
4784 Clouds 13 1021 33 10000 3.1 180 13:18 03.11.2019
4785 Clouds 13 1021 33 10000 3.1 190 12:39 03.11.2019
4786 Clouds 12 1021 33 10000 1 0 12:20 03.11.2019
4787 Clouds 12 1021 33 10000 1 0 11:58 03.11.2019
4788 Clouds 11 1021 33 10000 1 0 11:40 03.11.2019
4789 Clouds 10 1022 37 10000 0.5 0 11:20 03.11.2019
4790 Clouds 10 1022 37 10000 0.5 0 11:20 03.11.2019
4791 Clouds 10 1022 49 10000 0.5 0 10:55 03.11.2019
4792 Clouds 10 1022 49 10000 0.5 0 10:36 03.11.2019
4793 Clouds 7 1022 37 10000 0.5 0 10:18 03.11.2019
4794 Clouds 7 1022 37 10000 0.5 0 10:18 03.11.2019
4795 Clouds 7 1023 60 10000 1.87 181 09:42 03.11.2019
4796 Clouds 4 1022 65 10000 1.87 181 09:23 03.11.2019
4797 Clouds 4 1023 80 10000 1.87 181 08:55 03.11.2019
4798 Clouds 3 1023 80 10000 1.87 181 08:36 03.11.2019
4799 Clear 1 1023 80 10000 1.29 101 08:18 03.11.2019
4800 Clear 1 1023 80 10000 1.29 101 07:43 03.11.2019
4801 Clear -1 1023 49 6000 0.5 0 07:18 03.11.2019
4802 Clear -2 1023 92 10000 1.29 101 06:39 03.11.2019
4803 Clear -3 1023 85 10000 1 0 05:41 03.11.2019
4804 Clear -2 1023 92 10000 0.5 220 05:19 03.11.2019
4805 Clear -2 1022 86 10000 1.24 102 04:48 03.11.2019
4806 Clear -2 1022 86 10000 1.24 102 03:50 03.11.2019
4807 Clear -1 1022 86 10000 1 0 02:46 03.11.2019
4808 Clear -1 1022 86 10000 0.5 0 02:21 03.11.2019
4809 Clear -1 1022 86 10000 0.5 0 02:21 03.11.2019
4810 Clear -1 1022 92 10000 0.5 0 01:45 03.11.2019
4811 Clear -1 1022 92 10000 0.5 310 01:22 03.11.2019
4812 Clouds -1 1022 86 10000 1 0 00:47 03.11.2019
4813 Clouds -1 1022 86 10000 0.5 0 00:28 03.11.2019
4814 Clouds 0 1022 86 10000 0.5 0 23:59 02.11.2019
4815 Clouds 0 1022 86 10000 0.5 0 23:39 02.11.2019
4816 Clear 0 1022 86 10000 0.5 0 23:19 02.11.2019
4817 Clear 0 1022 64 10000 0.5 0 22:56 02.11.2019
4818 Clear 0 1022 64 10000 0.5 0 22:38 02.11.2019
4819 Clear 1 1022 64 10000 0.5 0 22:19 02.11.2019
4820 Clear 1 1022 64 10000 0.5 0 21:56 02.11.2019
4821 Clear 1 1022 64 10000 0.5 10 21:38 02.11.2019
4822 Clear 2 1022 80 10000 1.5 97 21:18 02.11.2019
4823 Clear 2 1022 80 10000 1.5 97 21:18 02.11.2019
4824 Clear 2 1022 80 10000 1.5 97 20:59 02.11.2019
4825 Clear 2 1022 80 10000 0.5 0 20:39 02.11.2019
4826 Clear 2 1022 80 10000 2.6 340 20:20 02.11.2019
4827 Clear 2 1022 74 10000 0.5 360 19:55 02.11.2019
4828 Clear 2 1022 74 10000 0.5 360 19:36 02.11.2019
4829 Clear 3 1022 74 10000 1 0 19:18 02.11.2019
4830 Clear 3 1022 74 10000 1 0 19:18 02.11.2019
4831 Clear 4 1022 74 10000 3.1 10 18:42 02.11.2019
4832 Clear 5 1021 69 10000 1 10 18:24 02.11.2019
4833 Clear 5 1021 56 10000 2.1 70 17:59 02.11.2019
4834 Clear 5 1021 56 10000 2.1 70 17:40 02.11.2019
4835 Clear 6 1022 57 10000 0.5 0 17:22 02.11.2019
4836 Clouds 7 1021 56 10000 2.1 0 16:58 02.11.2019
4837 Clouds 7 1021 56 10000 2.1 0 16:38 02.11.2019
4838 Clouds 7 1021 56 10000 2.1 0 16:38 02.11.2019
4839 Clouds 9 1021 52 10000 2.6 90 16:20 02.11.2019
4840 Clouds 9 1021 45 10000 2.6 170 15:42 02.11.2019
4841 Clouds 10 1021 45 10000 2.1 190 15:20 02.11.2019
4842 Clouds 10 1021 45 10000 1 350 14:43 02.11.2019
4843 Clouds 9 1021 45 10000 1.5 60 14:24 02.11.2019
4844 Clouds 9 1021 45 10000 1.5 60 13:59 02.11.2019
4845 Clouds 9 1021 49 10000 1.5 100 13:39 02.11.2019
4846 Clouds 9 1021 49 10000 1 0 13:20 02.11.2019
4847 Clouds 9 1021 49 10000 3.1 70 12:56 02.11.2019
4848 Clouds 9 1021 49 10000 3.1 70 12:37 02.11.2019
4849 Clouds 9 1021 49 10000 2.6 70 12:18 02.11.2019
4850 Clouds 8 1021 56 10000 2.1 40 11:41 02.11.2019
4851 Clouds 8 1022 54 10000 3.1 70 11:23 02.11.2019
4852 Clouds 8 1022 52 10000 2.6 10 10:55 02.11.2019
4853 Clouds 8 1022 52 10000 2.6 10 10:36 02.11.2019
4854 Clouds 7 1022 52 10000 3.1 0 10:18 02.11.2019
4855 Clouds 7 1022 56 10000 3.6 60 09:40 02.11.2019
4856 Clouds 6 1022 56 10000 5.1 60 09:21 02.11.2019
4857 Clouds 6 1022 56 10000 5.7 70 08:50 02.11.2019
4858 Clouds 6 1023 70 10000 3.6 70 08:23 02.11.2019
4859 Clouds 4 1022 65 10000 4.6 60 07:52 02.11.2019
4860 Clouds 4 1022 65 10000 4.6 60 07:33 02.11.2019
4861 Clouds 2 1022 69 10000 1.75 87 06:59 02.11.2019
4862 Clouds 1 1022 80 10000 1.75 87 06:39 02.11.2019
4863 Clear 1 1022 69 10000 1.75 87 06:20 02.11.2019
4864 Clouds 1 1022 69 10000 0.5 0 05:33 02.11.2019
4865 Clear 1 1021 81 10000 0.5 0 04:23 02.11.2019
4866 Clear 1 1021 86 10000 0.5 0 03:50 02.11.2019
4867 Clear 1 1020 86 10000 1.96 36 02:49 02.11.2019
4868 Clear 1 1020 86 10000 1.96 36 02:49 02.11.2019
4869 Clouds 3 1020 80 10000 2.1 30 01:57 02.11.2019
4870 Clouds 3 1020 80 10000 4.1 360 01:25 02.11.2019
4871 Clouds 3 1020 80 10000 1.95 10 00:54 02.11.2019
4872 Clouds 3 1020 80 10000 1.95 10 00:27 02.11.2019
4873 Clouds 3 1020 77 10000 1.95 10 23:49 01.11.2019
4874 Clouds 5 1020 74 10000 0.5 0 23:23 01.11.2019
4875 Clouds 5 1020 74 10000 0.5 0 22:59 01.11.2019
4876 Clouds 5 1020 74 10000 1 0 22:40 01.11.2019
4877 Clouds 6 1020 75 10000 3.1 360 22:20 01.11.2019
4878 Clouds 6 1019 70 10000 0.5 0 21:42 01.11.2019
4879 Clouds 6 1019 70 10000 1.5 330 21:23 01.11.2019
4880 Clouds 6 1019 75 10000 3.1 20 20:58 01.11.2019
4881 Clouds 6 1019 75 10000 3.1 20 20:40 01.11.2019
4882 Clouds 7 1019 75 10000 1 0 20:20 01.11.2019
4883 Clouds 7 1018 75 10000 4.1 30 19:56 01.11.2019
4884 Clouds 7 1018 75 10000 4.1 30 19:38 01.11.2019
4885 Clouds 7 1018 75 10000 3.1 30 19:19 01.11.2019
4886 Clouds 8 1018 81 10000 3.6 40 18:40 01.11.2019
4887 Clouds 8 1017 81 10000 4.6 30 18:21 01.11.2019
4888 Rain 9 1017 75 10000 4.6 40 17:56 01.11.2019
4889 Rain 9 1017 75 10000 4.6 40 17:37 01.11.2019
4890 Rain 9 1017 75 10000 4.1 20 17:19 01.11.2019
4891 Rain 9 1016 75 10000 4.1 40 16:38 01.11.2019
4892 Rain 9 1016 81 10000 5.1 20 16:20 01.11.2019
4893 Rain 9 1016 76 10000 4.1 30 15:55 01.11.2019
4894 Rain 9 1016 76 10000 4.1 30 15:36 01.11.2019
4895 Rain 9 1015 87 10000 4.6 30 15:18 01.11.2019
4896 Rain 10 1016 87 7000 4.6 300 14:41 01.11.2019
4897 Rain 11 1015 87 7000 0.5 0 14:23 01.11.2019
4898 Rain 11 1015 87 7000 0.5 0 13:57 01.11.2019
4899 Rain 10 1014 87 6000 4.76 354 13:38 01.11.2019
4900 Rain 10 1014 87 6000 1.5 210 13:19 01.11.2019
4901 Rain 10 1014 87 6000 2.6 190 12:43 01.11.2019
4902 Rain 10 1014 87 9000 2.1 190 12:25 01.11.2019
4903 Rain 10 1015 87 8000 4.76 354 11:56 01.11.2019
4904 Rain 10 1015 87 8000 4.76 354 11:38 01.11.2019
4905 Rain 11 1015 87 9000 1 190 11:19 01.11.2019
4906 Rain 11 1015 87 9000 1 0 10:41 01.11.2019
4907 Rain 10 1015 87 8000 1 0 10:21 01.11.2019
4908 Rain 10 1015 87 8000 0.5 0 09:57 01.11.2019
4909 Rain 10 1015 87 8000 0.5 0 09:57 01.11.2019
4910 Rain 10 1015 87 8000 0.5 0 09:38 01.11.2019
4911 Rain 10 1015 81 7000 0.5 0 09:19 01.11.2019
4912 Rain 10 1015 87 10000 0.5 0 08:42 01.11.2019
4913 Rain 10 1015 81 10000 2.16 205 08:22 01.11.2019
4914 Rain 10 1015 81 10000 2.16 205 08:22 01.11.2019
4915 Rain 10 1016 87 10000 2.16 205 07:55 01.11.2019
4916 Rain 10 1016 87 10000 2.16 205 07:36 01.11.2019
4917 Rain 10 1015 87 10000 0.5 0 07:18 01.11.2019
4918 Rain 10 1015 87 10000 0.5 0 07:18 01.11.2019
4919 Rain 9 1015 81 10000 2.16 205 06:40 01.11.2019
4920 Rain 10 1015 81 10000 1.5 240 06:21 01.11.2019
4921 Rain 10 1015 81 10000 1.5 240 06:21 01.11.2019
4922 Rain 9 1015 81 10000 2.16 205 05:43 01.11.2019
4923 Clouds 11 1015 71 10000 1.39 228 03:42 01.11.2019
4924 Clouds 11 1015 71 10000 1.5 170 02:47 01.11.2019
4925 Clouds 11 1016 66 10000 2.1 240 01:28 01.11.2019
4926 Clouds 12 1016 66 10000 0.5 0 00:22 01.11.2019
4927 Clouds 12 1016 66 10000 0.5 0 23:59 31.10.2019
4928 Clouds 12 1016 58 10000 1.47 339 23:41 31.10.2019
4929 Clouds 12 1016 58 10000 2.64 324 23:22 31.10.2019
4930 Clouds 12 1016 46 10000 2.64 324 22:42 31.10.2019
4931 Clouds 12 1016 54 10000 0.5 0 22:24 31.10.2019
4932 Clouds 11 1016 54 10000 2.64 324 21:58 31.10.2019
4933 Clouds 11 1016 54 10000 2.64 324 21:40 31.10.2019
4934 Clouds 12 1016 54 10000 2.64 324 21:19 31.10.2019
4935 Clouds 12 1016 54 10000 2.1 110 20:41 31.10.2019
4936 Clouds 13 1016 41 10000 1.5 90 20:23 31.10.2019
4937 Clouds 13 1016 41 10000 1.52 276 19:59 31.10.2019
4938 Clouds 13 1016 41 10000 1.52 276 19:39 31.10.2019
4939 Clouds 14 1016 41 10000 0.5 190 19:21 31.10.2019
4940 Clouds 14 1016 46 10000 1.5 260 18:55 31.10.2019
4941 Clouds 14 1016 46 10000 1.5 260 18:36 31.10.2019
4942 Clouds 14 1016 46 10000 1.5 270 18:18 31.10.2019
4943 Clouds 15 1016 46 10000 2.1 220 17:41 31.10.2019
4944 Clouds 15 1016 42 10000 2.6 220 17:21 31.10.2019
4945 -273 0 0 0 0 0 16:56 31.10.2019
4946 Clouds 16 1016 33 10000 2.1 210 16:37 31.10.2019
4947 Clouds 17 1016 31 10000 2.6 210 16:18 31.10.2019
4948 Clouds 17 1016 29 10000 3.1 240 15:41 31.10.2019
4949 Clouds 18 1016 29 10000 3.6 230 15:23 31.10.2019
4950 Clouds 18 1016 29 10000 3.6 230 14:59 31.10.2019
4951 Clouds 18 1016 27 10000 3.1 240 14:41 31.10.2019
4952 Clouds 18 1016 25 10000 4.1 210 14:23 31.10.2019
4953 Clouds 19 1016 25 10000 4.1 210 13:59 31.10.2019
4954 Clouds 18 1016 27 10000 3.6 210 13:39 31.10.2019
4955 Clouds 18 1016 24 10000 4.1 180 13:19 31.10.2019
4956 Clouds 18 1016 24 10000 4.1 180 13:19 31.10.2019
4957 Clouds 18 1017 25 10000 3.6 210 12:57 31.10.2019
4958 Clouds 18 1017 25 10000 3.6 210 12:38 31.10.2019
4959 Clouds 18 1017 33 10000 3.1 180 12:20 31.10.2019
4960 Clouds 17 1017 34 10000 2.6 180 11:46 31.10.2019
4961 Clouds 17 1018 33 10000 2.6 200 11:21 31.10.2019
4962 Clouds 17 1018 33 10000 2.6 200 11:21 31.10.2019
4963 Clouds 16 1018 33 10000 2.6 200 10:58 31.10.2019
4964 Clouds 16 1018 36 10000 0.5 0 10:39 31.10.2019
4965 Clouds 15 1019 44 10000 2.02 249 10:21 31.10.2019
4966 Clouds 14 1019 44 10000 0.5 0 09:56 31.10.2019
4967 Clouds 13 1019 44 10000 0.5 0 09:37 31.10.2019
4968 Clouds 12 1019 47 10000 1 0 09:18 31.10.2019
4969 Clouds 11 1019 50 10000 2.02 249 08:44 31.10.2019
4970 Clouds 10 1020 57 10000 1 0 08:26 31.10.2019
4971 Clouds 6 1020 51 10000 0.5 0 07:48 31.10.2019
4972 Clouds 7 1020 75 10000 0.7 122 07:26 31.10.2019
4973 Clouds 4 1020 74 10000 1 0 06:53 31.10.2019
4974 Clouds 4 1020 74 10000 1 0 06:32 31.10.2019
4975 Clouds 3 1020 51 10000 0.7 122 05:27 31.10.2019
4976 Clear 4 1020 69 10000 0.55 100 02:50 31.10.2019
4977 Clear 5 1020 74 10000 0.55 100 02:27 31.10.2019
4978 Clear 6 1020 69 10000 1.02 46 01:21 31.10.2019
4979 Clear 7 1020 70 10000 1.02 46 00:26 31.10.2019
4980 Clear 7 1020 75 10000 1.02 46 23:49 30.10.2019
4981 Clear 7 1020 75 10000 0.5 230 23:25 30.10.2019
4982 Clear 8 1020 65 10000 1 0 22:42 30.10.2019
4983 Clear 8 1021 65 10000 1 0 22:20 30.10.2019
4984 Clear 9 1021 65 10000 1.5 350 21:55 30.10.2019
4985 Clear 9 1021 65 10000 1.5 350 21:37 30.10.2019
4986 Clear 10 1021 66 10000 2.6 10 21:18 30.10.2019
4987 Clear 9 1021 65 10000 1 30 20:58 30.10.2019
4988 Clear 9 1021 65 10000 1 30 20:39 30.10.2019
4989 Clear 10 1021 57 10000 2.1 10 20:21 30.10.2019
4990 Clear 10 1020 57 10000 3.1 10 19:54 30.10.2019
4991 Clear 10 1020 57 10000 3.1 10 19:36 30.10.2019
4992 Clear 11 1020 53 10000 3.1 10 19:18 30.10.2019
4993 Clear 11 1020 50 10000 3.1 20 18:39 30.10.2019
4994 Clear 12 1020 47 10000 2.1 20 18:19 30.10.2019
4995 Clear 13 1020 47 10000 2.1 20 17:56 30.10.2019
4996 Clear 13 1020 47 10000 2.1 20 17:38 30.10.2019
4997 Clouds 15 1019 43 10000 3.1 30 17:18 30.10.2019
4998 Clouds 16 1019 41 10000 1.5 0 16:55 30.10.2019
4999 Clouds 16 1019 41 10000 1.5 0 16:36 30.10.2019
5000 Clouds 17 1019 36 10000 0.5 280 16:18 30.10.2019
5001 Clouds 18 1019 34 10000 2.45 243 15:41 30.10.2019
5002 Clouds 18 1019 34 10000 1 0 15:21 30.10.2019
5003 Clouds 18 1019 34 10000 1 0 14:59 30.10.2019
5004 Clouds 18 1019 31 10000 0.5 0 14:41 30.10.2019
5005 Clouds 18 1019 29 10000 1.5 110 14:22 30.10.2019
5006 Clouds 18 1019 29 10000 1.5 110 13:58 30.10.2019
5007 Clouds 18 1019 29 10000 0.5 0 13:39 30.10.2019
5008 Clouds 18 1019 29 10000 0.5 0 13:19 30.10.2019
5009 Clouds 18 1019 31 10000 1 0 12:56 30.10.2019
5010 Clouds 18 1019 31 10000 1 0 12:37 30.10.2019
5011 Clouds 17 1019 36 10000 1 0 12:18 30.10.2019
5012 Clouds 17 1019 36 10000 0.5 0 11:41 30.10.2019
5013 Clouds 15 1019 41 10000 1 0 11:21 30.10.2019
5014 Clouds 15 1020 44 10000 1.5 150 10:45 30.10.2019
5015 Clouds 14 1020 47 10000 1 0 10:24 30.10.2019
5016 Clouds 13 1020 47 10000 1 0 09:57 30.10.2019
5017 Clouds 13 1020 47 10000 1 0 09:39 30.10.2019
5018 Clear 11 1020 47 10000 2.51 265 09:19 30.10.2019
5019 Clear 11 1020 50 10000 2.51 265 08:40 30.10.2019
5020 Clear 8 1020 57 10000 1.01 236 08:22 30.10.2019
5021 Clear 7 1020 57 10000 1.01 236 07:51 30.10.2019
5022 Clear 8 1020 57 10000 1.01 236 07:32 30.10.2019
5023 Clear 4 1020 74 10000 1.01 236 06:43 30.10.2019
5024 Clear 3 1020 69 10000 1.01 236 06:22 30.10.2019
5025 Clear 3 1019 74 10000 1.01 236 05:46 30.10.2019
5026 Clear 3 1019 77 10000 0.85 234 05:24 30.10.2019
5027 Clear 4 1019 69 10000 0.85 234 03:46 30.10.2019
5028 Clear 4 1019 69 10000 1 20 03:18 30.10.2019
5029 Clear 4 1019 69 10000 0.5 0 02:19 30.10.2019
5030 Clear 5 1019 60 10000 0.5 90 01:34 30.10.2019
5031 Clear 5 1019 69 10000 1.29 246 00:31 30.10.2019
5032 Clear 6 1018 65 10000 0.5 0 23:46 29.10.2019
5033 Clear 7 1018 65 10000 0.5 0 23:27 29.10.2019
5034 Clear 7 1018 60 10000 0.5 0 22:55 29.10.2019
5035 Clear 7 1018 60 10000 0.5 0 22:37 29.10.2019
5036 Clear 7 1018 60 10000 0.5 0 22:37 29.10.2019
5037 Clear 8 1018 60 10000 0.5 0 22:18 29.10.2019
5038 Clear 8 1018 56 10000 0.5 0 21:54 29.10.2019
5039 Clear 8 1018 56 10000 0.5 0 21:36 29.10.2019
5040 Clear 9 1018 52 10000 2.1 40 21:18 29.10.2019
5041 Clear 10 1018 52 10000 1 0 20:41 29.10.2019
5042 Clear 10 1018 49 10000 0.5 0 20:21 29.10.2019
5043 Clear 10 1018 55 10000 0.89 247 19:57 29.10.2019
5044 Clear 10 1018 55 10000 0.89 247 19:38 29.10.2019
5045 Clouds 12 1017 55 10000 1 0 19:20 29.10.2019
5046 Clouds 12 1017 37 10000 2.1 80 18:56 29.10.2019
5047 Clouds 12 1017 37 10000 2.1 80 18:37 29.10.2019
5048 Clouds 13 1017 37 10000 0.5 0 18:19 29.10.2019
5049 Clouds 13 1017 37 10000 0.5 0 18:19 29.10.2019
5050 Clouds 14 1017 35 10000 1 0 17:55 29.10.2019
5051 Clouds 14 1017 35 10000 1 0 17:36 29.10.2019
5052 Clouds 16 1016 33 10000 1 180 17:18 29.10.2019
5053 Clouds 17 1016 33 10000 1.5 240 16:40 29.10.2019
5054 Clouds 18 1016 31 10000 2.1 250 16:21 29.10.2019
5055 Clouds 19 1016 31 10000 2.1 250 15:57 29.10.2019
5056 Clouds 19 1015 27 10000 3.1 260 15:39 29.10.2019
5057 Clouds 19 1015 29 10000 4.1 200 15:20 29.10.2019
5058 Clouds 19 1015 29 10000 4.6 230 14:55 29.10.2019
5059 Clouds 19 1015 29 10000 4.6 230 14:37 29.10.2019
5060 Clouds 20 1015 36 10000 3.6 250 14:19 29.10.2019
5061 Clouds 20 1015 30 10000 4.6 230 13:40 29.10.2019
5062 Clouds 19 1015 32 10000 4.6 210 13:22 29.10.2019
5063 Clouds 19 1015 32 10000 5.1 170 12:55 29.10.2019
5064 Clouds 19 1015 32 10000 5.1 170 12:36 29.10.2019
5065 Clouds 18 1015 34 10000 3.1 200 12:18 29.10.2019
5066 Clouds 18 1016 36 10000 3.1 190 11:42 29.10.2019
5067 Clear 18 1017 45 10000 2.6 270 11:22 29.10.2019
5068 Clear 17 1016 36 10000 2.1 180 10:58 29.10.2019
5069 Clear 17 1016 36 10000 2.1 180 10:39 29.10.2019
5070 Clear 16 1016 48 10000 1 240 10:20 29.10.2019
5071 Clear 14 1016 44 10000 0.5 0 09:57 29.10.2019
5072 Clear 14 1016 44 10000 0.5 0 09:39 29.10.2019
5073 Clear 13 1016 50 10000 0.5 0 09:21 29.10.2019
5074 Clear 12 1016 50 10000 1 0 08:45 29.10.2019
5075 Clear 10 1016 53 10000 1 0 08:25 29.10.2019
5076 Clear 9 1016 61 10000 1 0 07:55 29.10.2019
5077 Clear 9 1016 61 10000 1 0 07:36 29.10.2019
5078 Clear 6 1016 70 10000 0.5 0 07:18 29.10.2019
5079 Clear 6 1016 54 10000 0.5 0 06:44 29.10.2019
5080 Clear 5 1016 93 10000 1 0 06:21 29.10.2019
5081 Clear 4 1015 80 10000 0.67 256 05:50 29.10.2019
5082 Clear 5 1015 74 10000 0.5 0 05:26 29.10.2019
5083 Clear 5 1015 74 10000 0.5 0 04:30 29.10.2019
5084 Clear 6 1015 70 10000 0.52 305 02:33 29.10.2019
5085 Clear 7 1015 64 10000 0.5 0 01:46 29.10.2019
5086 Clear 8 1015 63 10000 0.49 315 01:18 29.10.2019
5087 Clear 8 1015 63 10000 0.49 315 00:43 29.10.2019
5088 Clear 8 1015 63 10000 0.49 315 23:43 28.10.2019
5089 Clear 9 1015 70 10000 0.96 293 23:21 28.10.2019
5090 Clear 8 1015 70 10000 0.96 293 22:58 28.10.2019
5091 Clear 9 1015 57 10000 0.96 293 22:37 28.10.2019
5092 Clear 10 1015 65 10000 1 0 22:18 28.10.2019
5093 Clear 10 1015 61 10000 0.96 293 21:56 28.10.2019
5094 Clear 10 1015 61 10000 0.96 293 21:38 28.10.2019
5095 Clear 10 1014 61 10000 0.5 0 21:20 28.10.2019
5096 Clear 10 1014 61 10000 0.5 0 20:45 28.10.2019
5097 Clear 11 1014 53 10000 0.5 0 20:25 28.10.2019
5098 Clouds 10 1014 53 10000 0.5 0 19:59 28.10.2019
5099 Clouds 11 1014 53 10000 0.28 134 19:39 28.10.2019
5100 Clouds 12 1014 62 10000 2.1 230 19:21 28.10.2019
5101 Clouds 13 1014 50 10000 1 0 18:59 28.10.2019
5102 Clouds 12 1014 62 10000 2.1 230 18:59 28.10.2019
5103 Clouds 13 1014 50 10000 1 0 18:40 28.10.2019
5104 Clouds 13 1014 47 10000 1.5 0 18:21 28.10.2019
5105 Clouds 14 1014 44 10000 0.5 0 17:57 28.10.2019
5106 Clouds 15 1014 44 10000 0.5 0 17:38 28.10.2019
5107 Clouds 16 1014 41 10000 0.5 0 17:19 28.10.2019
5108 Clouds 17 1013 36 10000 2.6 30 16:57 28.10.2019
5109 Clouds 17 1013 36 10000 2.6 30 16:39 28.10.2019
5110 Clouds 19 1013 33 10000 3.6 30 16:21 28.10.2019
5111 Clouds 19 1013 34 10000 2.6 40 15:58 28.10.2019
5112 Clouds 19 1013 34 10000 2.6 40 15:39 28.10.2019
5113 Clouds 20 1013 32 10000 3.1 50 15:20 28.10.2019
5114 Clouds 20 1013 30 10000 2.1 10 14:57 28.10.2019
5115 Clouds 20 1013 30 10000 2.1 10 14:38 28.10.2019
5116 Clouds 20 1013 32 10000 1 0 14:18 28.10.2019
5117 Clouds 20 1013 32 10000 0.5 0 13:55 28.10.2019
5118 Clouds 20 1013 32 10000 0.5 0 13:37 28.10.2019
5119 Clouds 19 1014 32 10000 1 0 13:18 28.10.2019
5120 Clouds 19 1014 32 10000 1 0 13:18 28.10.2019
5121 Clouds 19 1014 37 10000 1 0 12:42 28.10.2019
5122 Clouds 18 1014 37 10000 1 0 12:20 28.10.2019
5123 Clouds 18 1014 39 10000 1.66 160 11:40 28.10.2019
5124 Clouds 18 1015 42 10000 0.5 0 11:21 28.10.2019
5125 Clouds 17 1015 45 10000 1 0 10:57 28.10.2019
5126 Clouds 17 1015 45 10000 1 0 10:38 28.10.2019
5127 Clear 15 1015 48 10000 1 0 10:20 28.10.2019
5128 Clear 14 1016 51 10000 1 0 09:55 28.10.2019
5129 Clear 14 1016 51 10000 1 0 09:55 28.10.2019
5130 Clear 14 1016 51 10000 1 0 09:37 28.10.2019
5131 Clear 13 1016 54 10000 0.5 0 09:18 28.10.2019
5132 Clear 12 1016 58 10000 0.5 0 08:56 28.10.2019
5133 Clear 12 1016 58 10000 0.5 0 08:56 28.10.2019
5134 Clear 12 1016 58 10000 0.5 0 08:37 28.10.2019
5135 Clear 10 1016 62 10000 0.5 0 08:18 28.10.2019
5136 Clear 9 1017 70 10000 0.5 0 07:47 28.10.2019
5137 Clear 7 1017 75 10000 0.5 0 07:23 28.10.2019
5138 Clear 7 1017 75 10000 0.5 0 07:23 28.10.2019
5139 Clear 7 1017 75 10000 0.5 0 06:59 28.10.2019
5140 Clear 6 1017 81 10000 1.44 60 06:39 28.10.2019
5141 Clear 5 1016 81 10000 1.32 70 05:19 28.10.2019
5142 Clear 6 1016 86 10000 1.32 70 03:44 28.10.2019
5143 Clear 6 1016 81 10000 2.6 10 02:46 28.10.2019
5144 Clear 7 1017 80 10000 1.7 45 01:52 28.10.2019
5145 Clear 7 1017 81 10000 1.52 45 00:47 28.10.2019
5146 Clear 8 1018 75 10000 1.52 45 00:26 28.10.2019
5147 Clear 8 1018 70 10000 4.1 20 23:45 27.10.2019
5148 Clear 9 1018 70 10000 3.6 10 23:22 27.10.2019
5149 Clear 9 1018 70 10000 3.1 20 22:57 27.10.2019
5150 Clear 9 1018 70 10000 3.1 20 22:37 27.10.2019
5151 Clear 8 1018 70 10000 3.6 20 22:19 27.10.2019
5152 Clear 9 1018 66 10000 4.1 10 21:56 27.10.2019
5153 Clear 9 1018 66 10000 4.1 10 21:38 27.10.2019
5154 Clear 9 1018 66 10000 4.1 10 21:38 27.10.2019
5155 Clear 10 1019 66 10000 1 0 21:20 27.10.2019
5156 Clear 10 1019 66 10000 3.1 30 20:42 27.10.2019
5157 Clear 11 1019 66 10000 3.6 20 20:23 27.10.2019
5158 Clear 11 1019 66 10000 3.1 20 19:59 27.10.2019
5159 Clear 11 1019 66 10000 3.1 20 19:39 27.10.2019
5160 Clear 12 1019 61 10000 3.6 30 19:20 27.10.2019
5161 Clear 12 1019 61 10000 3.6 30 19:20 27.10.2019
5162 Clear 13 1018 57 10000 3.6 20 18:57 27.10.2019
5163 Clear 13 1018 57 10000 3.6 20 18:39 27.10.2019
5164 Clear 14 1018 54 10000 3.1 70 18:21 27.10.2019
5165 Clear 14 1018 50 10000 3.1 80 17:55 27.10.2019
5166 Clear 14 1018 50 10000 3.1 80 17:37 27.10.2019
5167 Clear 15 1018 47 10000 3.1 70 17:19 27.10.2019
5168 Clear 16 1018 47 10000 3.1 80 16:55 27.10.2019
5169 Clear 16 1018 47 10000 3.1 80 16:37 27.10.2019
5170 Clear 17 1018 47 10000 4.1 60 16:19 27.10.2019
5171 Clouds 17 1018 41 10000 4.6 40 15:55 27.10.2019
5172 Clouds 17 1018 41 10000 4.6 40 15:37 27.10.2019
5173 Clouds 18 1018 39 10000 4.1 30 15:18 27.10.2019
5174 Clouds 18 1018 39 10000 4.6 10 14:41 27.10.2019
5175 Clouds 18 1018 39 10000 5.1 10 14:20 27.10.2019
5176 Clouds 18 1018 42 10000 4.6 10 13:56 27.10.2019
5177 Clouds 18 1018 42 10000 4.6 10 13:37 27.10.2019
5178 Clouds 18 1018 42 10000 4.6 30 13:19 27.10.2019
5179 Clouds 18 1019 42 10000 3.6 50 12:43 27.10.2019
5180 Clouds 17 1019 42 10000 5.7 40 12:24 27.10.2019
5181 Clouds 17 1019 41 10000 6.2 40 11:55 27.10.2019
5182 Clouds 17 1019 41 10000 6.2 40 11:37 27.10.2019
5183 Clouds 16 1020 44 10000 6.7 70 11:18 27.10.2019
5184 Clouds 16 1020 44 10000 7.7 70 10:42 27.10.2019
5185 Clouds 15 1020 44 10000 7.2 40 10:23 27.10.2019
5186 Clouds 15 1020 51 10000 5.7 30 09:44 27.10.2019
5187 Clouds 14 1021 51 10000 5.7 20 09:20 27.10.2019
5188 Clouds 14 1021 58 10000 5.7 20 08:59 27.10.2019
5189 Clouds 14 1021 58 10000 5.7 20 08:40 27.10.2019
5190 Clouds 12 1021 66 10000 4.1 10 08:20 27.10.2019
5191 Clouds 11 1021 66 10000 4.1 20 07:48 27.10.2019
5192 Clouds 12 1021 71 10000 3.6 10 07:29 27.10.2019
5193 Clouds 10 1021 81 10000 3.6 360 06:56 27.10.2019
5194 Clouds 10 1021 81 10000 3.6 360 06:37 27.10.2019
5195 Clouds 9 1020 76 10000 3.6 30 06:18 27.10.2019
5196 Clouds 8 1020 71 10000 4.6 30 05:37 27.10.2019
5197 Clear 8 1020 76 10000 3.1 20 04:32 27.10.2019
5198 Clear 8 1020 75 10000 4.1 30 02:42 27.10.2019
5199 Clear 9 1021 75 10000 2 48 01:28 27.10.2019
5200 Clear 9 1021 75 10000 1 0 00:56 27.10.2019
5201 Clear 9 1021 75 10000 1 0 00:38 27.10.2019
5202 Clear 9 1021 66 10000 2.96 33 23:59 26.10.2019
5203 Clear 9 1021 66 10000 2.96 33 23:59 26.10.2019
5204 Clear 9 1021 65 10000 2.96 33 23:40 26.10.2019
5205 Clear 10 1021 70 10000 1 0 23:22 26.10.2019
5206 Clear 10 1021 70 10000 1 0 22:58 26.10.2019
5207 Clear 10 1021 61 10000 2.96 33 22:39 26.10.2019
5208 Clear 11 1021 57 10000 2.1 40 22:20 26.10.2019
5209 Clear 11 1021 57 10000 2.1 40 21:58 26.10.2019
5210 Clear 11 1021 57 10000 2.96 33 21:40 26.10.2019
5211 Clear 12 1021 61 10000 1 0 21:19 26.10.2019
5212 Clear 12 1021 57 10000 2.1 20 20:45 26.10.2019
5213 Clear 13 1020 57 10000 2.71 25 20:20 26.10.2019
5214 Clouds 14 1020 50 10000 2.6 40 19:56 26.10.2019
5215 Clouds 14 1020 50 10000 2.6 40 19:38 26.10.2019
5216 Clouds 14 1020 50 10000 2.1 50 19:19 26.10.2019
5217 Clouds 14 1020 50 10000 2.1 50 19:19 26.10.2019
5218 Clouds 15 1020 47 10000 2.1 30 18:55 26.10.2019
5219 Clouds 15 1020 47 10000 2.1 30 18:36 26.10.2019
5220 Clouds 16 1020 44 10000 2.6 70 18:18 26.10.2019
5221 Clouds 16 1019 41 10000 3.1 50 17:39 26.10.2019
5222 Clear 16 1019 39 10000 2.1 80 17:20 26.10.2019
5223 Clouds 18 1019 33 10000 4.6 50 16:58 26.10.2019
5224 Clouds 18 1019 33 10000 4.6 50 16:39 26.10.2019
5225 Clouds 18 1019 36 10000 4.1 50 16:20 26.10.2019
5226 Clouds 19 1019 34 10000 3.1 50 15:40 26.10.2019
5227 Clouds 19 1019 34 10000 3.1 50 15:40 26.10.2019
5228 Clouds 19 1019 34 10000 3.1 50 15:19 26.10.2019
5229 Clouds 19 1019 34 10000 3.1 50 15:19 26.10.2019
5230 Clouds 18 1020 36 10000 4.1 60 14:40 26.10.2019
5231 Clouds 18 1020 36 10000 4.1 60 14:40 26.10.2019
5232 Clouds 18 1020 39 10000 3.6 30 14:22 26.10.2019
5233 Clear 18 1018 35 0 1.94 24 13:59 26.10.2019
5234 Clear 18 1018 35 0 1.94 24 13:40 26.10.2019
5235 Clouds 18 1020 42 10000 3.6 40 13:20 26.10.2019
5236 Clouds 18 1021 42 10000 4.6 30 12:46 26.10.2019
5237 Clear 16 1022 48 10000 4.6 70 12:23 26.10.2019
5238 Clear 16 1022 48 10000 4.6 70 11:48 26.10.2019
5239 Clear 16 1022 48 10000 4.6 70 11:48 26.10.2019
5240 Clear 16 1022 48 10000 4.6 70 11:28 26.10.2019
5241 Clear 16 1022 48 10000 4.6 70 11:28 26.10.2019
5242 Clear 16 1022 48 10000 4.6 70 11:28 26.10.2019
5243 Clear 15 1022 51 10000 4.1 70 10:48 26.10.2019
5244 Clear 13 1022 47 10000 4.1 40 10:27 26.10.2019
5245 Clear 13 1022 47 10000 4.1 40 09:59 26.10.2019
5246 Clear 13 1021 50 10000 3.6 50 09:41 26.10.2019
5247 Clear 11 1022 54 10000 1 0 09:23 26.10.2019
5248 Clear 10 1022 61 10000 1.16 62 08:43 26.10.2019
5249 Clear 6 1022 65 10000 1 0 08:25 26.10.2019
5250 Clear 5 1021 69 10000 1.16 62 07:44 26.10.2019
5251 Clear 5 1021 69 10000 1.16 62 07:44 26.10.2019
5252 Clear 4 1021 74 10000 0.5 0 07:25 26.10.2019
5253 Clear 4 1021 74 10000 1.16 62 06:42 26.10.2019
5254 Clear 5 1020 69 10000 1.26 55 06:23 26.10.2019
5255 Clear 5 1020 69 10000 1.26 55 05:19 26.10.2019
5256 Clear 5 1020 69 10000 1.26 55 04:24 26.10.2019
5257 Clear 7 1020 60 10000 0.5 0 02:46 26.10.2019
5258 Clear 7 1020 60 10000 1.05 56 01:54 26.10.2019
5259 Clear 8 1020 56 10000 1.05 56 01:22 26.10.2019
5260 Clear 9 1020 52 10000 0.5 0 00:23 26.10.2019
5261 Clear 10 1020 49 10000 0.5 0 23:43 25.10.2019
5262 Clear 10 1019 52 10000 0.5 0 23:20 25.10.2019
5263 Clear 10 1019 48 10000 1 20 22:40 25.10.2019
5264 Clear 11 1019 46 10000 1.5 20 22:22 25.10.2019
5265 Clear 10 1019 49 10000 2.1 340 21:57 25.10.2019
5266 Clear 10 1019 49 10000 2.1 340 21:39 25.10.2019
5267 Clouds 12 1019 46 10000 3.1 30 21:19 25.10.2019
5268 Clouds 12 1019 43 10000 4.1 20 20:55 25.10.2019
5269 Clouds 12 1019 43 10000 4.1 20 20:37 25.10.2019
5270 Clouds 13 1019 40 10000 3.1 20 20:18 25.10.2019
5271 Clouds 14 1019 43 10000 2.6 10 19:41 25.10.2019
5272 Clouds 16 1018 35 10000 0.5 0 19:23 25.10.2019
5273 Clouds 17 1018 31 10000 1.5 60 18:44 25.10.2019
5274 Clouds 18 1018 29 10000 0.96 268 18:22 25.10.2019
5275 Clouds 18 1018 25 10000 2.1 30 17:41 25.10.2019
5276 Clouds 22 1017 22 10000 3.1 90 17:21 25.10.2019
5277 Clouds 22 1017 19 10000 2.6 80 16:54 25.10.2019
5278 Clouds 22 1017 19 10000 2.6 80 16:36 25.10.2019
5279 Clouds 22 1017 18 10000 1 0 16:18 25.10.2019
5280 Clouds 23 1017 17 10000 1 0 15:40 25.10.2019
5281 Clouds 23 1017 16 10000 2.6 110 15:21 25.10.2019
5282 Clouds 23 1017 16 10000 2.6 110 14:57 25.10.2019
5283 Clouds 23 1017 16 10000 1.5 0 14:39 25.10.2019
5284 Clouds 22 1017 19 10000 2.6 130 14:20 25.10.2019
5285 Clouds 22 1017 18 10000 2.1 200 13:41 25.10.2019
5286 Clouds 20 1017 19 10000 1 0 13:23 25.10.2019
5287 Clouds 20 1018 24 10000 2.1 360 12:55 25.10.2019
5288 Clouds 20 1018 24 10000 2.1 360 12:37 25.10.2019
5289 Clear 20 1018 30 10000 1.5 230 12:18 25.10.2019
5290 Clouds 19 1019 32 10000 1 0 11:40 25.10.2019
5291 Clear 18 1019 37 10000 1 100 11:22 25.10.2019
5292 Clear 16 1019 44 10000 1 0 10:57 25.10.2019
5293 Clear 16 1019 44 10000 1 0 10:36 25.10.2019
5294 Clear 15 1019 44 10000 0.14 214 10:18 25.10.2019
5295 Clear 13 1019 54 10000 0.14 214 09:42 25.10.2019
5296 Clear 11 1019 57 10000 0.87 82 09:21 25.10.2019
5297 Clear 10 1020 57 10000 0.87 82 08:57 25.10.2019
5298 Clear 10 1020 57 10000 0.87 82 08:39 25.10.2019
5299 Clear 10 1020 57 10000 0.87 82 08:39 25.10.2019
5300 Clear 10 1020 66 10000 0.87 82 08:20 25.10.2019
5301 Clear 6 1019 75 10000 1 0 07:45 25.10.2019
5302 Clear 5 1019 46 10000 1 0 07:26 25.10.2019
5303 Clear 4 1019 46 10000 0.5 30 06:38 25.10.2019
5304 Clear 5 1019 65 10000 0.82 80 05:49 25.10.2019
5305 Clear 7 1019 65 10000 0.82 80 05:28 25.10.2019
5306 Clear 5 1019 65 10000 0.82 80 04:36 25.10.2019
5307 Clear 8 1018 65 10000 2.1 160 02:42 25.10.2019
5308 Clear 8 1019 58 10000 1.19 66 01:52 25.10.2019
5309 Clear 10 1019 61 10000 3.1 20 00:36 25.10.2019
5310 -273 0 0 0 0 0 23:55 24.10.2019
5311 Clear 10 1019 53 10000 3.6 360 23:36 24.10.2019
5312 Clear 10 1019 52 10000 2.1 360 23:18 24.10.2019
5313 Clear 10 1019 49 10000 1.73 54 22:39 24.10.2019
5314 Clear 12 1019 52 10000 1 0 22:19 24.10.2019
5315 Clear 11 1019 46 10000 1 0 21:58 24.10.2019
5316 Clear 11 1019 46 10000 1 0 21:40 24.10.2019
5317 Clear 11 1019 43 10000 1.55 60 21:20 24.10.2019
5318 Clear 12 1019 43 10000 0.5 0 20:59 24.10.2019
5319 Clear 12 1019 43 10000 0.5 0 20:39 24.10.2019
5320 Clear 13 1018 46 10000 0.5 20 20:21 24.10.2019
5321 Clear 14 1019 33 10000 3.1 40 19:56 24.10.2019
5322 Clear 14 1019 33 10000 3.1 40 19:37 24.10.2019
5323 Clear 16 1019 33 10000 2.6 10 19:19 24.10.2019
5324 Clear 16 1019 28 10000 3.1 30 18:55 24.10.2019
5325 Clear 16 1019 28 10000 3.1 30 18:37 24.10.2019
5326 Clear 16 1018 34 10000 0.5 0 18:18 24.10.2019
5327 Clear 20 1018 22 10000 4.1 60 17:41 24.10.2019
5328 Clear 21 1018 19 10000 2.6 90 17:20 24.10.2019
5329 Clear 22 1018 18 10000 3.6 90 16:56 24.10.2019
5330 Clear 22 1018 18 10000 3.6 90 16:38 24.10.2019
5331 Clear 22 1018 16 10000 4.1 80 16:19 24.10.2019
5332 Clear 22 1018 16 10000 4.1 80 15:58 24.10.2019
5333 Clear 22 1018 18 10000 5.7 90 15:40 24.10.2019
5334 Clear 22 1018 21 10000 5.7 80 15:21 24.10.2019
5335 Clear 22 1018 21 10000 5.7 80 14:57 24.10.2019
5336 Clear 22 1018 22 10000 5.7 90 14:38 24.10.2019
5337 Clear 22 1018 22 10000 5.7 90 14:19 24.10.2019
5338 Clear 22 1018 31 10000 5.1 90 13:40 24.10.2019
5339 Clear 21 1019 28 10000 5.1 80 13:19 24.10.2019
5340 Clear 21 1019 28 10000 5.1 80 12:57 24.10.2019
5341 Clear 21 1019 30 10000 3.6 60 12:38 24.10.2019
5342 Clear 20 1019 28 10000 5.1 40 12:19 24.10.2019
5343 Clear 19 1020 32 10000 7.2 30 11:56 24.10.2019
5344 Clear 19 1020 32 10000 7.2 30 11:56 24.10.2019
5345 Clear 19 1020 32 10000 7.2 30 11:37 24.10.2019
5346 Clear 19 1020 32 10000 7.2 30 11:37 24.10.2019
5347 Clear 18 1020 34 10000 6.2 20 11:19 24.10.2019
5348 Clear 17 1020 36 10000 4.6 40 10:55 24.10.2019
5349 Clear 17 1020 36 10000 4.6 40 10:36 24.10.2019
5350 Clear 15 1020 44 10000 4.6 10 10:18 24.10.2019
5351 Clear 14 1021 47 10000 4.1 30 09:37 24.10.2019
5352 Clear 13 1021 50 10000 0.5 350 09:18 24.10.2019
5353 Clear 12 1021 62 10000 0.5 0 08:44 24.10.2019
5354 Clear 9 1021 70 10000 0.5 0 08:20 24.10.2019
5355 Clear 9 1021 70 10000 0.5 0 08:20 24.10.2019
5356 Clear 8 1021 75 10000 1.74 60 07:49 24.10.2019
5357 Clear 8 1021 81 10000 1.74 60 07:24 24.10.2019
5358 Clear 7 1021 81 10000 1.74 60 06:59 24.10.2019
5359 Clear 6 1021 75 10000 1.74 60 06:37 24.10.2019
5360 Clear 6 1020 81 10000 4.6 20 05:56 24.10.2019
5361 Clear 6 1020 81 10000 4.6 20 05:36 24.10.2019
5362 Clear 7 1020 75 10000 2.1 20 04:44 24.10.2019
5363 Clear 8 1021 76 10000 0.5 0 03:36 24.10.2019
5364 Clear 9 1021 75 10000 1.83 50 02:50 24.10.2019
5365 Clear 10 1020 71 10000 5.7 40 02:21 24.10.2019
5366 Clear 10 1021 70 10000 4.6 20 01:32 24.10.2019
5367 Clear 11 1021 62 10000 4.6 50 00:57 24.10.2019
5368 Clear 11 1021 62 10000 4.6 50 00:30 24.10.2019
5369 Clear 12 1020 61 10000 4.1 10 23:58 23.10.2019
5370 Clear 12 1021 61 10000 3.1 350 23:38 23.10.2019
5371 Clear 12 1021 61 10000 2.6 340 23:20 23.10.2019
5372 Clear 12 1021 54 10000 1.81 47 22:57 23.10.2019
5373 Clear 12 1021 54 10000 1.81 47 22:37 23.10.2019
5374 Clear 13 1021 62 10000 1 0 22:18 23.10.2019
5375 Clear 13 1021 62 10000 1 0 21:57 23.10.2019
5376 Clear 13 1020 62 10000 1.5 350 21:57 23.10.2019
5377 Clear 13 1020 62 10000 1.5 350 21:37 23.10.2019
5378 Clouds 14 1020 66 10000 2.6 30 21:19 23.10.2019
5379 Clouds 14 1020 62 10000 1.5 0 20:54 23.10.2019
5380 Clouds 14 1020 62 10000 1.5 0 20:36 23.10.2019
5381 Clouds 15 1020 54 10000 0.5 0 20:18 23.10.2019
5382 Clouds 15 1020 54 10000 2.1 350 19:43 23.10.2019
5383 Clouds 16 1020 50 10000 3.1 10 19:19 23.10.2019
5384 Clouds 17 1020 44 10000 4.1 40 18:58 23.10.2019
5385 Clouds 17 1020 44 10000 4.1 40 18:39 23.10.2019
5386 Clouds 19 1020 39 10000 5.1 80 18:19 23.10.2019
5387 Clouds 19 1019 39 10000 4.6 80 17:55 23.10.2019
5388 Clouds 19 1019 39 10000 4.6 80 17:37 23.10.2019
5389 Clouds 21 1019 34 10000 4.6 60 17:18 23.10.2019
5390 Clouds 21 1019 32 10000 5.1 50 16:40 23.10.2019
5391 Clouds 21 1019 30 10000 5.1 30 16:21 23.10.2019
5392 Clouds 21 1019 28 10000 5.1 30 15:57 23.10.2019
5393 Clouds 21 1019 28 10000 5.1 30 15:39 23.10.2019
5394 Clouds 22 1019 36 10000 6.2 50 15:20 23.10.2019
5395 Clouds 22 1019 26 10000 5.1 50 14:56 23.10.2019
5396 Clouds 22 1019 26 10000 5.1 50 14:37 23.10.2019
5397 Clouds 21 1019 28 10000 5.7 40 14:18 23.10.2019
5398 Clouds 21 1019 28 10000 5.7 40 14:18 23.10.2019
5399 Clouds 21 1020 28 10000 5.1 30 13:43 23.10.2019
5400 Clouds 21 1019 40 10000 5.7 50 13:25 23.10.2019
5401 Clouds 20 1019 40 10000 5.7 50 12:57 23.10.2019
5402 Clouds 20 1020 39 10000 5.7 50 12:38 23.10.2019
5403 Clouds 19 1020 45 10000 5.7 60 12:19 23.10.2019
5404 Clouds 19 1021 45 10000 5.7 30 11:58 23.10.2019
5405 Clouds 19 1021 45 10000 5.7 30 11:39 23.10.2019
5406 Clouds 19 1021 45 10000 5.7 50 11:21 23.10.2019
5407 Clouds 17 1022 51 10000 5.7 60 10:55 23.10.2019
5408 Clouds 17 1022 51 10000 5.7 60 10:37 23.10.2019
5409 Clouds 16 1022 58 10000 5.7 10 10:18 23.10.2019
5410 Clouds 16 1022 58 10000 5.7 10 10:18 23.10.2019
5411 Clouds 16 1022 62 10000 5.7 10 09:40 23.10.2019
5412 Clouds 14 1022 66 10000 6.7 20 09:22 23.10.2019
5413 Clouds 12 1022 66 10000 5.1 20 08:54 23.10.2019
5414 Clouds 12 1022 66 10000 5.1 20 08:36 23.10.2019
5415 Clouds 11 1022 66 10000 2.1 330 08:18 23.10.2019
5416 Clouds 10 1022 71 10000 2.1 350 07:41 23.10.2019
5417 Clear 9 1022 71 10000 2.1 350 07:19 23.10.2019
5418 Clear 9 1022 76 10000 1 0 06:41 23.10.2019
5419 Clear 9 1021 76 10000 1.5 280 06:19 23.10.2019
5420 Clear 9 1021 81 10000 1 0 05:19 23.10.2019
5421 Clear 10 1021 81 10000 0.5 0 03:46 23.10.2019
5422 Clear 11 1021 81 10000 3.6 360 02:43 23.10.2019
5423 Clear 11 1022 76 10000 1.5 360 01:40 23.10.2019
5424 Clear 12 1022 76 10000 2.6 330 01:18 23.10.2019
5425 Clear 12 1021 76 10000 4.6 40 00:34 23.10.2019
5426 Clear 13 1021 76 10000 4.1 10 23:55 22.10.2019
5427 Clear 13 1021 76 10000 4.1 10 23:37 22.10.2019
5428 Clear 13 1022 71 10000 3.1 350 23:18 22.10.2019
5429 Clear 13 1022 71 10000 3.1 350 23:18 22.10.2019
5430 Clear 13 1021 71 10000 3.6 30 22:40 22.10.2019
5431 Clear 14 1022 66 10000 5.7 20 22:22 22.10.2019
5432 Clear 14 1022 62 10000 6.7 30 21:57 22.10.2019
5433 Clear 14 1022 62 10000 6.7 30 21:38 22.10.2019
5434 Clear 14 1021 62 10000 7.7 50 21:19 22.10.2019
5435 Clear 14 1021 62 10000 7.7 50 20:58 22.10.2019
5436 Clear 15 1021 58 10000 5.7 50 20:40 22.10.2019
5437 Clear 14 1021 58 10000 5.7 40 20:22 22.10.2019
5438 Clear 14 1021 58 10000 5.7 40 19:57 22.10.2019
5439 Clear 14 1021 62 10000 4.1 360 19:39 22.10.2019
5440 Clear 14 1021 62 10000 4.1 360 19:39 22.10.2019
5441 Clouds 15 1021 62 10000 3.1 350 19:21 22.10.2019
5442 Clouds 15 1021 54 10000 2.6 10 18:56 22.10.2019
5443 Clouds 15 1021 54 10000 2.6 10 18:37 22.10.2019
5444 Clear 17 1020 51 10000 2.43 79 18:19 22.10.2019
5445 Clouds 18 1020 48 10000 2.1 70 17:55 22.10.2019
5446 Clouds 18 1020 48 10000 2.1 70 17:36 22.10.2019
5447 Clouds 19 1020 45 10000 3.1 50 17:18 22.10.2019
5448 Clouds 19 1020 45 10000 5.1 50 16:39 22.10.2019
5449 Clouds 19 1020 39 10000 5.1 40 16:20 22.10.2019
5450 Clouds 19 1020 39 10000 5.1 40 15:59 22.10.2019
5451 Clouds 20 1020 39 10000 4.6 60 15:41 22.10.2019
5452 Clouds 19 1020 42 10000 4.6 60 15:19 22.10.2019
5453 Clouds 19 1021 39 10000 7.2 60 14:46 22.10.2019
5454 Clouds 19 1021 39 10000 6.2 50 14:22 22.10.2019
5455 Clouds 19 1021 39 10000 6.2 60 13:55 22.10.2019
5456 Clouds 19 1021 39 10000 6.2 60 13:55 22.10.2019
5457 Clouds 19 1021 39 10000 6.2 60 13:37 22.10.2019
5458 Clouds 18 1021 45 10000 6.7 40 13:18 22.10.2019
5459 Clouds 18 1021 45 10000 7.2 30 12:41 22.10.2019
5460 Clouds 17 1021 48 10000 7.2 30 12:22 22.10.2019
5461 Clouds 17 1021 48 10000 7.2 30 11:59 22.10.2019
5462 Clouds 17 1022 51 10000 6.7 30 11:39 22.10.2019
5463 Clouds 16 1022 54 10000 7.2 40 11:21 22.10.2019
5464 Clouds 16 1022 54 10000 7.2 40 10:58 22.10.2019
5465 Clouds 16 1022 54 10000 6.2 40 10:37 22.10.2019
5466 Clouds 16 1022 54 10000 6.2 40 10:19 22.10.2019
5467 Clouds 16 1022 54 10000 6.2 40 10:19 22.10.2019
5468 Clouds 15 1022 58 10000 5.7 40 09:55 22.10.2019
5469 Clouds 15 1022 58 10000 5.7 40 09:37 22.10.2019
5470 Clouds 15 1022 62 10000 5.7 40 09:19 22.10.2019
5471 Clouds 14 1022 58 10000 5.1 40 08:42 22.10.2019
5472 Clouds 14 1021 58 10000 3.6 40 08:21 22.10.2019
5473 Clouds 13 1021 66 10000 4.1 50 07:49 22.10.2019
5474 Clouds 13 1021 66 10000 4.1 50 07:29 22.10.2019
5475 Clouds 12 1021 66 10000 2.07 27 06:52 22.10.2019
5476 Clouds 12 1021 66 10000 2.07 27 06:31 22.10.2019
5477 Clouds 12 1021 67 10000 2.1 20 05:58 22.10.2019
5478 Clouds 12 1021 71 10000 0.5 0 05:24 22.10.2019
5479 Clouds 12 1021 66 10000 3.6 20 02:48 22.10.2019
5480 Clouds 12 1021 66 10000 3.6 20 02:28 22.10.2019
5481 Clouds 13 1021 66 10000 3.1 10 01:29 22.10.2019
5482 Clouds 13 1021 66 10000 3.6 20 00:58 22.10.2019
5483 Clouds 13 1021 66 10000 4.6 40 00:40 22.10.2019
5484 Clouds 13 1021 67 10000 0.5 0 00:21 22.10.2019
5485 Clouds 13 1021 71 10000 4.6 50 23:55 21.10.2019
5486 Clouds 13 1021 71 10000 4.6 50 23:37 21.10.2019
5487 Clouds 14 1021 71 10000 3.6 20 23:18 21.10.2019
5488 Clouds 14 1021 71 10000 3.6 20 23:18 21.10.2019
5489 Clouds 14 1021 71 10000 3.6 20 22:56 21.10.2019
5490 Clouds 14 1021 71 10000 2.1 320 22:37 21.10.2019
5491 Clouds 15 1021 66 10000 0.5 0 22:19 21.10.2019
5492 Clouds 15 1021 66 10000 1 0 21:54 21.10.2019
5493 Clouds 15 1021 66 10000 1 0 21:54 21.10.2019
5494 Clouds 15 1021 66 10000 1 0 21:36 21.10.2019
5495 Clouds 15 1021 66 10000 1 0 21:36 21.10.2019
5496 Clouds 15 1021 62 10000 3.1 360 21:18 21.10.2019
5497 Clouds 16 1021 54 10000 4.1 40 20:41 21.10.2019
5498 Clouds 16 1021 58 10000 3.6 30 20:21 21.10.2019
5499 Clouds 16 1021 58 10000 3.6 30 19:59 21.10.2019
5500 Clouds 16 1021 58 10000 3.1 20 19:41 21.10.2019
5501 Clouds 17 1021 58 10000 1.5 20 19:22 21.10.2019
5502 Clouds 17 1020 51 10000 1 0 18:56 21.10.2019
5503 Clouds 18 1020 51 10000 1 0 18:37 21.10.2019
5504 Clouds 18 1020 51 10000 1 0 18:37 21.10.2019
5505 Clouds 18 1020 51 10000 3.1 80 18:19 21.10.2019
5506 Clouds 19 1020 48 10000 3.1 80 17:56 21.10.2019
5507 Clouds 19 1020 48 10000 3.1 80 17:38 21.10.2019
5508 Clouds 19 1020 48 10000 2.1 90 17:18 21.10.2019
5509 Clouds 19 1020 48 10000 2.1 90 16:56 21.10.2019
5510 Clouds 19 1020 42 10000 2.6 110 16:38 21.10.2019
5511 Clouds 19 1020 42 10000 2.6 110 16:38 21.10.2019
5512 Clouds 20 1020 42 10000 3.6 80 16:19 21.10.2019
5513 Clouds 21 1020 37 10000 4.1 60 15:45 21.10.2019
5514 Clouds 20 1020 40 10000 5.7 60 15:25 21.10.2019
5515 Clouds 21 1020 40 10000 5.7 60 14:58 21.10.2019
5516 Clouds 21 1021 40 10000 5.7 40 14:38 21.10.2019
5517 Clouds 20 1021 37 10000 5.1 60 14:19 21.10.2019
5518 Clouds 20 1021 37 10000 5.1 60 13:56 21.10.2019
5519 Clouds 21 1021 37 10000 4.6 60 13:37 21.10.2019
5520 Clouds 20 1021 37 10000 4.6 50 13:18 21.10.2019
5521 Clouds 20 1022 42 10000 5.1 30 12:41 21.10.2019
5522 Clouds 19 1022 42 10000 5.1 40 12:22 21.10.2019
5523 Clouds 19 1022 48 10000 2.1 0 11:55 21.10.2019
5524 Clouds 18 1022 48 10000 2.1 0 11:37 21.10.2019
5525 Clouds 18 1023 48 10000 1 0 11:19 21.10.2019
5526 Clouds 18 1023 55 10000 1 0 10:56 21.10.2019
5527 Clouds 18 1023 55 10000 1 0 10:37 21.10.2019
5528 Clouds 16 1023 59 10000 2.1 360 10:18 21.10.2019
5529 Clear 15 1023 62 10000 1.5 350 09:44 21.10.2019
5530 Clear 14 1023 71 10000 2.35 45.396 09:25 21.10.2019
5531 Clear 12 1024 81 10000 2.12 33.562 08:44 21.10.2019
5532 Clear 12 1023 87 10000 2.12 33.562 08:24 21.10.2019
5533 Clear 12 1023 87 10000 2.12 33.562 08:24 21.10.2019
5534 Clear 12 1023 87 10000 2.12 33.562 08:24 21.10.2019
5535 Clear 10 1023 87 10000 2.12 33.562 07:59 21.10.2019
5536 Clear 9 1023 87 10000 1 0 07:38 21.10.2019
5537 Clear 9 1023 87 8000 2.12 33.562 07:19 21.10.2019
5538 Clear 8 1023 93 10000 1 0 06:53 21.10.2019
5539 Clear 8 1023 93 10000 1 0 06:35 21.10.2019
5540 Clear 8 1023 87 10000 2.39 25.534 05:55 21.10.2019
5541 Clear 9 1022 87 10000 2.39 25.534 04:44 21.10.2019
5542 Clear 10 1022 81 10000 2.84 14.668 02:50 21.10.2019
5543 Clear 11 1022 81 10000 2.84 14.668 02:23 21.10.2019
5544 Clear 11 1023 81 10000 1 10 01:55 21.10.2019
5545 Clear 11 1023 87 10000 2.83 15.887 01:23 21.10.2019
5546 Clear 12 1023 76 10000 1.5 20 00:46 21.10.2019
5547 Clear 12 1023 76 10000 1 50 00:25 21.10.2019
5548 Clear 12 1023 76 10000 1.5 70 23:42 20.10.2019
5549 Clear 13 1023 81 10000 0.5 0 23:22 20.10.2019
5550 Clear 13 1023 81 10000 0.5 0 22:56 20.10.2019
5551 Clear 13 1023 76 10000 2.6 350 22:37 20.10.2019
5552 Clear 14 1023 76 10000 1 0 22:18 20.10.2019
5553 Clear 14 1023 76 10000 1 0 21:57 20.10.2019
5554 Clear 14 1023 76 10000 2.1 30 21:38 20.10.2019
5555 Clouds 15 1022 71 10000 2.1 20 21:20 20.10.2019
5556 Clouds 16 1022 71 10000 2.6 40 20:41 20.10.2019
5557 Clouds 17 1022 67 10000 2.1 70 20:19 20.10.2019
5558 Clouds 17 1022 67 10000 2.1 70 19:56 20.10.2019
5559 Clouds 17 1022 67 10000 2.6 50 19:38 20.10.2019
5560 Clouds 17 1022 71 10000 1.5 40 19:19 20.10.2019
5561 Clouds 18 1022 67 10000 1.5 70 18:43 20.10.2019
5562 Clouds 17 1022 72 10000 0.5 0 18:24 20.10.2019
5563 Clouds 18 1022 72 10000 0.5 0 17:59 20.10.2019
5564 Clouds 19 1022 72 10000 0.5 0 17:41 20.10.2019
5565 Clouds 19 1021 72 10000 1 300 17:23 20.10.2019
5566 Clouds 19 1021 72 10000 1 300 16:57 20.10.2019
5567 Clouds 19 1021 63 10000 0.5 0 16:39 20.10.2019
5568 Clouds 20 1021 63 10000 0.5 0 16:21 20.10.2019
5569 Clouds 21 1022 55 10000 2.1 120 15:55 20.10.2019
5570 Clouds 21 1022 55 10000 2.1 120 15:37 20.10.2019
5571 Clouds 20 1022 67 10000 3.1 180 15:18 20.10.2019
5572 Clouds 21 1022 63 10000 3.1 280 14:55 20.10.2019
5573 Clouds 21 1022 63 10000 3.1 280 14:37 20.10.2019
5574 Thunderstorm 21 1021 63 10000 7.2 340 14:18 20.10.2019
5575 Clouds 22 1021 42 10000 3.6 20 13:54 20.10.2019
5576 Clouds 22 1021 42 10000 3.6 20 13:54 20.10.2019
5577 Clouds 22 1021 42 10000 3.6 20 13:54 20.10.2019
5578 Clouds 22 1021 42 10000 3.6 20 13:54 20.10.2019
5579 Clouds 22 1021 42 10000 3.6 20 13:36 20.10.2019
5580 Clouds 21 1021 40 10000 2.6 70 13:18 20.10.2019
5581 Clouds 21 1021 40 10000 2.6 70 13:18 20.10.2019
5582 Clouds 20 1021 40 10000 2.6 340 12:54 20.10.2019
5583 Clouds 20 1021 40 10000 2.6 340 12:54 20.10.2019
5584 Clouds 20 1021 40 10000 2.6 340 12:36 20.10.2019
5585 Clouds 19 1022 43 10000 1.5 0 12:18 20.10.2019
5586 Clouds 19 1022 45 10000 2.1 300 11:41 20.10.2019
5587 Clouds 18 1022 49 10000 1 0 11:22 20.10.2019
5588 Clouds 18 1022 49 10000 1 0 10:58 20.10.2019
5589 Clouds 17 1022 55 10000 1.5 0 10:39 20.10.2019
5590 Clouds 17 1022 55 10000 1.5 0 10:39 20.10.2019
5591 Clouds 16 1023 55 10000 0.5 0 10:21 20.10.2019
5592 Clouds 16 1023 55 10000 0.5 0 10:21 20.10.2019
5593 Clouds 15 1023 59 10000 0.5 0 09:56 20.10.2019
5594 Clouds 14 1023 59 10000 0.5 0 09:37 20.10.2019
5595 Clear 13 1023 76 10000 1 0 09:18 20.10.2019
5596 Clear 12 1023 62 10000 0.5 0 08:40 20.10.2019
5597 Clear 9 1023 81 10000 1.37 3.05 08:21 20.10.2019
5598 Clear 8 1023 81 10000 1.37 3.05 07:47 20.10.2019
5599 Clear 8 1023 81 10000 1.37 3.05 07:28 20.10.2019
5600 Clear 7 1022 87 10000 1.37 3.05 06:30 20.10.2019
5601 Clear 8 1022 81 10000 1.2 340.807 04:30 20.10.2019
5602 Clear 8 1022 81 10000 1.2 340.807 03:52 20.10.2019
5603 Clear 8 1022 81 10000 1.58 351.973 03:22 20.10.2019
5604 Clear 9 1022 81 10000 1.58 351.973 02:49 20.10.2019
5605 Clear 9 1022 81 10000 1.58 351.973 02:22 20.10.2019
5606 Clear 9 1022 81 10000 1.58 351.973 01:50 20.10.2019
5607 Clear 10 1022 76 10000 1.56 352.807 01:22 20.10.2019
5608 Clear 9 1021 76 10000 1.56 352.807 00:48 20.10.2019
5609 Clear 10 1022 76 10000 2.05 4.476 00:21 20.10.2019
5610 Clear 10 1021 71 10000 2.05 4.476 23:54 19.10.2019
5611 Clear 10 1021 71 10000 2.05 4.476 23:36 19.10.2019
5612 Clear 11 1021 76 10000 0.5 0 23:18 19.10.2019
5613 Clear 12 1021 66 10000 2.05 4.476 22:40 19.10.2019
5614 Clear 12 1021 76 10000 0.5 0 22:22 19.10.2019
5615 Clear 12 1021 76 10000 0.5 0 21:57 19.10.2019
5616 Clouds 12 1021 71 10000 2.05 4.476 21:39 19.10.2019
5617 Clouds 13 1021 66 10000 0.5 0 21:20 19.10.2019
5618 Clouds 13 1021 66 10000 3.1 30 20:42 19.10.2019
5619 Clouds 13 1021 66 10000 3.1 30 20:42 19.10.2019
5620 Clear 14 1021 76 10000 0.5 170 20:21 19.10.2019
5621 Clouds 15 1021 58 10000 2.1 330 19:45 19.10.2019
5622 Clouds 16 1021 54 10000 1 20 19:26 19.10.2019
5623 Clouds 16 1021 54 10000 1 20 18:57 19.10.2019
5624 Clouds 17 1020 48 10000 2.6 50 18:39 19.10.2019
5625 Clouds 17 1020 48 10000 3.1 20 18:19 19.10.2019
5626 Clouds 19 1020 39 10000 3.1 280 17:41 19.10.2019
5627 Rain 21 1019 34 10000 5.1 280 17:23 19.10.2019
5628 Rain 21 1019 34 10000 5.1 280 16:57 19.10.2019
5629 Rain 21 1019 34 10000 5.1 280 16:57 19.10.2019
5630 Clouds 22 1019 30 10000 3.1 290 16:38 19.10.2019
5631 Clouds 22 1019 40 10000 2.6 250 16:19 19.10.2019
5632 Clouds 22 1019 33 10000 3.6 230 15:43 19.10.2019
5633 Clouds 21 1019 35 10000 3.6 240 15:24 19.10.2019
5634 Clouds 22 1019 40 10000 2.6 330 14:39 19.10.2019
5635 Clouds 22 1019 40 10000 2.6 330 14:39 19.10.2019
5636 Clouds 21 1019 35 10000 2.1 210 14:21 19.10.2019
5637 Clouds 21 1019 35 10000 2.1 210 14:21 19.10.2019
5638 Clouds 21 1019 35 10000 2.1 210 13:58 19.10.2019
5639 Clouds 22 1019 37 10000 1.5 240 13:40 19.10.2019
5640 Clouds 21 1019 43 10000 2.6 220 13:19 19.10.2019
5641 Clouds 20 1019 43 10000 2.6 220 12:57 19.10.2019
5642 Clouds 20 1020 43 10000 1 0 12:37 19.10.2019
5643 Clouds 19 1020 42 10000 2.1 0 12:19 19.10.2019
5644 Clouds 19 1021 52 10000 2.1 230 11:41 19.10.2019
5645 Clouds 19 1021 59 10000 2.1 280 11:23 19.10.2019
5646 Clouds 17 1021 59 10000 1 0 10:56 19.10.2019
5647 Clouds 17 1021 72 10000 1.5 220 10:38 19.10.2019
5648 Clouds 16 1021 72 10000 1.5 220 10:20 19.10.2019
5649 Clear 15 1021 77 10000 1.83 248.879 09:43 19.10.2019
5650 Clear 14 1021 77 10000 1.83 248.879 09:25 19.10.2019
5651 Clear 13 1022 82 10000 1 0 08:59 19.10.2019
5652 Clear 12 1021 93 10000 0.5 0 08:40 19.10.2019
5653 Clear 12 1021 93 10000 0.5 0 08:40 19.10.2019
5654 Clear 11 1021 93 10000 0.5 0 08:21 19.10.2019
5655 Mist 9 1021 93 10000 0.5 250 07:44 19.10.2019
5656 Mist 9 1021 93 10000 0.5 250 07:25 19.10.2019
5657 Mist 9 1021 100 6000 1 230 06:47 19.10.2019
5658 Mist 9 1021 100 6000 1 230 06:26 19.10.2019
5659 Mist 9 1021 100 6000 1 230 06:26 19.10.2019
5660 Clear 10 1020 100 6000 0.71 331.133 05:33 19.10.2019
5661 Clear 11 1020 93 10000 1.5 220 04:22 19.10.2019
5662 Clouds 12 1020 82 10000 1.15 324.63 02:46 19.10.2019
5663 Clouds 13 1020 82 10000 1.15 324.63 01:53 19.10.2019
5664 Clouds 13 1020 82 10000 1.06 324.009 01:20 19.10.2019
5665 Clouds 14 1020 82 10000 1.5 330 00:48 19.10.2019
5666 Clouds 13 1020 82 10000 1.5 330 00:26 19.10.2019
5667 Clouds 14 1020 82 10000 2.6 340 23:45 18.10.2019
5668 Clouds 14 1020 72 10000 3.6 50 23:26 18.10.2019
5669 Clouds 15 1020 72 10000 3.6 50 22:57 18.10.2019
5670 Clouds 14 1021 76 10000 3.1 20 22:39 18.10.2019
5671 Clouds 14 1020 82 10000 3.6 70 22:20 18.10.2019
5672 Clouds 14 1020 82 10000 3.6 70 22:20 18.10.2019
5673 Clouds 14 1020 82 10000 3.6 70 21:58 18.10.2019
5674 Rain 15 1021 72 10000 4.1 20 21:39 18.10.2019
5675 Thunderstorm 14 1020 82 10000 1 0 21:20 18.10.2019
5676 Thunderstorm 15 1020 82 10000 1 0 20:56 18.10.2019
5677 Rain 15 1021 63 10000 2.1 310 20:38 18.10.2019
5678 Rain 15 1021 93 10000 1.5 270 20:20 18.10.2019
5679 Rain 15 1021 93 10000 1.5 270 20:20 18.10.2019
5680 Rain 15 1021 93 10000 1.5 270 19:57 18.10.2019
5681 Rain 16 1020 51 10000 3.1 280 19:38 18.10.2019
5682 Rain 17 1020 48 10000 2.1 210 19:20 18.10.2019
5683 Rain 17 1019 82 10000 1 0 18:55 18.10.2019
5684 Rain 17 1019 82 10000 1 0 18:37 18.10.2019
5685 Thunderstorm 19 1019 45 10000 3.1 210 18:19 18.10.2019
5686 Thunderstorm 19 1019 42 10000 1.5 210 17:39 18.10.2019
5687 Thunderstorm 20 1019 45 10000 3.1 120 17:20 18.10.2019
5688 Rain 20 1019 45 10000 3.1 120 16:56 18.10.2019
5689 Rain 21 1019 37 10000 3.1 230 16:37 18.10.2019
5690 Clouds 22 1019 35 10000 3.6 210 16:19 18.10.2019
5691 Clouds 23 1019 35 10000 1.5 150 15:40 18.10.2019
5692 Clouds 22 1019 33 10000 0.5 0 15:21 18.10.2019
5693 Clouds 22 1019 33 10000 0.5 0 14:58 18.10.2019
5694 Clouds 22 1019 33 10000 0.5 0 14:58 18.10.2019
5695 Clouds 22 1019 33 10000 0.5 0 14:58 18.10.2019
5696 Clouds 22 1019 33 10000 0.5 0 14:58 18.10.2019
5697 Clouds 22 1019 33 10000 1.5 0 14:58 18.10.2019
5698 Clouds 22 1019 33 10000 1.5 0 14:40 18.10.2019
5699 Clouds 22 1019 35 10000 2.1 220 14:22 18.10.2019
5700 Clouds 22 1019 35 10000 2.1 220 13:59 18.10.2019
5701 Clouds 22 1020 35 10000 0.5 0 13:40 18.10.2019
5702 Clouds 21 1020 40 10000 1 0 13:22 18.10.2019
5703 Clouds 20 1020 40 10000 0.5 0 12:56 18.10.2019
5704 Clouds 20 1020 40 10000 0.5 0 12:38 18.10.2019
5705 Clouds 20 1020 49 10000 1.5 200 12:20 18.10.2019
5706 Clouds 18 1021 52 10000 0.5 0 11:55 18.10.2019
5707 Clouds 18 1021 52 10000 0.5 0 11:37 18.10.2019
5708 Clouds 17 1021 55 10000 1.5 0 11:18 18.10.2019
5709 Clouds 16 1021 63 10000 0.5 0 10:42 18.10.2019
5710 Clouds 15 1021 67 10000 0.5 0 10:22 18.10.2019
5711 Clouds 15 1021 67 10000 0.5 0 09:58 18.10.2019
5712 Clouds 14 1021 71 10000 2.1 70 09:40 18.10.2019
5713 Rain 14 1021 67 10000 0.87 269.868 09:20 18.10.2019
5714 Clouds 13 1021 66 10000 0.87 269.868 08:57 18.10.2019
5715 Clouds 13 1021 66 10000 0.87 269.868 08:38 18.10.2019
5716 Clouds 13 1021 82 10000 0.87 269.868 08:20 18.10.2019
5717 Clouds 12 1021 76 10000 1 290 07:41 18.10.2019
5718 Clouds 12 1021 87 10000 1 0 07:19 18.10.2019
5719 Clouds 12 1021 76 10000 0.5 120 06:39 18.10.2019
5720 Clouds 12 1021 76 10000 0.25 307.915 06:20 18.10.2019
5721 Clouds 12 1021 81 10000 0.25 307.915 05:54 18.10.2019
5722 Clouds 11 1021 81 10000 1 0 05:21 18.10.2019
5723 Clouds 12 1021 76 10000 2.6 50 03:43 18.10.2019
5724 Clouds 13 1021 66 10000 0.5 0 03:23 18.10.2019
5725 Clouds 13 1021 66 10000 1.5 150 02:33 18.10.2019
5726 Clouds 14 1021 66 10000 2.1 40 01:43 18.10.2019
5727 Clouds 14 1021 66 10000 1.5 10 01:25 18.10.2019
5728 Clouds 14 1021 62 10000 0.5 30 00:44 18.10.2019
5729 Clouds 14 1021 66 10000 1 50 00:20 18.10.2019
5730 Clouds 14 1021 66 10000 1 50 00:20 18.10.2019
5731 Clouds 13 1021 62 10000 2.1 30 23:42 17.10.2019
5732 Clouds 13 1021 62 10000 1 0 23:21 17.10.2019
5733 Clouds 13 1021 62 10000 1 0 22:58 17.10.2019
5734 Clouds 13 1021 58 10000 1.29 349.894 22:39 17.10.2019
5735 Clouds 13 1021 58 10000 1 0 22:20 17.10.2019
5736 Clouds 13 1021 58 10000 1 0 21:58 17.10.2019
5737 Clouds 13 1021 58 10000 1 0 21:40 17.10.2019
5738 Clouds 13 1021 58 10000 2.27 24.603 21:21 17.10.2019
5739 Clouds 13 1021 58 10000 2.27 24.603 21:21 17.10.2019
5740 Clouds 13 1021 58 10000 3.12 19.598 20:58 17.10.2019
5741 Clouds 14 1021 54 10000 1.5 310 20:40 17.10.2019
5742 Clouds 15 1020 54 10000 0.5 0 20:20 17.10.2019
5743 Clouds 15 1020 54 10000 0.5 0 19:59 17.10.2019
5744 Clouds 15 1020 54 10000 0.5 0 19:59 17.10.2019
5745 Clouds 15 1020 55 10000 2.1 50 19:40 17.10.2019
5746 Clouds 16 1020 51 10000 3.1 60 19:20 17.10.2019
5747 Clouds 16 1020 51 10000 3.1 60 18:58 17.10.2019
5748 Clouds 16 1020 45 10000 4.1 50 18:38 17.10.2019
5749 Clouds 17 1020 45 10000 3.1 40 18:20 17.10.2019
5750 Clouds 18 1019 77 10000 2.6 340 17:42 17.10.2019
5751 Clouds 17 1020 42 10000 1 0 17:23 17.10.2019
5752 Clouds 18 1020 42 10000 1 0 16:57 17.10.2019
5753 -273 0 0 0 0 0 16:39 17.10.2019
5754 Thunderstorm 19 1021 77 10000 3.1 270 16:18 17.10.2019
5755 Clouds 20 1021 72 10000 4.1 160 15:56 17.10.2019
5756 Clouds 20 1021 72 10000 4.1 160 15:38 17.10.2019
5757 Clouds 22 1020 33 10000 5.1 90 15:19 17.10.2019
5758 Thunderstorm 23 1019 40 10000 4.1 280 14:54 17.10.2019
5759 Thunderstorm 23 1019 40 10000 4.1 280 14:36 17.10.2019
5760 Clouds 24 1019 36 10000 5.1 270 14:18 17.10.2019
5761 Clouds 24 1020 31 10000 4.1 210 13:39 17.10.2019
5762 Clouds 24 1020 31 10000 4.6 230 13:19 17.10.2019
5763 Clouds 23 1020 33 10000 4.1 210 12:43 17.10.2019
5764 Clouds 23 1020 38 10000 2.6 320 12:21 17.10.2019
5765 Clouds 22 1020 29 10000 2.1 0 11:59 17.10.2019
5766 Clouds 22 1020 29 10000 2.1 0 11:41 17.10.2019
5767 Clouds 22 1020 29 10000 2.1 0 11:41 17.10.2019
5768 Clouds 22 1020 29 10000 2.1 0 11:41 17.10.2019
5769 Clouds 22 1020 29 10000 2.1 0 11:41 17.10.2019
5770 Clouds 20 1021 33 10000 2.1 250 11:20 17.10.2019
5771 Clouds 19 1021 35 10000 2.527 167 10:56 17.10.2019
5772 Clouds 19 1021 35 10000 2.527 167 10:56 17.10.2019
5773 Clouds 19 1021 35 10000 2.527 167 10:38 17.10.2019
5774 Clouds 18 1021 37 10000 2.527 167 10:19 17.10.2019
5775 Clouds 16 1021 42 10000 0.5 0 09:54 17.10.2019
5776 Clouds 16 1021 42 10000 0.5 0 09:36 17.10.2019
5777 Clouds 15 1021 48 10000 1.143 71 09:18 17.10.2019
5778 Clouds 15 1021 48 10000 1.143 71 09:18 17.10.2019
5779 Clouds 15 1021 50 10000 1.143 71 08:42 17.10.2019
5780 -273 0 0 0 0 0 08:24 17.10.2019
5781 Clouds 11 1021 61 10000 0.5 0 07:56 17.10.2019
5782 Clouds 11 1021 61 10000 0.5 0 07:37 17.10.2019
5783 Clouds 10 1020 81 10000 1.143 71 07:18 17.10.2019
5784 Clouds 10 1020 81 10000 1.143 71 07:18 17.10.2019
5785 Clouds 9 1021 70 10000 1 0 06:40 17.10.2019
5786 Clouds 9 1020 81 10000 0.798 86 06:21 17.10.2019
5787 Clear 9 1020 65 10000 0.5 0 05:54 17.10.2019
5788 Clear 10 1020 65 10000 0.5 0 05:32 17.10.2019
5789 Clear 10 1020 66 10000 1.5 50 04:56 17.10.2019
5790 Clear 11 1020 61 10000 2.1 120 03:55 17.10.2019
5791 Clouds 11 1020 61 10000 0.434 279 02:50 17.10.2019
5792 Clouds 12 1020 61 10000 2.1 30 01:31 17.10.2019
5793 Clouds 12 1021 61 10000 1.5 360 00:40 17.10.2019
5794 Clouds 12 1020 66 10000 0.5 0 00:19 17.10.2019
5795 Clouds 13 1021 58 10000 0.605 83 23:42 16.10.2019
5796 Clouds 13 1021 71 10000 1 0 23:21 16.10.2019
5797 -273 0 0 0 0 0 22:56 16.10.2019
5798 Clouds 14 1020 62 10000 1 0 22:37 16.10.2019
5799 Clouds 14 1020 62 10000 0.605 83 22:19 16.10.2019
5800 Clouds 14 1020 62 10000 0.605 83 22:19 16.10.2019
5801 Clouds 14 1020 62 10000 0.605 83 21:57 16.10.2019
5802 Rain 13 1020 54 10000 1 60 21:37 16.10.2019
5803 Clouds 15 1020 51 10000 1 0 21:19 16.10.2019
5804 Clouds 15 1020 51 10000 1 0 20:58 16.10.2019
5805 Clouds 15 1020 51 10000 1 0 20:39 16.10.2019
5806 Clouds 17 1020 45 10000 1 0 20:20 16.10.2019
5807 Clouds 17 1020 45 10000 1 0 19:58 16.10.2019
5808 Clouds 17 1019 45 10000 0.5 0 19:38 16.10.2019
5809 Clouds 17 1019 51 10000 1.5 220 19:20 16.10.2019
5810 Clouds 17 1019 51 10000 1.5 220 19:20 16.10.2019
5811 Clouds 20 1019 37 10000 2.6 150 18:39 16.10.2019
5812 Clouds 20 1019 45 10000 1.816 89 18:20 16.10.2019
5813 Clouds 21 1019 45 10000 1.816 89 17:58 16.10.2019
5814 Clouds 21 1019 45 10000 1.816 89 17:58 16.10.2019
5815 Clouds 22 1019 37 10000 2.1 180 17:39 16.10.2019
5816 Clouds 23 1018 35 10000 2.1 180 17:21 16.10.2019
5817 Clouds 22 1018 35 10000 2.1 180 16:59 16.10.2019
5818 Clouds 23 1018 35 10000 2.6 200 16:41 16.10.2019
5819 Clouds 23 1018 35 10000 2.6 200 16:41 16.10.2019
5820 Clouds 23 1018 31 10000 3.6 210 16:21 16.10.2019
5821 -273 0 0 0 0 0 15:56 16.10.2019
5822 Clouds 23 1018 31 10000 3.6 210 15:56 16.10.2019
5823 Clouds 23 1018 31 10000 3.6 210 15:56 16.10.2019
5824 Clouds 24 1019 29 10000 3.1 190 15:38 16.10.2019
5825 Clouds 24 1019 25 10000 2.1 210 15:18 16.10.2019
5826 Clouds 24 1019 25 10000 2.1 210 14:56 16.10.2019
5827 Clouds 24 1019 25 10000 2.1 210 14:56 16.10.2019
5828 Clouds 25 1019 25 10000 2.1 210 14:37 16.10.2019
5829 Clouds 25 1019 31 10000 4.1 220 14:18 16.10.2019
5830 Clouds 25 1019 24 10000 2.6 210 13:56 16.10.2019
5831 Clouds 25 1019 24 10000 2.6 210 13:36 16.10.2019
5832 Clouds 25 1020 33 10000 4.1 270 13:18 16.10.2019
5833 Clouds 25 1020 20 10000 4.1 210 12:40 16.10.2019
5834 Clouds 24 1020 31 10000 4.1 190 12:18 16.10.2019
5835 Clouds 24 1020 22 10000 3.6 240 11:43 16.10.2019
5836 Clouds 22 1021 20 10000 1.5 220 11:18 16.10.2019
5837 Clouds 22 1021 22 10000 1 0 10:39 16.10.2019
5838 Clouds 19 1021 22 10000 1.5 190 10:20 16.10.2019
5839 Clouds 19 1021 25 10000 0.5 290 09:56 16.10.2019
5840 Clouds 19 1021 25 10000 0.5 290 09:38 16.10.2019
5841 Clouds 19 1020 34 10000 1.218 118 09:19 16.10.2019
5842 Clouds 16 1021 35 10000 1.218 118 08:43 16.10.2019
5843 Clouds 15 1020 47 10000 1.218 118 08:24 16.10.2019
5844 Clouds 12 1021 40 10000 1 0 07:46 16.10.2019
5845 Clouds 12 1020 54 10000 1.218 118 07:25 16.10.2019
5846 Clouds 12 1020 54 10000 1.218 118 06:59 16.10.2019
5847 Clouds 11 1020 49 10000 1 0 06:39 16.10.2019
5848 Clouds 11 1020 49 10000 1 0 06:39 16.10.2019
5849 Clouds 11 1020 49 10000 2.1 10 05:54 16.10.2019
5850 Clouds 12 1020 50 10000 1.5 40 03:26 16.10.2019
5851 Clouds 12 1020 52 10000 1 310 02:49 16.10.2019
5852 Clouds 13 1020 54 10000 1 0 01:19 16.10.2019
5853 Clouds 14 1021 35 10000 1.084 88 00:50 16.10.2019
5854 Clouds 14 1021 35 10000 1.084 88 00:28 16.10.2019
5855 Clouds 14 1021 40 10000 1.343 91 23:41 15.10.2019
5856 Clouds 15 1020 44 10000 2.1 0 23:22 15.10.2019
5857 Clouds 15 1021 37 10000 1.343 91 22:56 15.10.2019
5858 Clouds 15 1021 33 10000 1.343 91 22:38 15.10.2019
5859 Clouds 15 1021 33 10000 1.343 91 22:38 15.10.2019
5860 Clouds 16 1021 33 10000 1.343 91 22:20 15.10.2019
5861 -273 0 0 0 0 0 21:56 15.10.2019
5862 Clouds 15 1021 33 10000 1.343 91 21:56 15.10.2019
5863 Clouds 15 1021 33 10000 1.343 91 21:56 15.10.2019
5864 Clouds 15 1021 33 10000 1.343 91 21:56 15.10.2019
5865 Clouds 15 1021 33 10000 0.583 153 21:38 15.10.2019
5866 Clouds 15 1021 33 10000 0.583 153 21:38 15.10.2019
5867 Clouds 16 1020 41 10000 0.5 0 21:20 15.10.2019
5868 Clouds 17 1020 41 10000 0.5 0 20:57 15.10.2019
5869 Clouds 18 1021 31 10000 0.5 0 20:39 15.10.2019
5870 Clouds 18 1021 31 10000 0.5 0 20:39 15.10.2019
5871 Clouds 18 1020 34 10000 0.5 0 20:20 15.10.2019
5872 Clouds 18 1020 34 10000 0.5 0 19:58 15.10.2019
5873 Clouds 19 1020 27 10000 3.1 20 19:40 15.10.2019
5874 Clouds 19 1019 28 10000 1.5 40 19:20 15.10.2019
5875 Clouds 20 1020 24 10000 1 0 18:47 15.10.2019
5876 Clouds 20 1020 24 10000 1 0 18:29 15.10.2019
5877 Clouds 22 1019 28 10000 0.5 0 17:59 15.10.2019
5878 Clouds 25 1020 27 10000 1.5 250 17:40 15.10.2019
5879 Clouds 25 1020 27 10000 1.5 250 17:40 15.10.2019
5880 Clouds 26 1019 19 10000 1.079 64 17:20 15.10.2019
5881 Clouds 28 1019 14 10000 1.5 280 16:56 15.10.2019
5882 Clouds 28 1019 14 10000 1.5 280 16:37 15.10.2019
5883 Clouds 28 1019 27 10000 1 0 16:19 15.10.2019
5884 Clouds 28 1019 15 10000 3.1 290 15:42 15.10.2019
5885 -273 0 0 0 0 0 15:20 15.10.2019
5886 Clear 29 1020 16 10000 2.1 290 14:58 15.10.2019
5887 Clouds 29 1020 13 10000 2.6 0 14:38 15.10.2019
5888 Clouds 29 1020 13 10000 2.6 0 14:38 15.10.2019
5889 Clouds 29 1020 13 10000 2.6 0 14:38 15.10.2019
5890 Clouds 29 1020 13 10000 2.6 0 14:38 15.10.2019
5891 Clear 29 1021 16 10000 1 0 14:20 15.10.2019
5892 Clouds 28 1021 14 10000 3.1 260 13:56 15.10.2019
5893 Clouds 28 1021 14 10000 3.1 260 13:37 15.10.2019
5894 Clear 28 1021 17 10000 1.5 20 13:19 15.10.2019
5895 Clouds 27 1022 14 10000 2.1 0 12:42 15.10.2019
5896 Clouds 25 1022 19 10000 1 0 12:21 15.10.2019
5897 Clouds 24 1022 19 10000 1 0 11:57 15.10.2019
5898 Clouds 24 1023 16 10000 1 0 11:37 15.10.2019
5899 Clear 24 1023 23 10000 0.5 0 11:19 15.10.2019
5900 Clear 24 1023 23 10000 0.5 0 11:19 15.10.2019
5901 Clear 21 1023 19 10000 1 0 10:44 15.10.2019
5902 Clear 21 1023 19 10000 1 0 10:44 15.10.2019
5903 Clear 19 1023 24 10000 0.5 0 10:21 15.10.2019
5904 Clear 18 1023 24 10000 0.5 0 09:58 15.10.2019
5905 Clear 17 1024 25 10000 0.5 0 09:38 15.10.2019
5906 Clear 17 1023 36 10000 0.5 0 09:20 15.10.2019
5907 Clear 14 1024 33 10000 0.5 0 08:55 15.10.2019
5908 Clear 14 1024 41 10000 1.42 42.023 08:36 15.10.2019
5909 Clear 14 1024 41 10000 1.42 42.023 08:36 15.10.2019
5910 Clear 12 1024 41 10000 1.42 42.023 08:18 15.10.2019
5911 Clear 9 1024 42 10000 0.5 0 07:41 15.10.2019
5912 Clear 9 1023 65 10000 0.5 0 07:21 15.10.2019
5913 Clear 8 1023 48 10000 0.5 0 06:45 15.10.2019
5914 Clear 8 1023 70 10000 1.92 31.784 06:27 15.10.2019
5915 Clear 8 1023 48 10000 1.92 31.784 05:48 15.10.2019
5916 Clear 8 1023 48 10000 1.92 31.784 05:29 15.10.2019
5917 Clear 8 1023 48 10000 1.92 31.784 04:39 15.10.2019
5918 Clear 8 1023 45 10000 1.92 31.784 03:38 15.10.2019
5919 Clear 8 1023 45 10000 1.92 31.784 03:38 15.10.2019
5920 Clear 8 1023 52 10000 1.4 27.189 02:51 15.10.2019
5921 Clear 9 1023 45 10000 1.4 27.189 01:49 15.10.2019
5922 Clear 10 1023 57 10000 1.31 31.717 01:22 15.10.2019
5923 Clear 11 1023 39 10000 1.31 31.717 00:50 15.10.2019
5924 Clear 11 1023 53 10000 1.9 35.99 00:22 15.10.2019
5925 Clear 11 1023 39 10000 1.9 35.99 23:45 14.10.2019
5926 Clear 12 1023 37 10000 0.5 0 23:21 14.10.2019
5927 Clear 13 1023 37 10000 1.9 35.99 22:59 14.10.2019
5928 Clear 13 1023 37 10000 1.9 35.99 22:38 14.10.2019
5929 Clear 13 1023 32 10000 1 0 22:19 14.10.2019
5930 Clear 14 1023 30 10000 1.9 35.99 21:56 14.10.2019
5931 Clear 14 1023 30 10000 1.9 35.99 21:56 14.10.2019
5932 Clear 14 1023 30 10000 1.9 35.99 21:37 14.10.2019
5933 Clear 14 1023 43 10000 1.45 8.788 21:19 14.10.2019
5934 Clear 15 1023 26 10000 1 0 20:55 14.10.2019
5935 -273 0 0 0 0 0 20:55 14.10.2019
5936 Clear 15 1023 26 10000 1 0 20:36 14.10.2019
5937 Clear 15 1022 41 10000 1.5 230 20:18 14.10.2019
5938 Clear 15 1022 41 10000 1.5 230 20:18 14.10.2019
5939 Clear 16 1023 25 10000 2.1 10 19:42 14.10.2019
5940 Clear 17 1022 33 10000 1.422 92 19:23 14.10.2019
5941 Clear 19 1023 19 10000 0.5 0 18:59 14.10.2019
5942 Clear 19 1023 19 10000 0.5 0 18:39 14.10.2019
5943 Clear 20 1022 28 10000 1.5 230 18:19 14.10.2019
5944 Clear 20 1022 28 10000 1.5 230 18:19 14.10.2019
5945 Clear 20 1022 28 10000 1.5 230 18:19 14.10.2019
5946 Clear 24 1023 17 10000 1.5 220 17:57 14.10.2019
5947 Clear 24 1023 17 10000 1.5 220 17:57 14.10.2019
5948 Clear 24 1023 17 10000 1.5 220 17:38 14.10.2019
5949 Clouds 26 1022 16 10000 2.6 200 17:20 14.10.2019
5950 -273 0 0 0 0 0 16:44 14.10.2019
5951 Clouds 27 1023 11 10000 2.6 190 16:21 14.10.2019
5952 Clouds 27 1023 10 10000 1.5 220 15:44 14.10.2019
5953 Clouds 27 1023 10 10000 2.1 0 15:26 14.10.2019
5954 Clouds 27 1023 10 10000 2.1 230 14:58 14.10.2019
5955 Clouds 27 1023 10 10000 2.1 230 14:39 14.10.2019
5956 Clear 27 1023 14 10000 1.5 30 14:20 14.10.2019
5957 Clouds 25 1024 11 10000 0.5 0 13:44 14.10.2019
5958 Clear 25 1024 15 10000 0.5 170 13:22 14.10.2019
5959 Clouds 24 1025 13 10000 1 0 12:56 14.10.2019
5960 Clouds 24 1025 13 10000 1 0 12:37 14.10.2019
5961 Clear 24 1024 17 10000 1 0 12:18 14.10.2019
5962 Clouds 22 1025 15 10000 2.1 0 11:45 14.10.2019
5963 Clear 20 1026 17 10000 0.96 116.565 11:26 14.10.2019
5964 Clear 20 1026 17 10000 0.96 116.565 11:26 14.10.2019
5965 Clear 19 1026 19 10000 0.5 0 10:57 14.10.2019
5966 Clear 19 1026 19 10000 0.5 0 10:38 14.10.2019
5967 Clear 16 1026 22 10000 0.5 0 10:20 14.10.2019
5968 Clear 14 1026 24 10000 0.96 116.565 09:54 14.10.2019
5969 Clear 14 1026 24 10000 0.96 116.565 09:36 14.10.2019
5970 Clear 15 1026 28 10000 1.5 40 09:18 14.10.2019
5971 Clear 12 1026 29 10000 0.5 0 08:42 14.10.2019
5972 Clear 9 1026 31 10000 1.31 53.218 08:20 14.10.2019
5973 Clear 6 1026 38 10000 1.31 53.218 07:41 14.10.2019
5974 Clear 6 1026 38 10000 1.31 53.218 07:41 14.10.2019
5975 Clear 6 1026 64 10000 1 240 07:18 14.10.2019
5976 Clear 4 1026 47 10000 1.31 53.218 06:38 14.10.2019
5977 Clear 4 1025 64 10000 1.76 34.258 06:20 14.10.2019
5978 Clear 4 1026 47 10000 1.76 34.258 05:46 14.10.2019
5979 Clear 5 1026 40 10000 1 0 04:43 14.10.2019
5980 Clear 6 1025 60 10000 1.27 40.587 03:27 14.10.2019
5981 Clear 6 1026 47 10000 0.5 0 02:42 14.10.2019
5982 Clear 8 1026 33 10000 1.5 30 01:23 14.10.2019
5983 Clear 8 1026 38 10000 0.5 60 00:56 14.10.2019
5984 Clear 7 1026 56 10000 1.57 41.664 00:19 14.10.2019
5985 Clear 8 1026 26 10000 1 0 23:45 13.10.2019
5986 Clear 9 1026 26 10000 0.5 10 23:20 13.10.2019
5987 Clear 11 1026 24 10000 0.5 0 22:58 13.10.2019
5988 Clear 9 1026 26 10000 0.5 10 22:58 13.10.2019
5989 Clear 11 1026 24 10000 0.5 0 22:40 13.10.2019
5990 Clear 11 1026 31 10000 1.57 41.664 22:21 13.10.2019
5991 Clear 12 1026 25 10000 0.5 0 21:58 13.10.2019
5992 Clear 12 1026 25 10000 0.5 0 21:37 13.10.2019
5993 Clear 13 1025 22 10000 0.5 10 21:19 13.10.2019
5994 Clear 13 1025 22 10000 0.5 10 21:19 13.10.2019
5995 Clear 14 1025 19 10000 0.5 0 20:57 13.10.2019
5996 Clear 14 1025 19 10000 0.5 0 20:38 13.10.2019
5997 Clear 16 1025 20 10000 2.6 40 20:20 13.10.2019
5998 Clear 16 1025 17 10000 0.5 90 19:58 13.10.2019
5999 Clear 16 1025 17 10000 0.5 90 19:39 13.10.2019
6000 Clear 17 1025 33 10000 2.1 40 19:21 13.10.2019
6001 Clear 18 1025 18 10000 3.6 20 18:57 13.10.2019
6002 -273 0 0 0 0 0 18:56 13.10.2019
6003 -273 0 0 0 0 0 18:56 13.10.2019
6004 -273 0 0 0 0 0 18:56 13.10.2019
6005 Clear 19 1025 18 10000 3.6 20 18:36 13.10.2019
6006 Clear 20 1024 28 10000 2.1 30 18:18 13.10.2019
6007 Clear 22 1024 11 10000 3.6 80 17:44 13.10.2019
6008 Clear 22 1024 11 10000 3.6 80 17:44 13.10.2019
6009 Clear 23 1023 22 10000 1.5 30 17:26 13.10.2019
6010 Clear 23 1023 22 10000 1.5 30 17:25 13.10.2019
6011 Clear 23 1023 22 10000 1.5 30 17:25 13.10.2019
6012 -273 0 0 0 0 0 16:56 13.10.2019
6013 Clear 24 1024 11 10000 4.1 90 16:36 13.10.2019
6014 Clear 25 1024 16 10000 1.5 80 16:18 13.10.2019
6015 Clear 25 1024 16 10000 3.6 70 15:55 13.10.2019
6016 Clear 24 1024 16 10000 3.6 70 15:36 13.10.2019
6017 Clear 25 1024 20 10000 2.1 70 15:18 13.10.2019
6018 Clouds 25 1024 16 10000 4.1 30 14:40 13.10.2019
6019 Clouds 24 1025 19 10000 4.1 360 14:22 13.10.2019
6020 Clouds 24 1025 25 10000 4.6 30 13:59 13.10.2019
6021 Clouds 24 1025 25 10000 4.6 30 13:39 13.10.2019
6022 Clouds 24 1025 25 10000 4.6 30 13:39 13.10.2019
6023 Clouds 23 1025 18 10000 3.1 80 13:21 13.10.2019
6024 Clouds 22 1025 28 10000 1.5 0 12:56 13.10.2019
6025 Clouds 22 1025 28 10000 1.5 0 12:38 13.10.2019
6026 Clear 22 1026 35 10000 2.1 250 12:19 13.10.2019
6027 Clouds 20 1026 35 10000 1.5 0 11:58 13.10.2019
6028 Clouds 20 1026 35 10000 1.5 0 11:38 13.10.2019
6029 Clouds 20 1026 35 10000 1.5 0 11:38 13.10.2019
6030 Clear 19 1026 42 10000 1 270 11:19 13.10.2019
6031 Clouds 18 1026 42 10000 1.5 0 10:42 13.10.2019
6032 Clear 17 1026 45 10000 1.5 0 10:23 13.10.2019
6033 Clear 17 1026 45 10000 1.5 0 10:23 13.10.2019
6034 Clear 16 1026 54 10000 1.5 0 09:57 13.10.2019
6035 Clear 16 1026 54 10000 1.5 0 09:38 13.10.2019
6036 Clear 14 1027 54 10000 1.6 63.851 09:19 13.10.2019
6037 Clear 13 1027 62 10000 0.5 0 08:43 13.10.2019
6038 Clear 12 1027 66 10000 1.64 61.197 08:22 13.10.2019
6039 Clear 9 1027 70 10000 1 150 07:47 13.10.2019
6040 Clear 8 1026 81 10000 1.5 230 07:28 13.10.2019
6041 Clear 7 1026 80 10000 1 0 06:46 13.10.2019
6042 Clear 7 1026 80 10000 1 0 05:50 13.10.2019
6043 Clear 8 1026 75 10000 1.5 140 04:52 13.10.2019
6044 Clear 8 1026 75 10000 1.5 140 04:33 13.10.2019
6045 Clear 9 1026 66 10000 1 50 02:47 13.10.2019
6046 Clear 10 1026 71 10000 1 0 02:23 13.10.2019
6047 Clear 11 1026 62 10000 1.5 60 01:31 13.10.2019
6048 Clear 11 1026 62 10000 2.1 80 00:52 13.10.2019
6049 Clear 12 1026 71 10000 1 310 00:22 13.10.2019
6050 Clear 12 1026 66 10000 2.1 40 23:58 12.10.2019
6051 Clear 12 1026 66 10000 2.1 40 23:39 12.10.2019
6052 Clear 12 1026 62 10000 2.6 36.181 23:21 12.10.2019
6053 Clear 13 1026 62 10000 2.6 36.181 22:58 12.10.2019
6054 Clear 13 1026 62 10000 2.6 36.181 22:58 12.10.2019
6055 Clear 14 1026 62 10000 3.6 20 22:39 12.10.2019
6056 Clear 14 1026 62 10000 4.1 20 22:20 12.10.2019
6057 Clear 14 1026 58 10000 3.6 10 21:55 12.10.2019
6058 Clear 14 1026 58 10000 3.6 10 21:55 12.10.2019
6059 Clear 14 1026 58 10000 3.6 10 21:37 12.10.2019
6060 Clear 15 1026 58 10000 3.1 20 21:19 12.10.2019
6061 Clear 16 1026 50 10000 3.1 350 20:43 12.10.2019
6062 Clear 17 1026 51 10000 2.6 10 20:25 12.10.2019
6063 Clear 17 1025 48 10000 2.6 10 19:40 12.10.2019
6064 Clear 18 1025 45 10000 3.1 360 19:22 12.10.2019
6065 Clear 18 1025 45 10000 3.1 360 19:22 12.10.2019
6066 Clear 18 1025 42 10000 3.1 80 18:59 12.10.2019
6067 Clear 18 1025 42 10000 3.1 80 18:40 12.10.2019
6068 Clear 19 1024 42 10000 0.5 220 18:22 12.10.2019
6069 Clear 21 1024 34 10000 5.1 80 17:44 12.10.2019
6070 Clouds 22 1024 32 10000 4.6 40 17:19 12.10.2019
6071 Clouds 23 1024 28 10000 0.5 0 16:55 12.10.2019
6072 Clouds 23 1024 28 10000 0.5 0 16:36 12.10.2019
6073 Clear 23 1024 33 10000 2.1 0 16:18 12.10.2019
6074 Clouds 23 1024 30 10000 1.5 0 15:44 12.10.2019
6075 Clouds 23 1024 33 10000 1.5 0 15:25 12.10.2019
6076 Clouds 23 1024 31 10000 1.5 200 14:55 12.10.2019
6077 Clouds 23 1024 31 10000 1.5 200 14:55 12.10.2019
6078 Clouds 23 1024 31 10000 1.5 200 14:37 12.10.2019
6079 Clouds 22 1024 35 10000 2.1 0 14:18 12.10.2019
6080 Clouds 23 1025 33 10000 2.1 80 13:43 12.10.2019
6081 Clouds 23 1025 33 10000 2.1 80 13:43 12.10.2019
6082 Clouds 22 1024 35 10000 2.6 80 13:25 12.10.2019
6083 Clouds 22 1025 35 10000 2.1 360 12:40 12.10.2019
6084 Clouds 22 1025 35 10000 2.1 360 12:40 12.10.2019
6085 Clouds 21 1025 40 10000 3.1 40 12:22 12.10.2019
6086 Clouds 21 1026 40 10000 1 0 11:59 12.10.2019
6087 Clouds 21 1026 40 10000 1 0 11:40 12.10.2019
6088 Clouds 20 1026 40 10000 1.5 0 11:22 12.10.2019
6089 Clouds 20 1026 45 10000 1.5 0 10:56 12.10.2019
6090 Clouds 19 1026 45 10000 1.5 0 10:36 12.10.2019
6091 Clouds 19 1026 45 10000 2.6 40 10:18 12.10.2019
6092 Clear 18 1027 48 10000 4.6 20 09:54 12.10.2019
6093 Clear 18 1027 48 10000 4.6 20 09:36 12.10.2019
6094 Clear 17 1026 55 10000 0.5 0 09:18 12.10.2019
6095 Clear 17 1026 55 10000 0.5 0 09:18 12.10.2019
6096 Clear 15 1027 62 10000 2.1 10 08:40 12.10.2019
6097 Clear 15 1026 63 10000 3.41 34.399 08:20 12.10.2019
6098 Clear 15 1026 63 10000 3.41 34.399 08:20 12.10.2019
6099 Clear 11 1026 76 10000 3.41 34.399 07:35 12.10.2019
6100 Clear 10 1026 81 10000 1 0 06:59 12.10.2019
6101 Clear 10 1025 81 10000 2.6 20 05:49 12.10.2019
6102 Clear 10 1025 81 10000 2.1 20 05:24 12.10.2019
6103 Clear 11 1025 76 10000 3.1 20 04:24 12.10.2019
6104 Clear 12 1025 76 10000 2.1 30 03:41 12.10.2019
6105 Clear 13 1025 71 10000 2.7 16.173 01:56 12.10.2019
6106 Clear 13 1025 71 10000 0.5 40 01:29 12.10.2019
6107 Clear 15 1025 71 10000 2.1 20 00:43 12.10.2019
6108 Clouds 15 1025 66 10000 2.6 10 00:19 12.10.2019
6109 Clouds 16 1025 62 10000 2.1 20 23:40 11.10.2019
6110 Clouds 16 1025 66 10000 2.6 360 23:20 11.10.2019
6111 Clouds 17 1024 58 10000 3.6 30 22:56 11.10.2019
6112 Clouds 17 1024 58 10000 3.6 30 22:37 11.10.2019
6113 Clouds 17 1024 48 10000 3.1 40 22:18 11.10.2019
6114 Clouds 18 1024 51 10000 3.6 20 21:40 11.10.2019
6115 Clouds 18 1024 48 10000 3.1 50 21:21 11.10.2019
6116 Clouds 18 1024 48 10000 5.7 40 20:45 11.10.2019
6117 Clouds 18 1024 48 10000 5.7 40 20:27 11.10.2019
6118 Clouds 19 1023 45 10000 5.1 30 19:59 11.10.2019
6119 Clouds 19 1023 45 10000 5.1 30 19:39 11.10.2019
6120 Clouds 19 1023 59 10000 2.6 260 19:18 11.10.2019
6121 Clouds 19 1023 59 10000 2.6 260 19:18 11.10.2019
6122 Clouds 19 1023 59 10000 2.6 260 19:18 11.10.2019
6123 Clouds 19 1023 59 10000 2.6 260 19:18 11.10.2019
6124 Clouds 20 1023 63 10000 3.6 260 18:59 11.10.2019
6125 Clouds 20 1023 63 10000 3.6 260 18:39 11.10.2019
6126 Rain 21 1023 46 10000 3.1 280 18:19 11.10.2019
6127 Clouds 21 1022 30 10000 3.1 310 17:59 11.10.2019
6128 Clouds 21 1022 30 10000 3.1 310 17:38 11.10.2019
6129 Clouds 23 1022 30 10000 2.6 300 17:19 11.10.2019
6130 Clouds 22 1022 30 10000 2.6 300 16:59 11.10.2019
6131 Clouds 23 1021 28 10000 4.1 290 16:39 11.10.2019
6132 Clouds 23 1021 28 10000 4.1 290 16:39 11.10.2019
6133 Clouds 24 1021 28 10000 3.1 270 16:19 11.10.2019
6134 Clouds 24 1021 28 10000 3.6 280 15:55 11.10.2019
6135 Clouds 24 1021 28 10000 3.6 280 15:36 11.10.2019
6136 Clouds 24 1021 25 10000 4.1 270 15:18 11.10.2019
6137 Clouds 24 1021 25 10000 4.1 270 15:18 11.10.2019
6138 Clouds 24 1022 27 10000 4.6 270 14:42 11.10.2019
6139 Clouds 24 1022 29 10000 3.1 200 14:21 11.10.2019
6140 Clouds 24 1022 27 10000 3.6 250 13:46 11.10.2019
6141 Clouds 23 1022 25 10000 2.6 220 13:26 11.10.2019
6142 Clouds 23 1022 28 10000 2.6 270 12:58 11.10.2019
6143 Clouds 23 1022 28 10000 2.6 270 12:40 11.10.2019
6144 Clouds 23 1022 27 10000 2.6 250 12:21 11.10.2019
6145 Clouds 22 1022 27 10000 2.6 250 11:59 11.10.2019
6146 Clouds 21 1022 28 10000 2.1 0 11:39 11.10.2019
6147 Clouds 21 1023 35 10000 1.5 0 11:21 11.10.2019
6148 Clouds 19 1023 32 10000 2.1 0 10:56 11.10.2019
6149 Clouds 19 1023 32 10000 2.1 0 10:56 11.10.2019
6150 Clouds 19 1023 32 10000 2.1 0 10:37 11.10.2019
6151 Clouds 19 1023 42 10000 1 0 10:18 11.10.2019
6152 Clouds 19 1023 42 10000 1 0 10:18 11.10.2019
6153 Clouds 16 1023 45 10000 2.1 220 09:42 11.10.2019
6154 Clear 16 1023 51 10000 0.65 15.897 09:21 11.10.2019
6155 Clear 15 1023 51 10000 0.65 15.897 08:59 11.10.2019
6156 Clouds 14 1023 50 10000 1 0 08:39 11.10.2019
6157 Clouds 14 1023 54 10000 0.5 0 08:39 11.10.2019
6158 Clouds 12 1023 54 10000 0.5 0 08:20 11.10.2019
6159 Clear 10 1023 70 10000 1 0 07:57 11.10.2019
6160 Clear 11 1023 70 10000 1 0 07:38 11.10.2019
6161 Clear 9 1023 81 10000 0.5 0 07:19 11.10.2019
6162 Clear 8 1022 75 10000 1.5 360 06:43 11.10.2019
6163 Clear 8 1022 75 10000 0.5 30 06:19 11.10.2019
6164 Clear 9 1022 70 10000 0.5 0 05:32 11.10.2019
6165 Clear 9 1021 75 10000 0.49 317.821 04:58 11.10.2019
6166 Clear 10 1021 66 10000 0.5 0 03:46 11.10.2019
6167 Clear 12 1021 61 10000 0.5 0 01:57 11.10.2019
6168 Clear 14 1021 54 10000 1 0 00:42 11.10.2019
6169 Clear 14 1021 58 10000 1.5 60 00:22 11.10.2019
6170 Clear 14 1021 62 10000 1.5 20 23:41 10.10.2019
6171 Clear 15 1020 54 10000 3.1 260 23:20 10.10.2019
6172 Clear 16 1020 50 10000 0.5 0 22:57 10.10.2019
6173 Clear 16 1020 50 10000 0.5 0 22:37 10.10.2019
6174 Clear 16 1021 54 10000 1.5 170 22:19 10.10.2019
6175 Clear 16 1021 44 10000 1 0 21:54 10.10.2019
6176 Clear 16 1021 44 10000 1 0 21:36 10.10.2019
6177 Clear 17 1021 48 10000 0.5 0 21:18 10.10.2019
6178 Clear 16 1020 51 10000 2.21 285.05 20:41 10.10.2019
6179 Clear 18 1020 48 10000 2.21 285.05 20:21 10.10.2019
6180 Clear 18 1020 48 10000 2.21 285.05 20:21 10.10.2019
6181 Clear 18 1020 45 10000 2.21 285.05 19:58 10.10.2019
6182 Clear 18 1020 45 10000 2.21 285.05 19:39 10.10.2019
6183 Clear 19 1020 42 10000 2.21 285.05 19:19 10.10.2019
6184 Clear 20 1020 42 10000 1 0 18:54 10.10.2019
6185 Clear 20 1020 42 10000 1 0 18:36 10.10.2019
6186 Clear 20 1020 42 10000 1 0 18:36 10.10.2019
6187 Clear 20 1019 40 10000 3.1 250 18:18 10.10.2019
6188 Clouds 22 1019 32 10000 2.1 270 17:41 10.10.2019
6189 Clouds 24 1019 30 10000 4.6 230 17:20 10.10.2019
6190 Clouds 24 1019 30 10000 4.6 230 16:58 10.10.2019
6191 Clouds 24 1019 31 10000 5.1 230 16:40 10.10.2019
6192 Clouds 24 1019 29 10000 4.6 220 16:21 10.10.2019
6193 Clouds 24 1019 31 10000 5.7 240 15:43 10.10.2019
6194 Clouds 24 1019 31 10000 5.7 240 15:43 10.10.2019
6195 -273 0 0 0 0 0 15:24 10.10.2019
6196 Clouds 25 1019 31 10000 5.7 230 14:59 10.10.2019
6197 Clouds 25 1019 31 10000 5.7 230 14:37 10.10.2019
6198 Clouds 25 1019 36 10000 4.1 260 14:19 10.10.2019
6199 Clouds 25 1019 36 10000 4.1 260 14:19 10.10.2019
6200 Clouds 25 1019 31 10000 6.7 230 13:59 10.10.2019
6201 Clouds 25 1019 31 10000 6.7 230 13:39 10.10.2019
6202 Clouds 23 1020 31 10000 5.7 210 13:18 10.10.2019
6203 Clouds 23 1020 31 10000 5.7 210 13:18 10.10.2019
6204 Clouds 23 1020 33 10000 5.1 230 12:54 10.10.2019
6205 Clouds 23 1020 33 10000 5.1 230 12:36 10.10.2019
6206 Clear 24 1020 38 10000 2.1 270 12:18 10.10.2019
6207 Clouds 22 1021 33 10000 3.6 210 11:42 10.10.2019
6208 Clear 21 1021 43 10000 1.5 0 11:20 10.10.2019
6209 Clear 21 1021 43 10000 1.5 0 11:20 10.10.2019
6210 Clear 21 1021 43 10000 1.5 0 10:58 10.10.2019
6211 Clouds 20 1021 40 10000 1.5 130 10:40 10.10.2019
6212 Clear 18 1022 42 10000 1 0 10:21 10.10.2019
6213 Clear 17 1022 51 10000 1.5 100 09:41 10.10.2019
6214 Clear 17 1022 51 10000 1.5 100 09:41 10.10.2019
6215 Clear 15 1022 54 10000 0.5 0 09:23 10.10.2019
6216 Clear 14 1022 54 10000 0.5 0 08:59 10.10.2019
6217 Clear 14 1022 62 10000 0.5 0 08:41 10.10.2019
6218 Clear 14 1022 62 10000 0.59 37.645 08:21 10.10.2019
6219 Clear 10 1022 70 10000 0.59 37.645 07:57 10.10.2019
6220 Clear 10 1022 70 10000 0.59 37.645 07:36 10.10.2019
6221 Clear 9 1022 81 10000 0.59 37.645 07:18 10.10.2019
6222 Clear 8 1022 80 10000 0.59 37.645 06:39 10.10.2019
6223 Clear 8 1022 81 10000 0.5 40 05:56 10.10.2019
6224 Clear 8 1022 81 10000 1 20 05:21 10.10.2019
6225 Clear 8 1022 75 10000 1.21 39.279 04:36 10.10.2019
6226 Clear 9 1022 75 10000 0.5 10 02:42 10.10.2019
6227 Clear 9 1022 70 10000 0.5 0 01:38 10.10.2019
6228 Clear 9 1022 76 10000 1.66 34.761 01:18 10.10.2019
6229 Clear 9 1022 76 10000 1.66 34.761 01:18 10.10.2019
6230 Clear 10 1023 70 10000 1 20 00:39 10.10.2019
6231 Clear 11 1023 70 10000 0.5 0 23:55 09.10.2019
6232 Clear 11 1023 70 10000 0.5 0 23:36 09.10.2019
6233 Clear 10 1022 76 10000 1.63 31.283 23:18 09.10.2019
6234 Clear 10 1022 76 10000 1.63 31.283 23:18 09.10.2019
6235 Clear 12 1023 66 10000 1.5 50 22:41 09.10.2019
6236 Clear 12 1023 66 10000 0.5 0 22:22 09.10.2019
6237 Clear 12 1023 62 10000 1.63 31.283 21:58 09.10.2019
6238 Clear 12 1023 62 10000 1.63 31.283 21:39 09.10.2019
6239 Clear 13 1023 62 10000 1.06 355.07 21:19 09.10.2019
6240 Clear 13 1023 58 10000 0.5 0 20:55 09.10.2019
6241 Clear 13 1023 58 10000 0.5 0 20:37 09.10.2019
6242 Clear 15 1023 51 10000 1 0 20:18 09.10.2019
6243 Clear 15 1023 51 10000 1 0 20:18 09.10.2019
6244 Clear 16 1023 51 10000 2.1 70 19:44 09.10.2019
6245 Clear 17 1023 51 10000 0.5 10 19:23 09.10.2019
6246 Clear 18 1023 45 10000 1.08 347.085 18:40 09.10.2019
6247 Clear 20 1022 45 10000 1.5 260 18:21 09.10.2019
6248 Clear 21 1022 39 10000 2.6 210 17:59 09.10.2019
6249 Clear 21 1022 39 10000 2.6 210 17:40 09.10.2019
6250 Clear 21 1022 39 10000 2.6 210 17:40 09.10.2019
6251 Clear 21 1022 37 10000 3.1 220 17:22 09.10.2019
6252 Clear 22 1022 37 10000 3.1 220 16:58 09.10.2019
6253 Clear 22 1022 37 10000 4.6 220 16:40 09.10.2019
6254 Clear 22 1022 35 10000 5.1 200 16:21 09.10.2019
6255 Clear 22 1022 33 10000 4.1 190 15:57 09.10.2019
6256 Clear 22 1022 33 10000 4.1 190 15:38 09.10.2019
6257 Clear 22 1022 33 10000 4.1 190 15:38 09.10.2019
6258 Clear 22 1022 31 10000 4.1 200 15:19 09.10.2019
6259 Clouds 22 1022 31 10000 2.1 240 14:55 09.10.2019
6260 Clouds 22 1022 31 10000 2.1 240 14:37 09.10.2019
6261 Clouds 21 1023 43 10000 2.6 250 14:18 09.10.2019
6262 Clouds 21 1023 37 10000 3.6 190 13:38 09.10.2019
6263 Clouds 20 1024 40 10000 3.1 170 13:20 09.10.2019
6264 Clouds 19 1024 42 10000 1 0 12:56 09.10.2019
6265 Clouds 19 1024 42 10000 1 0 12:37 09.10.2019
6266 Clouds 18 1024 45 10000 2.1 350 12:19 09.10.2019
6267 Clouds 18 1025 48 10000 1 280 11:40 09.10.2019
6268 Clouds 18 1025 48 10000 1 280 11:40 09.10.2019
6269 Clouds 17 1025 52 10000 2.1 0 11:21 09.10.2019
6270 Clouds 16 1025 55 10000 1 0 10:59 09.10.2019
6271 Clouds 16 1025 55 10000 1 0 10:40 09.10.2019
6272 Clear 16 1026 63 10000 2.6 280 10:19 09.10.2019
6273 Clouds 15 1026 62 10000 1.5 0 09:56 09.10.2019
6274 Clouds 14 1026 62 10000 1.5 0 09:38 09.10.2019
6275 Clouds 14 1026 62 10000 1.5 0 09:38 09.10.2019
6276 Clear 13 1026 62 10000 1 0 09:18 09.10.2019
6277 Clear 12 1026 66 10000 1.31 45.993 08:39 09.10.2019
6278 Clouds 12 1026 71 10000 1.5 250 08:20 09.10.2019
6279 Clouds 12 1026 71 10000 1.5 250 08:20 09.10.2019
6280 Clear 9 1025 76 10000 0.5 0 07:47 09.10.2019
6281 Clear 9 1025 76 10000 0.5 0 07:47 09.10.2019
6282 Clear 9 1025 81 10000 1.31 45.993 07:25 09.10.2019
6283 Clear 9 1025 81 10000 1.31 45.993 07:25 09.10.2019
6284 Clear 8 1025 87 10000 0.5 0 06:58 09.10.2019
6285 Clear 8 1025 87 10000 0.5 0 06:40 09.10.2019
6286 Clear 8 1024 87 10000 0.5 0 05:53 09.10.2019
6287 Clear 9 1024 87 10000 1 0 05:18 09.10.2019
6288 Clear 10 1024 81 10000 1 0 03:48 09.10.2019
6289 Clear 10 1024 81 10000 1 0 03:48 09.10.2019
6290 Clear 11 1024 81 10000 1 0 02:34 09.10.2019
6291 Clouds 11 1024 76 10000 0.5 0 01:39 09.10.2019
6292 Clouds 12 1023 76 10000 1.5 260 01:18 09.10.2019
6293 Clouds 12 1023 76 10000 2.1 280 00:42 09.10.2019
6294 Clouds 13 1023 76 10000 1.5 240 00:23 09.10.2019
6295 Clouds 13 1023 71 10000 1 0 23:58 08.10.2019
6296 Clouds 13 1023 71 10000 1 0 23:38 08.10.2019
6297 Clouds 14 1023 71 10000 2.6 290 23:18 08.10.2019
6298 Clouds 14 1023 71 10000 2.6 290 23:18 08.10.2019
6299 Clouds 14 1023 71 10000 2.1 260 22:55 08.10.2019
6300 Clouds 14 1023 71 10000 2.1 260 22:36 08.10.2019
6301 Clouds 15 1023 67 10000 2.1 280 22:18 08.10.2019
6302 Clouds 15 1022 71 10000 3.6 280 21:55 08.10.2019
6303 Clouds 15 1022 71 10000 3.6 280 21:36 08.10.2019
6304 Clouds 15 1022 71 10000 3.6 280 21:36 08.10.2019
6305 Clouds 15 1022 71 10000 2.6 270 21:18 08.10.2019
6306 Clouds 15 1022 67 10000 1 0 20:54 08.10.2019
6307 Clouds 15 1022 67 10000 1 0 20:36 08.10.2019
6308 Rain 16 1021 67 10000 2.1 350 20:18 08.10.2019
6309 Clouds 16 1021 59 10000 1.5 240 19:41 08.10.2019
6310 Clouds 17 1020 59 10000 4.1 260 19:23 08.10.2019
6311 Clouds 17 1020 63 10000 4.1 250 18:57 08.10.2019
6312 Clouds 17 1020 63 10000 4.1 250 18:39 08.10.2019
6313 Clouds 17 1019 55 10000 3.1 250 18:19 08.10.2019
6314 Clouds 19 1019 52 10000 5.1 250 17:56 08.10.2019
6315 Clouds 19 1019 52 10000 5.1 250 17:38 08.10.2019
6316 Clouds 19 1019 52 10000 4.6 230 17:18 08.10.2019
6317 Clouds 20 1018 48 10000 4.6 220 16:41 08.10.2019
6318 Clouds 20 1018 49 10000 4.6 230 16:22 08.10.2019
6319 Clouds 19 1018 48 10000 5.7 210 15:57 08.10.2019
6320 Clouds 19 1018 48 10000 5.7 210 15:37 08.10.2019
6321 Rain 19 1018 45 10000 4.6 200 15:19 08.10.2019
6322 Rain 19 1018 45 10000 4.6 200 15:19 08.10.2019
6323 Rain 19 1018 52 10000 3.6 220 14:42 08.10.2019
6324 Rain 18 1018 52 10000 3.6 240 14:21 08.10.2019
6325 Rain 18 1018 45 10000 5.1 240 13:59 08.10.2019
6326 Rain 18 1018 45 10000 5.1 240 13:39 08.10.2019
6327 Rain 18 1018 45 10000 5.1 240 13:39 08.10.2019
6328 Clouds 19 1017 42 10000 4.1 240 13:20 08.10.2019
6329 Clouds 19 1017 42 10000 4.1 240 12:59 08.10.2019
6330 Clouds 19 1017 42 10000 4.1 240 12:39 08.10.2019
6331 Clouds 19 1018 48 10000 3.1 290 12:19 08.10.2019
6332 Clouds 18 1018 42 10000 1.5 0 11:43 08.10.2019
6333 Clouds 18 1017 42 10000 1 0 11:24 08.10.2019
6334 Clouds 17 1017 42 10000 1 0 10:59 08.10.2019
6335 Rain 17 1018 48 10000 1.5 320 10:40 08.10.2019
6336 Clouds 17 1018 42 10000 0.5 10 10:21 08.10.2019
6337 Rain 16 1018 42 10000 0.5 10 09:58 08.10.2019
6338 Rain 16 1018 44 10000 1 0 09:39 08.10.2019
6339 Clouds 15 1017 47 10000 1.5 350 09:20 08.10.2019
6340 Clouds 14 1017 54 10000 1 0 08:43 08.10.2019
6341 Clouds 12 1017 58 10000 1.5 360 08:25 08.10.2019
6342 Clouds 12 1017 62 10000 1 0 07:46 08.10.2019
6343 Clouds 11 1017 71 10000 1 0 07:23 08.10.2019
6344 Clouds 11 1016 66 10000 1.4 86.487 06:56 08.10.2019
6345 Clouds 11 1016 66 10000 1.4 86.487 06:34 08.10.2019
6346 Clouds 12 1016 66 10000 1 0 05:57 08.10.2019
6347 Clouds 12 1016 66 10000 1 0 05:57 08.10.2019
6348 Clouds 12 1016 66 10000 1 0 05:36 08.10.2019
6349 Clouds 12 1016 66 10000 1.47 84.851 04:36 08.10.2019
6350 Clouds 12 1016 66 10000 0.5 0 03:29 08.10.2019
6351 Clouds 12 1015 66 10000 1 0 02:39 08.10.2019
6352 Clouds 12 1015 71 10000 1.5 150 01:49 08.10.2019
6353 Clouds 12 1015 66 10000 2.15 8.141 01:31 08.10.2019
6354 Clouds 12 1015 66 10000 1 290 00:50 08.10.2019
6355 Clouds 12 1015 66 10000 1.5 170 00:21 08.10.2019
6356 Clouds 13 1015 62 10000 1.5 100 23:41 07.10.2019
6357 Clouds 13 1015 62 10000 3.1 60 23:20 07.10.2019
6358 Clouds 13 1015 66 10000 1 0 22:58 07.10.2019
6359 Clouds 13 1015 66 10000 1 0 22:40 07.10.2019
6360 Clouds 13 1015 62 10000 3.1 20 22:20 07.10.2019
6361 Clouds 13 1014 66 10000 3.1 20 21:57 07.10.2019
6362 Clouds 13 1014 66 10000 3.1 20 21:39 07.10.2019
6363 Clouds 14 1014 62 10000 2.6 20 21:20 07.10.2019
6364 Clouds 15 1014 58 10000 3.6 10 20:58 07.10.2019
6365 Clouds 15 1014 58 10000 3.6 10 20:39 07.10.2019
6366 Clouds 16 1014 58 10000 3.6 10 20:20 07.10.2019
6367 Clouds 16 1014 54 10000 4.1 20 19:58 07.10.2019
6368 Clouds 16 1014 54 10000 4.1 20 19:40 07.10.2019
6369 Clouds 16 1014 54 10000 3.6 20 19:19 07.10.2019
6370 Clouds 17 1013 44 10000 3.1 60 18:57 07.10.2019
6371 Clouds 17 1013 44 10000 3.1 60 18:38 07.10.2019
6372 Clouds 17 1013 45 10000 2.6 70 18:18 07.10.2019
6373 Clouds 18 1013 39 10000 2.6 20 17:43 07.10.2019
6374 Clouds 18 1013 36 10000 2.6 50 17:20 07.10.2019
6375 Clouds 18 1013 34 10000 2.1 340 16:57 07.10.2019
6376 Clouds 18 1013 34 10000 2.1 340 16:38 07.10.2019
6377 Clouds 19 1013 32 10000 3.1 270 16:20 07.10.2019
6378 Clouds 19 1013 32 10000 3.1 240 15:45 07.10.2019
6379 Clouds 19 1013 39 10000 1.5 210 15:25 07.10.2019
6380 Clouds 19 1013 34 10000 1.5 220 14:55 07.10.2019
6381 Clouds 19 1013 34 10000 1.5 220 14:37 07.10.2019
6382 Clouds 18 1014 36 10000 1 0 14:19 07.10.2019
6383 Clouds 18 1014 36 10000 1.5 180 13:41 07.10.2019
6384 Clouds 18 1014 39 10000 2.1 0 13:20 07.10.2019
6385 Clouds 18 1014 39 10000 3.1 260 12:55 07.10.2019
6386 Clouds 17 1014 39 10000 3.1 260 12:37 07.10.2019
6387 Clouds 17 1014 42 10000 1 0 12:19 07.10.2019
6388 Clouds 16 1015 38 10000 2.1 0 11:57 07.10.2019
6389 Clouds 16 1015 38 10000 2.1 0 11:37 07.10.2019
6390 Clouds 16 1015 44 10000 1 0 11:18 07.10.2019
6391 Clouds 15 1015 44 10000 1 0 10:41 07.10.2019
6392 Clouds 15 1015 44 10000 1 0 10:41 07.10.2019
6393 Clouds 12 1015 54 10000 1 0 10:20 07.10.2019
6394 Clear 12 1015 58 10000 0.5 0 09:42 07.10.2019
6395 Clear 10 1016 66 10000 0.5 0 09:24 07.10.2019
6396 Clear 10 1016 66 10000 0.5 0 08:57 07.10.2019
6397 Clear 10 1016 66 10000 0.5 0 08:57 07.10.2019
6398 Clear 9 1016 75 10000 1 0 08:39 07.10.2019
6399 Clear 9 1015 66 10000 2.1 90 08:19 07.10.2019
6400 Clear 6 1015 86 10000 1 0 07:41 07.10.2019
6401 Clear 4 1015 93 10000 1 0 07:23 07.10.2019
6402 Clear 3 1015 57 10000 1 0 06:54 07.10.2019
6403 Clear 3 1015 57 10000 1 0 06:34 07.10.2019
6404 Clear 3 1015 72 10000 2.1 30 05:47 07.10.2019
6405 Clear 4 1015 72 10000 2.1 30 05:22 07.10.2019
6406 Clear 4 1015 93 10000 0.5 0 04:25 07.10.2019
6407 Clear 4 1015 93 10000 2.15 40 03:45 07.10.2019
6408 Clear 4 1015 93 10000 2.11 19.661 03:21 07.10.2019
6409 Clear 4 1015 93 10000 2.11 19.661 03:21 07.10.2019
6410 Clear 5 1015 86 10000 0.5 0 02:22 07.10.2019
6411 Clear 5 1015 86 10000 0.5 0 02:22 07.10.2019
6412 Clear 6 1015 80 10000 2.11 19.661 01:52 07.10.2019
6413 Clear 7 1015 86 10000 2.1 40 01:21 07.10.2019
6414 Clear 7 1015 81 10000 2.02 16.311 00:39 07.10.2019
6415 Clear 7 1015 81 10000 0.5 0 00:20 07.10.2019
6416 Clear 8 1015 75 10000 2.46 20.202 23:42 06.10.2019
6417 Clear 8 1015 75 10000 2.46 20.202 23:42 06.10.2019
6418 Clear 8 1015 75 10000 2.46 20.202 23:42 06.10.2019
6419 Clear 8 1015 75 10000 1 0 23:22 06.10.2019
6420 Clear 8 1015 75 10000 1 0 22:59 06.10.2019
6421 Clouds 8 1014 70 10000 2.46 20.202 22:41 06.10.2019
6422 Clouds 10 1014 75 10000 2.6 270 22:22 06.10.2019
6423 Clouds 10 1014 75 10000 2.6 270 22:22 06.10.2019
6424 Clouds 10 1014 75 10000 1.5 250 21:58 06.10.2019
6425 Clouds 10 1014 75 10000 1.5 250 21:38 06.10.2019
6426 Clouds 11 1014 70 10000 2.1 260 21:19 06.10.2019
6427 Clouds 11 1014 70 10000 2.1 260 20:58 06.10.2019
6428 Clouds 11 1014 66 10000 2.1 240 20:40 06.10.2019
6429 Clouds 12 1014 62 10000 1.59 314.389 20:21 06.10.2019
6430 Clouds 12 1013 62 10000 1.5 20 19:57 06.10.2019
6431 Clouds 12 1013 62 10000 1.5 20 19:37 06.10.2019
6432 Clouds 13 1013 62 10000 1 0 19:19 06.10.2019
6433 Clouds 13 1013 58 10000 3.1 280 18:57 06.10.2019
6434 Clouds 13 1013 58 10000 3.1 280 18:38 06.10.2019
6435 Clouds 14 1012 54 10000 3.1 250 18:19 06.10.2019
6436 Clouds 14 1012 54 10000 3.1 250 18:19 06.10.2019
6437 Clouds 14 1012 50 10000 2.6 260 17:57 06.10.2019
6438 Clouds 14 1012 50 10000 2.6 260 17:39 06.10.2019
6439 Clouds 15 1012 51 10000 3.1 290 17:19 06.10.2019
6440 Clouds 16 1011 51 10000 3.6 310 16:42 06.10.2019
6441 Clouds 16 1011 54 10000 4.6 260 16:24 06.10.2019
6442 Clouds 16 1011 54 10000 4.6 270 15:56 06.10.2019
6443 Clouds 17 1011 54 10000 4.6 270 15:38 06.10.2019
6444 Clouds 17 1011 54 10000 4.6 290 15:18 06.10.2019
6445 Clouds 17 1011 54 10000 4.6 290 15:18 06.10.2019
6446 Clouds 17 1011 58 10000 4.6 290 14:42 06.10.2019
6447 Clouds 16 1010 54 10000 5.1 290 14:24 06.10.2019
6448 Clouds 15 1010 62 10000 5.1 290 13:58 06.10.2019
6449 Clouds 15 1010 62 10000 5.1 290 13:39 06.10.2019
6450 Clouds 15 1009 62 10000 6.7 260 13:20 06.10.2019
6451 Clouds 15 1009 67 10000 4.6 240 12:57 06.10.2019
6452 Clouds 15 1009 67 10000 4.6 240 12:57 06.10.2019
6453 Clouds 14 1009 67 10000 4.6 240 12:38 06.10.2019
6454 Rain 14 1010 82 10000 4.6 230 12:20 06.10.2019
6455 Rain 13 1009 76 10000 5.7 230 11:56 06.10.2019
6456 Rain 13 1009 76 10000 5.7 230 11:37 06.10.2019
6457 Rain 13 1009 81 10000 6.2 260 11:18 06.10.2019
6458 Thunderstorm 16 1009 59 10000 11.3 250 10:43 06.10.2019
6459 Rain 17 1008 63 10000 8.7 230 10:24 06.10.2019
6460 Clouds 17 1008 67 10000 5.7 220 09:56 06.10.2019
6461 Clouds 17 1008 67 10000 5.7 220 09:38 06.10.2019
6462 Clouds 17 1008 67 10000 3.1 190 09:18 06.10.2019
6463 Clouds 16 1008 77 10000 4.6 210 08:43 06.10.2019
6464 Clouds 14 1008 63 10000 5.7 220 08:20 06.10.2019
6465 Clouds 13 1009 82 10000 3.6 190 07:44 06.10.2019
6466 Clouds 13 1009 82 10000 3.1 260 07:19 06.10.2019
6467 Clouds 12 1008 71 10000 1.6 223.45 06:20 06.10.2019
6468 Clouds 12 1008 71 10000 1 70 05:33 06.10.2019
6469 Clouds 13 1009 71 10000 2.6 130 03:41 06.10.2019
6470 Clouds 13 1009 66 10000 2.1 50 02:42 06.10.2019
6471 Clouds 13 1010 66 10000 1.5 330 02:20 06.10.2019
6472 Clouds 14 1010 71 10000 1 290 01:40 06.10.2019
6473 Clouds 14 1010 71 10000 1 0 01:21 06.10.2019
6474 Clouds 14 1010 66 10000 1 0 00:46 06.10.2019
6475 Clouds 14 1010 71 10000 0.5 0 00:25 06.10.2019
6476 Clouds 13 1010 76 10000 0.5 0 23:44 05.10.2019
6477 Clouds 14 1010 66 10000 0.5 0 23:22 05.10.2019
6478 Clouds 13 1010 76 10000 0.5 0 22:58 05.10.2019
6479 Clouds 13 1010 76 10000 0.5 0 22:40 05.10.2019
6480 Clouds 14 1010 71 10000 1 0 22:20 05.10.2019
6481 Clouds 14 1010 71 10000 1 0 22:20 05.10.2019
6482 Clouds 14 1010 71 10000 1 0 22:20 05.10.2019
6483 Clouds 15 1011 62 10000 1.82 272.107 21:56 05.10.2019
6484 Clouds 14 1011 62 10000 1.82 272.107 21:37 05.10.2019
6485 Clouds 15 1011 62 10000 0.5 0 21:18 05.10.2019
6486 Clouds 15 1011 71 10000 0.5 0 20:55 05.10.2019
6487 Clouds 15 1011 71 10000 0.5 0 20:36 05.10.2019
6488 Clouds 16 1010 63 10000 0.5 0 20:18 05.10.2019
6489 Clouds 17 1010 55 10000 1.5 160 19:37 05.10.2019
6490 Clouds 18 1010 55 10000 0.5 0 19:19 05.10.2019
6491 Clouds 18 1010 52 10000 0.5 260 18:55 05.10.2019
6492 Clouds 18 1010 52 10000 4.31 272.912 18:37 05.10.2019
6493 Rain 19 1010 52 10000 4.72 261.149 18:19 05.10.2019
6494 Rain 20 1010 45 10000 2.1 260 17:43 05.10.2019
6495 Clouds 21 1010 42 10000 4.1 280 17:23 05.10.2019
6496 Clouds 21 1010 42 10000 3.6 260 16:57 05.10.2019
6497 Clouds 21 1010 42 10000 3.6 260 16:39 05.10.2019
6498 Clouds 21 1010 45 10000 4.1 270 16:20 05.10.2019
6499 Clouds 21 1010 45 10000 4.1 270 16:20 05.10.2019
6500 Clouds 22 1010 43 10000 5.7 260 15:56 05.10.2019
6501 Clouds 22 1010 43 10000 5.7 260 15:38 05.10.2019
6502 Clouds 22 1010 52 10000 3.6 290 15:19 05.10.2019
6503 Rain 21 1009 46 10000 3.1 240 14:43 05.10.2019
6504 Clouds 23 1009 28 10000 8.2 220 14:24 05.10.2019
6505 Clouds 24 1009 31 10000 8.2 210 13:58 05.10.2019
6506 Clouds 24 1009 31 10000 8.2 210 13:39 05.10.2019
6507 Clouds 22 1010 33 10000 7.7 240 13:18 05.10.2019
6508 Clouds 22 1010 33 10000 7.2 240 12:42 05.10.2019
6509 Clouds 22 1011 35 10000 4.1 270 12:19 05.10.2019
6510 Clouds 22 1011 40 10000 5.1 220 11:43 05.10.2019
6511 Clouds 20 1012 37 10000 3.1 150 11:20 05.10.2019
6512 Clouds 19 1011 42 10000 1.5 180 10:57 05.10.2019
6513 Clouds 19 1012 37 10000 3.1 150 10:57 05.10.2019
6514 Clouds 19 1011 42 10000 1.5 180 10:39 05.10.2019
6515 Rain 19 1012 55 10000 3.1 160 10:20 05.10.2019
6516 Rain 20 1012 40 10000 2.6 130 09:42 05.10.2019
6517 Rain 18 1012 29 10000 2.6 120 09:23 05.10.2019
6518 Rain 18 1012 29 10000 2.6 120 09:23 05.10.2019
6519 Rain 18 1012 31 10000 2.6 120 08:56 05.10.2019
6520 Rain 18 1012 31 10000 2.6 120 08:38 05.10.2019
6521 Clouds 16 1013 39 10000 0.5 0 08:18 05.10.2019
6522 Clouds 14 1013 33 10000 1.5 250 07:46 05.10.2019
6523 Clouds 14 1013 33 10000 1.5 250 07:28 05.10.2019
6524 Clouds 11 1011 52 10000 2.6 320 06:56 05.10.2019
6525 Clear 11 1011 49 10000 0.5 0 06:22 05.10.2019
6526 Clear 11 1011 52 10000 1.29 83.073 05:20 05.10.2019
6527 Clear 9 1013 52 10000 0.5 0 03:32 05.10.2019
6528 Clear 13 1013 49 10000 1.5 350 02:38 05.10.2019
6529 Clear 11 1014 32 10000 0.62 173.752 01:27 05.10.2019
6530 Clear 11 1014 43 10000 0.62 173.752 00:49 05.10.2019
6531 Clear 11 1014 43 10000 0.62 173.752 00:49 05.10.2019
6532 Clear 13 1014 46 10000 0.62 173.752 00:28 05.10.2019
6533 Clear 14 1014 30 10000 0.58 93.972 23:58 04.10.2019
6534 Clear 14 1014 30 10000 0.58 93.972 23:39 04.10.2019
6535 Clear 15 1014 43 10000 0.5 0 23:21 04.10.2019
6536 Clear 15 1014 47 10000 0.5 0 22:56 04.10.2019
6537 Clear 15 1014 47 10000 0.5 0 22:37 04.10.2019
6538 Clear 15 1014 43 10000 0.58 93.972 22:19 04.10.2019
6539 Clear 15 1014 36 10000 0.58 93.972 21:40 04.10.2019
6540 Clear 17 1014 38 10000 0.5 0 21:22 04.10.2019
6541 Clear 17 1014 38 10000 0.5 0 21:22 04.10.2019
6542 Clear 17 1014 38 10000 0.5 0 20:59 04.10.2019
6543 Clear 17 1014 38 10000 0.5 0 20:59 04.10.2019
6544 Clear 18 1015 41 10000 0.5 0 20:40 04.10.2019
6545 Clear 19 1014 31 10000 0.5 0 20:22 04.10.2019
6546 Clear 19 1014 30 10000 0.5 0 19:56 04.10.2019
6547 Clear 19 1014 30 10000 0.5 0 19:37 04.10.2019
6548 Clear 22 1014 28 10000 1 0 19:19 04.10.2019
6549 Clear 23 1014 28 10000 1 0 18:54 04.10.2019
6550 Clear 23 1014 28 10000 1 0 18:36 04.10.2019
6551 Clear 24 1013 22 10000 1 0 18:18 04.10.2019
6552 Clear 26 1014 22 10000 0.5 10 17:39 04.10.2019
6553 Clear 27 1014 21 10000 0.5 240 17:21 04.10.2019
6554 Clear 28 1014 21 10000 2.1 230 16:57 04.10.2019
6555 Clear 28 1014 21 10000 2.1 230 16:39 04.10.2019
6556 Clear 28 1014 21 10000 2.1 230 16:39 04.10.2019
6557 Clear 28 1014 19 10000 1.5 220 16:18 04.10.2019
6558 Clouds 28 1015 19 10000 2.1 240 15:55 04.10.2019
6559 Clouds 28 1015 19 10000 2.1 240 15:37 04.10.2019
6560 Clouds 28 1015 19 10000 2.6 210 15:19 04.10.2019
6561 Clouds 28 1015 19 10000 2.6 210 15:19 04.10.2019
6562 -273 0 0 0 0 0 14:55 04.10.2019
6563 Clouds 28 1015 21 10000 3.1 250 14:36 04.10.2019
6564 Clouds 27 1016 19 10000 2.6 210 14:18 04.10.2019
6565 Clouds 27 1016 21 10000 4.1 240 13:43 04.10.2019
6566 Clouds 26 1016 21 10000 4.6 200 13:20 04.10.2019
6567 Clouds 26 1016 22 10000 5.7 240 12:46 04.10.2019
6568 Clouds 26 1016 22 10000 5.7 240 12:46 04.10.2019
6569 Clear 25 1016 27 10000 2.6 0 12:28 04.10.2019
6570 Clouds 24 1017 23 10000 5.1 210 11:59 04.10.2019
6571 Clear 24 1017 29 10000 1.5 0 11:40 04.10.2019
6572 Clear 24 1017 29 10000 1.5 0 11:40 04.10.2019
6573 Clear 24 1017 29 10000 1.5 0 11:40 04.10.2019
6574 Clouds 23 1017 27 10000 3.6 180 11:20 04.10.2019
6575 Clouds 22 1018 25 10000 1.5 170 10:40 04.10.2019
6576 Clear 20 1018 25 10000 2.1 190 10:21 04.10.2019
6577 Clear 19 1018 25 10000 0.5 0 09:47 04.10.2019
6578 Clear 19 1018 29 10000 0.5 0 09:28 04.10.2019
6579 Clear 16 1018 30 10000 0.5 0 08:56 04.10.2019
6580 Clear 17 1018 30 10000 0.5 0 08:38 04.10.2019
6581 Clear 14 1018 33 10000 0.5 0 08:19 04.10.2019
6582 Clear 11 1018 40 10000 0.5 0 07:44 04.10.2019
6583 Clear 10 1018 54 10000 1 0 07:22 04.10.2019
6584 Clear 9 1018 48 10000 0.87 142.959 06:44 04.10.2019
6585 Clear 9 1018 48 10000 0.87 142.959 06:44 04.10.2019
6586 Clear 10 1017 48 10000 1 0 06:25 04.10.2019
6587 Clear 9 1017 48 10000 0.41 135.496 05:42 04.10.2019
6588 Clear 10 1017 48 10000 0.41 135.496 05:18 04.10.2019
6589 Clear 11 1017 45 10000 0.41 135.496 03:48 04.10.2019
6590 Clear 11 1016 45 10000 0.39 200.92 02:53 04.10.2019
6591 Clear 11 1016 45 10000 0.39 200.92 02:53 04.10.2019
6592 Clear 13 1016 43 10000 1 0 01:55 04.10.2019
6593 Clear 13 1016 43 10000 1 0 01:55 04.10.2019
6594 Clear 11 1016 45 10000 0.6 191.348 01:30 04.10.2019
6595 Clear 11 1016 45 10000 0.6 191.348 00:58 04.10.2019
6596 Clear 14 1015 34 10000 0.5 350 23:58 03.10.2019
6597 Clear 15 1015 34 10000 0.5 350 23:37 03.10.2019
6598 Clear 15 1015 40 10000 1.1 195.379 23:18 03.10.2019
6599 Clear 15 1015 40 10000 1.1 195.379 23:18 03.10.2019
6600 Clear 15 1015 40 10000 1.1 195.379 23:18 03.10.2019
6601 Clear 15 1015 40 10000 1.1 195.379 23:18 03.10.2019
6602 Clear 14 1015 33 10000 1.5 30 22:55 03.10.2019
6603 Clear 14 1015 33 10000 1.5 30 22:37 03.10.2019
6604 Clear 16 1015 33 10000 2.6 30 22:18 03.10.2019
6605 Clear 15 1015 30 10000 2.6 10 21:55 03.10.2019
6606 Clear 15 1015 30 10000 2.6 10 21:36 03.10.2019
6607 Clear 17 1015 30 10000 2.6 30 21:18 03.10.2019
6608 Clear 17 1015 30 10000 2.6 30 21:18 03.10.2019
6609 Clear 18 1015 27 10000 1.5 60 20:42 03.10.2019
6610 Clear 19 1015 25 10000 1.5 80 20:23 03.10.2019
6611 Clear 20 1015 25 10000 1.5 80 19:59 03.10.2019
6612 Clear 20 1015 24 10000 1.5 60 19:41 03.10.2019
6613 Clear 22 1015 22 10000 1.27 147.124 19:22 03.10.2019
6614 Clear 23 1014 21 10000 1 230 18:58 03.10.2019
6615 Clear 23 1014 21 10000 1 230 18:39 03.10.2019
6616 Clear 22 1014 21 10000 3.6 230 18:19 03.10.2019
6617 Clouds 23 1014 18 10000 3.6 230 17:56 03.10.2019
6618 Clouds 23 1014 18 10000 3.6 230 17:37 03.10.2019
6619 Clouds 27 1014 17 10000 3.1 220 17:19 03.10.2019
6620 Clouds 27 1014 16 10000 4.1 260 16:41 03.10.2019
6621 Clouds 27 1014 15 10000 4.1 260 16:23 03.10.2019
6622 Clouds 27 1014 14 10000 4.6 240 15:55 03.10.2019
6623 Clouds 27 1014 14 10000 4.6 240 15:55 03.10.2019
6624 Clouds 28 1014 14 10000 4.6 240 15:37 03.10.2019
6625 Clouds 27 1014 15 10000 5.1 230 15:19 03.10.2019
6626 Clouds 27 1014 14 10000 4.6 260 14:44 03.10.2019
6627 Clouds 27 1014 14 10000 5.1 240 14:26 03.10.2019
6628 Clouds 27 1014 15 10000 4.6 240 13:57 03.10.2019
6629 Clouds 27 1014 15 10000 4.6 240 13:39 03.10.2019
6630 Clear 27 1014 21 10000 4.1 290 13:19 03.10.2019
6631 Clouds 26 1014 19 10000 5.7 230 12:55 03.10.2019
6632 Clouds 26 1014 19 10000 5.7 230 12:55 03.10.2019
6633 Clouds 26 1014 19 10000 5.7 230 12:55 03.10.2019
6634 Clouds 26 1014 19 10000 5.7 230 12:36 03.10.2019
6635 Clear 26 1014 22 10000 3.1 250 12:18 03.10.2019
6636 Clouds 24 1014 21 10000 1.5 0 11:40 03.10.2019
6637 Clear 24 1014 31 10000 2.1 300 11:22 03.10.2019
6638 Clouds 22 1015 23 10000 2.1 210 10:58 03.10.2019
6639 Clouds 23 1015 23 10000 2.1 210 10:39 03.10.2019
6640 Clouds 21 1015 20 10000 1.5 170 10:18 03.10.2019
6641 Clouds 21 1015 26 10000 2.1 180 09:57 03.10.2019
6642 Clouds 20 1015 26 10000 2.1 180 09:38 03.10.2019
6643 Clear 18 1015 27 10000 1 0 09:19 03.10.2019
6644 Clouds 17 1015 31 10000 1 0 08:43 03.10.2019
6645 Clouds 15 1015 35 10000 1 0 08:25 03.10.2019
6646 Clear 13 1014 40 10000 0.5 0 07:56 03.10.2019
6647 Clear 13 1014 40 10000 0.5 0 07:37 03.10.2019
6648 Clear 13 1014 54 10000 1.67 235.081 07:19 03.10.2019
6649 Clear 11 1014 49 10000 1 0 06:35 03.10.2019
6650 Clear 12 1014 43 10000 0.5 120 05:55 03.10.2019
6651 Clear 12 1014 43 10000 0.5 120 05:37 03.10.2019
6652 Clear 11 1013 49 10000 0.49 257.625 04:48 03.10.2019
6653 Clear 12 1013 49 10000 1 0 04:24 03.10.2019
6654 Clear 14 1013 46 10000 2.6 30 03:19 03.10.2019
6655 Clear 14 1013 46 10000 2.6 30 03:19 03.10.2019
6656 Clear 14 1014 28 10000 2.1 40 02:27 03.10.2019
6657 Clear 14 1014 28 10000 2.6 210 01:41 03.10.2019
6658 Clear 15 1014 37 10000 1.27 357.424 01:20 03.10.2019
6659 Clear 15 1014 37 10000 1.27 357.424 00:41 03.10.2019
6660 Clear 15 1014 40 10000 0.77 50.166 23:58 02.10.2019
6661 Clear 16 1013 25 10000 0.77 50.166 23:38 02.10.2019
6662 Clear 16 1013 25 10000 0.77 50.166 23:38 02.10.2019
6663 Clear 16 1014 25 10000 1 0 23:19 02.10.2019
6664 Clear 16 1014 31 10000 0.5 0 22:42 02.10.2019
6665 Clear 17 1014 31 10000 0.5 0 22:20 02.10.2019
6666 Clear 18 1014 30 10000 2.1 340 21:55 02.10.2019
6667 Clear 17 1014 30 10000 2.1 340 21:37 02.10.2019
6668 Clear 18 1014 23 10000 2.1 70 21:18 02.10.2019
6669 Clear 19 1014 23 10000 1.5 80 20:55 02.10.2019
6670 Clear 19 1014 23 10000 1.5 80 20:55 02.10.2019
6671 Clear 19 1014 23 10000 1.5 80 20:55 02.10.2019
6672 Clear 20 1014 23 10000 1.5 80 20:37 02.10.2019
6673 Clear 20 1014 23 10000 2.1 110 20:19 02.10.2019
6674 Clear 20 1014 22 10000 1.21 21.133 19:45 02.10.2019
6675 Clear 22 1014 21 10000 1.21 21.133 19:23 02.10.2019
6676 Clear 22 1014 21 10000 1.21 21.133 18:59 02.10.2019
6677 Clear 23 1013 21 10000 1.21 21.133 18:40 02.10.2019
6678 Clear 23 1013 20 10000 1.5 290 18:21 02.10.2019
6679 Clear 25 1013 18 10000 3.05 260.04 17:58 02.10.2019
6680 Clear 25 1013 18 10000 3.05 260.04 17:39 02.10.2019
6681 Clear 27 1013 18 10000 2.6 250 17:20 02.10.2019
6682 Clear 28 1012 18 10000 2.6 0 16:57 02.10.2019
6683 Clear 28 1012 18 10000 2.6 0 16:37 02.10.2019
6684 Clear 28 1013 15 10000 3.1 0 16:18 02.10.2019
6685 Clear 29 1013 15 10000 3.1 0 15:55 02.10.2019
6686 Clear 29 1013 17 10000 2.1 0 15:36 02.10.2019
6687 Clear 29 1013 17 10000 2.1 0 15:18 02.10.2019
6688 Clear 28 1013 20 10000 3.1 0 14:43 02.10.2019
6689 Clear 28 1013 20 10000 3.1 0 14:22 02.10.2019
6690 Clear 28 1014 14 10000 4.6 240 13:48 02.10.2019
6691 Clear 28 1014 21 10000 2.6 130 13:29 02.10.2019
6692 Clear 26 1015 22 10000 2.6 360 12:59 02.10.2019
6693 Clear 26 1015 26 10000 2.1 0 12:39 02.10.2019
6694 Clear 26 1015 26 10000 2.1 0 12:21 02.10.2019
6695 Clear 25 1015 23 10000 1 320 11:45 02.10.2019
6696 Clear 25 1015 29 10000 1 0 11:24 02.10.2019
6697 Clear 23 1016 27 10000 2.6 350 10:55 02.10.2019
6698 Clear 23 1016 33 10000 1 0 10:36 02.10.2019
6699 Clear 23 1016 33 10000 1 0 10:18 02.10.2019
6700 Clear 21 1016 37 10000 1.61 137.116 09:39 02.10.2019
6701 Clear 19 1016 37 10000 2.21 55.214 09:20 02.10.2019
6702 Clear 17 1016 37 10000 0.5 0 08:55 02.10.2019
6703 Clear 16 1016 48 10000 2.07 57.024 08:36 02.10.2019
6704 Clear 16 1016 48 10000 2.07 57.024 08:18 02.10.2019
6705 Clear 14 1016 62 10000 2.07 57.024 07:39 02.10.2019
6706 Clear 14 1016 62 10000 2.07 57.024 07:20 02.10.2019
6707 Clear 11 1016 57 10000 1 0 06:46 02.10.2019
6708 Clear 10 1016 50 10000 1.5 60 05:56 02.10.2019
6709 Clear 10 1016 66 10000 2.47 39.276 05:24 02.10.2019
6710 Clear 10 1017 57 10000 0.5 0 04:53 02.10.2019
6711 Clear 11 1016 47 10000 3.6 30 03:52 02.10.2019
6712 Clear 13 1016 57 10000 0.5 220 02:42 02.10.2019
6713 Clear 13 1016 57 10000 0.5 220 02:23 02.10.2019
6714 Clear 14 1016 58 10000 0.5 220 01:40 02.10.2019
6715 Clear 13 1017 47 10000 3.11 33.833 00:50 02.10.2019
6716 Clear 13 1016 54 10000 3.08 25.624 00:26 02.10.2019
6717 Clear 14 1016 47 10000 3.08 25.624 23:43 01.10.2019
6718 Clear 14 1016 47 10000 3.08 25.624 23:25 01.10.2019
6719 Clear 15 1017 38 10000 2.6 20 22:59 01.10.2019
6720 Clear 15 1016 38 10000 3.08 25.624 22:40 01.10.2019
6721 Clear 15 1016 38 10000 3.08 25.624 22:20 01.10.2019
6722 Clear 15 1016 38 10000 3.08 25.624 22:19 01.10.2019
6723 Clear 16 1016 36 10000 0.5 0 21:57 01.10.2019
6724 Clear 16 1016 33 10000 1 0 21:38 01.10.2019
6725 Clear 16 1016 33 10000 1 0 21:19 01.10.2019
6726 Clear 17 1016 33 10000 0.5 330 20:55 01.10.2019
6727 Clear 17 1016 33 10000 0.5 330 20:55 01.10.2019
6728 Clear 18 1015 38 10000 1.5 230 20:37 01.10.2019
6729 Clear 18 1015 38 10000 1.5 230 20:18 01.10.2019
6730 Clear 19 1016 28 10000 2.1 360 19:55 01.10.2019